<?xml version="1.0" encoding="UTF-8" standalone="no" ?>
<gpx xmlns="http://www.topografix.com/GPX/1/1" xmlns:xsi="http://www.w3.org/2001/XMLSchema-instance" xsi:schemaLocation="http://www.topografix.com/GPX/1/1 http://www.topografix.com/GPX/1/1/gpx.xsd" version="1.1" creator="VisuGPX - https://www.visugpx.com">
  <metadata>
    <name>Arête de Tricot (parcours partiel)</name>
  </metadata>
  <trk>
    <name><![CDATA[2019-08-04 21:20:46-Course TT]]></name>
    <trkseg>
      <trkpt lat="45.86831" lon="6.76137">
        <ele>1443.56</ele>
        <time>2019-08-04T10:51:26Z</time>
      </trkpt>
      <trkpt lat="45.86831" lon="6.76138">
        <ele>1396.45</ele>
        <time>2019-08-04T10:51:27Z</time>
      </trkpt>
      <trkpt lat="45.86831" lon="6.76138">
        <ele>1396.45</ele>
        <time>2019-08-04T10:51:28Z</time>
      </trkpt>
      <trkpt lat="45.86828" lon="6.76141">
        <ele>1443.56</ele>
        <time>2019-08-04T10:51:31Z</time>
      </trkpt>
      <trkpt lat="45.86828" lon="6.76141">
        <ele>1443.56</ele>
        <time>2019-08-04T10:51:32Z</time>
      </trkpt>
      <trkpt lat="45.86819" lon="6.76144">
        <ele>1446.44</ele>
        <time>2019-08-04T10:51:47Z</time>
      </trkpt>
      <trkpt lat="45.86813" lon="6.76143">
        <ele>1449.81</ele>
        <time>2019-08-04T10:51:56Z</time>
      </trkpt>
      <trkpt lat="45.86809" lon="6.76169">
        <ele>1452.21</ele>
        <time>2019-08-04T10:52:23Z</time>
      </trkpt>
      <trkpt lat="45.8681" lon="6.76171">
        <ele>1452.69</ele>
        <time>2019-08-04T10:52:24Z</time>
      </trkpt>
      <trkpt lat="45.8681" lon="6.76173">
        <ele>1452.69</ele>
        <time>2019-08-04T10:52:25Z</time>
      </trkpt>
      <trkpt lat="45.86816" lon="6.76207">
        <ele>1454.61</ele>
        <time>2019-08-04T10:52:43Z</time>
      </trkpt>
      <trkpt lat="45.86815" lon="6.76212">
        <ele>1455.09</ele>
        <time>2019-08-04T10:52:45Z</time>
      </trkpt>
      <trkpt lat="45.86816" lon="6.76214">
        <ele>1455.57</ele>
        <time>2019-08-04T10:52:46Z</time>
      </trkpt>
      <trkpt lat="45.86816" lon="6.76216">
        <ele>1455.57</ele>
        <time>2019-08-04T10:52:47Z</time>
      </trkpt>
      <trkpt lat="45.86816" lon="6.76219">
        <ele>1455.57</ele>
        <time>2019-08-04T10:52:48Z</time>
      </trkpt>
      <trkpt lat="45.86817" lon="6.76222">
        <ele>1456.05</ele>
        <time>2019-08-04T10:52:49Z</time>
      </trkpt>
      <trkpt lat="45.86818" lon="6.76225">
        <ele>1456.05</ele>
        <time>2019-08-04T10:52:50Z</time>
      </trkpt>
      <trkpt lat="45.86819" lon="6.76228">
        <ele>1456.05</ele>
        <time>2019-08-04T10:52:51Z</time>
      </trkpt>
      <trkpt lat="45.86819" lon="6.7623">
        <ele>1456.53</ele>
        <time>2019-08-04T10:52:52Z</time>
      </trkpt>
      <trkpt lat="45.8682" lon="6.76232">
        <ele>1457.02</ele>
        <time>2019-08-04T10:52:53Z</time>
      </trkpt>
      <trkpt lat="45.86823" lon="6.76244">
        <ele>1457.98</ele>
        <time>2019-08-04T10:52:59Z</time>
      </trkpt>
      <trkpt lat="45.86824" lon="6.76245">
        <ele>1457.98</ele>
        <time>2019-08-04T10:53:00Z</time>
      </trkpt>
      <trkpt lat="45.86824" lon="6.76247">
        <ele>1457.98</ele>
        <time>2019-08-04T10:53:01Z</time>
      </trkpt>
      <trkpt lat="45.86825" lon="6.76261">
        <ele>1459.9</ele>
        <time>2019-08-04T10:53:07Z</time>
      </trkpt>
      <trkpt lat="45.86826" lon="6.76263">
        <ele>1459.9</ele>
        <time>2019-08-04T10:53:08Z</time>
      </trkpt>
      <trkpt lat="45.86827" lon="6.76265">
        <ele>1460.38</ele>
        <time>2019-08-04T10:53:09Z</time>
      </trkpt>
      <trkpt lat="45.86826" lon="6.76299">
        <ele>1463.26</ele>
        <time>2019-08-04T10:53:22Z</time>
      </trkpt>
      <trkpt lat="45.86826" lon="6.76305">
        <ele>1463.74</ele>
        <time>2019-08-04T10:53:24Z</time>
      </trkpt>
      <trkpt lat="45.86826" lon="6.76307">
        <ele>1463.74</ele>
        <time>2019-08-04T10:53:25Z</time>
      </trkpt>
      <trkpt lat="45.86824" lon="6.76334">
        <ele>1465.67</ele>
        <time>2019-08-04T10:53:59Z</time>
      </trkpt>
      <trkpt lat="45.86821" lon="6.76358">
        <ele>1467.59</ele>
        <time>2019-08-04T10:54:11Z</time>
      </trkpt>
      <trkpt lat="45.8682" lon="6.7636">
        <ele>1468.07</ele>
        <time>2019-08-04T10:54:12Z</time>
      </trkpt>
      <trkpt lat="45.8682" lon="6.76362">
        <ele>1468.07</ele>
        <time>2019-08-04T10:54:13Z</time>
      </trkpt>
      <trkpt lat="45.86819" lon="6.76364">
        <ele>1468.55</ele>
        <time>2019-08-04T10:54:14Z</time>
      </trkpt>
      <trkpt lat="45.86819" lon="6.76367">
        <ele>1469.03</ele>
        <time>2019-08-04T10:54:15Z</time>
      </trkpt>
      <trkpt lat="45.86818" lon="6.76369">
        <ele>1469.03</ele>
        <time>2019-08-04T10:54:16Z</time>
      </trkpt>
      <trkpt lat="45.86814" lon="6.76398">
        <ele>1471.44</ele>
        <time>2019-08-04T10:54:28Z</time>
      </trkpt>
      <trkpt lat="45.86815" lon="6.76426">
        <ele>1472.4</ele>
        <time>2019-08-04T10:54:38Z</time>
      </trkpt>
      <trkpt lat="45.86816" lon="6.7645">
        <ele>1474.8</ele>
        <time>2019-08-04T10:54:48Z</time>
      </trkpt>
      <trkpt lat="45.86816" lon="6.76453">
        <ele>1474.8</ele>
        <time>2019-08-04T10:54:49Z</time>
      </trkpt>
      <trkpt lat="45.86815" lon="6.76465">
        <ele>1476.72</ele>
        <time>2019-08-04T10:54:54Z</time>
      </trkpt>
      <trkpt lat="45.86814" lon="6.76467">
        <ele>1477.2</ele>
        <time>2019-08-04T10:54:55Z</time>
      </trkpt>
      <trkpt lat="45.86814" lon="6.76474">
        <ele>1477.2</ele>
        <time>2019-08-04T10:54:58Z</time>
      </trkpt>
      <trkpt lat="45.86814" lon="6.76475">
        <ele>1477.68</ele>
        <time>2019-08-04T10:54:59Z</time>
      </trkpt>
      <trkpt lat="45.86814" lon="6.76477">
        <ele>1478.16</ele>
        <time>2019-08-04T10:55:00Z</time>
      </trkpt>
      <trkpt lat="45.86813" lon="6.76479">
        <ele>1478.65</ele>
        <time>2019-08-04T10:55:01Z</time>
      </trkpt>
      <trkpt lat="45.86813" lon="6.76481">
        <ele>1478.65</ele>
        <time>2019-08-04T10:55:02Z</time>
      </trkpt>
      <trkpt lat="45.86813" lon="6.76483">
        <ele>1479.13</ele>
        <time>2019-08-04T10:55:03Z</time>
      </trkpt>
      <trkpt lat="45.8681" lon="6.76509">
        <ele>1481.53</ele>
        <time>2019-08-04T10:55:14Z</time>
      </trkpt>
      <trkpt lat="45.86805" lon="6.76535">
        <ele>1484.41</ele>
        <time>2019-08-04T10:55:26Z</time>
      </trkpt>
      <trkpt lat="45.86804" lon="6.76562">
        <ele>1487.78</ele>
        <time>2019-08-04T10:55:39Z</time>
      </trkpt>
      <trkpt lat="45.86805" lon="6.76582">
        <ele>1490.66</ele>
        <time>2019-08-04T10:55:50Z</time>
      </trkpt>
      <trkpt lat="45.86804" lon="6.76594">
        <ele>1492.58</ele>
        <time>2019-08-04T10:55:56Z</time>
      </trkpt>
      <trkpt lat="45.86801" lon="6.76614">
        <ele>1495.95</ele>
        <time>2019-08-04T10:56:07Z</time>
      </trkpt>
      <trkpt lat="45.86804" lon="6.76632">
        <ele>1497.87</ele>
        <time>2019-08-04T10:56:18Z</time>
      </trkpt>
      <trkpt lat="45.86803" lon="6.7664">
        <ele>1498.35</ele>
        <time>2019-08-04T10:56:33Z</time>
      </trkpt>
      <trkpt lat="45.86804" lon="6.76647">
        <ele>1498.83</ele>
        <time>2019-08-04T10:56:47Z</time>
      </trkpt>
      <trkpt lat="45.86804" lon="6.76649">
        <ele>1498.83</ele>
        <time>2019-08-04T10:56:48Z</time>
      </trkpt>
      <trkpt lat="45.86802" lon="6.76651">
        <ele>1498.83</ele>
        <time>2019-08-04T10:56:49Z</time>
      </trkpt>
      <trkpt lat="45.86802" lon="6.76653">
        <ele>1498.83</ele>
        <time>2019-08-04T10:56:50Z</time>
      </trkpt>
      <trkpt lat="45.86802" lon="6.76655">
        <ele>1498.83</ele>
        <time>2019-08-04T10:56:51Z</time>
      </trkpt>
      <trkpt lat="45.86801" lon="6.76658">
        <ele>1499.31</ele>
        <time>2019-08-04T10:56:52Z</time>
      </trkpt>
      <trkpt lat="45.86801" lon="6.76661">
        <ele>1499.31</ele>
        <time>2019-08-04T10:56:53Z</time>
      </trkpt>
      <trkpt lat="45.868" lon="6.76687">
        <ele>1500.76</ele>
        <time>2019-08-04T10:57:03Z</time>
      </trkpt>
      <trkpt lat="45.86802" lon="6.76714">
        <ele>1503.16</ele>
        <time>2019-08-04T10:57:14Z</time>
      </trkpt>
      <trkpt lat="45.868" lon="6.76735">
        <ele>1505.56</ele>
        <time>2019-08-04T10:57:24Z</time>
      </trkpt>
      <trkpt lat="45.868" lon="6.76738">
        <ele>1506.04</ele>
        <time>2019-08-04T10:57:25Z</time>
      </trkpt>
      <trkpt lat="45.868" lon="6.7674">
        <ele>1506.04</ele>
        <time>2019-08-04T10:57:26Z</time>
      </trkpt>
      <trkpt lat="45.868" lon="6.76742">
        <ele>1506.04</ele>
        <time>2019-08-04T10:57:27Z</time>
      </trkpt>
      <trkpt lat="45.86799" lon="6.76744">
        <ele>1506.52</ele>
        <time>2019-08-04T10:57:28Z</time>
      </trkpt>
      <trkpt lat="45.86799" lon="6.76747">
        <ele>1507</ele>
        <time>2019-08-04T10:57:29Z</time>
      </trkpt>
      <trkpt lat="45.86798" lon="6.76749">
        <ele>1507</ele>
        <time>2019-08-04T10:57:30Z</time>
      </trkpt>
      <trkpt lat="45.86797" lon="6.76752">
        <ele>1507</ele>
        <time>2019-08-04T10:57:31Z</time>
      </trkpt>
      <trkpt lat="45.86797" lon="6.76754">
        <ele>1507.48</ele>
        <time>2019-08-04T10:57:32Z</time>
      </trkpt>
      <trkpt lat="45.86794" lon="6.76781">
        <ele>1509.41</ele>
        <time>2019-08-04T10:57:42Z</time>
      </trkpt>
      <trkpt lat="45.86792" lon="6.76808">
        <ele>1511.33</ele>
        <time>2019-08-04T10:57:53Z</time>
      </trkpt>
      <trkpt lat="45.8679" lon="6.7683">
        <ele>1514.21</ele>
        <time>2019-08-04T10:58:04Z</time>
      </trkpt>
      <trkpt lat="45.86787" lon="6.76851">
        <ele>1517.58</ele>
        <time>2019-08-04T10:58:15Z</time>
      </trkpt>
      <trkpt lat="45.86783" lon="6.7687">
        <ele>1520.94</ele>
        <time>2019-08-04T10:58:25Z</time>
      </trkpt>
      <trkpt lat="45.86781" lon="6.76887">
        <ele>1523.83</ele>
        <time>2019-08-04T10:58:35Z</time>
      </trkpt>
      <trkpt lat="45.86781" lon="6.76906">
        <ele>1527.19</ele>
        <time>2019-08-04T10:58:46Z</time>
      </trkpt>
      <trkpt lat="45.86777" lon="6.76929">
        <ele>1530.08</ele>
        <time>2019-08-04T10:58:58Z</time>
      </trkpt>
      <trkpt lat="45.86776" lon="6.76946">
        <ele>1532.48</ele>
        <time>2019-08-04T10:59:08Z</time>
      </trkpt>
      <trkpt lat="45.86778" lon="6.76958">
        <ele>1534.88</ele>
        <time>2019-08-04T10:59:16Z</time>
      </trkpt>
      <trkpt lat="45.86778" lon="6.7696">
        <ele>1535.36</ele>
        <time>2019-08-04T10:59:17Z</time>
      </trkpt>
      <trkpt lat="45.86779" lon="6.76961">
        <ele>1535.84</ele>
        <time>2019-08-04T10:59:18Z</time>
      </trkpt>
      <trkpt lat="45.86779" lon="6.76963">
        <ele>1535.84</ele>
        <time>2019-08-04T10:59:19Z</time>
      </trkpt>
      <trkpt lat="45.86779" lon="6.76965">
        <ele>1536.32</ele>
        <time>2019-08-04T10:59:20Z</time>
      </trkpt>
      <trkpt lat="45.86779" lon="6.76967">
        <ele>1536.8</ele>
        <time>2019-08-04T10:59:21Z</time>
      </trkpt>
      <trkpt lat="45.8678" lon="6.7697">
        <ele>1536.8</ele>
        <time>2019-08-04T10:59:23Z</time>
      </trkpt>
      <trkpt lat="45.86781" lon="6.76971">
        <ele>1536.8</ele>
        <time>2019-08-04T10:59:24Z</time>
      </trkpt>
      <trkpt lat="45.86781" lon="6.76976">
        <ele>1537.77</ele>
        <time>2019-08-04T10:59:27Z</time>
      </trkpt>
      <trkpt lat="45.86781" lon="6.76977">
        <ele>1538.25</ele>
        <time>2019-08-04T10:59:28Z</time>
      </trkpt>
      <trkpt lat="45.86781" lon="6.76978">
        <ele>1538.25</ele>
        <time>2019-08-04T10:59:29Z</time>
      </trkpt>
      <trkpt lat="45.86782" lon="6.7698">
        <ele>1538.73</ele>
        <time>2019-08-04T10:59:30Z</time>
      </trkpt>
      <trkpt lat="45.86782" lon="6.76982">
        <ele>1539.21</ele>
        <time>2019-08-04T10:59:31Z</time>
      </trkpt>
      <trkpt lat="45.86783" lon="6.76983">
        <ele>1539.21</ele>
        <time>2019-08-04T10:59:32Z</time>
      </trkpt>
      <trkpt lat="45.86783" lon="6.76985">
        <ele>1539.21</ele>
        <time>2019-08-04T10:59:33Z</time>
      </trkpt>
      <trkpt lat="45.86784" lon="6.76987">
        <ele>1539.21</ele>
        <time>2019-08-04T10:59:34Z</time>
      </trkpt>
      <trkpt lat="45.86792" lon="6.77009">
        <ele>1542.57</ele>
        <time>2019-08-04T10:59:47Z</time>
      </trkpt>
      <trkpt lat="45.86792" lon="6.77011">
        <ele>1542.57</ele>
        <time>2019-08-04T10:59:48Z</time>
      </trkpt>
      <trkpt lat="45.86792" lon="6.77013">
        <ele>1543.05</ele>
        <time>2019-08-04T10:59:49Z</time>
      </trkpt>
      <trkpt lat="45.86793" lon="6.77014">
        <ele>1543.05</ele>
        <time>2019-08-04T10:59:50Z</time>
      </trkpt>
      <trkpt lat="45.86793" lon="6.77016">
        <ele>1543.53</ele>
        <time>2019-08-04T10:59:51Z</time>
      </trkpt>
      <trkpt lat="45.86793" lon="6.77018">
        <ele>1544.01</ele>
        <time>2019-08-04T10:59:52Z</time>
      </trkpt>
      <trkpt lat="45.86793" lon="6.77019">
        <ele>1544.01</ele>
        <time>2019-08-04T10:59:53Z</time>
      </trkpt>
      <trkpt lat="45.86797" lon="6.77038">
        <ele>1546.9</ele>
        <time>2019-08-04T11:00:06Z</time>
      </trkpt>
      <trkpt lat="45.8681" lon="6.77055">
        <ele>1550.26</ele>
        <time>2019-08-04T11:00:19Z</time>
      </trkpt>
      <trkpt lat="45.86822" lon="6.77083">
        <ele>1551.71</ele>
        <time>2019-08-04T11:00:31Z</time>
      </trkpt>
      <trkpt lat="45.86824" lon="6.77085">
        <ele>1551.71</ele>
        <time>2019-08-04T11:00:32Z</time>
      </trkpt>
      <trkpt lat="45.86825" lon="6.77087">
        <ele>1551.71</ele>
        <time>2019-08-04T11:00:33Z</time>
      </trkpt>
      <trkpt lat="45.86832" lon="6.77112">
        <ele>1552.67</ele>
        <time>2019-08-04T11:00:45Z</time>
      </trkpt>
      <trkpt lat="45.86839" lon="6.77115">
        <ele>1552.67</ele>
        <time>2019-08-04T11:01:28Z</time>
      </trkpt>
      <trkpt lat="45.86846" lon="6.77117">
        <ele>1553.63</ele>
        <time>2019-08-04T11:01:58Z</time>
      </trkpt>
      <trkpt lat="45.86844" lon="6.77117">
        <ele>1553.63</ele>
        <time>2019-08-04T11:02:46Z</time>
      </trkpt>
      <trkpt lat="45.86843" lon="6.77115">
        <ele>1553.63</ele>
        <time>2019-08-04T11:02:49Z</time>
      </trkpt>
      <trkpt lat="45.86843" lon="6.77113">
        <ele>1553.63</ele>
        <time>2019-08-04T11:02:50Z</time>
      </trkpt>
      <trkpt lat="45.86841" lon="6.77117">
        <ele>1553.63</ele>
        <time>2019-08-04T11:02:56Z</time>
      </trkpt>
      <trkpt lat="45.86842" lon="6.77143">
        <ele>1555.55</ele>
        <time>2019-08-04T11:03:10Z</time>
      </trkpt>
      <trkpt lat="45.86842" lon="6.77161">
        <ele>1556.51</ele>
        <time>2019-08-04T11:03:18Z</time>
      </trkpt>
      <trkpt lat="45.86842" lon="6.77164">
        <ele>1556.51</ele>
        <time>2019-08-04T11:03:19Z</time>
      </trkpt>
      <trkpt lat="45.86843" lon="6.77165">
        <ele>1556.99</ele>
        <time>2019-08-04T11:03:20Z</time>
      </trkpt>
      <trkpt lat="45.86843" lon="6.77167">
        <ele>1556.99</ele>
        <time>2019-08-04T11:03:21Z</time>
      </trkpt>
      <trkpt lat="45.86844" lon="6.77169">
        <ele>1556.99</ele>
        <time>2019-08-04T11:03:22Z</time>
      </trkpt>
      <trkpt lat="45.86844" lon="6.77173">
        <ele>1556.99</ele>
        <time>2019-08-04T11:03:24Z</time>
      </trkpt>
      <trkpt lat="45.86844" lon="6.77174">
        <ele>1556.99</ele>
        <time>2019-08-04T11:03:25Z</time>
      </trkpt>
      <trkpt lat="45.86844" lon="6.77176">
        <ele>1556.99</ele>
        <time>2019-08-04T11:03:26Z</time>
      </trkpt>
      <trkpt lat="45.86844" lon="6.77177">
        <ele>1556.99</ele>
        <time>2019-08-04T11:03:27Z</time>
      </trkpt>
      <trkpt lat="45.86844" lon="6.77179">
        <ele>1557.47</ele>
        <time>2019-08-04T11:03:28Z</time>
      </trkpt>
      <trkpt lat="45.86843" lon="6.7718">
        <ele>1557.47</ele>
        <time>2019-08-04T11:03:29Z</time>
      </trkpt>
      <trkpt lat="45.86843" lon="6.77182">
        <ele>1557.47</ele>
        <time>2019-08-04T11:03:30Z</time>
      </trkpt>
      <trkpt lat="45.86843" lon="6.77184">
        <ele>1557.47</ele>
        <time>2019-08-04T11:03:31Z</time>
      </trkpt>
      <trkpt lat="45.86843" lon="6.77186">
        <ele>1557.95</ele>
        <time>2019-08-04T11:03:32Z</time>
      </trkpt>
      <trkpt lat="45.86843" lon="6.77188">
        <ele>1557.95</ele>
        <time>2019-08-04T11:03:33Z</time>
      </trkpt>
      <trkpt lat="45.86846" lon="6.77223">
        <ele>1560.36</ele>
        <time>2019-08-04T11:03:47Z</time>
      </trkpt>
      <trkpt lat="45.86852" lon="6.77254">
        <ele>1562.28</ele>
        <time>2019-08-04T11:03:58Z</time>
      </trkpt>
      <trkpt lat="45.86857" lon="6.77269">
        <ele>1563.72</ele>
        <time>2019-08-04T11:04:04Z</time>
      </trkpt>
      <trkpt lat="45.86859" lon="6.77272">
        <ele>1563.72</ele>
        <time>2019-08-04T11:04:05Z</time>
      </trkpt>
      <trkpt lat="45.86865" lon="6.77282">
        <ele>1564.2</ele>
        <time>2019-08-04T11:04:09Z</time>
      </trkpt>
      <trkpt lat="45.86866" lon="6.77284">
        <ele>1564.68</ele>
        <time>2019-08-04T11:04:10Z</time>
      </trkpt>
      <trkpt lat="45.86867" lon="6.77286">
        <ele>1564.68</ele>
        <time>2019-08-04T11:04:11Z</time>
      </trkpt>
      <trkpt lat="45.86868" lon="6.77287">
        <ele>1565.16</ele>
        <time>2019-08-04T11:04:12Z</time>
      </trkpt>
      <trkpt lat="45.86869" lon="6.77289">
        <ele>1565.16</ele>
        <time>2019-08-04T11:04:13Z</time>
      </trkpt>
      <trkpt lat="45.86871" lon="6.77291">
        <ele>1565.16</ele>
        <time>2019-08-04T11:04:14Z</time>
      </trkpt>
      <trkpt lat="45.86872" lon="6.77293">
        <ele>1565.16</ele>
        <time>2019-08-04T11:04:15Z</time>
      </trkpt>
      <trkpt lat="45.86874" lon="6.77295">
        <ele>1565.16</ele>
        <time>2019-08-04T11:04:16Z</time>
      </trkpt>
      <trkpt lat="45.86877" lon="6.77301">
        <ele>1565.64</ele>
        <time>2019-08-04T11:04:19Z</time>
      </trkpt>
      <trkpt lat="45.86878" lon="6.77304">
        <ele>1565.64</ele>
        <time>2019-08-04T11:04:20Z</time>
      </trkpt>
      <trkpt lat="45.86879" lon="6.77306">
        <ele>1566.12</ele>
        <time>2019-08-04T11:04:21Z</time>
      </trkpt>
      <trkpt lat="45.86879" lon="6.77308">
        <ele>1566.12</ele>
        <time>2019-08-04T11:04:22Z</time>
      </trkpt>
      <trkpt lat="45.8688" lon="6.77311">
        <ele>1566.61</ele>
        <time>2019-08-04T11:04:23Z</time>
      </trkpt>
      <trkpt lat="45.86881" lon="6.77314">
        <ele>1566.61</ele>
        <time>2019-08-04T11:04:24Z</time>
      </trkpt>
      <trkpt lat="45.86887" lon="6.77345">
        <ele>1567.57</ele>
        <time>2019-08-04T11:04:35Z</time>
      </trkpt>
      <trkpt lat="45.86888" lon="6.77349">
        <ele>1567.57</ele>
        <time>2019-08-04T11:04:37Z</time>
      </trkpt>
      <trkpt lat="45.86888" lon="6.77351">
        <ele>1567.57</ele>
        <time>2019-08-04T11:04:38Z</time>
      </trkpt>
      <trkpt lat="45.86888" lon="6.77354">
        <ele>1567.57</ele>
        <time>2019-08-04T11:04:39Z</time>
      </trkpt>
      <trkpt lat="45.86892" lon="6.77383">
        <ele>1569.01</ele>
        <time>2019-08-04T11:04:50Z</time>
      </trkpt>
      <trkpt lat="45.86902" lon="6.77409">
        <ele>1571.41</ele>
        <time>2019-08-04T11:05:01Z</time>
      </trkpt>
      <trkpt lat="45.86899" lon="6.77441">
        <ele>1573.82</ele>
        <time>2019-08-04T11:05:13Z</time>
      </trkpt>
      <trkpt lat="45.869" lon="6.77467">
        <ele>1573.82</ele>
        <time>2019-08-04T11:05:21Z</time>
      </trkpt>
      <trkpt lat="45.86903" lon="6.77497">
        <ele>1572.85</ele>
        <time>2019-08-04T11:05:30Z</time>
      </trkpt>
      <trkpt lat="45.86903" lon="6.77517">
        <ele>1573.33</ele>
        <time>2019-08-04T11:05:36Z</time>
      </trkpt>
      <trkpt lat="45.86904" lon="6.7752">
        <ele>1573.33</ele>
        <time>2019-08-04T11:05:37Z</time>
      </trkpt>
      <trkpt lat="45.86905" lon="6.77523">
        <ele>1573.33</ele>
        <time>2019-08-04T11:05:38Z</time>
      </trkpt>
      <trkpt lat="45.86905" lon="6.77526">
        <ele>1573.33</ele>
        <time>2019-08-04T11:05:39Z</time>
      </trkpt>
      <trkpt lat="45.86905" lon="6.77529">
        <ele>1573.33</ele>
        <time>2019-08-04T11:05:40Z</time>
      </trkpt>
      <trkpt lat="45.86904" lon="6.77557">
        <ele>1575.74</ele>
        <time>2019-08-04T11:05:50Z</time>
      </trkpt>
      <trkpt lat="45.86904" lon="6.77587">
        <ele>1575.74</ele>
        <time>2019-08-04T11:05:59Z</time>
      </trkpt>
      <trkpt lat="45.86901" lon="6.77616">
        <ele>1576.22</ele>
        <time>2019-08-04T11:06:08Z</time>
      </trkpt>
      <trkpt lat="45.86902" lon="6.77645">
        <ele>1576.22</ele>
        <time>2019-08-04T11:06:16Z</time>
      </trkpt>
      <trkpt lat="45.86907" lon="6.77671">
        <ele>1577.18</ele>
        <time>2019-08-04T11:06:26Z</time>
      </trkpt>
      <trkpt lat="45.86907" lon="6.77673">
        <ele>1577.18</ele>
        <time>2019-08-04T11:06:27Z</time>
      </trkpt>
      <trkpt lat="45.86908" lon="6.77675">
        <ele>1577.18</ele>
        <time>2019-08-04T11:06:28Z</time>
      </trkpt>
      <trkpt lat="45.86909" lon="6.77677">
        <ele>1577.66</ele>
        <time>2019-08-04T11:06:29Z</time>
      </trkpt>
      <trkpt lat="45.8691" lon="6.7768">
        <ele>1577.66</ele>
        <time>2019-08-04T11:06:30Z</time>
      </trkpt>
      <trkpt lat="45.86911" lon="6.77682">
        <ele>1578.14</ele>
        <time>2019-08-04T11:06:31Z</time>
      </trkpt>
      <trkpt lat="45.86912" lon="6.77684">
        <ele>1578.14</ele>
        <time>2019-08-04T11:06:32Z</time>
      </trkpt>
      <trkpt lat="45.86912" lon="6.77687">
        <ele>1578.14</ele>
        <time>2019-08-04T11:06:33Z</time>
      </trkpt>
      <trkpt lat="45.86913" lon="6.77689">
        <ele>1578.14</ele>
        <time>2019-08-04T11:06:34Z</time>
      </trkpt>
      <trkpt lat="45.86913" lon="6.77692">
        <ele>1578.62</ele>
        <time>2019-08-04T11:06:35Z</time>
      </trkpt>
      <trkpt lat="45.86914" lon="6.77695">
        <ele>1578.62</ele>
        <time>2019-08-04T11:06:36Z</time>
      </trkpt>
      <trkpt lat="45.86915" lon="6.77698">
        <ele>1578.62</ele>
        <time>2019-08-04T11:06:37Z</time>
      </trkpt>
      <trkpt lat="45.86916" lon="6.77714">
        <ele>1579.58</ele>
        <time>2019-08-04T11:06:43Z</time>
      </trkpt>
      <trkpt lat="45.86916" lon="6.77715">
        <ele>1580.06</ele>
        <time>2019-08-04T11:06:44Z</time>
      </trkpt>
      <trkpt lat="45.86916" lon="6.77717">
        <ele>1580.06</ele>
        <time>2019-08-04T11:06:45Z</time>
      </trkpt>
      <trkpt lat="45.86915" lon="6.77718">
        <ele>1580.54</ele>
        <time>2019-08-04T11:06:46Z</time>
      </trkpt>
      <trkpt lat="45.86915" lon="6.77719">
        <ele>1580.54</ele>
        <time>2019-08-04T11:06:47Z</time>
      </trkpt>
      <trkpt lat="45.86917" lon="6.77723">
        <ele>1579.58</ele>
        <time>2019-08-04T11:07:25Z</time>
      </trkpt>
      <trkpt lat="45.86916" lon="6.77723">
        <ele>1580.06</ele>
        <time>2019-08-04T11:07:42Z</time>
      </trkpt>
      <trkpt lat="45.86918" lon="6.77723">
        <ele>1579.58</ele>
        <time>2019-08-04T11:07:54Z</time>
      </trkpt>
      <trkpt lat="45.86915" lon="6.77731">
        <ele>1580.54</ele>
        <time>2019-08-04T11:08:12Z</time>
      </trkpt>
      <trkpt lat="45.86907" lon="6.77753">
        <ele>1581.03</ele>
        <time>2019-08-04T11:08:29Z</time>
      </trkpt>
      <trkpt lat="45.86906" lon="6.77754">
        <ele>1581.03</ele>
        <time>2019-08-04T11:08:30Z</time>
      </trkpt>
      <trkpt lat="45.86906" lon="6.77755">
        <ele>1581.51</ele>
        <time>2019-08-04T11:08:31Z</time>
      </trkpt>
      <trkpt lat="45.86905" lon="6.77757">
        <ele>1581.51</ele>
        <time>2019-08-04T11:08:32Z</time>
      </trkpt>
      <trkpt lat="45.86905" lon="6.77759">
        <ele>1581.51</ele>
        <time>2019-08-04T11:08:33Z</time>
      </trkpt>
      <trkpt lat="45.86904" lon="6.7776">
        <ele>1581.99</ele>
        <time>2019-08-04T11:08:34Z</time>
      </trkpt>
      <trkpt lat="45.86903" lon="6.77761">
        <ele>1581.99</ele>
        <time>2019-08-04T11:08:35Z</time>
      </trkpt>
      <trkpt lat="45.86903" lon="6.77762">
        <ele>1581.99</ele>
        <time>2019-08-04T11:08:36Z</time>
      </trkpt>
      <trkpt lat="45.86892" lon="6.77785">
        <ele>1582.47</ele>
        <time>2019-08-04T11:08:52Z</time>
      </trkpt>
      <trkpt lat="45.86878" lon="6.77807">
        <ele>1583.43</ele>
        <time>2019-08-04T11:09:07Z</time>
      </trkpt>
      <trkpt lat="45.86869" lon="6.77829">
        <ele>1584.39</ele>
        <time>2019-08-04T11:09:17Z</time>
      </trkpt>
      <trkpt lat="45.86865" lon="6.77856">
        <ele>1586.79</ele>
        <time>2019-08-04T11:09:27Z</time>
      </trkpt>
      <trkpt lat="45.86857" lon="6.77885">
        <ele>1589.2</ele>
        <time>2019-08-04T11:09:37Z</time>
      </trkpt>
      <trkpt lat="45.86849" lon="6.7791">
        <ele>1590.16</ele>
        <time>2019-08-04T11:09:46Z</time>
      </trkpt>
      <trkpt lat="45.86841" lon="6.77936">
        <ele>1592.56</ele>
        <time>2019-08-04T11:09:56Z</time>
      </trkpt>
      <trkpt lat="45.86835" lon="6.77961">
        <ele>1594.48</ele>
        <time>2019-08-04T11:10:06Z</time>
      </trkpt>
      <trkpt lat="45.8683" lon="6.77987">
        <ele>1595.93</ele>
        <time>2019-08-04T11:10:16Z</time>
      </trkpt>
      <trkpt lat="45.86817" lon="6.78006">
        <ele>1597.85</ele>
        <time>2019-08-04T11:10:27Z</time>
      </trkpt>
      <trkpt lat="45.86813" lon="6.78009">
        <ele>1598.33</ele>
        <time>2019-08-04T11:10:29Z</time>
      </trkpt>
      <trkpt lat="45.86805" lon="6.78022">
        <ele>1600.25</ele>
        <time>2019-08-04T11:10:37Z</time>
      </trkpt>
      <trkpt lat="45.86804" lon="6.78024">
        <ele>1600.25</ele>
        <time>2019-08-04T11:10:38Z</time>
      </trkpt>
      <trkpt lat="45.86803" lon="6.78028">
        <ele>1601.21</ele>
        <time>2019-08-04T11:10:40Z</time>
      </trkpt>
      <trkpt lat="45.86802" lon="6.7803">
        <ele>1601.21</ele>
        <time>2019-08-04T11:10:41Z</time>
      </trkpt>
      <trkpt lat="45.86801" lon="6.78032">
        <ele>1601.69</ele>
        <time>2019-08-04T11:10:42Z</time>
      </trkpt>
      <trkpt lat="45.868" lon="6.78033">
        <ele>1601.69</ele>
        <time>2019-08-04T11:10:43Z</time>
      </trkpt>
      <trkpt lat="45.86799" lon="6.78035">
        <ele>1602.17</ele>
        <time>2019-08-04T11:10:44Z</time>
      </trkpt>
      <trkpt lat="45.86798" lon="6.78037">
        <ele>1602.17</ele>
        <time>2019-08-04T11:10:45Z</time>
      </trkpt>
      <trkpt lat="45.86798" lon="6.78039">
        <ele>1602.66</ele>
        <time>2019-08-04T11:10:46Z</time>
      </trkpt>
      <trkpt lat="45.86797" lon="6.7804">
        <ele>1603.14</ele>
        <time>2019-08-04T11:10:47Z</time>
      </trkpt>
      <trkpt lat="45.86797" lon="6.78042">
        <ele>1603.62</ele>
        <time>2019-08-04T11:10:48Z</time>
      </trkpt>
      <trkpt lat="45.86795" lon="6.78045">
        <ele>1604.1</ele>
        <time>2019-08-04T11:10:50Z</time>
      </trkpt>
      <trkpt lat="45.86794" lon="6.78047">
        <ele>1604.1</ele>
        <time>2019-08-04T11:10:51Z</time>
      </trkpt>
      <trkpt lat="45.86793" lon="6.78049">
        <ele>1604.58</ele>
        <time>2019-08-04T11:10:52Z</time>
      </trkpt>
      <trkpt lat="45.86792" lon="6.78051">
        <ele>1604.58</ele>
        <time>2019-08-04T11:10:53Z</time>
      </trkpt>
      <trkpt lat="45.86791" lon="6.78053">
        <ele>1605.06</ele>
        <time>2019-08-04T11:10:54Z</time>
      </trkpt>
      <trkpt lat="45.86783" lon="6.78067">
        <ele>1607.94</ele>
        <time>2019-08-04T11:11:04Z</time>
      </trkpt>
      <trkpt lat="45.86783" lon="6.78068">
        <ele>1608.42</ele>
        <time>2019-08-04T11:11:05Z</time>
      </trkpt>
      <trkpt lat="45.86783" lon="6.78074">
        <ele>1609.38</ele>
        <time>2019-08-04T11:11:08Z</time>
      </trkpt>
      <trkpt lat="45.86782" lon="6.78076">
        <ele>1609.38</ele>
        <time>2019-08-04T11:11:09Z</time>
      </trkpt>
      <trkpt lat="45.86782" lon="6.78078">
        <ele>1609.86</ele>
        <time>2019-08-04T11:11:10Z</time>
      </trkpt>
      <trkpt lat="45.86781" lon="6.78079">
        <ele>1610.35</ele>
        <time>2019-08-04T11:11:11Z</time>
      </trkpt>
      <trkpt lat="45.86781" lon="6.78081">
        <ele>1610.35</ele>
        <time>2019-08-04T11:11:12Z</time>
      </trkpt>
      <trkpt lat="45.8678" lon="6.78083">
        <ele>1610.83</ele>
        <time>2019-08-04T11:11:13Z</time>
      </trkpt>
      <trkpt lat="45.86779" lon="6.78084">
        <ele>1610.83</ele>
        <time>2019-08-04T11:11:14Z</time>
      </trkpt>
      <trkpt lat="45.86778" lon="6.78086">
        <ele>1611.31</ele>
        <time>2019-08-04T11:11:15Z</time>
      </trkpt>
      <trkpt lat="45.86777" lon="6.78088">
        <ele>1611.79</ele>
        <time>2019-08-04T11:11:16Z</time>
      </trkpt>
      <trkpt lat="45.86777" lon="6.78088">
        <ele>1612.27</ele>
        <time>2019-08-04T11:11:17Z</time>
      </trkpt>
      <trkpt lat="45.86776" lon="6.78089">
        <ele>1612.75</ele>
        <time>2019-08-04T11:11:18Z</time>
      </trkpt>
      <trkpt lat="45.86775" lon="6.7809">
        <ele>1612.75</ele>
        <time>2019-08-04T11:11:19Z</time>
      </trkpt>
      <trkpt lat="45.86774" lon="6.78091">
        <ele>1613.23</ele>
        <time>2019-08-04T11:11:20Z</time>
      </trkpt>
      <trkpt lat="45.86773" lon="6.78092">
        <ele>1613.71</ele>
        <time>2019-08-04T11:11:21Z</time>
      </trkpt>
      <trkpt lat="45.86772" lon="6.78093">
        <ele>1614.19</ele>
        <time>2019-08-04T11:11:22Z</time>
      </trkpt>
      <trkpt lat="45.86771" lon="6.78095">
        <ele>1614.19</ele>
        <time>2019-08-04T11:11:23Z</time>
      </trkpt>
      <trkpt lat="45.86768" lon="6.78114">
        <ele>1617.56</ele>
        <time>2019-08-04T11:11:33Z</time>
      </trkpt>
      <trkpt lat="45.86767" lon="6.78127">
        <ele>1620.44</ele>
        <time>2019-08-04T11:11:42Z</time>
      </trkpt>
      <trkpt lat="45.86769" lon="6.78137">
        <ele>1622.36</ele>
        <time>2019-08-04T11:11:51Z</time>
      </trkpt>
      <trkpt lat="45.86769" lon="6.78138">
        <ele>1622.36</ele>
        <time>2019-08-04T11:11:52Z</time>
      </trkpt>
      <trkpt lat="45.86771" lon="6.7814">
        <ele>1622.36</ele>
        <time>2019-08-04T11:11:53Z</time>
      </trkpt>
      <trkpt lat="45.86771" lon="6.78153">
        <ele>1625.25</ele>
        <time>2019-08-04T11:13:16Z</time>
      </trkpt>
      <trkpt lat="45.86775" lon="6.78162">
        <ele>1628.13</ele>
        <time>2019-08-04T11:13:26Z</time>
      </trkpt>
      <trkpt lat="45.86777" lon="6.7817">
        <ele>1631.49</ele>
        <time>2019-08-04T11:13:36Z</time>
      </trkpt>
      <trkpt lat="45.86777" lon="6.78176">
        <ele>1632.94</ele>
        <time>2019-08-04T11:13:41Z</time>
      </trkpt>
      <trkpt lat="45.8678" lon="6.78186">
        <ele>1635.82</ele>
        <time>2019-08-04T11:13:52Z</time>
      </trkpt>
      <trkpt lat="45.86783" lon="6.78195">
        <ele>1639.19</ele>
        <time>2019-08-04T11:14:04Z</time>
      </trkpt>
      <trkpt lat="45.86784" lon="6.78206">
        <ele>1642.55</ele>
        <time>2019-08-04T11:14:15Z</time>
      </trkpt>
      <trkpt lat="45.86775" lon="6.7823">
        <ele>1645.43</ele>
        <time>2019-08-04T11:14:28Z</time>
      </trkpt>
      <trkpt lat="45.86773" lon="6.78232">
        <ele>1645.91</ele>
        <time>2019-08-04T11:14:30Z</time>
      </trkpt>
      <trkpt lat="45.86772" lon="6.78233">
        <ele>1646.4</ele>
        <time>2019-08-04T11:14:31Z</time>
      </trkpt>
      <trkpt lat="45.86771" lon="6.78233">
        <ele>1646.4</ele>
        <time>2019-08-04T11:14:32Z</time>
      </trkpt>
      <trkpt lat="45.8677" lon="6.78234">
        <ele>1646.88</ele>
        <time>2019-08-04T11:14:33Z</time>
      </trkpt>
      <trkpt lat="45.86769" lon="6.78234">
        <ele>1646.88</ele>
        <time>2019-08-04T11:14:34Z</time>
      </trkpt>
      <trkpt lat="45.86768" lon="6.78235">
        <ele>1647.36</ele>
        <time>2019-08-04T11:14:35Z</time>
      </trkpt>
      <trkpt lat="45.86768" lon="6.78237">
        <ele>1647.36</ele>
        <time>2019-08-04T11:14:36Z</time>
      </trkpt>
      <trkpt lat="45.86767" lon="6.78238">
        <ele>1647.84</ele>
        <time>2019-08-04T11:14:37Z</time>
      </trkpt>
      <trkpt lat="45.86766" lon="6.7824">
        <ele>1647.84</ele>
        <time>2019-08-04T11:14:38Z</time>
      </trkpt>
      <trkpt lat="45.86765" lon="6.78241">
        <ele>1648.32</ele>
        <time>2019-08-04T11:14:39Z</time>
      </trkpt>
      <trkpt lat="45.86764" lon="6.78242">
        <ele>1648.8</ele>
        <time>2019-08-04T11:14:40Z</time>
      </trkpt>
      <trkpt lat="45.86763" lon="6.78244">
        <ele>1648.8</ele>
        <time>2019-08-04T11:14:41Z</time>
      </trkpt>
      <trkpt lat="45.86762" lon="6.78245">
        <ele>1648.8</ele>
        <time>2019-08-04T11:14:42Z</time>
      </trkpt>
      <trkpt lat="45.86761" lon="6.78246">
        <ele>1648.8</ele>
        <time>2019-08-04T11:14:43Z</time>
      </trkpt>
      <trkpt lat="45.8676" lon="6.78248">
        <ele>1649.28</ele>
        <time>2019-08-04T11:14:44Z</time>
      </trkpt>
      <trkpt lat="45.86759" lon="6.7825">
        <ele>1649.76</ele>
        <time>2019-08-04T11:14:45Z</time>
      </trkpt>
      <trkpt lat="45.86758" lon="6.78252">
        <ele>1650.24</ele>
        <time>2019-08-04T11:14:46Z</time>
      </trkpt>
      <trkpt lat="45.8675" lon="6.78276">
        <ele>1653.12</ele>
        <time>2019-08-04T11:14:59Z</time>
      </trkpt>
      <trkpt lat="45.86749" lon="6.78283">
        <ele>1653.6</ele>
        <time>2019-08-04T11:15:03Z</time>
      </trkpt>
      <trkpt lat="45.86749" lon="6.78284">
        <ele>1654.09</ele>
        <time>2019-08-04T11:15:04Z</time>
      </trkpt>
      <trkpt lat="45.86749" lon="6.78287">
        <ele>1654.09</ele>
        <time>2019-08-04T11:15:05Z</time>
      </trkpt>
      <trkpt lat="45.86749" lon="6.78289">
        <ele>1654.57</ele>
        <time>2019-08-04T11:15:06Z</time>
      </trkpt>
      <trkpt lat="45.86749" lon="6.7829">
        <ele>1654.57</ele>
        <time>2019-08-04T11:15:07Z</time>
      </trkpt>
      <trkpt lat="45.86749" lon="6.78293">
        <ele>1654.57</ele>
        <time>2019-08-04T11:15:08Z</time>
      </trkpt>
      <trkpt lat="45.86743" lon="6.78318">
        <ele>1657.93</ele>
        <time>2019-08-04T11:15:20Z</time>
      </trkpt>
      <trkpt lat="45.86742" lon="6.78321">
        <ele>1657.93</ele>
        <time>2019-08-04T11:15:21Z</time>
      </trkpt>
      <trkpt lat="45.86742" lon="6.78324">
        <ele>1658.41</ele>
        <time>2019-08-04T11:15:22Z</time>
      </trkpt>
      <trkpt lat="45.86741" lon="6.78326">
        <ele>1658.89</ele>
        <time>2019-08-04T11:15:23Z</time>
      </trkpt>
      <trkpt lat="45.86739" lon="6.78327">
        <ele>1659.37</ele>
        <time>2019-08-04T11:15:24Z</time>
      </trkpt>
      <trkpt lat="45.86738" lon="6.78328">
        <ele>1659.37</ele>
        <time>2019-08-04T11:15:25Z</time>
      </trkpt>
      <trkpt lat="45.86736" lon="6.78328">
        <ele>1659.85</ele>
        <time>2019-08-04T11:15:26Z</time>
      </trkpt>
      <trkpt lat="45.86735" lon="6.78329">
        <ele>1660.33</ele>
        <time>2019-08-04T11:15:27Z</time>
      </trkpt>
      <trkpt lat="45.86734" lon="6.78328">
        <ele>1660.33</ele>
        <time>2019-08-04T11:15:28Z</time>
      </trkpt>
      <trkpt lat="45.86732" lon="6.78328">
        <ele>1660.81</ele>
        <time>2019-08-04T11:15:29Z</time>
      </trkpt>
      <trkpt lat="45.86731" lon="6.78328">
        <ele>1660.81</ele>
        <time>2019-08-04T11:15:30Z</time>
      </trkpt>
      <trkpt lat="45.86721" lon="6.78325">
        <ele>1663.22</ele>
        <time>2019-08-04T11:15:38Z</time>
      </trkpt>
      <trkpt lat="45.86718" lon="6.78326">
        <ele>1664.18</ele>
        <time>2019-08-04T11:15:41Z</time>
      </trkpt>
      <trkpt lat="45.86716" lon="6.78325">
        <ele>1664.18</ele>
        <time>2019-08-04T11:15:42Z</time>
      </trkpt>
      <trkpt lat="45.86715" lon="6.78324">
        <ele>1664.66</ele>
        <time>2019-08-04T11:15:43Z</time>
      </trkpt>
      <trkpt lat="45.86714" lon="6.78324">
        <ele>1665.14</ele>
        <time>2019-08-04T11:15:44Z</time>
      </trkpt>
      <trkpt lat="45.86699" lon="6.78328">
        <ele>1668.02</ele>
        <time>2019-08-04T11:15:57Z</time>
      </trkpt>
      <trkpt lat="45.8669" lon="6.78328">
        <ele>1669.95</ele>
        <time>2019-08-04T11:16:04Z</time>
      </trkpt>
      <trkpt lat="45.86689" lon="6.78329">
        <ele>1670.43</ele>
        <time>2019-08-04T11:16:05Z</time>
      </trkpt>
      <trkpt lat="45.86688" lon="6.7833">
        <ele>1670.43</ele>
        <time>2019-08-04T11:16:06Z</time>
      </trkpt>
      <trkpt lat="45.86687" lon="6.78331">
        <ele>1670.43</ele>
        <time>2019-08-04T11:16:07Z</time>
      </trkpt>
      <trkpt lat="45.86686" lon="6.78332">
        <ele>1670.91</ele>
        <time>2019-08-04T11:16:08Z</time>
      </trkpt>
      <trkpt lat="45.86678" lon="6.78339">
        <ele>1673.79</ele>
        <time>2019-08-04T11:16:18Z</time>
      </trkpt>
      <trkpt lat="45.86666" lon="6.78346">
        <ele>1677.64</ele>
        <time>2019-08-04T11:16:29Z</time>
      </trkpt>
      <trkpt lat="45.86655" lon="6.7835">
        <ele>1681</ele>
        <time>2019-08-04T11:16:38Z</time>
      </trkpt>
      <trkpt lat="45.86654" lon="6.78353">
        <ele>1681.48</ele>
        <time>2019-08-04T11:16:40Z</time>
      </trkpt>
      <trkpt lat="45.86653" lon="6.78354">
        <ele>1681.96</ele>
        <time>2019-08-04T11:16:41Z</time>
      </trkpt>
      <trkpt lat="45.86649" lon="6.78358">
        <ele>1683.41</ele>
        <time>2019-08-04T11:16:46Z</time>
      </trkpt>
      <trkpt lat="45.8665" lon="6.78362">
        <ele>1685.81</ele>
        <time>2019-08-04T11:16:51Z</time>
      </trkpt>
      <trkpt lat="45.86662" lon="6.78366">
        <ele>1688.69</ele>
        <time>2019-08-04T11:17:02Z</time>
      </trkpt>
      <trkpt lat="45.86674" lon="6.7837">
        <ele>1691.58</ele>
        <time>2019-08-04T11:17:13Z</time>
      </trkpt>
      <trkpt lat="45.86676" lon="6.78371">
        <ele>1692.06</ele>
        <time>2019-08-04T11:17:14Z</time>
      </trkpt>
      <trkpt lat="45.86691" lon="6.78373">
        <ele>1695.42</ele>
        <time>2019-08-04T11:17:26Z</time>
      </trkpt>
      <trkpt lat="45.86705" lon="6.78372">
        <ele>1697.83</ele>
        <time>2019-08-04T11:17:35Z</time>
      </trkpt>
      <trkpt lat="45.86706" lon="6.78373">
        <ele>1698.31</ele>
        <time>2019-08-04T11:17:36Z</time>
      </trkpt>
      <trkpt lat="45.86707" lon="6.78374">
        <ele>1698.79</ele>
        <time>2019-08-04T11:17:37Z</time>
      </trkpt>
      <trkpt lat="45.86708" lon="6.78382">
        <ele>1701.67</ele>
        <time>2019-08-04T11:17:48Z</time>
      </trkpt>
      <trkpt lat="45.86699" lon="6.78387">
        <ele>1704.55</ele>
        <time>2019-08-04T11:18:03Z</time>
      </trkpt>
      <trkpt lat="45.867" lon="6.78391">
        <ele>1707.92</ele>
        <time>2019-08-04T11:18:17Z</time>
      </trkpt>
      <trkpt lat="45.86707" lon="6.78397">
        <ele>1710.8</ele>
        <time>2019-08-04T11:18:30Z</time>
      </trkpt>
      <trkpt lat="45.86716" lon="6.78402">
        <ele>1714.17</ele>
        <time>2019-08-04T11:18:45Z</time>
      </trkpt>
      <trkpt lat="45.86712" lon="6.78412">
        <ele>1717.53</ele>
        <time>2019-08-04T11:18:59Z</time>
      </trkpt>
      <trkpt lat="45.86703" lon="6.78418">
        <ele>1720.42</ele>
        <time>2019-08-04T11:19:11Z</time>
      </trkpt>
      <trkpt lat="45.86697" lon="6.78419">
        <ele>1721.38</ele>
        <time>2019-08-04T11:19:17Z</time>
      </trkpt>
      <trkpt lat="45.86685" lon="6.78424">
        <ele>1724.74</ele>
        <time>2019-08-04T11:19:28Z</time>
      </trkpt>
      <trkpt lat="45.86674" lon="6.78429">
        <ele>1727.63</ele>
        <time>2019-08-04T11:19:38Z</time>
      </trkpt>
      <trkpt lat="45.86669" lon="6.78431">
        <ele>1730.99</ele>
        <time>2019-08-04T11:19:43Z</time>
      </trkpt>
      <trkpt lat="45.86662" lon="6.78437">
        <ele>1734.36</ele>
        <time>2019-08-04T11:19:50Z</time>
      </trkpt>
      <trkpt lat="45.86656" lon="6.78442">
        <ele>1736.76</ele>
        <time>2019-08-04T11:19:57Z</time>
      </trkpt>
      <trkpt lat="45.86655" lon="6.78447">
        <ele>1738.68</ele>
        <time>2019-08-04T11:20:02Z</time>
      </trkpt>
      <trkpt lat="45.86654" lon="6.7845">
        <ele>1739.64</ele>
        <time>2019-08-04T11:20:04Z</time>
      </trkpt>
      <trkpt lat="45.86653" lon="6.78452">
        <ele>1740.12</ele>
        <time>2019-08-04T11:20:05Z</time>
      </trkpt>
      <trkpt lat="45.86654" lon="6.78455">
        <ele>1741.08</ele>
        <time>2019-08-04T11:20:08Z</time>
      </trkpt>
      <trkpt lat="45.86658" lon="6.78459">
        <ele>1743.01</ele>
        <time>2019-08-04T11:20:14Z</time>
      </trkpt>
      <trkpt lat="45.86659" lon="6.7846">
        <ele>1743.49</ele>
        <time>2019-08-04T11:20:15Z</time>
      </trkpt>
      <trkpt lat="45.8666" lon="6.7846">
        <ele>1743.97</ele>
        <time>2019-08-04T11:20:16Z</time>
      </trkpt>
      <trkpt lat="45.86661" lon="6.78461">
        <ele>1743.97</ele>
        <time>2019-08-04T11:20:17Z</time>
      </trkpt>
      <trkpt lat="45.86662" lon="6.78462">
        <ele>1744.45</ele>
        <time>2019-08-04T11:20:18Z</time>
      </trkpt>
      <trkpt lat="45.86662" lon="6.78463">
        <ele>1744.93</ele>
        <time>2019-08-04T11:20:19Z</time>
      </trkpt>
      <trkpt lat="45.86663" lon="6.78464">
        <ele>1744.93</ele>
        <time>2019-08-04T11:20:20Z</time>
      </trkpt>
      <trkpt lat="45.86663" lon="6.78465">
        <ele>1745.41</ele>
        <time>2019-08-04T11:20:21Z</time>
      </trkpt>
      <trkpt lat="45.86663" lon="6.78466">
        <ele>1745.41</ele>
        <time>2019-08-04T11:20:22Z</time>
      </trkpt>
      <trkpt lat="45.86662" lon="6.78468">
        <ele>1745.89</ele>
        <time>2019-08-04T11:20:23Z</time>
      </trkpt>
      <trkpt lat="45.86662" lon="6.78468">
        <ele>1746.37</ele>
        <time>2019-08-04T11:20:24Z</time>
      </trkpt>
      <trkpt lat="45.86653" lon="6.7847">
        <ele>1749.74</ele>
        <time>2019-08-04T11:20:34Z</time>
      </trkpt>
      <trkpt lat="45.86641" lon="6.78478">
        <ele>1752.62</ele>
        <time>2019-08-04T11:20:47Z</time>
      </trkpt>
      <trkpt lat="45.86633" lon="6.78482">
        <ele>1755.99</ele>
        <time>2019-08-04T11:20:59Z</time>
      </trkpt>
      <trkpt lat="45.8663" lon="6.78489">
        <ele>1758.39</ele>
        <time>2019-08-04T11:21:10Z</time>
      </trkpt>
      <trkpt lat="45.86633" lon="6.78494">
        <ele>1761.27</ele>
        <time>2019-08-04T11:21:24Z</time>
      </trkpt>
      <trkpt lat="45.86644" lon="6.78496">
        <ele>1764.16</ele>
        <time>2019-08-04T11:21:38Z</time>
      </trkpt>
      <trkpt lat="45.86646" lon="6.78502">
        <ele>1766.08</ele>
        <time>2019-08-04T11:21:48Z</time>
      </trkpt>
      <trkpt lat="45.8664" lon="6.78508">
        <ele>1769.44</ele>
        <time>2019-08-04T11:22:00Z</time>
      </trkpt>
      <trkpt lat="45.86628" lon="6.78513">
        <ele>1771.85</ele>
        <time>2019-08-04T11:22:37Z</time>
      </trkpt>
      <trkpt lat="45.86628" lon="6.78511">
        <ele>1772.33</ele>
        <time>2019-08-04T11:23:02Z</time>
      </trkpt>
      <trkpt lat="45.86626" lon="6.78515">
        <ele>1772.33</ele>
        <time>2019-08-04T11:24:00Z</time>
      </trkpt>
      <trkpt lat="45.86625" lon="6.78514">
        <ele>1771.85</ele>
        <time>2019-08-04T11:25:22Z</time>
      </trkpt>
      <trkpt lat="45.86622" lon="6.78515">
        <ele>1773.77</ele>
        <time>2019-08-04T11:26:20Z</time>
      </trkpt>
      <trkpt lat="45.86619" lon="6.78517">
        <ele>1774.25</ele>
        <time>2019-08-04T11:26:22Z</time>
      </trkpt>
      <trkpt lat="45.86618" lon="6.78517">
        <ele>1774.25</ele>
        <time>2019-08-04T11:26:23Z</time>
      </trkpt>
      <trkpt lat="45.86617" lon="6.78517">
        <ele>1774.25</ele>
        <time>2019-08-04T11:26:24Z</time>
      </trkpt>
      <trkpt lat="45.86615" lon="6.78517">
        <ele>1774.25</ele>
        <time>2019-08-04T11:26:25Z</time>
      </trkpt>
      <trkpt lat="45.86614" lon="6.78517">
        <ele>1774.25</ele>
        <time>2019-08-04T11:26:26Z</time>
      </trkpt>
      <trkpt lat="45.86611" lon="6.78517">
        <ele>1774.73</ele>
        <time>2019-08-04T11:26:27Z</time>
      </trkpt>
      <trkpt lat="45.86592" lon="6.78521">
        <ele>1776.65</ele>
        <time>2019-08-04T11:26:38Z</time>
      </trkpt>
      <trkpt lat="45.8659" lon="6.7852">
        <ele>1777.13</ele>
        <time>2019-08-04T11:26:39Z</time>
      </trkpt>
      <trkpt lat="45.86576" lon="6.78521">
        <ele>1777.13</ele>
        <time>2019-08-04T11:26:46Z</time>
      </trkpt>
      <trkpt lat="45.86575" lon="6.78524">
        <ele>1777.61</ele>
        <time>2019-08-04T11:26:47Z</time>
      </trkpt>
      <trkpt lat="45.86574" lon="6.78527">
        <ele>1777.61</ele>
        <time>2019-08-04T11:26:48Z</time>
      </trkpt>
      <trkpt lat="45.86569" lon="6.78558">
        <ele>1776.17</ele>
        <time>2019-08-04T11:26:57Z</time>
      </trkpt>
      <trkpt lat="45.86569" lon="6.78563">
        <ele>1776.17</ele>
        <time>2019-08-04T11:27:00Z</time>
      </trkpt>
      <trkpt lat="45.86571" lon="6.7857">
        <ele>1774.73</ele>
        <time>2019-08-04T11:27:19Z</time>
      </trkpt>
      <trkpt lat="45.86561" lon="6.78597">
        <ele>1773.29</ele>
        <time>2019-08-04T11:27:30Z</time>
      </trkpt>
      <trkpt lat="45.86551" lon="6.78624">
        <ele>1775.21</ele>
        <time>2019-08-04T11:27:38Z</time>
      </trkpt>
      <trkpt lat="45.86545" lon="6.78632">
        <ele>1776.17</ele>
        <time>2019-08-04T11:27:43Z</time>
      </trkpt>
      <trkpt lat="45.86544" lon="6.78633">
        <ele>1776.17</ele>
        <time>2019-08-04T11:27:44Z</time>
      </trkpt>
      <trkpt lat="45.86543" lon="6.78634">
        <ele>1776.65</ele>
        <time>2019-08-04T11:27:45Z</time>
      </trkpt>
      <trkpt lat="45.86542" lon="6.78635">
        <ele>1776.65</ele>
        <time>2019-08-04T11:27:46Z</time>
      </trkpt>
      <trkpt lat="45.8654" lon="6.78636">
        <ele>1777.13</ele>
        <time>2019-08-04T11:27:47Z</time>
      </trkpt>
      <trkpt lat="45.86539" lon="6.78638">
        <ele>1777.61</ele>
        <time>2019-08-04T11:27:48Z</time>
      </trkpt>
      <trkpt lat="45.86532" lon="6.78648">
        <ele>1778.58</ele>
        <time>2019-08-04T11:27:53Z</time>
      </trkpt>
      <trkpt lat="45.86531" lon="6.7865">
        <ele>1778.58</ele>
        <time>2019-08-04T11:27:54Z</time>
      </trkpt>
      <trkpt lat="45.86529" lon="6.78652">
        <ele>1779.06</ele>
        <time>2019-08-04T11:27:55Z</time>
      </trkpt>
      <trkpt lat="45.86528" lon="6.78653">
        <ele>1779.06</ele>
        <time>2019-08-04T11:27:56Z</time>
      </trkpt>
      <trkpt lat="45.86527" lon="6.78654">
        <ele>1779.54</ele>
        <time>2019-08-04T11:27:57Z</time>
      </trkpt>
      <trkpt lat="45.86527" lon="6.78656">
        <ele>1779.54</ele>
        <time>2019-08-04T11:27:58Z</time>
      </trkpt>
      <trkpt lat="45.86527" lon="6.78658">
        <ele>1780.02</ele>
        <time>2019-08-04T11:27:59Z</time>
      </trkpt>
      <trkpt lat="45.86526" lon="6.78661">
        <ele>1780.02</ele>
        <time>2019-08-04T11:28:00Z</time>
      </trkpt>
      <trkpt lat="45.86525" lon="6.78663">
        <ele>1780.5</ele>
        <time>2019-08-04T11:28:01Z</time>
      </trkpt>
      <trkpt lat="45.86523" lon="6.78683">
        <ele>1782.9</ele>
        <time>2019-08-04T11:28:09Z</time>
      </trkpt>
      <trkpt lat="45.86522" lon="6.78687">
        <ele>1783.38</ele>
        <time>2019-08-04T11:28:11Z</time>
      </trkpt>
      <trkpt lat="45.86523" lon="6.7869">
        <ele>1783.86</ele>
        <time>2019-08-04T11:28:12Z</time>
      </trkpt>
      <trkpt lat="45.86523" lon="6.78692">
        <ele>1784.34</ele>
        <time>2019-08-04T11:28:13Z</time>
      </trkpt>
      <trkpt lat="45.86523" lon="6.78694">
        <ele>1784.34</ele>
        <time>2019-08-04T11:28:14Z</time>
      </trkpt>
      <trkpt lat="45.86523" lon="6.78697">
        <ele>1784.82</ele>
        <time>2019-08-04T11:28:15Z</time>
      </trkpt>
      <trkpt lat="45.86522" lon="6.787">
        <ele>1784.82</ele>
        <time>2019-08-04T11:28:16Z</time>
      </trkpt>
      <trkpt lat="45.86521" lon="6.78703">
        <ele>1784.82</ele>
        <time>2019-08-04T11:28:17Z</time>
      </trkpt>
      <trkpt lat="45.8652" lon="6.78706">
        <ele>1785.31</ele>
        <time>2019-08-04T11:28:18Z</time>
      </trkpt>
      <trkpt lat="45.86519" lon="6.78708">
        <ele>1785.31</ele>
        <time>2019-08-04T11:28:19Z</time>
      </trkpt>
      <trkpt lat="45.86519" lon="6.78713">
        <ele>1785.79</ele>
        <time>2019-08-04T11:28:21Z</time>
      </trkpt>
      <trkpt lat="45.86519" lon="6.78717">
        <ele>1785.79</ele>
        <time>2019-08-04T11:28:22Z</time>
      </trkpt>
      <trkpt lat="45.86518" lon="6.78719">
        <ele>1785.79</ele>
        <time>2019-08-04T11:28:23Z</time>
      </trkpt>
      <trkpt lat="45.86517" lon="6.78722">
        <ele>1785.79</ele>
        <time>2019-08-04T11:28:24Z</time>
      </trkpt>
      <trkpt lat="45.86516" lon="6.78724">
        <ele>1786.27</ele>
        <time>2019-08-04T11:28:25Z</time>
      </trkpt>
      <trkpt lat="45.86514" lon="6.78727">
        <ele>1786.27</ele>
        <time>2019-08-04T11:28:26Z</time>
      </trkpt>
      <trkpt lat="45.86513" lon="6.7873">
        <ele>1786.27</ele>
        <time>2019-08-04T11:28:27Z</time>
      </trkpt>
      <trkpt lat="45.865" lon="6.78753">
        <ele>1786.75</ele>
        <time>2019-08-04T11:28:37Z</time>
      </trkpt>
      <trkpt lat="45.86495" lon="6.78763">
        <ele>1787.23</ele>
        <time>2019-08-04T11:28:42Z</time>
      </trkpt>
      <trkpt lat="45.86495" lon="6.78761">
        <ele>1786.75</ele>
        <time>2019-08-04T11:29:19Z</time>
      </trkpt>
      <trkpt lat="45.86495" lon="6.78762">
        <ele>1787.23</ele>
        <time>2019-08-04T11:29:34Z</time>
      </trkpt>
      <trkpt lat="45.86491" lon="6.78761">
        <ele>1787.23</ele>
        <time>2019-08-04T11:30:21Z</time>
      </trkpt>
      <trkpt lat="45.86488" lon="6.78758">
        <ele>1787.71</ele>
        <time>2019-08-04T11:30:39Z</time>
      </trkpt>
      <trkpt lat="45.86484" lon="6.78758">
        <ele>1788.19</ele>
        <time>2019-08-04T11:30:42Z</time>
      </trkpt>
      <trkpt lat="45.86484" lon="6.78757">
        <ele>1788.19</ele>
        <time>2019-08-04T11:30:43Z</time>
      </trkpt>
      <trkpt lat="45.86483" lon="6.78757">
        <ele>1788.19</ele>
        <time>2019-08-04T11:30:44Z</time>
      </trkpt>
      <trkpt lat="45.86482" lon="6.78755">
        <ele>1787.71</ele>
        <time>2019-08-04T11:30:45Z</time>
      </trkpt>
      <trkpt lat="45.86481" lon="6.78754">
        <ele>1787.71</ele>
        <time>2019-08-04T11:30:46Z</time>
      </trkpt>
      <trkpt lat="45.86481" lon="6.78752">
        <ele>1787.71</ele>
        <time>2019-08-04T11:30:47Z</time>
      </trkpt>
      <trkpt lat="45.8648" lon="6.78751">
        <ele>1788.19</ele>
        <time>2019-08-04T11:30:48Z</time>
      </trkpt>
      <trkpt lat="45.86475" lon="6.78747">
        <ele>1788.19</ele>
        <time>2019-08-04T11:30:53Z</time>
      </trkpt>
      <trkpt lat="45.86474" lon="6.78745">
        <ele>1788.19</ele>
        <time>2019-08-04T11:30:54Z</time>
      </trkpt>
      <trkpt lat="45.86473" lon="6.78744">
        <ele>1788.19</ele>
        <time>2019-08-04T11:30:55Z</time>
      </trkpt>
      <trkpt lat="45.86472" lon="6.78742">
        <ele>1788.67</ele>
        <time>2019-08-04T11:30:56Z</time>
      </trkpt>
      <trkpt lat="45.8647" lon="6.78741">
        <ele>1788.67</ele>
        <time>2019-08-04T11:30:57Z</time>
      </trkpt>
      <trkpt lat="45.86469" lon="6.78739">
        <ele>1789.15</ele>
        <time>2019-08-04T11:30:58Z</time>
      </trkpt>
      <trkpt lat="45.86457" lon="6.7873">
        <ele>1790.11</ele>
        <time>2019-08-04T11:31:04Z</time>
      </trkpt>
      <trkpt lat="45.86456" lon="6.78728">
        <ele>1790.11</ele>
        <time>2019-08-04T11:31:05Z</time>
      </trkpt>
      <trkpt lat="45.86454" lon="6.78727">
        <ele>1790.59</ele>
        <time>2019-08-04T11:31:06Z</time>
      </trkpt>
      <trkpt lat="45.86453" lon="6.78725">
        <ele>1790.59</ele>
        <time>2019-08-04T11:31:07Z</time>
      </trkpt>
      <trkpt lat="45.86452" lon="6.78723">
        <ele>1791.07</ele>
        <time>2019-08-04T11:31:08Z</time>
      </trkpt>
      <trkpt lat="45.86451" lon="6.78722">
        <ele>1791.07</ele>
        <time>2019-08-04T11:31:09Z</time>
      </trkpt>
      <trkpt lat="45.8645" lon="6.78722">
        <ele>1791.55</ele>
        <time>2019-08-04T11:31:10Z</time>
      </trkpt>
      <trkpt lat="45.86448" lon="6.78722">
        <ele>1792.03</ele>
        <time>2019-08-04T11:31:11Z</time>
      </trkpt>
      <trkpt lat="45.86447" lon="6.7872">
        <ele>1792.52</ele>
        <time>2019-08-04T11:31:12Z</time>
      </trkpt>
      <trkpt lat="45.86446" lon="6.78719">
        <ele>1792.52</ele>
        <time>2019-08-04T11:31:13Z</time>
      </trkpt>
      <trkpt lat="45.86445" lon="6.78717">
        <ele>1793</ele>
        <time>2019-08-04T11:31:14Z</time>
      </trkpt>
      <trkpt lat="45.86444" lon="6.78715">
        <ele>1793</ele>
        <time>2019-08-04T11:31:15Z</time>
      </trkpt>
      <trkpt lat="45.86443" lon="6.78713">
        <ele>1793.48</ele>
        <time>2019-08-04T11:31:16Z</time>
      </trkpt>
      <trkpt lat="45.86442" lon="6.78711">
        <ele>1793.48</ele>
        <time>2019-08-04T11:31:17Z</time>
      </trkpt>
      <trkpt lat="45.8644" lon="6.78709">
        <ele>1793.96</ele>
        <time>2019-08-04T11:31:18Z</time>
      </trkpt>
      <trkpt lat="45.86438" lon="6.78708">
        <ele>1793.96</ele>
        <time>2019-08-04T11:31:19Z</time>
      </trkpt>
      <trkpt lat="45.86435" lon="6.78707">
        <ele>1793.48</ele>
        <time>2019-08-04T11:31:20Z</time>
      </trkpt>
      <trkpt lat="45.86433" lon="6.78706">
        <ele>1793.48</ele>
        <time>2019-08-04T11:31:21Z</time>
      </trkpt>
      <trkpt lat="45.86431" lon="6.78704">
        <ele>1793.48</ele>
        <time>2019-08-04T11:31:22Z</time>
      </trkpt>
      <trkpt lat="45.86414" lon="6.78687">
        <ele>1795.4</ele>
        <time>2019-08-04T11:31:34Z</time>
      </trkpt>
      <trkpt lat="45.86411" lon="6.78684">
        <ele>1795.88</ele>
        <time>2019-08-04T11:31:36Z</time>
      </trkpt>
      <trkpt lat="45.8641" lon="6.78682">
        <ele>1796.36</ele>
        <time>2019-08-04T11:31:37Z</time>
      </trkpt>
      <trkpt lat="45.8641" lon="6.78681">
        <ele>1796.84</ele>
        <time>2019-08-04T11:31:38Z</time>
      </trkpt>
      <trkpt lat="45.8641" lon="6.78679">
        <ele>1797.32</ele>
        <time>2019-08-04T11:31:39Z</time>
      </trkpt>
      <trkpt lat="45.8641" lon="6.78678">
        <ele>1797.32</ele>
        <time>2019-08-04T11:31:40Z</time>
      </trkpt>
      <trkpt lat="45.86409" lon="6.78677">
        <ele>1797.8</ele>
        <time>2019-08-04T11:31:41Z</time>
      </trkpt>
      <trkpt lat="45.86409" lon="6.78675">
        <ele>1798.28</ele>
        <time>2019-08-04T11:31:42Z</time>
      </trkpt>
      <trkpt lat="45.86409" lon="6.78673">
        <ele>1798.28</ele>
        <time>2019-08-04T11:31:43Z</time>
      </trkpt>
      <trkpt lat="45.86408" lon="6.78672">
        <ele>1798.28</ele>
        <time>2019-08-04T11:31:44Z</time>
      </trkpt>
      <trkpt lat="45.86406" lon="6.78672">
        <ele>1797.32</ele>
        <time>2019-08-04T11:31:45Z</time>
      </trkpt>
      <trkpt lat="45.86404" lon="6.7867">
        <ele>1796.36</ele>
        <time>2019-08-04T11:31:46Z</time>
      </trkpt>
      <trkpt lat="45.86402" lon="6.78667">
        <ele>1795.88</ele>
        <time>2019-08-04T11:31:47Z</time>
      </trkpt>
      <trkpt lat="45.864" lon="6.78665">
        <ele>1795.88</ele>
        <time>2019-08-04T11:31:48Z</time>
      </trkpt>
      <trkpt lat="45.86399" lon="6.78664">
        <ele>1795.88</ele>
        <time>2019-08-04T11:31:49Z</time>
      </trkpt>
      <trkpt lat="45.86398" lon="6.78662">
        <ele>1795.88</ele>
        <time>2019-08-04T11:31:50Z</time>
      </trkpt>
      <trkpt lat="45.86397" lon="6.7866">
        <ele>1796.36</ele>
        <time>2019-08-04T11:31:51Z</time>
      </trkpt>
      <trkpt lat="45.86396" lon="6.78659">
        <ele>1796.36</ele>
        <time>2019-08-04T11:31:52Z</time>
      </trkpt>
      <trkpt lat="45.86394" lon="6.78657">
        <ele>1796.84</ele>
        <time>2019-08-04T11:31:53Z</time>
      </trkpt>
      <trkpt lat="45.86394" lon="6.78656">
        <ele>1796.36</ele>
        <time>2019-08-04T11:31:54Z</time>
      </trkpt>
      <trkpt lat="45.86393" lon="6.78655">
        <ele>1796.36</ele>
        <time>2019-08-04T11:31:55Z</time>
      </trkpt>
      <trkpt lat="45.86393" lon="6.78653">
        <ele>1796.36</ele>
        <time>2019-08-04T11:31:56Z</time>
      </trkpt>
      <trkpt lat="45.86392" lon="6.78651">
        <ele>1796.36</ele>
        <time>2019-08-04T11:31:57Z</time>
      </trkpt>
      <trkpt lat="45.86391" lon="6.7865">
        <ele>1796.36</ele>
        <time>2019-08-04T11:31:58Z</time>
      </trkpt>
      <trkpt lat="45.86389" lon="6.78648">
        <ele>1796.36</ele>
        <time>2019-08-04T11:31:59Z</time>
      </trkpt>
      <trkpt lat="45.86388" lon="6.78647">
        <ele>1796.84</ele>
        <time>2019-08-04T11:32:00Z</time>
      </trkpt>
      <trkpt lat="45.86386" lon="6.78646">
        <ele>1797.32</ele>
        <time>2019-08-04T11:32:03Z</time>
      </trkpt>
      <trkpt lat="45.86385" lon="6.78645">
        <ele>1797.32</ele>
        <time>2019-08-04T11:32:04Z</time>
      </trkpt>
      <trkpt lat="45.86385" lon="6.78644">
        <ele>1797.32</ele>
        <time>2019-08-04T11:32:05Z</time>
      </trkpt>
      <trkpt lat="45.86384" lon="6.78641">
        <ele>1796.84</ele>
        <time>2019-08-04T11:32:06Z</time>
      </trkpt>
      <trkpt lat="45.86384" lon="6.7864">
        <ele>1796.84</ele>
        <time>2019-08-04T11:32:07Z</time>
      </trkpt>
      <trkpt lat="45.86385" lon="6.78633">
        <ele>1795.88</ele>
        <time>2019-08-04T11:32:16Z</time>
      </trkpt>
      <trkpt lat="45.86383" lon="6.78629">
        <ele>1793.96</ele>
        <time>2019-08-04T11:32:19Z</time>
      </trkpt>
      <trkpt lat="45.86383" lon="6.78627">
        <ele>1793</ele>
        <time>2019-08-04T11:32:20Z</time>
      </trkpt>
      <trkpt lat="45.86382" lon="6.78627">
        <ele>1792.03</ele>
        <time>2019-08-04T11:32:21Z</time>
      </trkpt>
      <trkpt lat="45.86382" lon="6.78624">
        <ele>1790.59</ele>
        <time>2019-08-04T11:32:22Z</time>
      </trkpt>
      <trkpt lat="45.86383" lon="6.78621">
        <ele>1790.11</ele>
        <time>2019-08-04T11:32:23Z</time>
      </trkpt>
      <trkpt lat="45.86384" lon="6.7862">
        <ele>1789.63</ele>
        <time>2019-08-04T11:32:24Z</time>
      </trkpt>
      <trkpt lat="45.86384" lon="6.78619">
        <ele>1789.15</ele>
        <time>2019-08-04T11:32:25Z</time>
      </trkpt>
      <trkpt lat="45.86385" lon="6.78618">
        <ele>1788.67</ele>
        <time>2019-08-04T11:32:26Z</time>
      </trkpt>
      <trkpt lat="45.86385" lon="6.78617">
        <ele>1788.19</ele>
        <time>2019-08-04T11:32:27Z</time>
      </trkpt>
      <trkpt lat="45.86384" lon="6.78616">
        <ele>1787.23</ele>
        <time>2019-08-04T11:32:28Z</time>
      </trkpt>
      <trkpt lat="45.86383" lon="6.78614">
        <ele>1786.75</ele>
        <time>2019-08-04T11:32:29Z</time>
      </trkpt>
      <trkpt lat="45.86383" lon="6.78612">
        <ele>1785.79</ele>
        <time>2019-08-04T11:32:30Z</time>
      </trkpt>
      <trkpt lat="45.86384" lon="6.7861">
        <ele>1785.31</ele>
        <time>2019-08-04T11:32:31Z</time>
      </trkpt>
      <trkpt lat="45.86385" lon="6.78608">
        <ele>1784.34</ele>
        <time>2019-08-04T11:32:32Z</time>
      </trkpt>
      <trkpt lat="45.86385" lon="6.78606">
        <ele>1783.86</ele>
        <time>2019-08-04T11:32:33Z</time>
      </trkpt>
      <trkpt lat="45.86384" lon="6.78604">
        <ele>1783.38</ele>
        <time>2019-08-04T11:32:34Z</time>
      </trkpt>
      <trkpt lat="45.86384" lon="6.78601">
        <ele>1782.9</ele>
        <time>2019-08-04T11:32:35Z</time>
      </trkpt>
      <trkpt lat="45.86385" lon="6.78599">
        <ele>1781.94</ele>
        <time>2019-08-04T11:32:36Z</time>
      </trkpt>
      <trkpt lat="45.86383" lon="6.78595">
        <ele>1780.02</ele>
        <time>2019-08-04T11:32:40Z</time>
      </trkpt>
      <trkpt lat="45.86381" lon="6.78595">
        <ele>1779.06</ele>
        <time>2019-08-04T11:32:41Z</time>
      </trkpt>
      <trkpt lat="45.8638" lon="6.78594">
        <ele>1778.58</ele>
        <time>2019-08-04T11:32:42Z</time>
      </trkpt>
      <trkpt lat="45.86379" lon="6.78594">
        <ele>1777.61</ele>
        <time>2019-08-04T11:32:43Z</time>
      </trkpt>
      <trkpt lat="45.86378" lon="6.78593">
        <ele>1777.61</ele>
        <time>2019-08-04T11:32:44Z</time>
      </trkpt>
      <trkpt lat="45.86378" lon="6.78591">
        <ele>1776.65</ele>
        <time>2019-08-04T11:32:45Z</time>
      </trkpt>
      <trkpt lat="45.86378" lon="6.78589">
        <ele>1776.17</ele>
        <time>2019-08-04T11:32:46Z</time>
      </trkpt>
      <trkpt lat="45.86378" lon="6.78588">
        <ele>1775.69</ele>
        <time>2019-08-04T11:32:47Z</time>
      </trkpt>
      <trkpt lat="45.86379" lon="6.78586">
        <ele>1775.21</ele>
        <time>2019-08-04T11:32:48Z</time>
      </trkpt>
      <trkpt lat="45.86384" lon="6.78574">
        <ele>1772.33</ele>
        <time>2019-08-04T11:32:52Z</time>
      </trkpt>
      <trkpt lat="45.8639" lon="6.78559">
        <ele>1770.41</ele>
        <time>2019-08-04T11:32:56Z</time>
      </trkpt>
      <trkpt lat="45.8639" lon="6.78556">
        <ele>1770.41</ele>
        <time>2019-08-04T11:32:57Z</time>
      </trkpt>
      <trkpt lat="45.86392" lon="6.78547">
        <ele>1771.37</ele>
        <time>2019-08-04T11:33:01Z</time>
      </trkpt>
      <trkpt lat="45.86391" lon="6.78546">
        <ele>1771.37</ele>
        <time>2019-08-04T11:33:02Z</time>
      </trkpt>
      <trkpt lat="45.86391" lon="6.78544">
        <ele>1770.89</ele>
        <time>2019-08-04T11:33:03Z</time>
      </trkpt>
      <trkpt lat="45.86391" lon="6.78541">
        <ele>1770.41</ele>
        <time>2019-08-04T11:33:04Z</time>
      </trkpt>
      <trkpt lat="45.8639" lon="6.78538">
        <ele>1769.92</ele>
        <time>2019-08-04T11:33:05Z</time>
      </trkpt>
      <trkpt lat="45.8639" lon="6.78536">
        <ele>1769.44</ele>
        <time>2019-08-04T11:33:06Z</time>
      </trkpt>
      <trkpt lat="45.86389" lon="6.78533">
        <ele>1768.96</ele>
        <time>2019-08-04T11:33:08Z</time>
      </trkpt>
      <trkpt lat="45.86389" lon="6.78532">
        <ele>1768.96</ele>
        <time>2019-08-04T11:33:09Z</time>
      </trkpt>
      <trkpt lat="45.86389" lon="6.7853">
        <ele>1768.48</ele>
        <time>2019-08-04T11:33:10Z</time>
      </trkpt>
      <trkpt lat="45.86389" lon="6.78528">
        <ele>1768.48</ele>
        <time>2019-08-04T11:33:11Z</time>
      </trkpt>
      <trkpt lat="45.86389" lon="6.78527">
        <ele>1768</ele>
        <time>2019-08-04T11:33:12Z</time>
      </trkpt>
      <trkpt lat="45.86389" lon="6.78525">
        <ele>1767.52</ele>
        <time>2019-08-04T11:33:13Z</time>
      </trkpt>
      <trkpt lat="45.86389" lon="6.78523">
        <ele>1767.04</ele>
        <time>2019-08-04T11:33:14Z</time>
      </trkpt>
      <trkpt lat="45.86389" lon="6.78521">
        <ele>1766.08</ele>
        <time>2019-08-04T11:33:15Z</time>
      </trkpt>
      <trkpt lat="45.86388" lon="6.78519">
        <ele>1765.6</ele>
        <time>2019-08-04T11:33:16Z</time>
      </trkpt>
      <trkpt lat="45.86387" lon="6.78516">
        <ele>1765.12</ele>
        <time>2019-08-04T11:33:17Z</time>
      </trkpt>
      <trkpt lat="45.86385" lon="6.78514">
        <ele>1764.64</ele>
        <time>2019-08-04T11:33:18Z</time>
      </trkpt>
      <trkpt lat="45.86383" lon="6.78512">
        <ele>1764.64</ele>
        <time>2019-08-04T11:33:19Z</time>
      </trkpt>
      <trkpt lat="45.86381" lon="6.78511">
        <ele>1764.64</ele>
        <time>2019-08-04T11:33:20Z</time>
      </trkpt>
      <trkpt lat="45.8638" lon="6.78509">
        <ele>1764.64</ele>
        <time>2019-08-04T11:33:21Z</time>
      </trkpt>
      <trkpt lat="45.86378" lon="6.78507">
        <ele>1764.16</ele>
        <time>2019-08-04T11:33:22Z</time>
      </trkpt>
      <trkpt lat="45.86377" lon="6.78506">
        <ele>1763.68</ele>
        <time>2019-08-04T11:33:23Z</time>
      </trkpt>
      <trkpt lat="45.86376" lon="6.78504">
        <ele>1763.2</ele>
        <time>2019-08-04T11:33:24Z</time>
      </trkpt>
      <trkpt lat="45.86375" lon="6.78503">
        <ele>1763.2</ele>
        <time>2019-08-04T11:33:25Z</time>
      </trkpt>
      <trkpt lat="45.86373" lon="6.78503">
        <ele>1763.2</ele>
        <time>2019-08-04T11:33:26Z</time>
      </trkpt>
      <trkpt lat="45.86372" lon="6.78503">
        <ele>1763.2</ele>
        <time>2019-08-04T11:33:27Z</time>
      </trkpt>
      <trkpt lat="45.86371" lon="6.78502">
        <ele>1763.2</ele>
        <time>2019-08-04T11:33:28Z</time>
      </trkpt>
      <trkpt lat="45.8637" lon="6.78502">
        <ele>1762.23</ele>
        <time>2019-08-04T11:33:29Z</time>
      </trkpt>
      <trkpt lat="45.86369" lon="6.785">
        <ele>1762.23</ele>
        <time>2019-08-04T11:33:30Z</time>
      </trkpt>
      <trkpt lat="45.86368" lon="6.78499">
        <ele>1761.75</ele>
        <time>2019-08-04T11:33:31Z</time>
      </trkpt>
      <trkpt lat="45.86367" lon="6.78499">
        <ele>1761.27</ele>
        <time>2019-08-04T11:33:32Z</time>
      </trkpt>
      <trkpt lat="45.86366" lon="6.78498">
        <ele>1760.79</ele>
        <time>2019-08-04T11:33:33Z</time>
      </trkpt>
      <trkpt lat="45.86364" lon="6.78496">
        <ele>1759.83</ele>
        <time>2019-08-04T11:33:35Z</time>
      </trkpt>
      <trkpt lat="45.8636" lon="6.78493">
        <ele>1756.47</ele>
        <time>2019-08-04T11:33:40Z</time>
      </trkpt>
      <trkpt lat="45.86357" lon="6.78492">
        <ele>1755.02</ele>
        <time>2019-08-04T11:33:43Z</time>
      </trkpt>
      <trkpt lat="45.86357" lon="6.7849">
        <ele>1754.54</ele>
        <time>2019-08-04T11:33:44Z</time>
      </trkpt>
      <trkpt lat="45.86357" lon="6.78488">
        <ele>1754.54</ele>
        <time>2019-08-04T11:33:45Z</time>
      </trkpt>
      <trkpt lat="45.86357" lon="6.78487">
        <ele>1754.06</ele>
        <time>2019-08-04T11:33:46Z</time>
      </trkpt>
      <trkpt lat="45.86357" lon="6.78485">
        <ele>1753.58</ele>
        <time>2019-08-04T11:33:47Z</time>
      </trkpt>
      <trkpt lat="45.86357" lon="6.78484">
        <ele>1753.58</ele>
        <time>2019-08-04T11:33:48Z</time>
      </trkpt>
      <trkpt lat="45.8636" lon="6.78479">
        <ele>1752.14</ele>
        <time>2019-08-04T11:33:53Z</time>
      </trkpt>
      <trkpt lat="45.86364" lon="6.7847">
        <ele>1749.74</ele>
        <time>2019-08-04T11:33:59Z</time>
      </trkpt>
      <trkpt lat="45.86363" lon="6.78464">
        <ele>1748.78</ele>
        <time>2019-08-04T11:34:01Z</time>
      </trkpt>
      <trkpt lat="45.86363" lon="6.78443">
        <ele>1745.41</ele>
        <time>2019-08-04T11:34:10Z</time>
      </trkpt>
      <trkpt lat="45.86362" lon="6.78439">
        <ele>1744.93</ele>
        <time>2019-08-04T11:34:13Z</time>
      </trkpt>
      <trkpt lat="45.86363" lon="6.78437">
        <ele>1743.97</ele>
        <time>2019-08-04T11:34:14Z</time>
      </trkpt>
      <trkpt lat="45.86363" lon="6.78435">
        <ele>1743.49</ele>
        <time>2019-08-04T11:34:15Z</time>
      </trkpt>
      <trkpt lat="45.86363" lon="6.78434">
        <ele>1743.01</ele>
        <time>2019-08-04T11:34:16Z</time>
      </trkpt>
      <trkpt lat="45.86362" lon="6.78432">
        <ele>1743.01</ele>
        <time>2019-08-04T11:34:17Z</time>
      </trkpt>
      <trkpt lat="45.86362" lon="6.78431">
        <ele>1742.53</ele>
        <time>2019-08-04T11:34:18Z</time>
      </trkpt>
      <trkpt lat="45.86361" lon="6.78429">
        <ele>1742.53</ele>
        <time>2019-08-04T11:34:19Z</time>
      </trkpt>
      <trkpt lat="45.86361" lon="6.78427">
        <ele>1742.05</ele>
        <time>2019-08-04T11:34:20Z</time>
      </trkpt>
      <trkpt lat="45.8636" lon="6.78421">
        <ele>1740.6</ele>
        <time>2019-08-04T11:34:26Z</time>
      </trkpt>
      <trkpt lat="45.86359" lon="6.78419">
        <ele>1740.12</ele>
        <time>2019-08-04T11:34:27Z</time>
      </trkpt>
      <trkpt lat="45.86353" lon="6.78406">
        <ele>1737.24</ele>
        <time>2019-08-04T11:34:38Z</time>
      </trkpt>
      <trkpt lat="45.86354" lon="6.78403">
        <ele>1736.76</ele>
        <time>2019-08-04T11:34:39Z</time>
      </trkpt>
      <trkpt lat="45.86359" lon="6.78383">
        <ele>1733.88</ele>
        <time>2019-08-04T11:34:47Z</time>
      </trkpt>
      <trkpt lat="45.86354" lon="6.78366">
        <ele>1730.99</ele>
        <time>2019-08-04T11:34:54Z</time>
      </trkpt>
      <trkpt lat="45.86353" lon="6.78365">
        <ele>1730.51</ele>
        <time>2019-08-04T11:34:55Z</time>
      </trkpt>
      <trkpt lat="45.86352" lon="6.78363">
        <ele>1730.03</ele>
        <time>2019-08-04T11:34:56Z</time>
      </trkpt>
      <trkpt lat="45.8635" lon="6.78362">
        <ele>1730.03</ele>
        <time>2019-08-04T11:34:57Z</time>
      </trkpt>
      <trkpt lat="45.86349" lon="6.78361">
        <ele>1729.55</ele>
        <time>2019-08-04T11:34:58Z</time>
      </trkpt>
      <trkpt lat="45.86347" lon="6.7836">
        <ele>1729.55</ele>
        <time>2019-08-04T11:34:59Z</time>
      </trkpt>
      <trkpt lat="45.86345" lon="6.78358">
        <ele>1729.07</ele>
        <time>2019-08-04T11:35:00Z</time>
      </trkpt>
      <trkpt lat="45.86342" lon="6.78357">
        <ele>1728.59</ele>
        <time>2019-08-04T11:35:01Z</time>
      </trkpt>
      <trkpt lat="45.8634" lon="6.78357">
        <ele>1727.63</ele>
        <time>2019-08-04T11:35:02Z</time>
      </trkpt>
      <trkpt lat="45.86334" lon="6.78355">
        <ele>1726.18</ele>
        <time>2019-08-04T11:35:06Z</time>
      </trkpt>
      <trkpt lat="45.86332" lon="6.78354">
        <ele>1725.7</ele>
        <time>2019-08-04T11:35:07Z</time>
      </trkpt>
      <trkpt lat="45.8633" lon="6.78353">
        <ele>1725.22</ele>
        <time>2019-08-04T11:35:08Z</time>
      </trkpt>
      <trkpt lat="45.86329" lon="6.78353">
        <ele>1725.22</ele>
        <time>2019-08-04T11:35:09Z</time>
      </trkpt>
      <trkpt lat="45.86327" lon="6.78353">
        <ele>1725.22</ele>
        <time>2019-08-04T11:35:10Z</time>
      </trkpt>
      <trkpt lat="45.86326" lon="6.78353">
        <ele>1724.26</ele>
        <time>2019-08-04T11:35:11Z</time>
      </trkpt>
      <trkpt lat="45.86324" lon="6.78354">
        <ele>1724.26</ele>
        <time>2019-08-04T11:35:12Z</time>
      </trkpt>
      <trkpt lat="45.86323" lon="6.78354">
        <ele>1723.78</ele>
        <time>2019-08-04T11:35:13Z</time>
      </trkpt>
      <trkpt lat="45.86321" lon="6.78354">
        <ele>1723.78</ele>
        <time>2019-08-04T11:35:14Z</time>
      </trkpt>
      <trkpt lat="45.8632" lon="6.78354">
        <ele>1723.78</ele>
        <time>2019-08-04T11:35:15Z</time>
      </trkpt>
      <trkpt lat="45.86318" lon="6.78353">
        <ele>1723.3</ele>
        <time>2019-08-04T11:35:16Z</time>
      </trkpt>
      <trkpt lat="45.86317" lon="6.78352">
        <ele>1722.82</ele>
        <time>2019-08-04T11:35:17Z</time>
      </trkpt>
      <trkpt lat="45.86316" lon="6.78351">
        <ele>1722.82</ele>
        <time>2019-08-04T11:35:18Z</time>
      </trkpt>
      <trkpt lat="45.86315" lon="6.78351">
        <ele>1722.82</ele>
        <time>2019-08-04T11:35:19Z</time>
      </trkpt>
      <trkpt lat="45.86314" lon="6.7835">
        <ele>1722.34</ele>
        <time>2019-08-04T11:35:20Z</time>
      </trkpt>
      <trkpt lat="45.86312" lon="6.78349">
        <ele>1722.34</ele>
        <time>2019-08-04T11:35:21Z</time>
      </trkpt>
      <trkpt lat="45.8631" lon="6.78348">
        <ele>1722.34</ele>
        <time>2019-08-04T11:35:22Z</time>
      </trkpt>
      <trkpt lat="45.86308" lon="6.78347">
        <ele>1721.86</ele>
        <time>2019-08-04T11:35:23Z</time>
      </trkpt>
      <trkpt lat="45.86306" lon="6.78346">
        <ele>1721.38</ele>
        <time>2019-08-04T11:35:24Z</time>
      </trkpt>
      <trkpt lat="45.86304" lon="6.78346">
        <ele>1721.38</ele>
        <time>2019-08-04T11:35:25Z</time>
      </trkpt>
      <trkpt lat="45.86295" lon="6.78342">
        <ele>1718.97</ele>
        <time>2019-08-04T11:35:33Z</time>
      </trkpt>
      <trkpt lat="45.86294" lon="6.78342">
        <ele>1718.49</ele>
        <time>2019-08-04T11:35:34Z</time>
      </trkpt>
      <trkpt lat="45.86294" lon="6.78332">
        <ele>1715.61</ele>
        <time>2019-08-04T11:35:43Z</time>
      </trkpt>
      <trkpt lat="45.86295" lon="6.78329">
        <ele>1715.13</ele>
        <time>2019-08-04T11:35:44Z</time>
      </trkpt>
      <trkpt lat="45.86295" lon="6.78327">
        <ele>1714.65</ele>
        <time>2019-08-04T11:35:45Z</time>
      </trkpt>
      <trkpt lat="45.86296" lon="6.78325">
        <ele>1713.21</ele>
        <time>2019-08-04T11:35:46Z</time>
      </trkpt>
      <trkpt lat="45.86295" lon="6.78322">
        <ele>1712.25</ele>
        <time>2019-08-04T11:35:48Z</time>
      </trkpt>
      <trkpt lat="45.86294" lon="6.78321">
        <ele>1711.76</ele>
        <time>2019-08-04T11:35:49Z</time>
      </trkpt>
      <trkpt lat="45.86293" lon="6.78319">
        <ele>1711.28</ele>
        <time>2019-08-04T11:35:50Z</time>
      </trkpt>
      <trkpt lat="45.86286" lon="6.78316">
        <ele>1709.36</ele>
        <time>2019-08-04T11:36:21Z</time>
      </trkpt>
      <trkpt lat="45.86287" lon="6.78317">
        <ele>1709.36</ele>
        <time>2019-08-04T11:36:22Z</time>
      </trkpt>
      <trkpt lat="45.86295" lon="6.78325">
        <ele>1711.28</ele>
        <time>2019-08-04T11:36:55Z</time>
      </trkpt>
      <trkpt lat="45.86295" lon="6.78327">
        <ele>1711.28</ele>
        <time>2019-08-04T11:37:09Z</time>
      </trkpt>
      <trkpt lat="45.86294" lon="6.78326">
        <ele>1711.28</ele>
        <time>2019-08-04T11:37:23Z</time>
      </trkpt>
      <trkpt lat="45.86294" lon="6.78325">
        <ele>1711.28</ele>
        <time>2019-08-04T11:37:36Z</time>
      </trkpt>
      <trkpt lat="45.86295" lon="6.78323">
        <ele>1711.28</ele>
        <time>2019-08-04T11:37:50Z</time>
      </trkpt>
      <trkpt lat="45.86293" lon="6.7832">
        <ele>1711.28</ele>
        <time>2019-08-04T11:37:54Z</time>
      </trkpt>
      <trkpt lat="45.86292" lon="6.78318">
        <ele>1710.8</ele>
        <time>2019-08-04T11:37:55Z</time>
      </trkpt>
      <trkpt lat="45.86288" lon="6.78314">
        <ele>1710.32</ele>
        <time>2019-08-04T11:37:58Z</time>
      </trkpt>
      <trkpt lat="45.86287" lon="6.78313">
        <ele>1709.84</ele>
        <time>2019-08-04T11:37:59Z</time>
      </trkpt>
      <trkpt lat="45.86284" lon="6.7831">
        <ele>1709.36</ele>
        <time>2019-08-04T11:38:02Z</time>
      </trkpt>
      <trkpt lat="45.86281" lon="6.78306">
        <ele>1709.36</ele>
        <time>2019-08-04T11:39:27Z</time>
      </trkpt>
      <trkpt lat="45.8628" lon="6.78304">
        <ele>1709.36</ele>
        <time>2019-08-04T11:39:37Z</time>
      </trkpt>
      <trkpt lat="45.86279" lon="6.78304">
        <ele>1709.36</ele>
        <time>2019-08-04T11:39:38Z</time>
      </trkpt>
      <trkpt lat="45.86277" lon="6.78302">
        <ele>1709.36</ele>
        <time>2019-08-04T11:39:42Z</time>
      </trkpt>
      <trkpt lat="45.86275" lon="6.78301">
        <ele>1709.84</ele>
        <time>2019-08-04T11:39:44Z</time>
      </trkpt>
      <trkpt lat="45.86268" lon="6.78296">
        <ele>1712.73</ele>
        <time>2019-08-04T11:39:57Z</time>
      </trkpt>
      <trkpt lat="45.8626" lon="6.78301">
        <ele>1716.09</ele>
        <time>2019-08-04T11:40:11Z</time>
      </trkpt>
      <trkpt lat="45.86258" lon="6.78303">
        <ele>1716.57</ele>
        <time>2019-08-04T11:40:14Z</time>
      </trkpt>
      <trkpt lat="45.86252" lon="6.78307">
        <ele>1720.42</ele>
        <time>2019-08-04T11:40:27Z</time>
      </trkpt>
      <trkpt lat="45.86244" lon="6.78307">
        <ele>1723.3</ele>
        <time>2019-08-04T11:40:39Z</time>
      </trkpt>
      <trkpt lat="45.86237" lon="6.78311">
        <ele>1726.18</ele>
        <time>2019-08-04T11:40:51Z</time>
      </trkpt>
      <trkpt lat="45.86234" lon="6.78311">
        <ele>1727.63</ele>
        <time>2019-08-04T11:40:55Z</time>
      </trkpt>
      <trkpt lat="45.86233" lon="6.78311">
        <ele>1727.63</ele>
        <time>2019-08-04T11:40:56Z</time>
      </trkpt>
      <trkpt lat="45.86232" lon="6.78311">
        <ele>1727.63</ele>
        <time>2019-08-04T11:40:57Z</time>
      </trkpt>
      <trkpt lat="45.86224" lon="6.78302">
        <ele>1730.51</ele>
        <time>2019-08-04T11:41:09Z</time>
      </trkpt>
      <trkpt lat="45.86224" lon="6.783">
        <ele>1730.51</ele>
        <time>2019-08-04T11:41:10Z</time>
      </trkpt>
      <trkpt lat="45.86222" lon="6.78293">
        <ele>1732.43</ele>
        <time>2019-08-04T11:41:18Z</time>
      </trkpt>
      <trkpt lat="45.86221" lon="6.78292">
        <ele>1732.43</ele>
        <time>2019-08-04T11:41:19Z</time>
      </trkpt>
      <trkpt lat="45.86214" lon="6.78291">
        <ele>1735.8</ele>
        <time>2019-08-04T11:41:35Z</time>
      </trkpt>
      <trkpt lat="45.86206" lon="6.78291">
        <ele>1738.68</ele>
        <time>2019-08-04T11:41:48Z</time>
      </trkpt>
      <trkpt lat="45.86198" lon="6.78302">
        <ele>1742.05</ele>
        <time>2019-08-04T11:42:05Z</time>
      </trkpt>
      <trkpt lat="45.86194" lon="6.78307">
        <ele>1743.97</ele>
        <time>2019-08-04T11:42:35Z</time>
      </trkpt>
      <trkpt lat="45.8619" lon="6.78306">
        <ele>1744.45</ele>
        <time>2019-08-04T11:42:39Z</time>
      </trkpt>
      <trkpt lat="45.8619" lon="6.78305">
        <ele>1744.45</ele>
        <time>2019-08-04T11:42:40Z</time>
      </trkpt>
      <trkpt lat="45.86183" lon="6.78303">
        <ele>1746.85</ele>
        <time>2019-08-04T11:42:48Z</time>
      </trkpt>
      <trkpt lat="45.86182" lon="6.78302">
        <ele>1747.33</ele>
        <time>2019-08-04T11:42:49Z</time>
      </trkpt>
      <trkpt lat="45.86177" lon="6.78306">
        <ele>1748.78</ele>
        <time>2019-08-04T11:42:55Z</time>
      </trkpt>
      <trkpt lat="45.86172" lon="6.78313">
        <ele>1751.18</ele>
        <time>2019-08-04T11:43:04Z</time>
      </trkpt>
      <trkpt lat="45.86169" lon="6.78317">
        <ele>1753.1</ele>
        <time>2019-08-04T11:43:10Z</time>
      </trkpt>
      <trkpt lat="45.86163" lon="6.78314">
        <ele>1756.47</ele>
        <time>2019-08-04T11:43:22Z</time>
      </trkpt>
      <trkpt lat="45.86156" lon="6.78302">
        <ele>1759.83</ele>
        <time>2019-08-04T11:43:33Z</time>
      </trkpt>
      <trkpt lat="45.8615" lon="6.78299">
        <ele>1763.2</ele>
        <time>2019-08-04T11:43:44Z</time>
      </trkpt>
      <trkpt lat="45.8615" lon="6.78295">
        <ele>1764.64</ele>
        <time>2019-08-04T11:43:48Z</time>
      </trkpt>
      <trkpt lat="45.86149" lon="6.78279">
        <ele>1767.52</ele>
        <time>2019-08-04T11:44:03Z</time>
      </trkpt>
      <trkpt lat="45.86147" lon="6.78279">
        <ele>1770.41</ele>
        <time>2019-08-04T11:44:14Z</time>
      </trkpt>
      <trkpt lat="45.86142" lon="6.78278">
        <ele>1773.77</ele>
        <time>2019-08-04T11:44:26Z</time>
      </trkpt>
      <trkpt lat="45.86143" lon="6.78273">
        <ele>1775.69</ele>
        <time>2019-08-04T11:44:35Z</time>
      </trkpt>
      <trkpt lat="45.86143" lon="6.78272">
        <ele>1776.17</ele>
        <time>2019-08-04T11:44:36Z</time>
      </trkpt>
      <trkpt lat="45.86141" lon="6.78251">
        <ele>1779.06</ele>
        <time>2019-08-04T11:44:50Z</time>
      </trkpt>
      <trkpt lat="45.86142" lon="6.7825">
        <ele>1779.54</ele>
        <time>2019-08-04T11:44:51Z</time>
      </trkpt>
      <trkpt lat="45.86142" lon="6.78248">
        <ele>1780.02</ele>
        <time>2019-08-04T11:44:52Z</time>
      </trkpt>
      <trkpt lat="45.86143" lon="6.78247">
        <ele>1780.02</ele>
        <time>2019-08-04T11:44:53Z</time>
      </trkpt>
      <trkpt lat="45.86143" lon="6.78246">
        <ele>1780.5</ele>
        <time>2019-08-04T11:44:54Z</time>
      </trkpt>
      <trkpt lat="45.86141" lon="6.78239">
        <ele>1783.86</ele>
        <time>2019-08-04T11:45:02Z</time>
      </trkpt>
      <trkpt lat="45.86139" lon="6.78236">
        <ele>1783.86</ele>
        <time>2019-08-04T11:45:04Z</time>
      </trkpt>
      <trkpt lat="45.86139" lon="6.78235">
        <ele>1784.34</ele>
        <time>2019-08-04T11:45:05Z</time>
      </trkpt>
      <trkpt lat="45.86138" lon="6.78234">
        <ele>1784.82</ele>
        <time>2019-08-04T11:45:06Z</time>
      </trkpt>
      <trkpt lat="45.86138" lon="6.78232">
        <ele>1784.82</ele>
        <time>2019-08-04T11:45:07Z</time>
      </trkpt>
      <trkpt lat="45.86138" lon="6.7823">
        <ele>1784.82</ele>
        <time>2019-08-04T11:45:08Z</time>
      </trkpt>
      <trkpt lat="45.86138" lon="6.78229">
        <ele>1784.82</ele>
        <time>2019-08-04T11:45:09Z</time>
      </trkpt>
      <trkpt lat="45.86139" lon="6.78227">
        <ele>1784.82</ele>
        <time>2019-08-04T11:45:10Z</time>
      </trkpt>
      <trkpt lat="45.8614" lon="6.78225">
        <ele>1785.31</ele>
        <time>2019-08-04T11:45:11Z</time>
      </trkpt>
      <trkpt lat="45.8614" lon="6.78222">
        <ele>1785.31</ele>
        <time>2019-08-04T11:45:12Z</time>
      </trkpt>
      <trkpt lat="45.8614" lon="6.78221">
        <ele>1785.31</ele>
        <time>2019-08-04T11:45:13Z</time>
      </trkpt>
      <trkpt lat="45.86139" lon="6.78219">
        <ele>1785.31</ele>
        <time>2019-08-04T11:45:14Z</time>
      </trkpt>
      <trkpt lat="45.86138" lon="6.78216">
        <ele>1785.79</ele>
        <time>2019-08-04T11:45:16Z</time>
      </trkpt>
      <trkpt lat="45.86136" lon="6.78215">
        <ele>1786.27</ele>
        <time>2019-08-04T11:45:17Z</time>
      </trkpt>
      <trkpt lat="45.86135" lon="6.78211">
        <ele>1786.75</ele>
        <time>2019-08-04T11:45:19Z</time>
      </trkpt>
      <trkpt lat="45.86133" lon="6.7821">
        <ele>1786.75</ele>
        <time>2019-08-04T11:45:20Z</time>
      </trkpt>
      <trkpt lat="45.86132" lon="6.78208">
        <ele>1786.75</ele>
        <time>2019-08-04T11:45:21Z</time>
      </trkpt>
      <trkpt lat="45.86132" lon="6.78206">
        <ele>1786.75</ele>
        <time>2019-08-04T11:45:22Z</time>
      </trkpt>
      <trkpt lat="45.86127" lon="6.78194">
        <ele>1786.75</ele>
        <time>2019-08-04T11:45:28Z</time>
      </trkpt>
      <trkpt lat="45.86126" lon="6.78191">
        <ele>1787.23</ele>
        <time>2019-08-04T11:45:30Z</time>
      </trkpt>
      <trkpt lat="45.86125" lon="6.78189">
        <ele>1787.23</ele>
        <time>2019-08-04T11:45:31Z</time>
      </trkpt>
      <trkpt lat="45.86124" lon="6.78187">
        <ele>1787.23</ele>
        <time>2019-08-04T11:45:32Z</time>
      </trkpt>
      <trkpt lat="45.86123" lon="6.78185">
        <ele>1787.23</ele>
        <time>2019-08-04T11:45:33Z</time>
      </trkpt>
      <trkpt lat="45.86122" lon="6.78182">
        <ele>1787.23</ele>
        <time>2019-08-04T11:45:34Z</time>
      </trkpt>
      <trkpt lat="45.86121" lon="6.7818">
        <ele>1787.71</ele>
        <time>2019-08-04T11:45:35Z</time>
      </trkpt>
      <trkpt lat="45.8612" lon="6.78177">
        <ele>1788.19</ele>
        <time>2019-08-04T11:45:36Z</time>
      </trkpt>
      <trkpt lat="45.86116" lon="6.78163">
        <ele>1789.63</ele>
        <time>2019-08-04T11:45:43Z</time>
      </trkpt>
      <trkpt lat="45.86109" lon="6.7816">
        <ele>1792.52</ele>
        <time>2019-08-04T11:45:55Z</time>
      </trkpt>
      <trkpt lat="45.86097" lon="6.78155">
        <ele>1795.4</ele>
        <time>2019-08-04T11:46:07Z</time>
      </trkpt>
      <trkpt lat="45.86088" lon="6.78153">
        <ele>1798.76</ele>
        <time>2019-08-04T11:46:17Z</time>
      </trkpt>
      <trkpt lat="45.86079" lon="6.78152">
        <ele>1802.13</ele>
        <time>2019-08-04T11:46:26Z</time>
      </trkpt>
      <trkpt lat="45.86071" lon="6.78149">
        <ele>1805.01</ele>
        <time>2019-08-04T11:46:36Z</time>
      </trkpt>
      <trkpt lat="45.86064" lon="6.78143">
        <ele>1807.42</ele>
        <time>2019-08-04T11:46:44Z</time>
      </trkpt>
      <trkpt lat="45.86057" lon="6.78135">
        <ele>1810.78</ele>
        <time>2019-08-04T11:46:55Z</time>
      </trkpt>
      <trkpt lat="45.86048" lon="6.78119">
        <ele>1813.66</ele>
        <time>2019-08-04T11:47:08Z</time>
      </trkpt>
      <trkpt lat="45.86047" lon="6.78116">
        <ele>1814.15</ele>
        <time>2019-08-04T11:47:10Z</time>
      </trkpt>
      <trkpt lat="45.86047" lon="6.78114">
        <ele>1814.63</ele>
        <time>2019-08-04T11:47:11Z</time>
      </trkpt>
      <trkpt lat="45.86047" lon="6.78112">
        <ele>1814.63</ele>
        <time>2019-08-04T11:47:12Z</time>
      </trkpt>
      <trkpt lat="45.86052" lon="6.78096">
        <ele>1817.51</ele>
        <time>2019-08-04T11:47:24Z</time>
      </trkpt>
      <trkpt lat="45.8605" lon="6.78089">
        <ele>1818.95</ele>
        <time>2019-08-04T11:47:30Z</time>
      </trkpt>
      <trkpt lat="45.86049" lon="6.78088">
        <ele>1819.43</ele>
        <time>2019-08-04T11:47:31Z</time>
      </trkpt>
      <trkpt lat="45.86048" lon="6.78087">
        <ele>1819.43</ele>
        <time>2019-08-04T11:47:32Z</time>
      </trkpt>
      <trkpt lat="45.86047" lon="6.78086">
        <ele>1819.91</ele>
        <time>2019-08-04T11:47:33Z</time>
      </trkpt>
      <trkpt lat="45.86046" lon="6.78085">
        <ele>1820.39</ele>
        <time>2019-08-04T11:47:34Z</time>
      </trkpt>
      <trkpt lat="45.86045" lon="6.78084">
        <ele>1820.39</ele>
        <time>2019-08-04T11:47:35Z</time>
      </trkpt>
      <trkpt lat="45.86034" lon="6.78077">
        <ele>1822.8</ele>
        <time>2019-08-04T11:47:45Z</time>
      </trkpt>
      <trkpt lat="45.86026" lon="6.78078">
        <ele>1826.16</ele>
        <time>2019-08-04T11:47:56Z</time>
      </trkpt>
      <trkpt lat="45.86016" lon="6.78078">
        <ele>1829.05</ele>
        <time>2019-08-04T11:48:10Z</time>
      </trkpt>
      <trkpt lat="45.86011" lon="6.78073">
        <ele>1831.45</ele>
        <time>2019-08-04T11:48:18Z</time>
      </trkpt>
      <trkpt lat="45.86011" lon="6.78067">
        <ele>1832.41</ele>
        <time>2019-08-04T11:48:25Z</time>
      </trkpt>
      <trkpt lat="45.8601" lon="6.78066">
        <ele>1832.89</ele>
        <time>2019-08-04T11:48:26Z</time>
      </trkpt>
      <trkpt lat="45.86011" lon="6.78065">
        <ele>1833.37</ele>
        <time>2019-08-04T11:48:27Z</time>
      </trkpt>
      <trkpt lat="45.86005" lon="6.7806">
        <ele>1834.33</ele>
        <time>2019-08-04T11:48:32Z</time>
      </trkpt>
      <trkpt lat="45.85994" lon="6.78045">
        <ele>1837.22</ele>
        <time>2019-08-04T11:48:47Z</time>
      </trkpt>
      <trkpt lat="45.85993" lon="6.78043">
        <ele>1838.18</ele>
        <time>2019-08-04T11:48:49Z</time>
      </trkpt>
      <trkpt lat="45.85991" lon="6.78042">
        <ele>1838.18</ele>
        <time>2019-08-04T11:48:50Z</time>
      </trkpt>
      <trkpt lat="45.8599" lon="6.78042">
        <ele>1838.66</ele>
        <time>2019-08-04T11:48:51Z</time>
      </trkpt>
      <trkpt lat="45.85989" lon="6.78041">
        <ele>1838.66</ele>
        <time>2019-08-04T11:48:52Z</time>
      </trkpt>
      <trkpt lat="45.85988" lon="6.7804">
        <ele>1839.14</ele>
        <time>2019-08-04T11:48:53Z</time>
      </trkpt>
      <trkpt lat="45.85987" lon="6.78039">
        <ele>1839.62</ele>
        <time>2019-08-04T11:48:54Z</time>
      </trkpt>
      <trkpt lat="45.85986" lon="6.78038">
        <ele>1839.62</ele>
        <time>2019-08-04T11:48:55Z</time>
      </trkpt>
      <trkpt lat="45.85984" lon="6.78038">
        <ele>1840.1</ele>
        <time>2019-08-04T11:48:56Z</time>
      </trkpt>
      <trkpt lat="45.85982" lon="6.78038">
        <ele>1840.1</ele>
        <time>2019-08-04T11:48:57Z</time>
      </trkpt>
      <trkpt lat="45.85981" lon="6.78036">
        <ele>1840.58</ele>
        <time>2019-08-04T11:48:58Z</time>
      </trkpt>
      <trkpt lat="45.85979" lon="6.78036">
        <ele>1840.58</ele>
        <time>2019-08-04T11:48:59Z</time>
      </trkpt>
      <trkpt lat="45.85978" lon="6.78035">
        <ele>1840.58</ele>
        <time>2019-08-04T11:49:00Z</time>
      </trkpt>
      <trkpt lat="45.85977" lon="6.78034">
        <ele>1840.58</ele>
        <time>2019-08-04T11:49:01Z</time>
      </trkpt>
      <trkpt lat="45.85975" lon="6.78033">
        <ele>1841.06</ele>
        <time>2019-08-04T11:49:02Z</time>
      </trkpt>
      <trkpt lat="45.85974" lon="6.78032">
        <ele>1841.54</ele>
        <time>2019-08-04T11:49:03Z</time>
      </trkpt>
      <trkpt lat="45.85973" lon="6.78031">
        <ele>1842.02</ele>
        <time>2019-08-04T11:49:04Z</time>
      </trkpt>
      <trkpt lat="45.85972" lon="6.7803">
        <ele>1842.02</ele>
        <time>2019-08-04T11:49:05Z</time>
      </trkpt>
      <trkpt lat="45.85971" lon="6.78029">
        <ele>1842.5</ele>
        <time>2019-08-04T11:49:06Z</time>
      </trkpt>
      <trkpt lat="45.85969" lon="6.78028">
        <ele>1842.5</ele>
        <time>2019-08-04T11:49:07Z</time>
      </trkpt>
      <trkpt lat="45.85968" lon="6.78028">
        <ele>1842.98</ele>
        <time>2019-08-04T11:49:08Z</time>
      </trkpt>
      <trkpt lat="45.85967" lon="6.78027">
        <ele>1842.98</ele>
        <time>2019-08-04T11:49:09Z</time>
      </trkpt>
      <trkpt lat="45.85965" lon="6.78026">
        <ele>1843.47</ele>
        <time>2019-08-04T11:49:10Z</time>
      </trkpt>
      <trkpt lat="45.85964" lon="6.78025">
        <ele>1843.47</ele>
        <time>2019-08-04T11:49:11Z</time>
      </trkpt>
      <trkpt lat="45.85962" lon="6.78024">
        <ele>1843.95</ele>
        <time>2019-08-04T11:49:12Z</time>
      </trkpt>
      <trkpt lat="45.8596" lon="6.78023">
        <ele>1844.43</ele>
        <time>2019-08-04T11:49:13Z</time>
      </trkpt>
      <trkpt lat="45.85958" lon="6.78022">
        <ele>1844.43</ele>
        <time>2019-08-04T11:49:14Z</time>
      </trkpt>
      <trkpt lat="45.85957" lon="6.78021">
        <ele>1844.43</ele>
        <time>2019-08-04T11:49:15Z</time>
      </trkpt>
      <trkpt lat="45.85955" lon="6.7802">
        <ele>1844.43</ele>
        <time>2019-08-04T11:49:16Z</time>
      </trkpt>
      <trkpt lat="45.85954" lon="6.78019">
        <ele>1844.91</ele>
        <time>2019-08-04T11:49:17Z</time>
      </trkpt>
      <trkpt lat="45.85953" lon="6.78017">
        <ele>1844.91</ele>
        <time>2019-08-04T11:49:18Z</time>
      </trkpt>
      <trkpt lat="45.85952" lon="6.78014">
        <ele>1844.91</ele>
        <time>2019-08-04T11:49:19Z</time>
      </trkpt>
      <trkpt lat="45.85951" lon="6.78012">
        <ele>1844.91</ele>
        <time>2019-08-04T11:49:20Z</time>
      </trkpt>
      <trkpt lat="45.8595" lon="6.78009">
        <ele>1844.91</ele>
        <time>2019-08-04T11:49:21Z</time>
      </trkpt>
      <trkpt lat="45.85943" lon="6.78005">
        <ele>1844.91</ele>
        <time>2019-08-04T11:49:25Z</time>
      </trkpt>
      <trkpt lat="45.85942" lon="6.78005">
        <ele>1844.91</ele>
        <time>2019-08-04T11:49:26Z</time>
      </trkpt>
      <trkpt lat="45.8594" lon="6.78005">
        <ele>1844.91</ele>
        <time>2019-08-04T11:49:27Z</time>
      </trkpt>
      <trkpt lat="45.85939" lon="6.78005">
        <ele>1844.91</ele>
        <time>2019-08-04T11:49:28Z</time>
      </trkpt>
      <trkpt lat="45.85937" lon="6.78004">
        <ele>1845.39</ele>
        <time>2019-08-04T11:49:29Z</time>
      </trkpt>
      <trkpt lat="45.85928" lon="6.78001">
        <ele>1842.02</ele>
        <time>2019-08-04T11:50:02Z</time>
      </trkpt>
      <trkpt lat="45.85927" lon="6.78001">
        <ele>1845.39</ele>
        <time>2019-08-04T11:50:10Z</time>
      </trkpt>
      <trkpt lat="45.85927" lon="6.78001">
        <ele>1845.39</ele>
        <time>2019-08-04T11:50:11Z</time>
      </trkpt>
      <trkpt lat="45.85924" lon="6.78">
        <ele>1847.31</ele>
        <time>2019-08-04T11:51:12Z</time>
      </trkpt>
      <trkpt lat="45.85924" lon="6.77999">
        <ele>1847.31</ele>
        <time>2019-08-04T11:51:13Z</time>
      </trkpt>
      <trkpt lat="45.85923" lon="6.77998">
        <ele>1847.31</ele>
        <time>2019-08-04T11:51:14Z</time>
      </trkpt>
      <trkpt lat="45.85922" lon="6.77997">
        <ele>1847.31</ele>
        <time>2019-08-04T11:51:15Z</time>
      </trkpt>
      <trkpt lat="45.85921" lon="6.77995">
        <ele>1847.31</ele>
        <time>2019-08-04T11:51:16Z</time>
      </trkpt>
      <trkpt lat="45.8592" lon="6.77994">
        <ele>1847.79</ele>
        <time>2019-08-04T11:51:17Z</time>
      </trkpt>
      <trkpt lat="45.85919" lon="6.77994">
        <ele>1847.79</ele>
        <time>2019-08-04T11:51:18Z</time>
      </trkpt>
      <trkpt lat="45.85918" lon="6.77993">
        <ele>1848.27</ele>
        <time>2019-08-04T11:51:19Z</time>
      </trkpt>
      <trkpt lat="45.85916" lon="6.77992">
        <ele>1848.27</ele>
        <time>2019-08-04T11:51:20Z</time>
      </trkpt>
      <trkpt lat="45.85915" lon="6.77991">
        <ele>1848.75</ele>
        <time>2019-08-04T11:51:21Z</time>
      </trkpt>
      <trkpt lat="45.85914" lon="6.7799">
        <ele>1849.23</ele>
        <time>2019-08-04T11:51:22Z</time>
      </trkpt>
      <trkpt lat="45.85913" lon="6.77988">
        <ele>1849.23</ele>
        <time>2019-08-04T11:51:23Z</time>
      </trkpt>
      <trkpt lat="45.85913" lon="6.77985">
        <ele>1849.71</ele>
        <time>2019-08-04T11:51:24Z</time>
      </trkpt>
      <trkpt lat="45.85913" lon="6.77983">
        <ele>1849.71</ele>
        <time>2019-08-04T11:51:25Z</time>
      </trkpt>
      <trkpt lat="45.85914" lon="6.77979">
        <ele>1850.19</ele>
        <time>2019-08-04T11:51:27Z</time>
      </trkpt>
      <trkpt lat="45.85913" lon="6.77977">
        <ele>1850.68</ele>
        <time>2019-08-04T11:51:28Z</time>
      </trkpt>
      <trkpt lat="45.85912" lon="6.77977">
        <ele>1851.16</ele>
        <time>2019-08-04T11:51:29Z</time>
      </trkpt>
      <trkpt lat="45.85911" lon="6.77976">
        <ele>1851.16</ele>
        <time>2019-08-04T11:51:30Z</time>
      </trkpt>
      <trkpt lat="45.8591" lon="6.77975">
        <ele>1851.64</ele>
        <time>2019-08-04T11:51:31Z</time>
      </trkpt>
      <trkpt lat="45.8591" lon="6.77973">
        <ele>1852.12</ele>
        <time>2019-08-04T11:51:32Z</time>
      </trkpt>
      <trkpt lat="45.85908" lon="6.77973">
        <ele>1852.6</ele>
        <time>2019-08-04T11:51:33Z</time>
      </trkpt>
      <trkpt lat="45.85907" lon="6.77973">
        <ele>1852.6</ele>
        <time>2019-08-04T11:51:34Z</time>
      </trkpt>
      <trkpt lat="45.85906" lon="6.77972">
        <ele>1852.6</ele>
        <time>2019-08-04T11:51:35Z</time>
      </trkpt>
      <trkpt lat="45.85904" lon="6.77972">
        <ele>1853.08</ele>
        <time>2019-08-04T11:51:36Z</time>
      </trkpt>
      <trkpt lat="45.85903" lon="6.77971">
        <ele>1853.08</ele>
        <time>2019-08-04T11:51:37Z</time>
      </trkpt>
      <trkpt lat="45.85901" lon="6.77971">
        <ele>1853.56</ele>
        <time>2019-08-04T11:51:38Z</time>
      </trkpt>
      <trkpt lat="45.85899" lon="6.7797">
        <ele>1854.04</ele>
        <time>2019-08-04T11:51:40Z</time>
      </trkpt>
      <trkpt lat="45.85898" lon="6.77968">
        <ele>1854.52</ele>
        <time>2019-08-04T11:51:41Z</time>
      </trkpt>
      <trkpt lat="45.85897" lon="6.77967">
        <ele>1854.52</ele>
        <time>2019-08-04T11:51:42Z</time>
      </trkpt>
      <trkpt lat="45.85896" lon="6.77966">
        <ele>1855</ele>
        <time>2019-08-04T11:51:43Z</time>
      </trkpt>
      <trkpt lat="45.85895" lon="6.77964">
        <ele>1855</ele>
        <time>2019-08-04T11:51:44Z</time>
      </trkpt>
      <trkpt lat="45.85894" lon="6.77962">
        <ele>1855.48</ele>
        <time>2019-08-04T11:51:45Z</time>
      </trkpt>
      <trkpt lat="45.85893" lon="6.77961">
        <ele>1855.48</ele>
        <time>2019-08-04T11:51:46Z</time>
      </trkpt>
      <trkpt lat="45.85892" lon="6.77961">
        <ele>1855.96</ele>
        <time>2019-08-04T11:51:47Z</time>
      </trkpt>
      <trkpt lat="45.8589" lon="6.77961">
        <ele>1855.96</ele>
        <time>2019-08-04T11:51:48Z</time>
      </trkpt>
      <trkpt lat="45.85889" lon="6.7796">
        <ele>1855.96</ele>
        <time>2019-08-04T11:51:49Z</time>
      </trkpt>
      <trkpt lat="45.85888" lon="6.77959">
        <ele>1855.96</ele>
        <time>2019-08-04T11:51:50Z</time>
      </trkpt>
      <trkpt lat="45.85886" lon="6.77957">
        <ele>1856.44</ele>
        <time>2019-08-04T11:51:51Z</time>
      </trkpt>
      <trkpt lat="45.85886" lon="6.77955">
        <ele>1856.44</ele>
        <time>2019-08-04T11:51:52Z</time>
      </trkpt>
      <trkpt lat="45.85885" lon="6.77954">
        <ele>1856.92</ele>
        <time>2019-08-04T11:51:53Z</time>
      </trkpt>
      <trkpt lat="45.85884" lon="6.77952">
        <ele>1856.92</ele>
        <time>2019-08-04T11:51:54Z</time>
      </trkpt>
      <trkpt lat="45.85883" lon="6.77951">
        <ele>1857.4</ele>
        <time>2019-08-04T11:51:55Z</time>
      </trkpt>
      <trkpt lat="45.85881" lon="6.77951">
        <ele>1857.4</ele>
        <time>2019-08-04T11:51:56Z</time>
      </trkpt>
      <trkpt lat="45.8588" lon="6.77951">
        <ele>1857.4</ele>
        <time>2019-08-04T11:51:57Z</time>
      </trkpt>
      <trkpt lat="45.85879" lon="6.77949">
        <ele>1857.4</ele>
        <time>2019-08-04T11:51:58Z</time>
      </trkpt>
      <trkpt lat="45.85879" lon="6.77948">
        <ele>1857.4</ele>
        <time>2019-08-04T11:51:59Z</time>
      </trkpt>
      <trkpt lat="45.85879" lon="6.77946">
        <ele>1857.89</ele>
        <time>2019-08-04T11:52:00Z</time>
      </trkpt>
      <trkpt lat="45.85879" lon="6.77944">
        <ele>1858.37</ele>
        <time>2019-08-04T11:52:01Z</time>
      </trkpt>
      <trkpt lat="45.85879" lon="6.77942">
        <ele>1858.37</ele>
        <time>2019-08-04T11:52:02Z</time>
      </trkpt>
      <trkpt lat="45.85878" lon="6.7794">
        <ele>1858.85</ele>
        <time>2019-08-04T11:52:03Z</time>
      </trkpt>
      <trkpt lat="45.85877" lon="6.77938">
        <ele>1858.85</ele>
        <time>2019-08-04T11:52:04Z</time>
      </trkpt>
      <trkpt lat="45.85877" lon="6.77936">
        <ele>1859.33</ele>
        <time>2019-08-04T11:52:05Z</time>
      </trkpt>
      <trkpt lat="45.85877" lon="6.77935">
        <ele>1859.33</ele>
        <time>2019-08-04T11:52:06Z</time>
      </trkpt>
      <trkpt lat="45.85877" lon="6.77933">
        <ele>1859.81</ele>
        <time>2019-08-04T11:52:07Z</time>
      </trkpt>
      <trkpt lat="45.85877" lon="6.77931">
        <ele>1859.81</ele>
        <time>2019-08-04T11:52:08Z</time>
      </trkpt>
      <trkpt lat="45.85878" lon="6.7793">
        <ele>1860.29</ele>
        <time>2019-08-04T11:52:09Z</time>
      </trkpt>
      <trkpt lat="45.85878" lon="6.77928">
        <ele>1860.29</ele>
        <time>2019-08-04T11:52:10Z</time>
      </trkpt>
      <trkpt lat="45.85878" lon="6.77927">
        <ele>1860.77</ele>
        <time>2019-08-04T11:52:11Z</time>
      </trkpt>
      <trkpt lat="45.85878" lon="6.77926">
        <ele>1860.77</ele>
        <time>2019-08-04T11:52:12Z</time>
      </trkpt>
      <trkpt lat="45.85873" lon="6.7792">
        <ele>1862.69</ele>
        <time>2019-08-04T11:52:20Z</time>
      </trkpt>
      <trkpt lat="45.85872" lon="6.7792">
        <ele>1863.17</ele>
        <time>2019-08-04T11:52:21Z</time>
      </trkpt>
      <trkpt lat="45.85871" lon="6.77919">
        <ele>1863.17</ele>
        <time>2019-08-04T11:52:22Z</time>
      </trkpt>
      <trkpt lat="45.8587" lon="6.77919">
        <ele>1863.17</ele>
        <time>2019-08-04T11:52:23Z</time>
      </trkpt>
      <trkpt lat="45.85868" lon="6.7792">
        <ele>1863.17</ele>
        <time>2019-08-04T11:52:24Z</time>
      </trkpt>
      <trkpt lat="45.85868" lon="6.77919">
        <ele>1863.17</ele>
        <time>2019-08-04T11:52:25Z</time>
      </trkpt>
      <trkpt lat="45.85867" lon="6.77918">
        <ele>1863.17</ele>
        <time>2019-08-04T11:52:26Z</time>
      </trkpt>
      <trkpt lat="45.85866" lon="6.77918">
        <ele>1863.17</ele>
        <time>2019-08-04T11:52:27Z</time>
      </trkpt>
      <trkpt lat="45.85855" lon="6.77909">
        <ele>1866.54</ele>
        <time>2019-08-04T11:52:43Z</time>
      </trkpt>
      <trkpt lat="45.85847" lon="6.77895">
        <ele>1869.42</ele>
        <time>2019-08-04T11:52:59Z</time>
      </trkpt>
      <trkpt lat="45.85845" lon="6.77891">
        <ele>1870.38</ele>
        <time>2019-08-04T11:53:02Z</time>
      </trkpt>
      <trkpt lat="45.85845" lon="6.7789">
        <ele>1870.38</ele>
        <time>2019-08-04T11:53:03Z</time>
      </trkpt>
      <trkpt lat="45.85841" lon="6.77887">
        <ele>1871.82</ele>
        <time>2019-08-04T11:53:10Z</time>
      </trkpt>
      <trkpt lat="45.85839" lon="6.77885">
        <ele>1872.79</ele>
        <time>2019-08-04T11:53:13Z</time>
      </trkpt>
      <trkpt lat="45.85838" lon="6.77884">
        <ele>1872.79</ele>
        <time>2019-08-04T11:53:14Z</time>
      </trkpt>
      <trkpt lat="45.85835" lon="6.77872">
        <ele>1876.15</ele>
        <time>2019-08-04T11:53:27Z</time>
      </trkpt>
      <trkpt lat="45.85833" lon="6.7787">
        <ele>1876.15</ele>
        <time>2019-08-04T11:53:29Z</time>
      </trkpt>
      <trkpt lat="45.85833" lon="6.77868">
        <ele>1876.63</ele>
        <time>2019-08-04T11:53:30Z</time>
      </trkpt>
      <trkpt lat="45.85827" lon="6.77856">
        <ele>1879.51</ele>
        <time>2019-08-04T11:53:44Z</time>
      </trkpt>
      <trkpt lat="45.85826" lon="6.77856">
        <ele>1879.51</ele>
        <time>2019-08-04T11:53:45Z</time>
      </trkpt>
      <trkpt lat="45.8582" lon="6.77842">
        <ele>1882.4</ele>
        <time>2019-08-04T11:54:00Z</time>
      </trkpt>
      <trkpt lat="45.85816" lon="6.7784">
        <ele>1883.36</ele>
        <time>2019-08-04T11:54:05Z</time>
      </trkpt>
      <trkpt lat="45.85815" lon="6.7784">
        <ele>1883.36</ele>
        <time>2019-08-04T11:54:06Z</time>
      </trkpt>
      <trkpt lat="45.85811" lon="6.77835">
        <ele>1884.8</ele>
        <time>2019-08-04T11:54:13Z</time>
      </trkpt>
      <trkpt lat="45.85807" lon="6.77835">
        <ele>1885.76</ele>
        <time>2019-08-04T11:54:17Z</time>
      </trkpt>
      <trkpt lat="45.85796" lon="6.77833">
        <ele>1888.65</ele>
        <time>2019-08-04T11:54:31Z</time>
      </trkpt>
      <trkpt lat="45.85795" lon="6.77832">
        <ele>1889.13</ele>
        <time>2019-08-04T11:54:33Z</time>
      </trkpt>
      <trkpt lat="45.85788" lon="6.77832">
        <ele>1892.01</ele>
        <time>2019-08-04T11:54:43Z</time>
      </trkpt>
      <trkpt lat="45.85783" lon="6.77827">
        <ele>1895.38</ele>
        <time>2019-08-04T11:54:54Z</time>
      </trkpt>
      <trkpt lat="45.85779" lon="6.77824">
        <ele>1898.26</ele>
        <time>2019-08-04T11:55:04Z</time>
      </trkpt>
      <trkpt lat="45.85773" lon="6.77818">
        <ele>1901.63</ele>
        <time>2019-08-04T11:55:15Z</time>
      </trkpt>
      <trkpt lat="45.85774" lon="6.77817">
        <ele>1901.63</ele>
        <time>2019-08-04T11:55:16Z</time>
      </trkpt>
      <trkpt lat="45.85766" lon="6.77805">
        <ele>1904.99</ele>
        <time>2019-08-04T11:55:28Z</time>
      </trkpt>
      <trkpt lat="45.85768" lon="6.77787">
        <ele>1907.87</ele>
        <time>2019-08-04T11:55:42Z</time>
      </trkpt>
      <trkpt lat="45.85764" lon="6.7778">
        <ele>1909.8</ele>
        <time>2019-08-04T11:55:51Z</time>
      </trkpt>
      <trkpt lat="45.85764" lon="6.77778">
        <ele>1909.8</ele>
        <time>2019-08-04T11:55:52Z</time>
      </trkpt>
      <trkpt lat="45.8576" lon="6.77767">
        <ele>1913.16</ele>
        <time>2019-08-04T11:56:05Z</time>
      </trkpt>
      <trkpt lat="45.85755" lon="6.77755">
        <ele>1915.56</ele>
        <time>2019-08-04T11:56:18Z</time>
      </trkpt>
      <trkpt lat="45.85744" lon="6.7774">
        <ele>1918.93</ele>
        <time>2019-08-04T11:56:36Z</time>
      </trkpt>
      <trkpt lat="45.85735" lon="6.77731">
        <ele>1920.85</ele>
        <time>2019-08-04T11:56:45Z</time>
      </trkpt>
      <trkpt lat="45.8572" lon="6.77721">
        <ele>1923.74</ele>
        <time>2019-08-04T11:56:56Z</time>
      </trkpt>
      <trkpt lat="45.8572" lon="6.77719">
        <ele>1924.22</ele>
        <time>2019-08-04T11:56:57Z</time>
      </trkpt>
      <trkpt lat="45.85719" lon="6.77717">
        <ele>1924.22</ele>
        <time>2019-08-04T11:56:58Z</time>
      </trkpt>
      <trkpt lat="45.85719" lon="6.77715">
        <ele>1924.22</ele>
        <time>2019-08-04T11:56:59Z</time>
      </trkpt>
      <trkpt lat="45.85718" lon="6.77713">
        <ele>1924.22</ele>
        <time>2019-08-04T11:57:00Z</time>
      </trkpt>
      <trkpt lat="45.85716" lon="6.77712">
        <ele>1924.7</ele>
        <time>2019-08-04T11:57:01Z</time>
      </trkpt>
      <trkpt lat="45.85715" lon="6.7771">
        <ele>1925.18</ele>
        <time>2019-08-04T11:57:02Z</time>
      </trkpt>
      <trkpt lat="45.85714" lon="6.77708">
        <ele>1925.18</ele>
        <time>2019-08-04T11:57:03Z</time>
      </trkpt>
      <trkpt lat="45.85713" lon="6.77707">
        <ele>1925.18</ele>
        <time>2019-08-04T11:57:04Z</time>
      </trkpt>
      <trkpt lat="45.85712" lon="6.77707">
        <ele>1925.66</ele>
        <time>2019-08-04T11:57:05Z</time>
      </trkpt>
      <trkpt lat="45.85711" lon="6.77706">
        <ele>1925.66</ele>
        <time>2019-08-04T11:57:06Z</time>
      </trkpt>
      <trkpt lat="45.85709" lon="6.77705">
        <ele>1925.66</ele>
        <time>2019-08-04T11:57:07Z</time>
      </trkpt>
      <trkpt lat="45.85708" lon="6.77703">
        <ele>1925.66</ele>
        <time>2019-08-04T11:57:08Z</time>
      </trkpt>
      <trkpt lat="45.85707" lon="6.777">
        <ele>1925.66</ele>
        <time>2019-08-04T11:57:09Z</time>
      </trkpt>
      <trkpt lat="45.85699" lon="6.77677">
        <ele>1928.54</ele>
        <time>2019-08-04T11:57:21Z</time>
      </trkpt>
      <trkpt lat="45.85698" lon="6.77673">
        <ele>1929.02</ele>
        <time>2019-08-04T11:57:23Z</time>
      </trkpt>
      <trkpt lat="45.85697" lon="6.77671">
        <ele>1929.02</ele>
        <time>2019-08-04T11:57:24Z</time>
      </trkpt>
      <trkpt lat="45.85697" lon="6.77669">
        <ele>1929.5</ele>
        <time>2019-08-04T11:57:25Z</time>
      </trkpt>
      <trkpt lat="45.85697" lon="6.77666">
        <ele>1929.5</ele>
        <time>2019-08-04T11:57:26Z</time>
      </trkpt>
      <trkpt lat="45.85698" lon="6.77664">
        <ele>1929.98</ele>
        <time>2019-08-04T11:57:27Z</time>
      </trkpt>
      <trkpt lat="45.85697" lon="6.77662">
        <ele>1929.98</ele>
        <time>2019-08-04T11:57:28Z</time>
      </trkpt>
      <trkpt lat="45.85697" lon="6.7766">
        <ele>1930.46</ele>
        <time>2019-08-04T11:57:29Z</time>
      </trkpt>
      <trkpt lat="45.85697" lon="6.77658">
        <ele>1930.95</ele>
        <time>2019-08-04T11:57:30Z</time>
      </trkpt>
      <trkpt lat="45.85696" lon="6.77656">
        <ele>1930.95</ele>
        <time>2019-08-04T11:57:31Z</time>
      </trkpt>
      <trkpt lat="45.85695" lon="6.77654">
        <ele>1931.43</ele>
        <time>2019-08-04T11:57:32Z</time>
      </trkpt>
      <trkpt lat="45.85694" lon="6.77653">
        <ele>1931.43</ele>
        <time>2019-08-04T11:57:33Z</time>
      </trkpt>
      <trkpt lat="45.85693" lon="6.77653">
        <ele>1931.43</ele>
        <time>2019-08-04T11:57:34Z</time>
      </trkpt>
      <trkpt lat="45.85689" lon="6.77651">
        <ele>1932.39</ele>
        <time>2019-08-04T11:57:38Z</time>
      </trkpt>
      <trkpt lat="45.85689" lon="6.7765">
        <ele>1932.87</ele>
        <time>2019-08-04T11:57:39Z</time>
      </trkpt>
      <trkpt lat="45.85688" lon="6.7765">
        <ele>1932.87</ele>
        <time>2019-08-04T11:57:40Z</time>
      </trkpt>
      <trkpt lat="45.85687" lon="6.77648">
        <ele>1933.35</ele>
        <time>2019-08-04T11:57:41Z</time>
      </trkpt>
      <trkpt lat="45.85686" lon="6.77647">
        <ele>1933.83</ele>
        <time>2019-08-04T11:57:42Z</time>
      </trkpt>
      <trkpt lat="45.85682" lon="6.77642">
        <ele>1934.79</ele>
        <time>2019-08-04T11:57:47Z</time>
      </trkpt>
      <trkpt lat="45.85681" lon="6.77643">
        <ele>1934.79</ele>
        <time>2019-08-04T11:57:48Z</time>
      </trkpt>
      <trkpt lat="45.8568" lon="6.77643">
        <ele>1935.27</ele>
        <time>2019-08-04T11:57:50Z</time>
      </trkpt>
      <trkpt lat="45.85679" lon="6.77642">
        <ele>1935.27</ele>
        <time>2019-08-04T11:57:51Z</time>
      </trkpt>
      <trkpt lat="45.85678" lon="6.77643">
        <ele>1935.75</ele>
        <time>2019-08-04T11:57:52Z</time>
      </trkpt>
      <trkpt lat="45.85677" lon="6.77643">
        <ele>1936.23</ele>
        <time>2019-08-04T11:57:53Z</time>
      </trkpt>
      <trkpt lat="45.85675" lon="6.77644">
        <ele>1936.23</ele>
        <time>2019-08-04T11:57:54Z</time>
      </trkpt>
      <trkpt lat="45.85674" lon="6.77643">
        <ele>1936.71</ele>
        <time>2019-08-04T11:57:55Z</time>
      </trkpt>
      <trkpt lat="45.85673" lon="6.77642">
        <ele>1937.19</ele>
        <time>2019-08-04T11:57:56Z</time>
      </trkpt>
      <trkpt lat="45.85672" lon="6.77641">
        <ele>1937.19</ele>
        <time>2019-08-04T11:57:57Z</time>
      </trkpt>
      <trkpt lat="45.85671" lon="6.77641">
        <ele>1937.19</ele>
        <time>2019-08-04T11:57:58Z</time>
      </trkpt>
      <trkpt lat="45.8567" lon="6.7764">
        <ele>1937.67</ele>
        <time>2019-08-04T11:57:59Z</time>
      </trkpt>
      <trkpt lat="45.85669" lon="6.77639">
        <ele>1937.67</ele>
        <time>2019-08-04T11:58:00Z</time>
      </trkpt>
      <trkpt lat="45.85668" lon="6.77639">
        <ele>1938.16</ele>
        <time>2019-08-04T11:58:01Z</time>
      </trkpt>
      <trkpt lat="45.85666" lon="6.77638">
        <ele>1938.64</ele>
        <time>2019-08-04T11:58:02Z</time>
      </trkpt>
      <trkpt lat="45.85664" lon="6.77638">
        <ele>1938.64</ele>
        <time>2019-08-04T11:58:03Z</time>
      </trkpt>
      <trkpt lat="45.85659" lon="6.77633">
        <ele>1939.12</ele>
        <time>2019-08-04T11:58:07Z</time>
      </trkpt>
      <trkpt lat="45.85658" lon="6.77631">
        <ele>1939.6</ele>
        <time>2019-08-04T11:58:08Z</time>
      </trkpt>
      <trkpt lat="45.85651" lon="6.77621">
        <ele>1941.04</ele>
        <time>2019-08-04T11:58:15Z</time>
      </trkpt>
      <trkpt lat="45.8565" lon="6.77618">
        <ele>1941.04</ele>
        <time>2019-08-04T11:58:16Z</time>
      </trkpt>
      <trkpt lat="45.85649" lon="6.77616">
        <ele>1941.04</ele>
        <time>2019-08-04T11:58:17Z</time>
      </trkpt>
      <trkpt lat="45.85648" lon="6.77614">
        <ele>1941.04</ele>
        <time>2019-08-04T11:58:18Z</time>
      </trkpt>
      <trkpt lat="45.85647" lon="6.77612">
        <ele>1941.52</ele>
        <time>2019-08-04T11:58:19Z</time>
      </trkpt>
      <trkpt lat="45.85643" lon="6.77608">
        <ele>1942.48</ele>
        <time>2019-08-04T11:58:23Z</time>
      </trkpt>
      <trkpt lat="45.85638" lon="6.77603">
        <ele>1943.44</ele>
        <time>2019-08-04T11:58:28Z</time>
      </trkpt>
      <trkpt lat="45.85637" lon="6.77601">
        <ele>1943.92</ele>
        <time>2019-08-04T11:58:29Z</time>
      </trkpt>
      <trkpt lat="45.85628" lon="6.77586">
        <ele>1947.29</ele>
        <time>2019-08-04T11:58:40Z</time>
      </trkpt>
      <trkpt lat="45.85627" lon="6.77579">
        <ele>1948.25</ele>
        <time>2019-08-04T11:58:44Z</time>
      </trkpt>
      <trkpt lat="45.85627" lon="6.77577">
        <ele>1948.73</ele>
        <time>2019-08-04T11:58:45Z</time>
      </trkpt>
      <trkpt lat="45.85627" lon="6.77576">
        <ele>1948.73</ele>
        <time>2019-08-04T11:58:46Z</time>
      </trkpt>
      <trkpt lat="45.85627" lon="6.77574">
        <ele>1949.21</ele>
        <time>2019-08-04T11:58:47Z</time>
      </trkpt>
      <trkpt lat="45.85626" lon="6.77573">
        <ele>1949.21</ele>
        <time>2019-08-04T11:58:48Z</time>
      </trkpt>
      <trkpt lat="45.85626" lon="6.77572">
        <ele>1949.69</ele>
        <time>2019-08-04T11:58:49Z</time>
      </trkpt>
      <trkpt lat="45.85625" lon="6.77571">
        <ele>1950.17</ele>
        <time>2019-08-04T11:58:50Z</time>
      </trkpt>
      <trkpt lat="45.85623" lon="6.77562">
        <ele>1951.61</ele>
        <time>2019-08-04T11:58:56Z</time>
      </trkpt>
      <trkpt lat="45.85621" lon="6.77561">
        <ele>1952.57</ele>
        <time>2019-08-04T11:58:59Z</time>
      </trkpt>
      <trkpt lat="45.8562" lon="6.7756">
        <ele>1953.06</ele>
        <time>2019-08-04T11:59:00Z</time>
      </trkpt>
      <trkpt lat="45.8562" lon="6.77559">
        <ele>1953.54</ele>
        <time>2019-08-04T11:59:01Z</time>
      </trkpt>
      <trkpt lat="45.85619" lon="6.77558">
        <ele>1954.02</ele>
        <time>2019-08-04T11:59:02Z</time>
      </trkpt>
      <trkpt lat="45.85618" lon="6.77557">
        <ele>1954.02</ele>
        <time>2019-08-04T11:59:03Z</time>
      </trkpt>
      <trkpt lat="45.85618" lon="6.77555">
        <ele>1954.5</ele>
        <time>2019-08-04T11:59:04Z</time>
      </trkpt>
      <trkpt lat="45.85617" lon="6.77555">
        <ele>1954.98</ele>
        <time>2019-08-04T11:59:05Z</time>
      </trkpt>
      <trkpt lat="45.85616" lon="6.77554">
        <ele>1954.98</ele>
        <time>2019-08-04T11:59:06Z</time>
      </trkpt>
      <trkpt lat="45.85615" lon="6.77553">
        <ele>1955.46</ele>
        <time>2019-08-04T11:59:07Z</time>
      </trkpt>
      <trkpt lat="45.85608" lon="6.77541">
        <ele>1958.34</ele>
        <time>2019-08-04T11:59:17Z</time>
      </trkpt>
      <trkpt lat="45.85608" lon="6.7754">
        <ele>1958.82</ele>
        <time>2019-08-04T11:59:18Z</time>
      </trkpt>
      <trkpt lat="45.85602" lon="6.77535">
        <ele>1960.75</ele>
        <time>2019-08-04T11:59:24Z</time>
      </trkpt>
      <trkpt lat="45.85602" lon="6.77534">
        <ele>1961.23</ele>
        <time>2019-08-04T11:59:25Z</time>
      </trkpt>
      <trkpt lat="45.85601" lon="6.77533">
        <ele>1961.23</ele>
        <time>2019-08-04T11:59:26Z</time>
      </trkpt>
      <trkpt lat="45.85599" lon="6.77527">
        <ele>1962.19</ele>
        <time>2019-08-04T11:59:30Z</time>
      </trkpt>
      <trkpt lat="45.85598" lon="6.77526">
        <ele>1962.67</ele>
        <time>2019-08-04T11:59:31Z</time>
      </trkpt>
      <trkpt lat="45.85597" lon="6.77526">
        <ele>1963.15</ele>
        <time>2019-08-04T11:59:32Z</time>
      </trkpt>
      <trkpt lat="45.85596" lon="6.77526">
        <ele>1963.15</ele>
        <time>2019-08-04T11:59:33Z</time>
      </trkpt>
      <trkpt lat="45.85596" lon="6.77525">
        <ele>1963.63</ele>
        <time>2019-08-04T11:59:34Z</time>
      </trkpt>
      <trkpt lat="45.85595" lon="6.77523">
        <ele>1963.63</ele>
        <time>2019-08-04T11:59:35Z</time>
      </trkpt>
      <trkpt lat="45.85594" lon="6.77521">
        <ele>1963.63</ele>
        <time>2019-08-04T11:59:36Z</time>
      </trkpt>
      <trkpt lat="45.85593" lon="6.77521">
        <ele>1964.11</ele>
        <time>2019-08-04T11:59:37Z</time>
      </trkpt>
      <trkpt lat="45.85592" lon="6.7752">
        <ele>1964.59</ele>
        <time>2019-08-04T11:59:38Z</time>
      </trkpt>
      <trkpt lat="45.85592" lon="6.77519">
        <ele>1964.59</ele>
        <time>2019-08-04T11:59:39Z</time>
      </trkpt>
      <trkpt lat="45.85591" lon="6.77518">
        <ele>1965.07</ele>
        <time>2019-08-04T11:59:40Z</time>
      </trkpt>
      <trkpt lat="45.8559" lon="6.77517">
        <ele>1965.07</ele>
        <time>2019-08-04T11:59:41Z</time>
      </trkpt>
      <trkpt lat="45.85589" lon="6.77517">
        <ele>1965.55</ele>
        <time>2019-08-04T11:59:42Z</time>
      </trkpt>
      <trkpt lat="45.85585" lon="6.77516">
        <ele>1966.03</ele>
        <time>2019-08-04T11:59:46Z</time>
      </trkpt>
      <trkpt lat="45.85584" lon="6.77516">
        <ele>1966.03</ele>
        <time>2019-08-04T11:59:47Z</time>
      </trkpt>
      <trkpt lat="45.85583" lon="6.77515">
        <ele>1966.51</ele>
        <time>2019-08-04T11:59:48Z</time>
      </trkpt>
      <trkpt lat="45.85582" lon="6.77513">
        <ele>1966.99</ele>
        <time>2019-08-04T11:59:49Z</time>
      </trkpt>
      <trkpt lat="45.85582" lon="6.77511">
        <ele>1967.48</ele>
        <time>2019-08-04T11:59:50Z</time>
      </trkpt>
      <trkpt lat="45.85581" lon="6.7751">
        <ele>1967.48</ele>
        <time>2019-08-04T11:59:51Z</time>
      </trkpt>
      <trkpt lat="45.8558" lon="6.77509">
        <ele>1967.96</ele>
        <time>2019-08-04T11:59:52Z</time>
      </trkpt>
      <trkpt lat="45.8558" lon="6.77507">
        <ele>1968.44</ele>
        <time>2019-08-04T11:59:53Z</time>
      </trkpt>
      <trkpt lat="45.8558" lon="6.77506">
        <ele>1968.44</ele>
        <time>2019-08-04T11:59:54Z</time>
      </trkpt>
      <trkpt lat="45.85579" lon="6.77504">
        <ele>1968.44</ele>
        <time>2019-08-04T11:59:55Z</time>
      </trkpt>
      <trkpt lat="45.85579" lon="6.77504">
        <ele>1968.92</ele>
        <time>2019-08-04T11:59:56Z</time>
      </trkpt>
      <trkpt lat="45.85578" lon="6.77503">
        <ele>1969.4</ele>
        <time>2019-08-04T11:59:57Z</time>
      </trkpt>
      <trkpt lat="45.85577" lon="6.77501">
        <ele>1969.4</ele>
        <time>2019-08-04T11:59:58Z</time>
      </trkpt>
      <trkpt lat="45.85576" lon="6.775">
        <ele>1969.4</ele>
        <time>2019-08-04T11:59:59Z</time>
      </trkpt>
      <trkpt lat="45.85576" lon="6.77498">
        <ele>1969.88</ele>
        <time>2019-08-04T12:00:00Z</time>
      </trkpt>
      <trkpt lat="45.85575" lon="6.77496">
        <ele>1969.88</ele>
        <time>2019-08-04T12:00:01Z</time>
      </trkpt>
      <trkpt lat="45.85575" lon="6.77496">
        <ele>1970.36</ele>
        <time>2019-08-04T12:00:02Z</time>
      </trkpt>
      <trkpt lat="45.85573" lon="6.77495">
        <ele>1970.84</ele>
        <time>2019-08-04T12:00:03Z</time>
      </trkpt>
      <trkpt lat="45.85572" lon="6.77496">
        <ele>1970.84</ele>
        <time>2019-08-04T12:00:04Z</time>
      </trkpt>
      <trkpt lat="45.85571" lon="6.77495">
        <ele>1970.84</ele>
        <time>2019-08-04T12:00:05Z</time>
      </trkpt>
      <trkpt lat="45.85571" lon="6.77495">
        <ele>1971.32</ele>
        <time>2019-08-04T12:00:06Z</time>
      </trkpt>
      <trkpt lat="45.8557" lon="6.77494">
        <ele>1971.8</ele>
        <time>2019-08-04T12:00:07Z</time>
      </trkpt>
      <trkpt lat="45.85569" lon="6.77492">
        <ele>1971.8</ele>
        <time>2019-08-04T12:00:08Z</time>
      </trkpt>
      <trkpt lat="45.85561" lon="6.77478">
        <ele>1974.69</ele>
        <time>2019-08-04T12:00:19Z</time>
      </trkpt>
      <trkpt lat="45.85551" lon="6.77462">
        <ele>1977.57</ele>
        <time>2019-08-04T12:00:32Z</time>
      </trkpt>
      <trkpt lat="45.8555" lon="6.7746">
        <ele>1978.05</ele>
        <time>2019-08-04T12:00:34Z</time>
      </trkpt>
      <trkpt lat="45.85548" lon="6.77462">
        <ele>1979.01</ele>
        <time>2019-08-04T12:00:37Z</time>
      </trkpt>
      <trkpt lat="45.85547" lon="6.77462">
        <ele>1979.01</ele>
        <time>2019-08-04T12:00:38Z</time>
      </trkpt>
      <trkpt lat="45.85546" lon="6.77461">
        <ele>1979.01</ele>
        <time>2019-08-04T12:00:39Z</time>
      </trkpt>
      <trkpt lat="45.85545" lon="6.7746">
        <ele>1979.01</ele>
        <time>2019-08-04T12:00:40Z</time>
      </trkpt>
      <trkpt lat="45.85542" lon="6.77456">
        <ele>1980.93</ele>
        <time>2019-08-04T12:00:47Z</time>
      </trkpt>
      <trkpt lat="45.85535" lon="6.77444">
        <ele>1983.82</ele>
        <time>2019-08-04T12:01:03Z</time>
      </trkpt>
      <trkpt lat="45.85532" lon="6.77443">
        <ele>1985.26</ele>
        <time>2019-08-04T12:01:08Z</time>
      </trkpt>
      <trkpt lat="45.85531" lon="6.77442">
        <ele>1985.26</ele>
        <time>2019-08-04T12:01:09Z</time>
      </trkpt>
      <trkpt lat="45.85531" lon="6.77439">
        <ele>1985.26</ele>
        <time>2019-08-04T12:01:10Z</time>
      </trkpt>
      <trkpt lat="45.85531" lon="6.77439">
        <ele>1985.74</ele>
        <time>2019-08-04T12:01:11Z</time>
      </trkpt>
      <trkpt lat="45.8553" lon="6.77438">
        <ele>1985.74</ele>
        <time>2019-08-04T12:01:12Z</time>
      </trkpt>
      <trkpt lat="45.85529" lon="6.77438">
        <ele>1985.74</ele>
        <time>2019-08-04T12:01:13Z</time>
      </trkpt>
      <trkpt lat="45.85522" lon="6.77437">
        <ele>1987.66</ele>
        <time>2019-08-04T12:01:24Z</time>
      </trkpt>
      <trkpt lat="45.85521" lon="6.77433">
        <ele>1989.1</ele>
        <time>2019-08-04T12:01:28Z</time>
      </trkpt>
      <trkpt lat="45.85504" lon="6.77417">
        <ele>1991.99</ele>
        <time>2019-08-04T12:01:43Z</time>
      </trkpt>
      <trkpt lat="45.8549" lon="6.77396">
        <ele>1995.35</ele>
        <time>2019-08-04T12:01:57Z</time>
      </trkpt>
      <trkpt lat="45.85473" lon="6.77387">
        <ele>1996.8</ele>
        <time>2019-08-04T12:02:09Z</time>
      </trkpt>
      <trkpt lat="45.85472" lon="6.77387">
        <ele>1997.28</ele>
        <time>2019-08-04T12:02:10Z</time>
      </trkpt>
      <trkpt lat="45.85461" lon="6.7738">
        <ele>2000.16</ele>
        <time>2019-08-04T12:02:24Z</time>
      </trkpt>
      <trkpt lat="45.85447" lon="6.77371">
        <ele>2003.04</ele>
        <time>2019-08-04T12:02:40Z</time>
      </trkpt>
      <trkpt lat="45.85442" lon="6.77365">
        <ele>2004.01</ele>
        <time>2019-08-04T12:02:45Z</time>
      </trkpt>
      <trkpt lat="45.85441" lon="6.77365">
        <ele>2004.01</ele>
        <time>2019-08-04T12:02:46Z</time>
      </trkpt>
      <trkpt lat="45.8544" lon="6.77364">
        <ele>2004.49</ele>
        <time>2019-08-04T12:02:47Z</time>
      </trkpt>
      <trkpt lat="45.85439" lon="6.77363">
        <ele>2004.49</ele>
        <time>2019-08-04T12:02:48Z</time>
      </trkpt>
      <trkpt lat="45.85438" lon="6.77361">
        <ele>2004.97</ele>
        <time>2019-08-04T12:02:49Z</time>
      </trkpt>
      <trkpt lat="45.85437" lon="6.7736">
        <ele>2004.97</ele>
        <time>2019-08-04T12:02:50Z</time>
      </trkpt>
      <trkpt lat="45.85436" lon="6.77359">
        <ele>2004.97</ele>
        <time>2019-08-04T12:02:51Z</time>
      </trkpt>
      <trkpt lat="45.85435" lon="6.77358">
        <ele>2004.97</ele>
        <time>2019-08-04T12:02:52Z</time>
      </trkpt>
      <trkpt lat="45.85434" lon="6.77356">
        <ele>2005.45</ele>
        <time>2019-08-04T12:02:53Z</time>
      </trkpt>
      <trkpt lat="45.85429" lon="6.77353">
        <ele>2006.41</ele>
        <time>2019-08-04T12:02:57Z</time>
      </trkpt>
      <trkpt lat="45.85428" lon="6.77352">
        <ele>2006.41</ele>
        <time>2019-08-04T12:02:58Z</time>
      </trkpt>
      <trkpt lat="45.85427" lon="6.77351">
        <ele>2006.41</ele>
        <time>2019-08-04T12:02:59Z</time>
      </trkpt>
      <trkpt lat="45.85426" lon="6.7735">
        <ele>2006.89</ele>
        <time>2019-08-04T12:03:00Z</time>
      </trkpt>
      <trkpt lat="45.85425" lon="6.77349">
        <ele>2006.89</ele>
        <time>2019-08-04T12:03:01Z</time>
      </trkpt>
      <trkpt lat="45.85424" lon="6.77348">
        <ele>2007.37</ele>
        <time>2019-08-04T12:03:02Z</time>
      </trkpt>
      <trkpt lat="45.85423" lon="6.77346">
        <ele>2007.37</ele>
        <time>2019-08-04T12:03:03Z</time>
      </trkpt>
      <trkpt lat="45.85422" lon="6.77346">
        <ele>2007.85</ele>
        <time>2019-08-04T12:03:04Z</time>
      </trkpt>
      <trkpt lat="45.85421" lon="6.77345">
        <ele>2007.85</ele>
        <time>2019-08-04T12:03:05Z</time>
      </trkpt>
      <trkpt lat="45.8542" lon="6.77344">
        <ele>2008.33</ele>
        <time>2019-08-04T12:03:06Z</time>
      </trkpt>
      <trkpt lat="45.85419" lon="6.77343">
        <ele>2008.33</ele>
        <time>2019-08-04T12:03:07Z</time>
      </trkpt>
      <trkpt lat="45.85418" lon="6.77343">
        <ele>2008.33</ele>
        <time>2019-08-04T12:03:08Z</time>
      </trkpt>
      <trkpt lat="45.85416" lon="6.77343">
        <ele>2008.81</ele>
        <time>2019-08-04T12:03:09Z</time>
      </trkpt>
      <trkpt lat="45.85409" lon="6.77341">
        <ele>2010.25</ele>
        <time>2019-08-04T12:03:15Z</time>
      </trkpt>
      <trkpt lat="45.8539" lon="6.77329">
        <ele>2013.14</ele>
        <time>2019-08-04T12:03:31Z</time>
      </trkpt>
      <trkpt lat="45.85386" lon="6.77327">
        <ele>2014.1</ele>
        <time>2019-08-04T12:03:34Z</time>
      </trkpt>
      <trkpt lat="45.85371" lon="6.77317">
        <ele>2016.98</ele>
        <time>2019-08-04T12:03:48Z</time>
      </trkpt>
      <trkpt lat="45.85359" lon="6.77308">
        <ele>2020.35</ele>
        <time>2019-08-04T12:04:01Z</time>
      </trkpt>
      <trkpt lat="45.85359" lon="6.77308">
        <ele>2020.35</ele>
        <time>2019-08-04T12:04:02Z</time>
      </trkpt>
      <trkpt lat="45.85358" lon="6.77308">
        <ele>2020.83</ele>
        <time>2019-08-04T12:04:03Z</time>
      </trkpt>
      <trkpt lat="45.85356" lon="6.77308">
        <ele>2020.83</ele>
        <time>2019-08-04T12:04:04Z</time>
      </trkpt>
      <trkpt lat="45.85355" lon="6.77308">
        <ele>2020.83</ele>
        <time>2019-08-04T12:04:05Z</time>
      </trkpt>
      <trkpt lat="45.85354" lon="6.77307">
        <ele>2020.83</ele>
        <time>2019-08-04T12:04:06Z</time>
      </trkpt>
      <trkpt lat="45.85353" lon="6.77307">
        <ele>2021.31</ele>
        <time>2019-08-04T12:04:07Z</time>
      </trkpt>
      <trkpt lat="45.85352" lon="6.77307">
        <ele>2021.79</ele>
        <time>2019-08-04T12:04:08Z</time>
      </trkpt>
      <trkpt lat="45.85351" lon="6.77306">
        <ele>2021.79</ele>
        <time>2019-08-04T12:04:09Z</time>
      </trkpt>
      <trkpt lat="45.8535" lon="6.77306">
        <ele>2022.27</ele>
        <time>2019-08-04T12:04:10Z</time>
      </trkpt>
      <trkpt lat="45.85349" lon="6.77306">
        <ele>2022.27</ele>
        <time>2019-08-04T12:04:11Z</time>
      </trkpt>
      <trkpt lat="45.85347" lon="6.77305">
        <ele>2022.75</ele>
        <time>2019-08-04T12:04:12Z</time>
      </trkpt>
      <trkpt lat="45.85341" lon="6.77301">
        <ele>2024.19</ele>
        <time>2019-08-04T12:04:18Z</time>
      </trkpt>
      <trkpt lat="45.8534" lon="6.773">
        <ele>2024.19</ele>
        <time>2019-08-04T12:04:19Z</time>
      </trkpt>
      <trkpt lat="45.85327" lon="6.77294">
        <ele>2027.56</ele>
        <time>2019-08-04T12:04:31Z</time>
      </trkpt>
      <trkpt lat="45.85319" lon="6.77288">
        <ele>2029</ele>
        <time>2019-08-04T12:04:39Z</time>
      </trkpt>
      <trkpt lat="45.85318" lon="6.77287">
        <ele>2029.48</ele>
        <time>2019-08-04T12:04:40Z</time>
      </trkpt>
      <trkpt lat="45.85317" lon="6.77285">
        <ele>2029.96</ele>
        <time>2019-08-04T12:04:41Z</time>
      </trkpt>
      <trkpt lat="45.85314" lon="6.77283">
        <ele>2029.96</ele>
        <time>2019-08-04T12:04:45Z</time>
      </trkpt>
      <trkpt lat="45.85313" lon="6.77283">
        <ele>2030.44</ele>
        <time>2019-08-04T12:04:46Z</time>
      </trkpt>
      <trkpt lat="45.85312" lon="6.77282">
        <ele>2030.92</ele>
        <time>2019-08-04T12:04:47Z</time>
      </trkpt>
      <trkpt lat="45.85312" lon="6.77281">
        <ele>2030.92</ele>
        <time>2019-08-04T12:04:48Z</time>
      </trkpt>
      <trkpt lat="45.85311" lon="6.77279">
        <ele>2031.4</ele>
        <time>2019-08-04T12:04:49Z</time>
      </trkpt>
      <trkpt lat="45.8531" lon="6.77278">
        <ele>2031.4</ele>
        <time>2019-08-04T12:04:50Z</time>
      </trkpt>
      <trkpt lat="45.85299" lon="6.77264">
        <ele>2034.77</ele>
        <time>2019-08-04T12:05:03Z</time>
      </trkpt>
      <trkpt lat="45.85298" lon="6.77264">
        <ele>2034.77</ele>
        <time>2019-08-04T12:05:04Z</time>
      </trkpt>
      <trkpt lat="45.85289" lon="6.7726">
        <ele>2036.69</ele>
        <time>2019-08-04T12:05:13Z</time>
      </trkpt>
      <trkpt lat="45.85276" lon="6.77254">
        <ele>2039.57</ele>
        <time>2019-08-04T12:05:34Z</time>
      </trkpt>
      <trkpt lat="45.85272" lon="6.77245">
        <ele>2041.98</ele>
        <time>2019-08-04T12:05:43Z</time>
      </trkpt>
      <trkpt lat="45.85272" lon="6.77244">
        <ele>2041.98</ele>
        <time>2019-08-04T12:05:44Z</time>
      </trkpt>
      <trkpt lat="45.85272" lon="6.77243">
        <ele>2041.98</ele>
        <time>2019-08-04T12:05:45Z</time>
      </trkpt>
      <trkpt lat="45.8527" lon="6.77238">
        <ele>2041.98</ele>
        <time>2019-08-04T12:05:49Z</time>
      </trkpt>
      <trkpt lat="45.85268" lon="6.77236">
        <ele>2043.9</ele>
        <time>2019-08-04T12:05:53Z</time>
      </trkpt>
      <trkpt lat="45.85266" lon="6.77236">
        <ele>2044.38</ele>
        <time>2019-08-04T12:05:55Z</time>
      </trkpt>
      <trkpt lat="45.85249" lon="6.77226">
        <ele>2047.26</ele>
        <time>2019-08-04T12:06:13Z</time>
      </trkpt>
      <trkpt lat="45.85237" lon="6.77217">
        <ele>2050.63</ele>
        <time>2019-08-04T12:06:27Z</time>
      </trkpt>
      <trkpt lat="45.85226" lon="6.7721">
        <ele>2053.51</ele>
        <time>2019-08-04T12:06:43Z</time>
      </trkpt>
      <trkpt lat="45.85216" lon="6.77199">
        <ele>2056.4</ele>
        <time>2019-08-04T12:06:59Z</time>
      </trkpt>
      <trkpt lat="45.85216" lon="6.77197">
        <ele>2056.4</ele>
        <time>2019-08-04T12:07:00Z</time>
      </trkpt>
      <trkpt lat="45.85206" lon="6.77186">
        <ele>2059.76</ele>
        <time>2019-08-04T12:07:15Z</time>
      </trkpt>
      <trkpt lat="45.85197" lon="6.77182">
        <ele>2062.65</ele>
        <time>2019-08-04T12:07:28Z</time>
      </trkpt>
      <trkpt lat="45.85189" lon="6.77176">
        <ele>2065.53</ele>
        <time>2019-08-04T12:07:42Z</time>
      </trkpt>
      <trkpt lat="45.85177" lon="6.77169">
        <ele>2068.89</ele>
        <time>2019-08-04T12:07:57Z</time>
      </trkpt>
      <trkpt lat="45.85172" lon="6.77161">
        <ele>2071.78</ele>
        <time>2019-08-04T12:08:10Z</time>
      </trkpt>
      <trkpt lat="45.85166" lon="6.77153">
        <ele>2075.14</ele>
        <time>2019-08-04T12:08:24Z</time>
      </trkpt>
      <trkpt lat="45.85161" lon="6.77144">
        <ele>2078.03</ele>
        <time>2019-08-04T12:08:39Z</time>
      </trkpt>
      <trkpt lat="45.85157" lon="6.77143">
        <ele>2079.47</ele>
        <time>2019-08-04T12:08:44Z</time>
      </trkpt>
      <trkpt lat="45.85149" lon="6.7714">
        <ele>2082.83</ele>
        <time>2019-08-04T12:08:56Z</time>
      </trkpt>
      <trkpt lat="45.85147" lon="6.77137">
        <ele>2083.79</ele>
        <time>2019-08-04T12:08:59Z</time>
      </trkpt>
      <trkpt lat="45.85138" lon="6.77131">
        <ele>2086.68</ele>
        <time>2019-08-04T12:09:13Z</time>
      </trkpt>
      <trkpt lat="45.85136" lon="6.77126">
        <ele>2087.64</ele>
        <time>2019-08-04T12:09:17Z</time>
      </trkpt>
      <trkpt lat="45.85135" lon="6.77126">
        <ele>2087.64</ele>
        <time>2019-08-04T12:09:18Z</time>
      </trkpt>
      <trkpt lat="45.85128" lon="6.77116">
        <ele>2089.08</ele>
        <time>2019-08-04T12:09:28Z</time>
      </trkpt>
      <trkpt lat="45.85121" lon="6.77109">
        <ele>2090.04</ele>
        <time>2019-08-04T12:09:36Z</time>
      </trkpt>
      <trkpt lat="45.85115" lon="6.77099">
        <ele>2090.52</ele>
        <time>2019-08-04T12:09:44Z</time>
      </trkpt>
      <trkpt lat="45.85114" lon="6.77097">
        <ele>2091</ele>
        <time>2019-08-04T12:09:45Z</time>
      </trkpt>
      <trkpt lat="45.85113" lon="6.77096">
        <ele>2091</ele>
        <time>2019-08-04T12:09:46Z</time>
      </trkpt>
      <trkpt lat="45.8511" lon="6.77093">
        <ele>2091.49</ele>
        <time>2019-08-04T12:09:50Z</time>
      </trkpt>
      <trkpt lat="45.85109" lon="6.77092">
        <ele>2091.97</ele>
        <time>2019-08-04T12:09:52Z</time>
      </trkpt>
      <trkpt lat="45.85102" lon="6.77083">
        <ele>2094.37</ele>
        <time>2019-08-04T12:10:03Z</time>
      </trkpt>
      <trkpt lat="45.85094" lon="6.77057">
        <ele>2097.73</ele>
        <time>2019-08-04T12:10:21Z</time>
      </trkpt>
      <trkpt lat="45.85094" lon="6.77056">
        <ele>2097.73</ele>
        <time>2019-08-04T12:10:22Z</time>
      </trkpt>
      <trkpt lat="45.85093" lon="6.77053">
        <ele>2098.21</ele>
        <time>2019-08-04T12:10:24Z</time>
      </trkpt>
      <trkpt lat="45.85088" lon="6.77041">
        <ele>2101.58</ele>
        <time>2019-08-04T12:10:35Z</time>
      </trkpt>
      <trkpt lat="45.85083" lon="6.77031">
        <ele>2104.46</ele>
        <time>2019-08-04T12:10:47Z</time>
      </trkpt>
      <trkpt lat="45.85071" lon="6.7702">
        <ele>2107.83</ele>
        <time>2019-08-04T12:11:05Z</time>
      </trkpt>
      <trkpt lat="45.85062" lon="6.7701">
        <ele>2110.71</ele>
        <time>2019-08-04T12:11:21Z</time>
      </trkpt>
      <trkpt lat="45.85051" lon="6.77002">
        <ele>2113.6</ele>
        <time>2019-08-04T12:11:38Z</time>
      </trkpt>
      <trkpt lat="45.85048" lon="6.77005">
        <ele>2114.56</ele>
        <time>2019-08-04T12:11:42Z</time>
      </trkpt>
      <trkpt lat="45.85048" lon="6.77007">
        <ele>2114.56</ele>
        <time>2019-08-04T12:11:43Z</time>
      </trkpt>
      <trkpt lat="45.85045" lon="6.77013">
        <ele>2114.56</ele>
        <time>2019-08-04T12:11:46Z</time>
      </trkpt>
      <trkpt lat="45.85043" lon="6.77014">
        <ele>2114.56</ele>
        <time>2019-08-04T12:11:47Z</time>
      </trkpt>
      <trkpt lat="45.85042" lon="6.77014">
        <ele>2114.08</ele>
        <time>2019-08-04T12:11:48Z</time>
      </trkpt>
      <trkpt lat="45.85041" lon="6.77015">
        <ele>2114.08</ele>
        <time>2019-08-04T12:11:49Z</time>
      </trkpt>
      <trkpt lat="45.85039" lon="6.77015">
        <ele>2114.08</ele>
        <time>2019-08-04T12:11:50Z</time>
      </trkpt>
      <trkpt lat="45.85034" lon="6.77019">
        <ele>2114.56</ele>
        <time>2019-08-04T12:11:56Z</time>
      </trkpt>
      <trkpt lat="45.85033" lon="6.7702">
        <ele>2114.56</ele>
        <time>2019-08-04T12:11:57Z</time>
      </trkpt>
      <trkpt lat="45.85034" lon="6.77017">
        <ele>2113.6</ele>
        <time>2019-08-04T12:12:55Z</time>
      </trkpt>
      <trkpt lat="45.85035" lon="6.77017">
        <ele>2114.08</ele>
        <time>2019-08-04T12:15:51Z</time>
      </trkpt>
      <trkpt lat="45.85036" lon="6.77016">
        <ele>2114.08</ele>
        <time>2019-08-04T12:16:27Z</time>
      </trkpt>
      <trkpt lat="45.85033" lon="6.77016">
        <ele>2114.08</ele>
        <time>2019-08-04T12:17:24Z</time>
      </trkpt>
      <trkpt lat="45.85033" lon="6.77017">
        <ele>2114.08</ele>
        <time>2019-08-04T12:18:05Z</time>
      </trkpt>
      <trkpt lat="45.85032" lon="6.7702">
        <ele>2115.04</ele>
        <time>2019-08-04T12:19:22Z</time>
      </trkpt>
      <trkpt lat="45.85032" lon="6.77021">
        <ele>2115.52</ele>
        <time>2019-08-04T12:19:23Z</time>
      </trkpt>
      <trkpt lat="45.85031" lon="6.77024">
        <ele>2115.52</ele>
        <time>2019-08-04T12:19:37Z</time>
      </trkpt>
      <trkpt lat="45.85031" lon="6.77022">
        <ele>2115.52</ele>
        <time>2019-08-04T12:19:38Z</time>
      </trkpt>
      <trkpt lat="45.85032" lon="6.77021">
        <ele>2115.52</ele>
        <time>2019-08-04T12:19:39Z</time>
      </trkpt>
      <trkpt lat="45.85032" lon="6.77024">
        <ele>2115.52</ele>
        <time>2019-08-04T12:19:51Z</time>
      </trkpt>
      <trkpt lat="45.85032" lon="6.77025">
        <ele>2116</ele>
        <time>2019-08-04T12:19:52Z</time>
      </trkpt>
      <trkpt lat="45.85025" lon="6.77051">
        <ele>2118.4</ele>
        <time>2019-08-04T12:20:15Z</time>
      </trkpt>
      <trkpt lat="45.85025" lon="6.77056">
        <ele>2119.84</ele>
        <time>2019-08-04T12:20:46Z</time>
      </trkpt>
      <trkpt lat="45.85021" lon="6.77064">
        <ele>2123.21</ele>
        <time>2019-08-04T12:20:58Z</time>
      </trkpt>
      <trkpt lat="45.85018" lon="6.77073">
        <ele>2126.09</ele>
        <time>2019-08-04T12:21:08Z</time>
      </trkpt>
      <trkpt lat="45.85015" lon="6.77081">
        <ele>2129.46</ele>
        <time>2019-08-04T12:21:20Z</time>
      </trkpt>
      <trkpt lat="45.8501" lon="6.77089">
        <ele>2132.82</ele>
        <time>2019-08-04T12:21:32Z</time>
      </trkpt>
      <trkpt lat="45.85006" lon="6.77096">
        <ele>2135.71</ele>
        <time>2019-08-04T12:21:45Z</time>
      </trkpt>
      <trkpt lat="45.85004" lon="6.77106">
        <ele>2138.59</ele>
        <time>2019-08-04T12:21:59Z</time>
      </trkpt>
      <trkpt lat="45.85" lon="6.7711">
        <ele>2141.95</ele>
        <time>2019-08-04T12:22:11Z</time>
      </trkpt>
      <trkpt lat="45.84999" lon="6.77109">
        <ele>2143.4</ele>
        <time>2019-08-04T12:22:16Z</time>
      </trkpt>
      <trkpt lat="45.84999" lon="6.77107">
        <ele>2144.84</ele>
        <time>2019-08-04T12:22:21Z</time>
      </trkpt>
      <trkpt lat="45.84998" lon="6.77114">
        <ele>2148.2</ele>
        <time>2019-08-04T12:22:36Z</time>
      </trkpt>
      <trkpt lat="45.84995" lon="6.7712">
        <ele>2151.57</ele>
        <time>2019-08-04T12:22:50Z</time>
      </trkpt>
      <trkpt lat="45.84989" lon="6.77128">
        <ele>2154.45</ele>
        <time>2019-08-04T12:23:06Z</time>
      </trkpt>
      <trkpt lat="45.8499" lon="6.77136">
        <ele>2157.34</ele>
        <time>2019-08-04T12:23:21Z</time>
      </trkpt>
      <trkpt lat="45.84995" lon="6.77147">
        <ele>2160.22</ele>
        <time>2019-08-04T12:23:38Z</time>
      </trkpt>
      <trkpt lat="45.84996" lon="6.77155">
        <ele>2162.62</ele>
        <time>2019-08-04T12:23:50Z</time>
      </trkpt>
      <trkpt lat="45.84997" lon="6.77155">
        <ele>2163.1</ele>
        <time>2019-08-04T12:23:51Z</time>
      </trkpt>
      <trkpt lat="45.84989" lon="6.77158">
        <ele>2165.99</ele>
        <time>2019-08-04T12:24:09Z</time>
      </trkpt>
      <trkpt lat="45.84984" lon="6.77158">
        <ele>2169.35</ele>
        <time>2019-08-04T12:24:23Z</time>
      </trkpt>
      <trkpt lat="45.84982" lon="6.77157">
        <ele>2172.24</ele>
        <time>2019-08-04T12:24:36Z</time>
      </trkpt>
      <trkpt lat="45.84984" lon="6.77163">
        <ele>2173.68</ele>
        <time>2019-08-04T12:24:46Z</time>
      </trkpt>
      <trkpt lat="45.84988" lon="6.7717">
        <ele>2176.56</ele>
        <time>2019-08-04T12:25:01Z</time>
      </trkpt>
      <trkpt lat="45.8499" lon="6.77175">
        <ele>2178.97</ele>
        <time>2019-08-04T12:25:12Z</time>
      </trkpt>
      <trkpt lat="45.84985" lon="6.77179">
        <ele>2181.85</ele>
        <time>2019-08-04T12:25:29Z</time>
      </trkpt>
      <trkpt lat="45.84985" lon="6.77185">
        <ele>2185.21</ele>
        <time>2019-08-04T12:25:45Z</time>
      </trkpt>
      <trkpt lat="45.84987" lon="6.77187">
        <ele>2186.18</ele>
        <time>2019-08-04T12:25:50Z</time>
      </trkpt>
      <trkpt lat="45.84985" lon="6.77195">
        <ele>2189.54</ele>
        <time>2019-08-04T12:26:04Z</time>
      </trkpt>
      <trkpt lat="45.84985" lon="6.77202">
        <ele>2192.42</ele>
        <time>2019-08-04T12:26:19Z</time>
      </trkpt>
      <trkpt lat="45.84981" lon="6.77208">
        <ele>2195.79</ele>
        <time>2019-08-04T12:26:35Z</time>
      </trkpt>
      <trkpt lat="45.84978" lon="6.77216">
        <ele>2198.67</ele>
        <time>2019-08-04T12:26:49Z</time>
      </trkpt>
      <trkpt lat="45.84975" lon="6.7722">
        <ele>2201.08</ele>
        <time>2019-08-04T12:27:02Z</time>
      </trkpt>
      <trkpt lat="45.8497" lon="6.77215">
        <ele>2203.96</ele>
        <time>2019-08-04T12:27:17Z</time>
      </trkpt>
      <trkpt lat="45.84963" lon="6.77206">
        <ele>2206.84</ele>
        <time>2019-08-04T12:27:31Z</time>
      </trkpt>
      <trkpt lat="45.84962" lon="6.77205">
        <ele>2207.32</ele>
        <time>2019-08-04T12:27:32Z</time>
      </trkpt>
      <trkpt lat="45.84957" lon="6.77196">
        <ele>2210.21</ele>
        <time>2019-08-04T12:27:49Z</time>
      </trkpt>
      <trkpt lat="45.84951" lon="6.77198">
        <ele>2213.57</ele>
        <time>2019-08-04T12:28:04Z</time>
      </trkpt>
      <trkpt lat="45.84958" lon="6.77203">
        <ele>2216.46</ele>
        <time>2019-08-04T12:28:20Z</time>
      </trkpt>
      <trkpt lat="45.84963" lon="6.77208">
        <ele>2219.82</ele>
        <time>2019-08-04T12:28:36Z</time>
      </trkpt>
      <trkpt lat="45.84966" lon="6.77215">
        <ele>2222.71</ele>
        <time>2019-08-04T12:28:51Z</time>
      </trkpt>
      <trkpt lat="45.84964" lon="6.77224">
        <ele>2225.59</ele>
        <time>2019-08-04T12:29:11Z</time>
      </trkpt>
      <trkpt lat="45.84963" lon="6.77233">
        <ele>2228.95</ele>
        <time>2019-08-04T12:29:26Z</time>
      </trkpt>
      <trkpt lat="45.84962" lon="6.77241">
        <ele>2231.84</ele>
        <time>2019-08-04T12:29:42Z</time>
      </trkpt>
      <trkpt lat="45.84962" lon="6.77248">
        <ele>2235.2</ele>
        <time>2019-08-04T12:29:56Z</time>
      </trkpt>
      <trkpt lat="45.84958" lon="6.77256">
        <ele>2238.09</ele>
        <time>2019-08-04T12:30:12Z</time>
      </trkpt>
      <trkpt lat="45.84953" lon="6.77261">
        <ele>2241.45</ele>
        <time>2019-08-04T12:30:26Z</time>
      </trkpt>
      <trkpt lat="45.84947" lon="6.77268">
        <ele>2244.82</ele>
        <time>2019-08-04T12:30:41Z</time>
      </trkpt>
      <trkpt lat="45.84946" lon="6.77275">
        <ele>2247.7</ele>
        <time>2019-08-04T12:30:55Z</time>
      </trkpt>
      <trkpt lat="45.84951" lon="6.77279">
        <ele>2250.58</ele>
        <time>2019-08-04T12:31:12Z</time>
      </trkpt>
      <trkpt lat="45.84952" lon="6.77285">
        <ele>2253.95</ele>
        <time>2019-08-04T12:31:23Z</time>
      </trkpt>
      <trkpt lat="45.84946" lon="6.77289">
        <ele>2255.39</ele>
        <time>2019-08-04T12:31:31Z</time>
      </trkpt>
      <trkpt lat="45.84941" lon="6.77297">
        <ele>2258.75</ele>
        <time>2019-08-04T12:31:47Z</time>
      </trkpt>
      <trkpt lat="45.84934" lon="6.77304">
        <ele>2262.12</ele>
        <time>2019-08-04T12:32:03Z</time>
      </trkpt>
      <trkpt lat="45.84934" lon="6.77309">
        <ele>2265</ele>
        <time>2019-08-04T12:32:16Z</time>
      </trkpt>
      <trkpt lat="45.84937" lon="6.77317">
        <ele>2267.89</ele>
        <time>2019-08-04T12:32:31Z</time>
      </trkpt>
      <trkpt lat="45.84939" lon="6.77325">
        <ele>2271.25</ele>
        <time>2019-08-04T12:32:44Z</time>
      </trkpt>
      <trkpt lat="45.8494" lon="6.77332">
        <ele>2274.62</ele>
        <time>2019-08-04T12:32:57Z</time>
      </trkpt>
      <trkpt lat="45.84941" lon="6.7734">
        <ele>2277.5</ele>
        <time>2019-08-04T12:33:12Z</time>
      </trkpt>
      <trkpt lat="45.84937" lon="6.77345">
        <ele>2280.87</ele>
        <time>2019-08-04T12:33:26Z</time>
      </trkpt>
      <trkpt lat="45.84934" lon="6.77354">
        <ele>2283.75</ele>
        <time>2019-08-04T12:33:44Z</time>
      </trkpt>
      <trkpt lat="45.84935" lon="6.77362">
        <ele>2286.63</ele>
        <time>2019-08-04T12:33:59Z</time>
      </trkpt>
      <trkpt lat="45.84939" lon="6.7737">
        <ele>2290</ele>
        <time>2019-08-04T12:34:15Z</time>
      </trkpt>
      <trkpt lat="45.8494" lon="6.77377">
        <ele>2293.36</ele>
        <time>2019-08-04T12:34:29Z</time>
      </trkpt>
      <trkpt lat="45.8494" lon="6.77386">
        <ele>2296.25</ele>
        <time>2019-08-04T12:34:44Z</time>
      </trkpt>
      <trkpt lat="45.84938" lon="6.77396">
        <ele>2299.61</ele>
        <time>2019-08-04T12:35:03Z</time>
      </trkpt>
      <trkpt lat="45.84929" lon="6.77404">
        <ele>2302.49</ele>
        <time>2019-08-04T12:35:21Z</time>
      </trkpt>
      <trkpt lat="45.84925" lon="6.7741">
        <ele>2305.38</ele>
        <time>2019-08-04T12:35:37Z</time>
      </trkpt>
      <trkpt lat="45.84921" lon="6.77417">
        <ele>2308.74</ele>
        <time>2019-08-04T12:35:53Z</time>
      </trkpt>
      <trkpt lat="45.84923" lon="6.77422">
        <ele>2311.63</ele>
        <time>2019-08-04T12:36:07Z</time>
      </trkpt>
      <trkpt lat="45.8492" lon="6.7743">
        <ele>2314.99</ele>
        <time>2019-08-04T12:36:21Z</time>
      </trkpt>
      <trkpt lat="45.84917" lon="6.77435">
        <ele>2317.88</ele>
        <time>2019-08-04T12:36:35Z</time>
      </trkpt>
      <trkpt lat="45.84916" lon="6.77438">
        <ele>2317.4</ele>
        <time>2019-08-04T12:36:54Z</time>
      </trkpt>
      <trkpt lat="45.84916" lon="6.77431">
        <ele>2317.88</ele>
        <time>2019-08-04T12:37:43Z</time>
      </trkpt>
      <trkpt lat="45.84916" lon="6.77432">
        <ele>2316.91</ele>
        <time>2019-08-04T12:38:00Z</time>
      </trkpt>
      <trkpt lat="45.84916" lon="6.77431">
        <ele>2316.43</ele>
        <time>2019-08-04T12:39:31Z</time>
      </trkpt>
      <trkpt lat="45.84915" lon="6.7743">
        <ele>2316.43</ele>
        <time>2019-08-04T12:39:53Z</time>
      </trkpt>
      <trkpt lat="45.84916" lon="6.7743">
        <ele>2316.43</ele>
        <time>2019-08-04T12:40:03Z</time>
      </trkpt>
      <trkpt lat="45.84916" lon="6.7743">
        <ele>2316.43</ele>
        <time>2019-08-04T12:40:12Z</time>
      </trkpt>
      <trkpt lat="45.84916" lon="6.77431">
        <ele>2316.43</ele>
        <time>2019-08-04T12:40:22Z</time>
      </trkpt>
      <trkpt lat="45.84916" lon="6.77432">
        <ele>2316.43</ele>
        <time>2019-08-04T12:40:34Z</time>
      </trkpt>
      <trkpt lat="45.84916" lon="6.77431">
        <ele>2316.91</ele>
        <time>2019-08-04T12:41:33Z</time>
      </trkpt>
      <trkpt lat="45.84917" lon="6.77432">
        <ele>2316.43</ele>
        <time>2019-08-04T12:43:02Z</time>
      </trkpt>
      <trkpt lat="45.84916" lon="6.7743">
        <ele>2316.43</ele>
        <time>2019-08-04T12:46:33Z</time>
      </trkpt>
      <trkpt lat="45.84916" lon="6.77431">
        <ele>2316.43</ele>
        <time>2019-08-04T12:47:50Z</time>
      </trkpt>
      <trkpt lat="45.84916" lon="6.77432">
        <ele>2317.4</ele>
        <time>2019-08-04T12:50:01Z</time>
      </trkpt>
      <trkpt lat="45.84915" lon="6.77433">
        <ele>2317.4</ele>
        <time>2019-08-04T12:50:02Z</time>
      </trkpt>
      <trkpt lat="45.84917" lon="6.77441">
        <ele>2320.76</ele>
        <time>2019-08-04T12:50:20Z</time>
      </trkpt>
      <trkpt lat="45.84912" lon="6.77448">
        <ele>2323.64</ele>
        <time>2019-08-04T12:50:36Z</time>
      </trkpt>
      <trkpt lat="45.84909" lon="6.77453">
        <ele>2327.01</ele>
        <time>2019-08-04T12:50:52Z</time>
      </trkpt>
      <trkpt lat="45.84905" lon="6.77458">
        <ele>2329.89</ele>
        <time>2019-08-04T12:51:04Z</time>
      </trkpt>
      <trkpt lat="45.84902" lon="6.77465">
        <ele>2332.78</ele>
        <time>2019-08-04T12:51:22Z</time>
      </trkpt>
      <trkpt lat="45.84898" lon="6.77471">
        <ele>2336.14</ele>
        <time>2019-08-04T12:51:38Z</time>
      </trkpt>
      <trkpt lat="45.84897" lon="6.77479">
        <ele>2339.02</ele>
        <time>2019-08-04T12:51:57Z</time>
      </trkpt>
      <trkpt lat="45.84894" lon="6.7748">
        <ele>2339.51</ele>
        <time>2019-08-04T12:52:01Z</time>
      </trkpt>
      <trkpt lat="45.84885" lon="6.77488">
        <ele>2342.39</ele>
        <time>2019-08-04T12:52:22Z</time>
      </trkpt>
      <trkpt lat="45.84884" lon="6.77494">
        <ele>2345.75</ele>
        <time>2019-08-04T12:52:38Z</time>
      </trkpt>
      <trkpt lat="45.84879" lon="6.775">
        <ele>2348.64</ele>
        <time>2019-08-04T12:52:53Z</time>
      </trkpt>
      <trkpt lat="45.8487" lon="6.77508">
        <ele>2351.52</ele>
        <time>2019-08-04T12:53:11Z</time>
      </trkpt>
      <trkpt lat="45.84864" lon="6.77515">
        <ele>2354.89</ele>
        <time>2019-08-04T12:53:27Z</time>
      </trkpt>
      <trkpt lat="45.84863" lon="6.77519">
        <ele>2357.77</ele>
        <time>2019-08-04T12:53:42Z</time>
      </trkpt>
      <trkpt lat="45.84858" lon="6.77525">
        <ele>2361.14</ele>
        <time>2019-08-04T12:53:59Z</time>
      </trkpt>
      <trkpt lat="45.84856" lon="6.77528">
        <ele>2364.02</ele>
        <time>2019-08-04T12:54:17Z</time>
      </trkpt>
      <trkpt lat="45.84854" lon="6.77535">
        <ele>2366.9</ele>
        <time>2019-08-04T12:54:32Z</time>
      </trkpt>
      <trkpt lat="45.84855" lon="6.77538">
        <ele>2370.27</ele>
        <time>2019-08-04T12:54:49Z</time>
      </trkpt>
      <trkpt lat="45.84856" lon="6.77544">
        <ele>2373.63</ele>
        <time>2019-08-04T12:55:11Z</time>
      </trkpt>
      <trkpt lat="45.84856" lon="6.7755">
        <ele>2376.04</ele>
        <time>2019-08-04T12:55:27Z</time>
      </trkpt>
      <trkpt lat="45.84855" lon="6.77554">
        <ele>2379.4</ele>
        <time>2019-08-04T12:55:44Z</time>
      </trkpt>
      <trkpt lat="45.84856" lon="6.77561">
        <ele>2382.28</ele>
        <time>2019-08-04T12:56:01Z</time>
      </trkpt>
      <trkpt lat="45.84854" lon="6.77568">
        <ele>2385.65</ele>
        <time>2019-08-04T12:56:14Z</time>
      </trkpt>
      <trkpt lat="45.84859" lon="6.77571">
        <ele>2389.01</ele>
        <time>2019-08-04T12:56:33Z</time>
      </trkpt>
      <trkpt lat="45.8486" lon="6.77576">
        <ele>2392.38</ele>
        <time>2019-08-04T12:56:50Z</time>
      </trkpt>
      <trkpt lat="45.8486" lon="6.77583">
        <ele>2395.26</ele>
        <time>2019-08-04T12:57:10Z</time>
      </trkpt>
      <trkpt lat="45.84863" lon="6.77589">
        <ele>2398.63</ele>
        <time>2019-08-04T12:57:33Z</time>
      </trkpt>
      <trkpt lat="45.84864" lon="6.77597">
        <ele>2401.51</ele>
        <time>2019-08-04T12:57:49Z</time>
      </trkpt>
      <trkpt lat="45.84866" lon="6.77603">
        <ele>2404.39</ele>
        <time>2019-08-04T12:58:07Z</time>
      </trkpt>
      <trkpt lat="45.84862" lon="6.77608">
        <ele>2407.76</ele>
        <time>2019-08-04T12:58:21Z</time>
      </trkpt>
      <trkpt lat="45.84864" lon="6.77615">
        <ele>2410.64</ele>
        <time>2019-08-04T12:58:38Z</time>
      </trkpt>
      <trkpt lat="45.84867" lon="6.7762">
        <ele>2414.01</ele>
        <time>2019-08-04T12:58:53Z</time>
      </trkpt>
      <trkpt lat="45.84872" lon="6.77625">
        <ele>2416.89</ele>
        <time>2019-08-04T12:59:18Z</time>
      </trkpt>
      <trkpt lat="45.84871" lon="6.77625">
        <ele>2418.33</ele>
        <time>2019-08-04T13:00:42Z</time>
      </trkpt>
      <trkpt lat="45.8487" lon="6.77633">
        <ele>2421.22</ele>
        <time>2019-08-04T13:01:04Z</time>
      </trkpt>
      <trkpt lat="45.84861" lon="6.77646">
        <ele>2424.58</ele>
        <time>2019-08-04T13:01:40Z</time>
      </trkpt>
      <trkpt lat="45.84859" lon="6.77653">
        <ele>2427.47</ele>
        <time>2019-08-04T13:02:25Z</time>
      </trkpt>
      <trkpt lat="45.84857" lon="6.77661">
        <ele>2430.83</ele>
        <time>2019-08-04T13:02:37Z</time>
      </trkpt>
      <trkpt lat="45.84854" lon="6.77667">
        <ele>2433.71</ele>
        <time>2019-08-04T13:02:55Z</time>
      </trkpt>
      <trkpt lat="45.84853" lon="6.77672">
        <ele>2436.6</ele>
        <time>2019-08-04T13:03:11Z</time>
      </trkpt>
      <trkpt lat="45.84854" lon="6.7768">
        <ele>2439.96</ele>
        <time>2019-08-04T13:03:30Z</time>
      </trkpt>
      <trkpt lat="45.84851" lon="6.77688">
        <ele>2442.85</ele>
        <time>2019-08-04T13:03:45Z</time>
      </trkpt>
      <trkpt lat="45.84849" lon="6.77697">
        <ele>2445.73</ele>
        <time>2019-08-04T13:04:01Z</time>
      </trkpt>
      <trkpt lat="45.84847" lon="6.77704">
        <ele>2448.62</ele>
        <time>2019-08-04T13:04:15Z</time>
      </trkpt>
      <trkpt lat="45.84849" lon="6.77709">
        <ele>2451.98</ele>
        <time>2019-08-04T13:04:31Z</time>
      </trkpt>
      <trkpt lat="45.84844" lon="6.77714">
        <ele>2454.38</ele>
        <time>2019-08-04T13:04:45Z</time>
      </trkpt>
      <trkpt lat="45.84844" lon="6.77719">
        <ele>2458.23</ele>
        <time>2019-08-04T13:05:03Z</time>
      </trkpt>
      <trkpt lat="45.84841" lon="6.77725">
        <ele>2461.11</ele>
        <time>2019-08-04T13:05:20Z</time>
      </trkpt>
      <trkpt lat="45.84846" lon="6.77729">
        <ele>2464</ele>
        <time>2019-08-04T13:05:39Z</time>
      </trkpt>
      <trkpt lat="45.84848" lon="6.77737">
        <ele>2467.36</ele>
        <time>2019-08-04T13:05:55Z</time>
      </trkpt>
      <trkpt lat="45.84846" lon="6.77742">
        <ele>2470.24</ele>
        <time>2019-08-04T13:06:11Z</time>
      </trkpt>
      <trkpt lat="45.84841" lon="6.77749">
        <ele>2473.61</ele>
        <time>2019-08-04T13:06:28Z</time>
      </trkpt>
      <trkpt lat="45.84838" lon="6.77756">
        <ele>2476.49</ele>
        <time>2019-08-04T13:06:45Z</time>
      </trkpt>
      <trkpt lat="45.84838" lon="6.7776">
        <ele>2479.38</ele>
        <time>2019-08-04T13:07:02Z</time>
      </trkpt>
      <trkpt lat="45.84838" lon="6.77768">
        <ele>2482.74</ele>
        <time>2019-08-04T13:07:34Z</time>
      </trkpt>
      <trkpt lat="45.84839" lon="6.77778">
        <ele>2485.63</ele>
        <time>2019-08-04T13:07:52Z</time>
      </trkpt>
      <trkpt lat="45.84836" lon="6.77784">
        <ele>2488.99</ele>
        <time>2019-08-04T13:08:12Z</time>
      </trkpt>
      <trkpt lat="45.84836" lon="6.7779">
        <ele>2492.36</ele>
        <time>2019-08-04T13:08:34Z</time>
      </trkpt>
      <trkpt lat="45.84832" lon="6.77792">
        <ele>2495.24</ele>
        <time>2019-08-04T13:08:47Z</time>
      </trkpt>
      <trkpt lat="45.84836" lon="6.77797">
        <ele>2497.16</ele>
        <time>2019-08-04T13:10:55Z</time>
      </trkpt>
      <trkpt lat="45.84836" lon="6.77796">
        <ele>2497.16</ele>
        <time>2019-08-04T13:11:13Z</time>
      </trkpt>
      <trkpt lat="45.84837" lon="6.77797">
        <ele>2497.16</ele>
        <time>2019-08-04T13:11:32Z</time>
      </trkpt>
      <trkpt lat="45.84837" lon="6.77797">
        <ele>2496.68</ele>
        <time>2019-08-04T13:11:53Z</time>
      </trkpt>
      <trkpt lat="45.84837" lon="6.77798">
        <ele>2497.16</ele>
        <time>2019-08-04T13:12:07Z</time>
      </trkpt>
      <trkpt lat="45.84837" lon="6.77797">
        <ele>2497.16</ele>
        <time>2019-08-04T13:12:33Z</time>
      </trkpt>
      <trkpt lat="45.84835" lon="6.77797">
        <ele>2496.68</ele>
        <time>2019-08-04T13:14:13Z</time>
      </trkpt>
      <trkpt lat="45.84835" lon="6.77797">
        <ele>2496.68</ele>
        <time>2019-08-04T13:14:38Z</time>
      </trkpt>
      <trkpt lat="45.84835" lon="6.77796">
        <ele>2498.6</ele>
        <time>2019-08-04T13:14:43Z</time>
      </trkpt>
      <trkpt lat="45.84836" lon="6.77797">
        <ele>2497.16</ele>
        <time>2019-08-04T13:14:54Z</time>
      </trkpt>
      <trkpt lat="45.84836" lon="6.77798">
        <ele>2497.16</ele>
        <time>2019-08-04T13:15:07Z</time>
      </trkpt>
      <trkpt lat="45.84835" lon="6.77798">
        <ele>2497.16</ele>
        <time>2019-08-04T13:15:42Z</time>
      </trkpt>
      <trkpt lat="45.84835" lon="6.77796">
        <ele>2498.12</ele>
        <time>2019-08-04T13:16:20Z</time>
      </trkpt>
      <trkpt lat="45.84833" lon="6.77802">
        <ele>2501.01</ele>
        <time>2019-08-04T13:16:39Z</time>
      </trkpt>
      <trkpt lat="45.84832" lon="6.77807">
        <ele>2504.37</ele>
        <time>2019-08-04T13:17:05Z</time>
      </trkpt>
      <trkpt lat="45.84835" lon="6.7781">
        <ele>2505.81</ele>
        <time>2019-08-04T13:17:24Z</time>
      </trkpt>
      <trkpt lat="45.84835" lon="6.77815">
        <ele>2509.18</ele>
        <time>2019-08-04T13:17:43Z</time>
      </trkpt>
      <trkpt lat="45.84838" lon="6.77819">
        <ele>2512.54</ele>
        <time>2019-08-04T13:18:04Z</time>
      </trkpt>
      <trkpt lat="45.84834" lon="6.77827">
        <ele>2515.43</ele>
        <time>2019-08-04T13:18:25Z</time>
      </trkpt>
      <trkpt lat="45.84835" lon="6.77828">
        <ele>2515.43</ele>
        <time>2019-08-04T13:18:30Z</time>
      </trkpt>
      <trkpt lat="45.84835" lon="6.77834">
        <ele>2518.79</ele>
        <time>2019-08-04T13:18:51Z</time>
      </trkpt>
      <trkpt lat="45.84833" lon="6.77838">
        <ele>2521.68</ele>
        <time>2019-08-04T13:19:09Z</time>
      </trkpt>
      <trkpt lat="45.84834" lon="6.77845">
        <ele>2524.56</ele>
        <time>2019-08-04T13:19:39Z</time>
      </trkpt>
      <trkpt lat="45.84831" lon="6.77849">
        <ele>2527.92</ele>
        <time>2019-08-04T13:19:56Z</time>
      </trkpt>
      <trkpt lat="45.84833" lon="6.77854">
        <ele>2530.81</ele>
        <time>2019-08-04T13:20:17Z</time>
      </trkpt>
      <trkpt lat="45.84829" lon="6.77859">
        <ele>2533.69</ele>
        <time>2019-08-04T13:20:34Z</time>
      </trkpt>
      <trkpt lat="45.84826" lon="6.77863">
        <ele>2537.06</ele>
        <time>2019-08-04T13:20:53Z</time>
      </trkpt>
      <trkpt lat="45.84824" lon="6.77872">
        <ele>2539.94</ele>
        <time>2019-08-04T13:21:11Z</time>
      </trkpt>
      <trkpt lat="45.84818" lon="6.7787">
        <ele>2543.31</ele>
        <time>2019-08-04T13:21:31Z</time>
      </trkpt>
      <trkpt lat="45.84815" lon="6.77875">
        <ele>2546.19</ele>
        <time>2019-08-04T13:21:50Z</time>
      </trkpt>
      <trkpt lat="45.84809" lon="6.77878">
        <ele>2549.55</ele>
        <time>2019-08-04T13:22:11Z</time>
      </trkpt>
      <trkpt lat="45.84805" lon="6.77883">
        <ele>2552.44</ele>
        <time>2019-08-04T13:22:35Z</time>
      </trkpt>
      <trkpt lat="45.84804" lon="6.77886">
        <ele>2555.32</ele>
        <time>2019-08-04T13:23:03Z</time>
      </trkpt>
      <trkpt lat="45.84804" lon="6.77891">
        <ele>2558.69</ele>
        <time>2019-08-04T13:23:19Z</time>
      </trkpt>
      <trkpt lat="45.84801" lon="6.77894">
        <ele>2561.57</ele>
        <time>2019-08-04T13:23:41Z</time>
      </trkpt>
      <trkpt lat="45.84805" lon="6.77904">
        <ele>2564.93</ele>
        <time>2019-08-04T13:24:26Z</time>
      </trkpt>
      <trkpt lat="45.84799" lon="6.779">
        <ele>2567.82</ele>
        <time>2019-08-04T13:25:02Z</time>
      </trkpt>
      <trkpt lat="45.84797" lon="6.77896">
        <ele>2569.74</ele>
        <time>2019-08-04T13:26:19Z</time>
      </trkpt>
      <trkpt lat="45.84802" lon="6.77901">
        <ele>2573.11</ele>
        <time>2019-08-04T13:27:02Z</time>
      </trkpt>
      <trkpt lat="45.8481" lon="6.77906">
        <ele>2574.07</ele>
        <time>2019-08-04T13:28:26Z</time>
      </trkpt>
      <trkpt lat="45.84811" lon="6.77907">
        <ele>2573.11</ele>
        <time>2019-08-04T13:28:46Z</time>
      </trkpt>
      <trkpt lat="45.8481" lon="6.77907">
        <ele>2573.59</ele>
        <time>2019-08-04T13:29:11Z</time>
      </trkpt>
      <trkpt lat="45.8481" lon="6.77917">
        <ele>2576.95</ele>
        <time>2019-08-04T13:30:09Z</time>
      </trkpt>
      <trkpt lat="45.84812" lon="6.77923">
        <ele>2579.84</ele>
        <time>2019-08-04T13:30:21Z</time>
      </trkpt>
      <trkpt lat="45.84811" lon="6.77929">
        <ele>2582.72</ele>
        <time>2019-08-04T13:30:37Z</time>
      </trkpt>
      <trkpt lat="45.84811" lon="6.77933">
        <ele>2584.16</ele>
        <time>2019-08-04T13:31:00Z</time>
      </trkpt>
      <trkpt lat="45.84816" lon="6.77937">
        <ele>2584.16</ele>
        <time>2019-08-04T13:31:31Z</time>
      </trkpt>
      <trkpt lat="45.84818" lon="6.77941">
        <ele>2587.04</ele>
        <time>2019-08-04T13:31:58Z</time>
      </trkpt>
      <trkpt lat="45.84815" lon="6.77945">
        <ele>2590.41</ele>
        <time>2019-08-04T13:32:12Z</time>
      </trkpt>
      <trkpt lat="45.84814" lon="6.7795">
        <ele>2593.77</ele>
        <time>2019-08-04T13:32:24Z</time>
      </trkpt>
      <trkpt lat="45.84816" lon="6.77958">
        <ele>2596.66</ele>
        <time>2019-08-04T13:32:43Z</time>
      </trkpt>
      <trkpt lat="45.84815" lon="6.77959">
        <ele>2598.1</ele>
        <time>2019-08-04T13:33:05Z</time>
      </trkpt>
      <trkpt lat="45.84816" lon="6.77959">
        <ele>2598.58</ele>
        <time>2019-08-04T13:33:23Z</time>
      </trkpt>
      <trkpt lat="45.84816" lon="6.77964">
        <ele>2598.58</ele>
        <time>2019-08-04T13:33:33Z</time>
      </trkpt>
      <trkpt lat="45.84816" lon="6.77966">
        <ele>2598.1</ele>
        <time>2019-08-04T13:33:46Z</time>
      </trkpt>
      <trkpt lat="45.84816" lon="6.77965">
        <ele>2598.1</ele>
        <time>2019-08-04T13:33:47Z</time>
      </trkpt>
      <trkpt lat="45.84819" lon="6.77967">
        <ele>2597.62</ele>
        <time>2019-08-04T13:34:05Z</time>
      </trkpt>
      <trkpt lat="45.84825" lon="6.7797">
        <ele>2597.62</ele>
        <time>2019-08-04T13:34:23Z</time>
      </trkpt>
      <trkpt lat="45.84823" lon="6.77966">
        <ele>2597.62</ele>
        <time>2019-08-04T13:34:27Z</time>
      </trkpt>
      <trkpt lat="45.84822" lon="6.77966">
        <ele>2597.62</ele>
        <time>2019-08-04T13:34:28Z</time>
      </trkpt>
      <trkpt lat="45.84819" lon="6.77956">
        <ele>2597.62</ele>
        <time>2019-08-04T13:35:20Z</time>
      </trkpt>
      <trkpt lat="45.8482" lon="6.77956">
        <ele>2597.62</ele>
        <time>2019-08-04T13:35:24Z</time>
      </trkpt>
      <trkpt lat="45.8482" lon="6.77958">
        <ele>2597.62</ele>
        <time>2019-08-04T13:35:25Z</time>
      </trkpt>
      <trkpt lat="45.84823" lon="6.77969">
        <ele>2597.62</ele>
        <time>2019-08-04T13:35:31Z</time>
      </trkpt>
      <trkpt lat="45.84825" lon="6.77969">
        <ele>2597.14</ele>
        <time>2019-08-04T13:35:45Z</time>
      </trkpt>
      <trkpt lat="45.84825" lon="6.77962">
        <ele>2597.62</ele>
        <time>2019-08-04T13:36:30Z</time>
      </trkpt>
      <trkpt lat="45.84821" lon="6.77959">
        <ele>2598.1</ele>
        <time>2019-08-04T13:36:43Z</time>
      </trkpt>
      <trkpt lat="45.8482" lon="6.77958">
        <ele>2599.06</ele>
        <time>2019-08-04T13:37:44Z</time>
      </trkpt>
      <trkpt lat="45.84825" lon="6.77962">
        <ele>2598.58</ele>
        <time>2019-08-04T13:38:41Z</time>
      </trkpt>
      <trkpt lat="45.84824" lon="6.7796">
        <ele>2598.1</ele>
        <time>2019-08-04T13:39:42Z</time>
      </trkpt>
      <trkpt lat="45.84825" lon="6.7796">
        <ele>2597.62</ele>
        <time>2019-08-04T13:39:45Z</time>
      </trkpt>
      <trkpt lat="45.8482" lon="6.7796">
        <ele>2598.1</ele>
        <time>2019-08-04T13:40:11Z</time>
      </trkpt>
      <trkpt lat="45.84818" lon="6.77965">
        <ele>2597.62</ele>
        <time>2019-08-04T13:41:21Z</time>
      </trkpt>
      <trkpt lat="45.84817" lon="6.77965">
        <ele>2597.62</ele>
        <time>2019-08-04T13:41:23Z</time>
      </trkpt>
      <trkpt lat="45.84823" lon="6.77965">
        <ele>2597.62</ele>
        <time>2019-08-04T13:42:01Z</time>
      </trkpt>
      <trkpt lat="45.84828" lon="6.7797">
        <ele>2597.62</ele>
        <time>2019-08-04T13:42:56Z</time>
      </trkpt>
      <trkpt lat="45.84833" lon="6.77974">
        <ele>2597.62</ele>
        <time>2019-08-04T13:43:14Z</time>
      </trkpt>
      <trkpt lat="45.84835" lon="6.77978">
        <ele>2597.62</ele>
        <time>2019-08-04T13:43:18Z</time>
      </trkpt>
      <trkpt lat="45.84837" lon="6.77981">
        <ele>2597.62</ele>
        <time>2019-08-04T13:43:21Z</time>
      </trkpt>
      <trkpt lat="45.84839" lon="6.77989">
        <ele>2597.62</ele>
        <time>2019-08-04T13:43:30Z</time>
      </trkpt>
      <trkpt lat="45.84835" lon="6.77988">
        <ele>2597.62</ele>
        <time>2019-08-04T13:43:40Z</time>
      </trkpt>
      <trkpt lat="45.84834" lon="6.77988">
        <ele>2598.1</ele>
        <time>2019-08-04T13:43:41Z</time>
      </trkpt>
      <trkpt lat="45.84829" lon="6.77984">
        <ele>2597.62</ele>
        <time>2019-08-04T13:43:55Z</time>
      </trkpt>
      <trkpt lat="45.8483" lon="6.77984">
        <ele>2597.62</ele>
        <time>2019-08-04T13:43:56Z</time>
      </trkpt>
      <trkpt lat="45.84828" lon="6.77987">
        <ele>2597.62</ele>
        <time>2019-08-04T13:44:06Z</time>
      </trkpt>
      <trkpt lat="45.84828" lon="6.7798">
        <ele>2597.62</ele>
        <time>2019-08-04T13:44:16Z</time>
      </trkpt>
      <trkpt lat="45.84827" lon="6.77979">
        <ele>2597.62</ele>
        <time>2019-08-04T13:44:17Z</time>
      </trkpt>
      <trkpt lat="45.84824" lon="6.77965">
        <ele>2597.62</ele>
        <time>2019-08-04T13:44:46Z</time>
      </trkpt>
      <trkpt lat="45.84826" lon="6.77962">
        <ele>2597.62</ele>
        <time>2019-08-04T13:45:04Z</time>
      </trkpt>
      <trkpt lat="45.84823" lon="6.77963">
        <ele>2597.62</ele>
        <time>2019-08-04T13:45:33Z</time>
      </trkpt>
      <trkpt lat="45.84819" lon="6.77963">
        <ele>2597.62</ele>
        <time>2019-08-04T13:45:50Z</time>
      </trkpt>
      <trkpt lat="45.84821" lon="6.77961">
        <ele>2597.62</ele>
        <time>2019-08-04T13:47:01Z</time>
      </trkpt>
      <trkpt lat="45.84824" lon="6.77966">
        <ele>2598.58</ele>
        <time>2019-08-04T13:47:51Z</time>
      </trkpt>
      <trkpt lat="45.84836" lon="6.77971">
        <ele>2597.62</ele>
        <time>2019-08-04T13:48:29Z</time>
      </trkpt>
      <trkpt lat="45.84835" lon="6.7797">
        <ele>2597.62</ele>
        <time>2019-08-04T13:48:30Z</time>
      </trkpt>
      <trkpt lat="45.84837" lon="6.77971">
        <ele>2597.62</ele>
        <time>2019-08-04T13:48:35Z</time>
      </trkpt>
      <trkpt lat="45.84836" lon="6.77971">
        <ele>2598.58</ele>
        <time>2019-08-04T13:49:03Z</time>
      </trkpt>
      <trkpt lat="45.84818" lon="6.77964">
        <ele>2598.58</ele>
        <time>2019-08-04T13:49:56Z</time>
      </trkpt>
      <trkpt lat="45.84812" lon="6.77958">
        <ele>2600.98</ele>
        <time>2019-08-04T13:50:59Z</time>
      </trkpt>
      <trkpt lat="45.84812" lon="6.77959">
        <ele>2601.46</ele>
        <time>2019-08-04T13:51:08Z</time>
      </trkpt>
      <trkpt lat="45.84814" lon="6.77957">
        <ele>2603.87</ele>
        <time>2019-08-04T13:51:32Z</time>
      </trkpt>
      <trkpt lat="45.84811" lon="6.7796">
        <ele>2604.35</ele>
        <time>2019-08-04T13:51:43Z</time>
      </trkpt>
      <trkpt lat="45.84811" lon="6.77961">
        <ele>2604.83</ele>
        <time>2019-08-04T13:51:44Z</time>
      </trkpt>
      <trkpt lat="45.8481" lon="6.77963">
        <ele>2604.83</ele>
        <time>2019-08-04T13:51:46Z</time>
      </trkpt>
      <trkpt lat="45.84807" lon="6.77966">
        <ele>2607.71</ele>
        <time>2019-08-04T13:51:58Z</time>
      </trkpt>
      <trkpt lat="45.84808" lon="6.77971">
        <ele>2611.08</ele>
        <time>2019-08-04T13:52:10Z</time>
      </trkpt>
      <trkpt lat="45.84809" lon="6.77967">
        <ele>2613.96</ele>
        <time>2019-08-04T13:52:33Z</time>
      </trkpt>
      <trkpt lat="45.84808" lon="6.77972">
        <ele>2615.4</ele>
        <time>2019-08-04T13:53:12Z</time>
      </trkpt>
      <trkpt lat="45.84808" lon="6.77978">
        <ele>2618.77</ele>
        <time>2019-08-04T13:53:21Z</time>
      </trkpt>
      <trkpt lat="45.84808" lon="6.77987">
        <ele>2621.65</ele>
        <time>2019-08-04T13:53:37Z</time>
      </trkpt>
      <trkpt lat="45.84806" lon="6.77993">
        <ele>2625.02</ele>
        <time>2019-08-04T13:53:54Z</time>
      </trkpt>
      <trkpt lat="45.84803" lon="6.78">
        <ele>2627.9</ele>
        <time>2019-08-04T13:54:16Z</time>
      </trkpt>
      <trkpt lat="45.84799" lon="6.78008">
        <ele>2631.27</ele>
        <time>2019-08-04T13:54:32Z</time>
      </trkpt>
      <trkpt lat="45.84799" lon="6.78019">
        <ele>2633.67</ele>
        <time>2019-08-04T13:54:46Z</time>
      </trkpt>
      <trkpt lat="45.84799" lon="6.78026">
        <ele>2634.63</ele>
        <time>2019-08-04T13:54:51Z</time>
      </trkpt>
      <trkpt lat="45.84797" lon="6.78026">
        <ele>2636.55</ele>
        <time>2019-08-04T13:54:59Z</time>
      </trkpt>
      <trkpt lat="45.84792" lon="6.78023">
        <ele>2639.44</ele>
        <time>2019-08-04T13:55:18Z</time>
      </trkpt>
      <trkpt lat="45.84791" lon="6.78023">
        <ele>2642.8</ele>
        <time>2019-08-04T13:55:34Z</time>
      </trkpt>
      <trkpt lat="45.84792" lon="6.78032">
        <ele>2645.69</ele>
        <time>2019-08-04T13:55:51Z</time>
      </trkpt>
      <trkpt lat="45.84792" lon="6.78038">
        <ele>2648.57</ele>
        <time>2019-08-04T13:56:01Z</time>
      </trkpt>
      <trkpt lat="45.84791" lon="6.7804">
        <ele>2649.05</ele>
        <time>2019-08-04T13:56:06Z</time>
      </trkpt>
      <trkpt lat="45.84794" lon="6.78048">
        <ele>2652.42</ele>
        <time>2019-08-04T13:56:23Z</time>
      </trkpt>
      <trkpt lat="45.84788" lon="6.78051">
        <ele>2655.3</ele>
        <time>2019-08-04T13:56:36Z</time>
      </trkpt>
      <trkpt lat="45.84782" lon="6.78059">
        <ele>2657.22</ele>
        <time>2019-08-04T13:56:49Z</time>
      </trkpt>
      <trkpt lat="45.84782" lon="6.78067">
        <ele>2660.11</ele>
        <time>2019-08-04T13:57:08Z</time>
      </trkpt>
      <trkpt lat="45.84783" lon="6.78069">
        <ele>2660.59</ele>
        <time>2019-08-04T13:57:31Z</time>
      </trkpt>
      <trkpt lat="45.84782" lon="6.78063">
        <ele>2660.59</ele>
        <time>2019-08-04T13:58:04Z</time>
      </trkpt>
      <trkpt lat="45.84782" lon="6.78063">
        <ele>2661.55</ele>
        <time>2019-08-04T13:58:35Z</time>
      </trkpt>
      <trkpt lat="45.84779" lon="6.78064">
        <ele>2664.43</ele>
        <time>2019-08-04T13:59:15Z</time>
      </trkpt>
      <trkpt lat="45.84779" lon="6.78066">
        <ele>2664.91</ele>
        <time>2019-08-04T13:59:16Z</time>
      </trkpt>
      <trkpt lat="45.84781" lon="6.78072">
        <ele>2667.8</ele>
        <time>2019-08-04T13:59:29Z</time>
      </trkpt>
      <trkpt lat="45.84783" lon="6.78062">
        <ele>2671.16</ele>
        <time>2019-08-04T13:59:48Z</time>
      </trkpt>
      <trkpt lat="45.84782" lon="6.7806">
        <ele>2672.12</ele>
        <time>2019-08-04T13:59:55Z</time>
      </trkpt>
      <trkpt lat="45.84779" lon="6.78059">
        <ele>2673.08</ele>
        <time>2019-08-04T13:59:58Z</time>
      </trkpt>
      <trkpt lat="45.84778" lon="6.78059">
        <ele>2675.97</ele>
        <time>2019-08-04T14:00:17Z</time>
      </trkpt>
      <trkpt lat="45.84769" lon="6.78062">
        <ele>2677.89</ele>
        <time>2019-08-04T14:02:07Z</time>
      </trkpt>
      <trkpt lat="45.84768" lon="6.78063">
        <ele>2677.41</ele>
        <time>2019-08-04T14:02:08Z</time>
      </trkpt>
      <trkpt lat="45.84767" lon="6.78063">
        <ele>2677.41</ele>
        <time>2019-08-04T14:02:09Z</time>
      </trkpt>
      <trkpt lat="45.84763" lon="6.78067">
        <ele>2680.77</ele>
        <time>2019-08-04T14:02:21Z</time>
      </trkpt>
      <trkpt lat="45.8476" lon="6.7807">
        <ele>2681.73</ele>
        <time>2019-08-04T14:03:03Z</time>
      </trkpt>
      <trkpt lat="45.84761" lon="6.7807">
        <ele>2681.73</ele>
        <time>2019-08-04T14:03:21Z</time>
      </trkpt>
      <trkpt lat="45.8476" lon="6.78071">
        <ele>2681.73</ele>
        <time>2019-08-04T14:03:37Z</time>
      </trkpt>
      <trkpt lat="45.84759" lon="6.78072">
        <ele>2684.14</ele>
        <time>2019-08-04T14:03:44Z</time>
      </trkpt>
      <trkpt lat="45.84757" lon="6.78081">
        <ele>2687.02</ele>
        <time>2019-08-04T14:04:02Z</time>
      </trkpt>
      <trkpt lat="45.84754" lon="6.78087">
        <ele>2690.39</ele>
        <time>2019-08-04T14:04:16Z</time>
      </trkpt>
      <trkpt lat="45.84753" lon="6.78098">
        <ele>2692.79</ele>
        <time>2019-08-04T14:04:36Z</time>
      </trkpt>
      <trkpt lat="45.84752" lon="6.78099">
        <ele>2694.23</ele>
        <time>2019-08-04T14:04:44Z</time>
      </trkpt>
      <trkpt lat="45.84755" lon="6.78106">
        <ele>2697.6</ele>
        <time>2019-08-04T14:05:01Z</time>
      </trkpt>
      <trkpt lat="45.84752" lon="6.78105">
        <ele>2700.48</ele>
        <time>2019-08-04T14:05:15Z</time>
      </trkpt>
      <trkpt lat="45.8475" lon="6.78113">
        <ele>2703.36</ele>
        <time>2019-08-04T14:05:47Z</time>
      </trkpt>
      <trkpt lat="45.84751" lon="6.78118">
        <ele>2706.73</ele>
        <time>2019-08-04T14:06:01Z</time>
      </trkpt>
      <trkpt lat="45.8475" lon="6.78121">
        <ele>2709.61</ele>
        <time>2019-08-04T14:06:16Z</time>
      </trkpt>
      <trkpt lat="45.84747" lon="6.78124">
        <ele>2712.98</ele>
        <time>2019-08-04T14:06:30Z</time>
      </trkpt>
      <trkpt lat="45.84744" lon="6.7813">
        <ele>2715.86</ele>
        <time>2019-08-04T14:06:50Z</time>
      </trkpt>
      <trkpt lat="45.84742" lon="6.78136">
        <ele>2718.75</ele>
        <time>2019-08-04T14:07:08Z</time>
      </trkpt>
      <trkpt lat="45.8474" lon="6.78145">
        <ele>2721.63</ele>
        <time>2019-08-04T14:07:25Z</time>
      </trkpt>
      <trkpt lat="45.84741" lon="6.78146">
        <ele>2722.11</ele>
        <time>2019-08-04T14:07:28Z</time>
      </trkpt>
      <trkpt lat="45.84735" lon="6.78155">
        <ele>2724.99</ele>
        <time>2019-08-04T14:07:46Z</time>
      </trkpt>
      <trkpt lat="45.84735" lon="6.78164">
        <ele>2728.36</ele>
        <time>2019-08-04T14:08:03Z</time>
      </trkpt>
      <trkpt lat="45.84735" lon="6.78166">
        <ele>2728.84</ele>
        <time>2019-08-04T14:08:06Z</time>
      </trkpt>
      <trkpt lat="45.84735" lon="6.78167">
        <ele>2729.32</ele>
        <time>2019-08-04T14:08:07Z</time>
      </trkpt>
      <trkpt lat="45.84734" lon="6.78174">
        <ele>2732.2</ele>
        <time>2019-08-04T14:08:21Z</time>
      </trkpt>
      <trkpt lat="45.84729" lon="6.78177">
        <ele>2735.09</ele>
        <time>2019-08-04T14:08:37Z</time>
      </trkpt>
      <trkpt lat="45.84727" lon="6.78174">
        <ele>2735.57</ele>
        <time>2019-08-04T14:10:19Z</time>
      </trkpt>
      <trkpt lat="45.84728" lon="6.78174">
        <ele>2735.57</ele>
        <time>2019-08-04T14:10:40Z</time>
      </trkpt>
      <trkpt lat="45.84727" lon="6.78174">
        <ele>2735.57</ele>
        <time>2019-08-04T14:12:30Z</time>
      </trkpt>
      <trkpt lat="45.84727" lon="6.78173">
        <ele>2736.05</ele>
        <time>2019-08-04T14:12:52Z</time>
      </trkpt>
      <trkpt lat="45.84727" lon="6.78174">
        <ele>2736.05</ele>
        <time>2019-08-04T14:13:18Z</time>
      </trkpt>
      <trkpt lat="45.84728" lon="6.78176">
        <ele>2736.05</ele>
        <time>2019-08-04T14:14:19Z</time>
      </trkpt>
      <trkpt lat="45.84727" lon="6.78179">
        <ele>2736.05</ele>
        <time>2019-08-04T14:14:37Z</time>
      </trkpt>
      <trkpt lat="45.84727" lon="6.78176">
        <ele>2736.05</ele>
        <time>2019-08-04T14:14:45Z</time>
      </trkpt>
      <trkpt lat="45.84728" lon="6.78173">
        <ele>2736.05</ele>
        <time>2019-08-04T14:15:01Z</time>
      </trkpt>
      <trkpt lat="45.84727" lon="6.78173">
        <ele>2736.05</ele>
        <time>2019-08-04T14:15:26Z</time>
      </trkpt>
      <trkpt lat="45.84727" lon="6.78171">
        <ele>2735.57</ele>
        <time>2019-08-04T14:15:52Z</time>
      </trkpt>
      <trkpt lat="45.84727" lon="6.78171">
        <ele>2735.57</ele>
        <time>2019-08-04T14:16:11Z</time>
      </trkpt>
      <trkpt lat="45.84727" lon="6.78172">
        <ele>2736.05</ele>
        <time>2019-08-04T14:17:51Z</time>
      </trkpt>
      <trkpt lat="45.84726" lon="6.7817">
        <ele>2736.05</ele>
        <time>2019-08-04T14:18:19Z</time>
      </trkpt>
      <trkpt lat="45.84727" lon="6.78171">
        <ele>2736.53</ele>
        <time>2019-08-04T14:18:42Z</time>
      </trkpt>
      <trkpt lat="45.84727" lon="6.78171">
        <ele>2736.05</ele>
        <time>2019-08-04T14:19:19Z</time>
      </trkpt>
      <trkpt lat="45.84725" lon="6.78181">
        <ele>2738.93</ele>
        <time>2019-08-04T14:20:58Z</time>
      </trkpt>
      <trkpt lat="45.84721" lon="6.78191">
        <ele>2742.3</ele>
        <time>2019-08-04T14:21:13Z</time>
      </trkpt>
      <trkpt lat="45.84716" lon="6.782">
        <ele>2745.18</ele>
        <time>2019-08-04T14:21:31Z</time>
      </trkpt>
      <trkpt lat="45.84712" lon="6.78204">
        <ele>2748.55</ele>
        <time>2019-08-04T14:21:51Z</time>
      </trkpt>
      <trkpt lat="45.8471" lon="6.78207">
        <ele>2751.43</ele>
        <time>2019-08-04T14:22:03Z</time>
      </trkpt>
      <trkpt lat="45.84707" lon="6.78215">
        <ele>2754.31</ele>
        <time>2019-08-04T14:22:20Z</time>
      </trkpt>
      <trkpt lat="45.84705" lon="6.78218">
        <ele>2757.2</ele>
        <time>2019-08-04T14:22:38Z</time>
      </trkpt>
      <trkpt lat="45.84703" lon="6.7822">
        <ele>2760.56</ele>
        <time>2019-08-04T14:22:55Z</time>
      </trkpt>
      <trkpt lat="45.84701" lon="6.78221">
        <ele>2761.52</ele>
        <time>2019-08-04T14:23:17Z</time>
      </trkpt>
      <trkpt lat="45.84697" lon="6.78224">
        <ele>2764.41</ele>
        <time>2019-08-04T14:24:50Z</time>
      </trkpt>
      <trkpt lat="45.8469" lon="6.78223">
        <ele>2765.37</ele>
        <time>2019-08-04T14:26:30Z</time>
      </trkpt>
      <trkpt lat="45.84692" lon="6.78224">
        <ele>2764.41</ele>
        <time>2019-08-04T14:29:23Z</time>
      </trkpt>
      <trkpt lat="45.84684" lon="6.78227">
        <ele>2765.85</ele>
        <time>2019-08-04T14:30:02Z</time>
      </trkpt>
      <trkpt lat="45.84683" lon="6.78227">
        <ele>2765.85</ele>
        <time>2019-08-04T14:30:03Z</time>
      </trkpt>
      <trkpt lat="45.84676" lon="6.78231">
        <ele>2769.21</ele>
        <time>2019-08-04T14:30:15Z</time>
      </trkpt>
      <trkpt lat="45.8467" lon="6.78233">
        <ele>2772.1</ele>
        <time>2019-08-04T14:30:26Z</time>
      </trkpt>
      <trkpt lat="45.84666" lon="6.78233">
        <ele>2774.98</ele>
        <time>2019-08-04T14:30:37Z</time>
      </trkpt>
      <trkpt lat="45.84653" lon="6.78236">
        <ele>2777.39</ele>
        <time>2019-08-04T14:31:29Z</time>
      </trkpt>
      <trkpt lat="45.84649" lon="6.78235">
        <ele>2780.75</ele>
        <time>2019-08-04T14:31:39Z</time>
      </trkpt>
      <trkpt lat="45.84646" lon="6.78236">
        <ele>2782.19</ele>
        <time>2019-08-04T14:31:43Z</time>
      </trkpt>
      <trkpt lat="45.84641" lon="6.78239">
        <ele>2785.08</ele>
        <time>2019-08-04T14:31:56Z</time>
      </trkpt>
      <trkpt lat="45.84636" lon="6.78244">
        <ele>2787.48</ele>
        <time>2019-08-04T14:32:07Z</time>
      </trkpt>
      <trkpt lat="45.84626" lon="6.78245">
        <ele>2787.48</ele>
        <time>2019-08-04T14:33:46Z</time>
      </trkpt>
      <trkpt lat="45.84627" lon="6.78246">
        <ele>2787</ele>
        <time>2019-08-04T14:34:21Z</time>
      </trkpt>
      <trkpt lat="45.84611" lon="6.78251">
        <ele>2790.36</ele>
        <time>2019-08-04T14:35:14Z</time>
      </trkpt>
      <trkpt lat="45.8461" lon="6.78252">
        <ele>2789.88</ele>
        <time>2019-08-04T14:35:15Z</time>
      </trkpt>
      <trkpt lat="45.84607" lon="6.78251">
        <ele>2787.96</ele>
        <time>2019-08-04T14:38:54Z</time>
      </trkpt>
      <trkpt lat="45.846" lon="6.78261">
        <ele>2787.48</ele>
        <time>2019-08-04T14:40:04Z</time>
      </trkpt>
      <trkpt lat="45.84599" lon="6.78259">
        <ele>2786.04</ele>
        <time>2019-08-04T14:40:24Z</time>
      </trkpt>
      <trkpt lat="45.84596" lon="6.7826">
        <ele>2785.08</ele>
        <time>2019-08-04T14:40:29Z</time>
      </trkpt>
      <trkpt lat="45.84595" lon="6.78266">
        <ele>2782.19</ele>
        <time>2019-08-04T14:40:53Z</time>
      </trkpt>
      <trkpt lat="45.84587" lon="6.78271">
        <ele>2778.83</ele>
        <time>2019-08-04T14:41:24Z</time>
      </trkpt>
      <trkpt lat="45.84583" lon="6.78279">
        <ele>2775.94</ele>
        <time>2019-08-04T14:41:39Z</time>
      </trkpt>
      <trkpt lat="45.84581" lon="6.78276">
        <ele>2774.02</ele>
        <time>2019-08-04T14:42:09Z</time>
      </trkpt>
      <trkpt lat="45.84579" lon="6.78274">
        <ele>2772.1</ele>
        <time>2019-08-04T14:42:32Z</time>
      </trkpt>
      <trkpt lat="45.84577" lon="6.78275">
        <ele>2769.7</ele>
        <time>2019-08-04T14:42:49Z</time>
      </trkpt>
      <trkpt lat="45.84575" lon="6.78297">
        <ele>2766.81</ele>
        <time>2019-08-04T14:43:47Z</time>
      </trkpt>
      <trkpt lat="45.84572" lon="6.78297">
        <ele>2763.45</ele>
        <time>2019-08-04T14:44:05Z</time>
      </trkpt>
      <trkpt lat="45.84567" lon="6.78301">
        <ele>2760.08</ele>
        <time>2019-08-04T14:44:39Z</time>
      </trkpt>
      <trkpt lat="45.84565" lon="6.78301">
        <ele>2757.2</ele>
        <time>2019-08-04T14:44:58Z</time>
      </trkpt>
      <trkpt lat="45.84562" lon="6.78304">
        <ele>2753.83</ele>
        <time>2019-08-04T14:45:15Z</time>
      </trkpt>
      <trkpt lat="45.84555" lon="6.78307">
        <ele>2750.95</ele>
        <time>2019-08-04T14:45:41Z</time>
      </trkpt>
      <trkpt lat="45.84556" lon="6.78308">
        <ele>2750.47</ele>
        <time>2019-08-04T14:45:42Z</time>
      </trkpt>
      <trkpt lat="45.84554" lon="6.78314">
        <ele>2747.59</ele>
        <time>2019-08-04T14:45:56Z</time>
      </trkpt>
      <trkpt lat="45.84553" lon="6.78316">
        <ele>2747.1</ele>
        <time>2019-08-04T14:46:08Z</time>
      </trkpt>
      <trkpt lat="45.84553" lon="6.78318">
        <ele>2747.1</ele>
        <time>2019-08-04T14:46:09Z</time>
      </trkpt>
      <trkpt lat="45.84552" lon="6.78322">
        <ele>2746.62</ele>
        <time>2019-08-04T14:46:17Z</time>
      </trkpt>
      <trkpt lat="45.84547" lon="6.78323">
        <ele>2743.26</ele>
        <time>2019-08-04T14:46:34Z</time>
      </trkpt>
      <trkpt lat="45.84539" lon="6.78323">
        <ele>2744.22</ele>
        <time>2019-08-04T14:47:13Z</time>
      </trkpt>
      <trkpt lat="45.84534" lon="6.78333">
        <ele>2747.59</ele>
        <time>2019-08-04T14:47:35Z</time>
      </trkpt>
      <trkpt lat="45.84536" lon="6.78336">
        <ele>2750.47</ele>
        <time>2019-08-04T14:48:03Z</time>
      </trkpt>
      <trkpt lat="45.84539" lon="6.78338">
        <ele>2753.83</ele>
        <time>2019-08-04T14:48:18Z</time>
      </trkpt>
      <trkpt lat="45.84542" lon="6.7834">
        <ele>2756.72</ele>
        <time>2019-08-04T14:48:36Z</time>
      </trkpt>
      <trkpt lat="45.84543" lon="6.7834">
        <ele>2760.08</ele>
        <time>2019-08-04T14:48:53Z</time>
      </trkpt>
      <trkpt lat="45.84541" lon="6.78345">
        <ele>2762.97</ele>
        <time>2019-08-04T14:49:15Z</time>
      </trkpt>
      <trkpt lat="45.84543" lon="6.78347">
        <ele>2765.85</ele>
        <time>2019-08-04T14:49:38Z</time>
      </trkpt>
      <trkpt lat="45.84535" lon="6.78353">
        <ele>2767.77</ele>
        <time>2019-08-04T14:51:49Z</time>
      </trkpt>
      <trkpt lat="45.84532" lon="6.78355">
        <ele>2765.85</ele>
        <time>2019-08-04T14:51:54Z</time>
      </trkpt>
      <trkpt lat="45.84529" lon="6.78356">
        <ele>2762.97</ele>
        <time>2019-08-04T14:52:04Z</time>
      </trkpt>
      <trkpt lat="45.84528" lon="6.78362">
        <ele>2761.04</ele>
        <time>2019-08-04T14:52:11Z</time>
      </trkpt>
      <trkpt lat="45.84526" lon="6.78368">
        <ele>2759.6</ele>
        <time>2019-08-04T14:52:44Z</time>
      </trkpt>
      <trkpt lat="45.84529" lon="6.78377">
        <ele>2760.08</ele>
        <time>2019-08-04T14:53:29Z</time>
      </trkpt>
      <trkpt lat="45.84529" lon="6.7838">
        <ele>2761.04</ele>
        <time>2019-08-04T14:53:32Z</time>
      </trkpt>
      <trkpt lat="45.84529" lon="6.78382">
        <ele>2761.52</ele>
        <time>2019-08-04T14:53:33Z</time>
      </trkpt>
      <trkpt lat="45.84529" lon="6.78383">
        <ele>2761.52</ele>
        <time>2019-08-04T14:53:34Z</time>
      </trkpt>
      <trkpt lat="45.84531" lon="6.78385">
        <ele>2762</ele>
        <time>2019-08-04T14:53:37Z</time>
      </trkpt>
      <trkpt lat="45.84532" lon="6.78387">
        <ele>2763.45</ele>
        <time>2019-08-04T14:53:44Z</time>
      </trkpt>
      <trkpt lat="45.84531" lon="6.7839">
        <ele>2764.41</ele>
        <time>2019-08-04T14:53:46Z</time>
      </trkpt>
      <trkpt lat="45.84531" lon="6.78396">
        <ele>2765.85</ele>
        <time>2019-08-04T14:53:57Z</time>
      </trkpt>
      <trkpt lat="45.84529" lon="6.78403">
        <ele>2764.89</ele>
        <time>2019-08-04T14:54:42Z</time>
      </trkpt>
      <trkpt lat="45.84528" lon="6.78408">
        <ele>2765.85</ele>
        <time>2019-08-04T14:54:48Z</time>
      </trkpt>
      <trkpt lat="45.84527" lon="6.78404">
        <ele>2765.37</ele>
        <time>2019-08-04T14:55:28Z</time>
      </trkpt>
      <trkpt lat="45.84528" lon="6.78402">
        <ele>2765.37</ele>
        <time>2019-08-04T14:55:33Z</time>
      </trkpt>
      <trkpt lat="45.84528" lon="6.784">
        <ele>2765.37</ele>
        <time>2019-08-04T14:55:34Z</time>
      </trkpt>
      <trkpt lat="45.84528" lon="6.78399">
        <ele>2765.37</ele>
        <time>2019-08-04T14:55:35Z</time>
      </trkpt>
      <trkpt lat="45.84527" lon="6.78399">
        <ele>2765.85</ele>
        <time>2019-08-04T14:56:16Z</time>
      </trkpt>
      <trkpt lat="45.84528" lon="6.78399">
        <ele>2765.85</ele>
        <time>2019-08-04T14:56:28Z</time>
      </trkpt>
      <trkpt lat="45.84528" lon="6.78402">
        <ele>2765.37</ele>
        <time>2019-08-04T14:56:32Z</time>
      </trkpt>
      <trkpt lat="45.84522" lon="6.78416">
        <ele>2762.49</ele>
        <time>2019-08-04T14:57:24Z</time>
      </trkpt>
      <trkpt lat="45.84519" lon="6.78425">
        <ele>2761.04</ele>
        <time>2019-08-04T14:57:58Z</time>
      </trkpt>
      <trkpt lat="45.8452" lon="6.78427">
        <ele>2761.04</ele>
        <time>2019-08-04T14:58:00Z</time>
      </trkpt>
      <trkpt lat="45.84521" lon="6.78429">
        <ele>2761.52</ele>
        <time>2019-08-04T14:58:01Z</time>
      </trkpt>
      <trkpt lat="45.84521" lon="6.78431">
        <ele>2762</ele>
        <time>2019-08-04T14:58:02Z</time>
      </trkpt>
      <trkpt lat="45.84521" lon="6.78432">
        <ele>2762</ele>
        <time>2019-08-04T14:58:03Z</time>
      </trkpt>
      <trkpt lat="45.84523" lon="6.78433">
        <ele>2762.49</ele>
        <time>2019-08-04T14:58:05Z</time>
      </trkpt>
      <trkpt lat="45.84522" lon="6.7844">
        <ele>2762.97</ele>
        <time>2019-08-04T14:58:32Z</time>
      </trkpt>
      <trkpt lat="45.84522" lon="6.78443">
        <ele>2763.45</ele>
        <time>2019-08-04T14:58:33Z</time>
      </trkpt>
      <trkpt lat="45.84523" lon="6.78445">
        <ele>2763.93</ele>
        <time>2019-08-04T14:58:34Z</time>
      </trkpt>
      <trkpt lat="45.8452" lon="6.78455">
        <ele>2763.45</ele>
        <time>2019-08-04T14:59:33Z</time>
      </trkpt>
      <trkpt lat="45.8452" lon="6.78456">
        <ele>2763.93</ele>
        <time>2019-08-04T15:00:32Z</time>
      </trkpt>
      <trkpt lat="45.84515" lon="6.7846">
        <ele>2763.45</ele>
        <time>2019-08-04T15:00:42Z</time>
      </trkpt>
      <trkpt lat="45.84514" lon="6.78464">
        <ele>2763.45</ele>
        <time>2019-08-04T15:00:52Z</time>
      </trkpt>
      <trkpt lat="45.84513" lon="6.78466">
        <ele>2763.45</ele>
        <time>2019-08-04T15:00:55Z</time>
      </trkpt>
      <trkpt lat="45.84514" lon="6.7847">
        <ele>2761.52</ele>
        <time>2019-08-04T15:01:22Z</time>
      </trkpt>
      <trkpt lat="45.84514" lon="6.78476">
        <ele>2759.6</ele>
        <time>2019-08-04T15:02:07Z</time>
      </trkpt>
      <trkpt lat="45.84516" lon="6.78499">
        <ele>2757.2</ele>
        <time>2019-08-04T15:04:54Z</time>
      </trkpt>
      <trkpt lat="45.84518" lon="6.78507">
        <ele>2756.72</ele>
        <time>2019-08-04T15:05:26Z</time>
      </trkpt>
      <trkpt lat="45.84513" lon="6.78522">
        <ele>2753.83</ele>
        <time>2019-08-04T15:08:00Z</time>
      </trkpt>
      <trkpt lat="45.84511" lon="6.78521">
        <ele>2752.39</ele>
        <time>2019-08-04T15:08:38Z</time>
      </trkpt>
      <trkpt lat="45.84509" lon="6.78535">
        <ele>2751.43</ele>
        <time>2019-08-04T15:09:40Z</time>
      </trkpt>
      <trkpt lat="45.84509" lon="6.78539">
        <ele>2751.91</ele>
        <time>2019-08-04T15:09:50Z</time>
      </trkpt>
      <trkpt lat="45.84507" lon="6.78544">
        <ele>2751.91</ele>
        <time>2019-08-04T15:10:31Z</time>
      </trkpt>
      <trkpt lat="45.84506" lon="6.78546">
        <ele>2751.43</ele>
        <time>2019-08-04T15:11:36Z</time>
      </trkpt>
      <trkpt lat="45.84508" lon="6.78549">
        <ele>2752.39</ele>
        <time>2019-08-04T15:12:03Z</time>
      </trkpt>
      <trkpt lat="45.84509" lon="6.78553">
        <ele>2751.91</ele>
        <time>2019-08-04T15:12:11Z</time>
      </trkpt>
      <trkpt lat="45.84509" lon="6.78555">
        <ele>2752.39</ele>
        <time>2019-08-04T15:12:18Z</time>
      </trkpt>
      <trkpt lat="45.84509" lon="6.78556">
        <ele>2752.39</ele>
        <time>2019-08-04T15:12:19Z</time>
      </trkpt>
      <trkpt lat="45.8451" lon="6.78557">
        <ele>2752.39</ele>
        <time>2019-08-04T15:12:20Z</time>
      </trkpt>
      <trkpt lat="45.8451" lon="6.78559">
        <ele>2752.39</ele>
        <time>2019-08-04T15:12:21Z</time>
      </trkpt>
      <trkpt lat="45.84505" lon="6.78565">
        <ele>2751.91</ele>
        <time>2019-08-04T15:13:55Z</time>
      </trkpt>
      <trkpt lat="45.84506" lon="6.78565">
        <ele>2752.39</ele>
        <time>2019-08-04T15:15:09Z</time>
      </trkpt>
      <trkpt lat="45.84507" lon="6.7858">
        <ele>2753.35</ele>
        <time>2019-08-04T15:16:46Z</time>
      </trkpt>
      <trkpt lat="45.84501" lon="6.78588">
        <ele>2750.95</ele>
        <time>2019-08-04T15:17:08Z</time>
      </trkpt>
      <trkpt lat="45.845" lon="6.78591">
        <ele>2749.99</ele>
        <time>2019-08-04T15:17:12Z</time>
      </trkpt>
      <trkpt lat="45.84499" lon="6.78593">
        <ele>2749.99</ele>
        <time>2019-08-04T15:17:13Z</time>
      </trkpt>
      <trkpt lat="45.845" lon="6.78598">
        <ele>2750.47</ele>
        <time>2019-08-04T15:17:21Z</time>
      </trkpt>
      <trkpt lat="45.845" lon="6.786">
        <ele>2750.47</ele>
        <time>2019-08-04T15:17:23Z</time>
      </trkpt>
      <trkpt lat="45.845" lon="6.78604">
        <ele>2751.43</ele>
        <time>2019-08-04T15:17:27Z</time>
      </trkpt>
      <trkpt lat="45.84501" lon="6.78609">
        <ele>2751.43</ele>
        <time>2019-08-04T15:17:32Z</time>
      </trkpt>
      <trkpt lat="45.845" lon="6.78611">
        <ele>2751.43</ele>
        <time>2019-08-04T15:17:33Z</time>
      </trkpt>
      <trkpt lat="45.845" lon="6.78615">
        <ele>2751.91</ele>
        <time>2019-08-04T15:17:42Z</time>
      </trkpt>
      <trkpt lat="45.84502" lon="6.78622">
        <ele>2755.28</ele>
        <time>2019-08-04T15:18:03Z</time>
      </trkpt>
      <trkpt lat="45.84505" lon="6.78626">
        <ele>2754.8</ele>
        <time>2019-08-04T15:18:37Z</time>
      </trkpt>
      <trkpt lat="45.84505" lon="6.78627">
        <ele>2754.8</ele>
        <time>2019-08-04T15:18:38Z</time>
      </trkpt>
      <trkpt lat="45.84503" lon="6.7863">
        <ele>2754.8</ele>
        <time>2019-08-04T15:19:12Z</time>
      </trkpt>
      <trkpt lat="45.84502" lon="6.78629">
        <ele>2753.83</ele>
        <time>2019-08-04T15:20:02Z</time>
      </trkpt>
      <trkpt lat="45.84502" lon="6.78629">
        <ele>2753.83</ele>
        <time>2019-08-04T15:20:16Z</time>
      </trkpt>
      <trkpt lat="45.84503" lon="6.78629">
        <ele>2754.31</ele>
        <time>2019-08-04T15:20:29Z</time>
      </trkpt>
      <trkpt lat="45.84502" lon="6.78629">
        <ele>2753.83</ele>
        <time>2019-08-04T15:20:43Z</time>
      </trkpt>
      <trkpt lat="45.84502" lon="6.7863">
        <ele>2753.83</ele>
        <time>2019-08-04T15:20:59Z</time>
      </trkpt>
      <trkpt lat="45.84502" lon="6.78629">
        <ele>2754.31</ele>
        <time>2019-08-04T15:21:46Z</time>
      </trkpt>
      <trkpt lat="45.84502" lon="6.78629">
        <ele>2753.83</ele>
        <time>2019-08-04T15:22:17Z</time>
      </trkpt>
      <trkpt lat="45.84502" lon="6.78629">
        <ele>2753.83</ele>
        <time>2019-08-04T15:22:41Z</time>
      </trkpt>
      <trkpt lat="45.84501" lon="6.78629">
        <ele>2753.83</ele>
        <time>2019-08-04T15:23:19Z</time>
      </trkpt>
      <trkpt lat="45.84503" lon="6.7863">
        <ele>2753.83</ele>
        <time>2019-08-04T15:24:19Z</time>
      </trkpt>
      <trkpt lat="45.84502" lon="6.78629">
        <ele>2754.31</ele>
        <time>2019-08-04T15:24:55Z</time>
      </trkpt>
      <trkpt lat="45.84503" lon="6.78631">
        <ele>2755.28</ele>
        <time>2019-08-04T15:25:22Z</time>
      </trkpt>
      <trkpt lat="45.84504" lon="6.78632">
        <ele>2755.76</ele>
        <time>2019-08-04T15:25:23Z</time>
      </trkpt>
      <trkpt lat="45.84504" lon="6.78637">
        <ele>2756.24</ele>
        <time>2019-08-04T15:25:28Z</time>
      </trkpt>
      <trkpt lat="45.84502" lon="6.78642">
        <ele>2757.2</ele>
        <time>2019-08-04T15:25:34Z</time>
      </trkpt>
      <trkpt lat="45.845" lon="6.78649">
        <ele>2760.56</ele>
        <time>2019-08-04T15:25:47Z</time>
      </trkpt>
      <trkpt lat="45.84501" lon="6.78661">
        <ele>2762.97</ele>
        <time>2019-08-04T15:26:02Z</time>
      </trkpt>
      <trkpt lat="45.84503" lon="6.78666">
        <ele>2765.37</ele>
        <time>2019-08-04T15:26:24Z</time>
      </trkpt>
      <trkpt lat="45.84503" lon="6.78672">
        <ele>2765.85</ele>
        <time>2019-08-04T15:26:31Z</time>
      </trkpt>
      <trkpt lat="45.84503" lon="6.78674">
        <ele>2766.33</ele>
        <time>2019-08-04T15:26:32Z</time>
      </trkpt>
      <trkpt lat="45.84501" lon="6.78684">
        <ele>2769.21</ele>
        <time>2019-08-04T15:26:57Z</time>
      </trkpt>
      <trkpt lat="45.84502" lon="6.78687">
        <ele>2772.1</ele>
        <time>2019-08-04T15:27:11Z</time>
      </trkpt>
      <trkpt lat="45.84502" lon="6.78688">
        <ele>2772.58</ele>
        <time>2019-08-04T15:27:12Z</time>
      </trkpt>
      <trkpt lat="45.84498" lon="6.78694">
        <ele>2775.46</ele>
        <time>2019-08-04T15:27:25Z</time>
      </trkpt>
      <trkpt lat="45.84498" lon="6.78699">
        <ele>2775.94</ele>
        <time>2019-08-04T15:27:31Z</time>
      </trkpt>
      <trkpt lat="45.84498" lon="6.787">
        <ele>2775.46</ele>
        <time>2019-08-04T15:27:32Z</time>
      </trkpt>
      <trkpt lat="45.84497" lon="6.78703">
        <ele>2774.98</ele>
        <time>2019-08-04T15:27:34Z</time>
      </trkpt>
      <trkpt lat="45.84497" lon="6.78704">
        <ele>2774.98</ele>
        <time>2019-08-04T15:27:35Z</time>
      </trkpt>
      <trkpt lat="45.84495" lon="6.78715">
        <ele>2777.87</ele>
        <time>2019-08-04T15:27:51Z</time>
      </trkpt>
      <trkpt lat="45.84493" lon="6.78717">
        <ele>2778.83</ele>
        <time>2019-08-04T15:27:54Z</time>
      </trkpt>
      <trkpt lat="45.84492" lon="6.78718">
        <ele>2778.83</ele>
        <time>2019-08-04T15:27:55Z</time>
      </trkpt>
      <trkpt lat="45.84491" lon="6.78722">
        <ele>2779.31</ele>
        <time>2019-08-04T15:27:59Z</time>
      </trkpt>
      <trkpt lat="45.84487" lon="6.78725">
        <ele>2779.31</ele>
        <time>2019-08-04T15:28:03Z</time>
      </trkpt>
      <trkpt lat="45.84486" lon="6.78726">
        <ele>2778.83</ele>
        <time>2019-08-04T15:28:04Z</time>
      </trkpt>
      <trkpt lat="45.84485" lon="6.78728">
        <ele>2778.35</ele>
        <time>2019-08-04T15:28:07Z</time>
      </trkpt>
      <trkpt lat="45.84485" lon="6.78735">
        <ele>2781.23</ele>
        <time>2019-08-04T15:28:26Z</time>
      </trkpt>
      <trkpt lat="45.84479" lon="6.78745">
        <ele>2784.6</ele>
        <time>2019-08-04T15:29:15Z</time>
      </trkpt>
      <trkpt lat="45.8448" lon="6.78748">
        <ele>2787.48</ele>
        <time>2019-08-04T15:29:35Z</time>
      </trkpt>
      <trkpt lat="45.84483" lon="6.78743">
        <ele>2790.36</ele>
        <time>2019-08-04T15:30:09Z</time>
      </trkpt>
      <trkpt lat="45.84482" lon="6.78741">
        <ele>2790.84</ele>
        <time>2019-08-04T15:31:28Z</time>
      </trkpt>
      <trkpt lat="45.84479" lon="6.78752">
        <ele>2793.73</ele>
        <time>2019-08-04T15:32:28Z</time>
      </trkpt>
      <trkpt lat="45.84475" lon="6.78756">
        <ele>2796.61</ele>
        <time>2019-08-04T15:33:24Z</time>
      </trkpt>
      <trkpt lat="45.84471" lon="6.78762">
        <ele>2799.98</ele>
        <time>2019-08-04T15:33:45Z</time>
      </trkpt>
      <trkpt lat="45.84469" lon="6.78764">
        <ele>2803.34</ele>
        <time>2019-08-04T15:34:04Z</time>
      </trkpt>
      <trkpt lat="45.84468" lon="6.78766">
        <ele>2803.82</ele>
        <time>2019-08-04T15:34:12Z</time>
      </trkpt>
      <trkpt lat="45.84466" lon="6.78771">
        <ele>2807.19</ele>
        <time>2019-08-04T15:34:26Z</time>
      </trkpt>
      <trkpt lat="45.84462" lon="6.78776">
        <ele>2810.07</ele>
        <time>2019-08-04T15:34:46Z</time>
      </trkpt>
      <trkpt lat="45.84461" lon="6.78783">
        <ele>2813.44</ele>
        <time>2019-08-04T15:35:00Z</time>
      </trkpt>
      <trkpt lat="45.84459" lon="6.78787">
        <ele>2816.32</ele>
        <time>2019-08-04T15:35:18Z</time>
      </trkpt>
      <trkpt lat="45.84458" lon="6.78792">
        <ele>2819.2</ele>
        <time>2019-08-04T15:35:40Z</time>
      </trkpt>
      <trkpt lat="45.84459" lon="6.78786">
        <ele>2822.57</ele>
        <time>2019-08-04T15:37:10Z</time>
      </trkpt>
      <trkpt lat="45.8446" lon="6.7879">
        <ele>2824.01</ele>
        <time>2019-08-04T15:37:16Z</time>
      </trkpt>
      <trkpt lat="45.84459" lon="6.78793">
        <ele>2824.49</ele>
        <time>2019-08-04T15:37:19Z</time>
      </trkpt>
      <trkpt lat="45.84458" lon="6.78798">
        <ele>2825.93</ele>
        <time>2019-08-04T15:37:24Z</time>
      </trkpt>
      <trkpt lat="45.84454" lon="6.78814">
        <ele>2828.82</ele>
        <time>2019-08-04T15:37:43Z</time>
      </trkpt>
      <trkpt lat="45.8445" lon="6.78829">
        <ele>2832.18</ele>
        <time>2019-08-04T15:38:21Z</time>
      </trkpt>
      <trkpt lat="45.8445" lon="6.78835">
        <ele>2833.14</ele>
        <time>2019-08-04T15:38:27Z</time>
      </trkpt>
      <trkpt lat="45.84446" lon="6.78841">
        <ele>2836.03</ele>
        <time>2019-08-04T15:38:44Z</time>
      </trkpt>
      <trkpt lat="45.84442" lon="6.78852">
        <ele>2839.39</ele>
        <time>2019-08-04T15:39:02Z</time>
      </trkpt>
      <trkpt lat="45.84437" lon="6.78859">
        <ele>2842.28</ele>
        <time>2019-08-04T15:39:18Z</time>
      </trkpt>
      <trkpt lat="45.84436" lon="6.7887">
        <ele>2845.64</ele>
        <time>2019-08-04T15:39:36Z</time>
      </trkpt>
      <trkpt lat="45.84436" lon="6.78886">
        <ele>2848.52</ele>
        <time>2019-08-04T15:39:54Z</time>
      </trkpt>
      <trkpt lat="45.84434" lon="6.78891">
        <ele>2848.52</ele>
        <time>2019-08-04T15:40:01Z</time>
      </trkpt>
      <trkpt lat="45.84433" lon="6.78893">
        <ele>2848.52</ele>
        <time>2019-08-04T15:40:02Z</time>
      </trkpt>
      <trkpt lat="45.84433" lon="6.78894">
        <ele>2849</ele>
        <time>2019-08-04T15:40:03Z</time>
      </trkpt>
      <trkpt lat="45.84432" lon="6.78895">
        <ele>2849</ele>
        <time>2019-08-04T15:40:04Z</time>
      </trkpt>
      <trkpt lat="45.84426" lon="6.78905">
        <ele>2852.37</ele>
        <time>2019-08-04T15:40:29Z</time>
      </trkpt>
      <trkpt lat="45.8443" lon="6.7891">
        <ele>2855.25</ele>
        <time>2019-08-04T15:40:41Z</time>
      </trkpt>
      <trkpt lat="45.84428" lon="6.78915">
        <ele>2858.62</ele>
        <time>2019-08-04T15:40:57Z</time>
      </trkpt>
      <trkpt lat="45.84426" lon="6.78922">
        <ele>2861.5</ele>
        <time>2019-08-04T15:41:14Z</time>
      </trkpt>
      <trkpt lat="45.84425" lon="6.78923">
        <ele>2862.94</ele>
        <time>2019-08-04T15:41:17Z</time>
      </trkpt>
      <trkpt lat="45.84422" lon="6.78926">
        <ele>2865.83</ele>
        <time>2019-08-04T15:41:29Z</time>
      </trkpt>
      <trkpt lat="45.84418" lon="6.78934">
        <ele>2869.19</ele>
        <time>2019-08-04T15:41:43Z</time>
      </trkpt>
      <trkpt lat="45.84416" lon="6.78939">
        <ele>2871.6</ele>
        <time>2019-08-04T15:42:02Z</time>
      </trkpt>
      <trkpt lat="45.84413" lon="6.78949">
        <ele>2874.48</ele>
        <time>2019-08-04T15:42:21Z</time>
      </trkpt>
      <trkpt lat="45.84411" lon="6.78955">
        <ele>2877.36</ele>
        <time>2019-08-04T15:42:34Z</time>
      </trkpt>
      <trkpt lat="45.84403" lon="6.78959">
        <ele>2876.88</ele>
        <time>2019-08-04T15:45:00Z</time>
      </trkpt>
      <trkpt lat="45.84402" lon="6.7896">
        <ele>2876.88</ele>
        <time>2019-08-04T15:45:18Z</time>
      </trkpt>
      <trkpt lat="45.84402" lon="6.7896">
        <ele>2877.36</ele>
        <time>2019-08-04T15:45:39Z</time>
      </trkpt>
      <trkpt lat="45.84402" lon="6.78961">
        <ele>2876.88</ele>
        <time>2019-08-04T15:46:15Z</time>
      </trkpt>
      <trkpt lat="45.84402" lon="6.78961">
        <ele>2876.88</ele>
        <time>2019-08-04T15:46:31Z</time>
      </trkpt>
      <trkpt lat="45.84405" lon="6.78962">
        <ele>2876.88</ele>
        <time>2019-08-04T15:46:51Z</time>
      </trkpt>
      <trkpt lat="45.84403" lon="6.78961">
        <ele>2873.04</ele>
        <time>2019-08-04T15:48:07Z</time>
      </trkpt>
      <trkpt lat="45.84403" lon="6.78962">
        <ele>2876.4</ele>
        <time>2019-08-04T15:48:10Z</time>
      </trkpt>
      <trkpt lat="45.84402" lon="6.78962">
        <ele>2876.4</ele>
        <time>2019-08-04T15:48:11Z</time>
      </trkpt>
      <trkpt lat="45.84402" lon="6.78961">
        <ele>2875.44</ele>
        <time>2019-08-04T15:48:16Z</time>
      </trkpt>
      <trkpt lat="45.84402" lon="6.78962">
        <ele>2876.4</ele>
        <time>2019-08-04T15:49:54Z</time>
      </trkpt>
      <trkpt lat="45.84403" lon="6.78962">
        <ele>2876.4</ele>
        <time>2019-08-04T15:50:08Z</time>
      </trkpt>
      <trkpt lat="45.84403" lon="6.78961">
        <ele>2876.88</ele>
        <time>2019-08-04T15:51:06Z</time>
      </trkpt>
      <trkpt lat="45.84402" lon="6.78961">
        <ele>2876.4</ele>
        <time>2019-08-04T15:51:26Z</time>
      </trkpt>
      <trkpt lat="45.84402" lon="6.78961">
        <ele>2874</ele>
        <time>2019-08-04T15:51:29Z</time>
      </trkpt>
      <trkpt lat="45.84402" lon="6.78961">
        <ele>2877.36</ele>
        <time>2019-08-04T15:51:49Z</time>
      </trkpt>
      <trkpt lat="45.84402" lon="6.7896">
        <ele>2876.4</ele>
        <time>2019-08-04T15:53:21Z</time>
      </trkpt>
      <trkpt lat="45.84403" lon="6.78961">
        <ele>2876.4</ele>
        <time>2019-08-04T15:57:56Z</time>
      </trkpt>
      <trkpt lat="45.84402" lon="6.78961">
        <ele>2876.88</ele>
        <time>2019-08-04T15:58:59Z</time>
      </trkpt>
      <trkpt lat="45.84403" lon="6.78961">
        <ele>2877.36</ele>
        <time>2019-08-04T15:59:34Z</time>
      </trkpt>
      <trkpt lat="45.84403" lon="6.78961">
        <ele>2876.4</ele>
        <time>2019-08-04T16:00:10Z</time>
      </trkpt>
      <trkpt lat="45.84403" lon="6.78962">
        <ele>2876.88</ele>
        <time>2019-08-04T16:00:31Z</time>
      </trkpt>
      <trkpt lat="45.84404" lon="6.78963">
        <ele>2876.4</ele>
        <time>2019-08-04T16:00:52Z</time>
      </trkpt>
      <trkpt lat="45.84405" lon="6.78962">
        <ele>2875.92</ele>
        <time>2019-08-04T16:02:06Z</time>
      </trkpt>
      <trkpt lat="45.84405" lon="6.78962">
        <ele>2876.4</ele>
        <time>2019-08-04T16:03:37Z</time>
      </trkpt>
      <trkpt lat="45.84405" lon="6.78962">
        <ele>2875.92</ele>
        <time>2019-08-04T16:04:42Z</time>
      </trkpt>
      <trkpt lat="45.84404" lon="6.78962">
        <ele>2874.48</ele>
        <time>2019-08-04T16:07:56Z</time>
      </trkpt>
      <trkpt lat="45.84404" lon="6.78962">
        <ele>2875.92</ele>
        <time>2019-08-04T16:08:09Z</time>
      </trkpt>
      <trkpt lat="45.84403" lon="6.78962">
        <ele>2876.4</ele>
        <time>2019-08-04T16:08:54Z</time>
      </trkpt>
      <trkpt lat="45.84403" lon="6.78961">
        <ele>2876.4</ele>
        <time>2019-08-04T16:09:18Z</time>
      </trkpt>
      <trkpt lat="45.84403" lon="6.78962">
        <ele>2876.4</ele>
        <time>2019-08-04T16:09:45Z</time>
      </trkpt>
      <trkpt lat="45.84403" lon="6.78962">
        <ele>2876.4</ele>
        <time>2019-08-04T16:10:21Z</time>
      </trkpt>
      <trkpt lat="45.84402" lon="6.78961">
        <ele>2876.4</ele>
        <time>2019-08-04T16:11:17Z</time>
      </trkpt>
      <trkpt lat="45.84403" lon="6.7896">
        <ele>2877.84</ele>
        <time>2019-08-04T16:13:10Z</time>
      </trkpt>
      <trkpt lat="45.84404" lon="6.78961">
        <ele>2876.4</ele>
        <time>2019-08-04T16:13:24Z</time>
      </trkpt>
      <trkpt lat="45.84404" lon="6.78962">
        <ele>2877.36</ele>
        <time>2019-08-04T16:13:39Z</time>
      </trkpt>
      <trkpt lat="45.84405" lon="6.78963">
        <ele>2877.36</ele>
        <time>2019-08-04T16:13:52Z</time>
      </trkpt>
      <trkpt lat="45.84406" lon="6.78963">
        <ele>2875.92</ele>
        <time>2019-08-04T16:14:05Z</time>
      </trkpt>
      <trkpt lat="45.84404" lon="6.78963">
        <ele>2876.88</ele>
        <time>2019-08-04T16:14:23Z</time>
      </trkpt>
      <trkpt lat="45.84407" lon="6.78957">
        <ele>2876.4</ele>
        <time>2019-08-04T16:14:35Z</time>
      </trkpt>
      <trkpt lat="45.84408" lon="6.78955">
        <ele>2876.4</ele>
        <time>2019-08-04T16:14:36Z</time>
      </trkpt>
      <trkpt lat="45.84408" lon="6.78953">
        <ele>2875.92</ele>
        <time>2019-08-04T16:14:37Z</time>
      </trkpt>
      <trkpt lat="45.84409" lon="6.78952">
        <ele>2874.96</ele>
        <time>2019-08-04T16:14:38Z</time>
      </trkpt>
      <trkpt lat="45.8441" lon="6.7895">
        <ele>2874.48</ele>
        <time>2019-08-04T16:14:39Z</time>
      </trkpt>
      <trkpt lat="45.84411" lon="6.78948">
        <ele>2874</ele>
        <time>2019-08-04T16:14:40Z</time>
      </trkpt>
      <trkpt lat="45.84413" lon="6.78946">
        <ele>2874</ele>
        <time>2019-08-04T16:14:41Z</time>
      </trkpt>
      <trkpt lat="45.84414" lon="6.78944">
        <ele>2873.04</ele>
        <time>2019-08-04T16:14:42Z</time>
      </trkpt>
      <trkpt lat="45.84414" lon="6.78942">
        <ele>2872.08</ele>
        <time>2019-08-04T16:14:43Z</time>
      </trkpt>
      <trkpt lat="45.84414" lon="6.78941">
        <ele>2872.56</ele>
        <time>2019-08-04T16:14:44Z</time>
      </trkpt>
      <trkpt lat="45.84413" lon="6.78941">
        <ele>2872.56</ele>
        <time>2019-08-04T16:14:45Z</time>
      </trkpt>
      <trkpt lat="45.84412" lon="6.7894">
        <ele>2872.56</ele>
        <time>2019-08-04T16:14:46Z</time>
      </trkpt>
      <trkpt lat="45.84411" lon="6.78938">
        <ele>2871.6</ele>
        <time>2019-08-04T16:14:47Z</time>
      </trkpt>
      <trkpt lat="45.84411" lon="6.78934">
        <ele>2868.71</ele>
        <time>2019-08-04T16:14:49Z</time>
      </trkpt>
      <trkpt lat="45.84414" lon="6.78925">
        <ele>2865.35</ele>
        <time>2019-08-04T16:14:57Z</time>
      </trkpt>
      <trkpt lat="45.84414" lon="6.78925">
        <ele>2865.35</ele>
        <time>2019-08-04T16:14:58Z</time>
      </trkpt>
      <trkpt lat="45.84414" lon="6.78922">
        <ele>2864.39</ele>
        <time>2019-08-04T16:15:01Z</time>
      </trkpt>
      <trkpt lat="45.84414" lon="6.7892">
        <ele>2864.39</ele>
        <time>2019-08-04T16:15:02Z</time>
      </trkpt>
      <trkpt lat="45.84413" lon="6.78918">
        <ele>2861.98</ele>
        <time>2019-08-04T16:15:07Z</time>
      </trkpt>
      <trkpt lat="45.84414" lon="6.78915">
        <ele>2861.02</ele>
        <time>2019-08-04T16:15:11Z</time>
      </trkpt>
      <trkpt lat="45.84415" lon="6.78914">
        <ele>2860.54</ele>
        <time>2019-08-04T16:15:12Z</time>
      </trkpt>
      <trkpt lat="45.84415" lon="6.78914">
        <ele>2860.06</ele>
        <time>2019-08-04T16:15:26Z</time>
      </trkpt>
      <trkpt lat="45.84416" lon="6.78913">
        <ele>2859.58</ele>
        <time>2019-08-04T16:15:27Z</time>
      </trkpt>
      <trkpt lat="45.84422" lon="6.78911">
        <ele>2857.66</ele>
        <time>2019-08-04T16:15:36Z</time>
      </trkpt>
      <trkpt lat="45.84421" lon="6.78906">
        <ele>2856.69</ele>
        <time>2019-08-04T16:15:41Z</time>
      </trkpt>
      <trkpt lat="45.84421" lon="6.78906">
        <ele>2856.21</ele>
        <time>2019-08-04T16:15:42Z</time>
      </trkpt>
      <trkpt lat="45.84421" lon="6.78905">
        <ele>2855.25</ele>
        <time>2019-08-04T16:15:43Z</time>
      </trkpt>
      <trkpt lat="45.84421" lon="6.78904">
        <ele>2854.29</ele>
        <time>2019-08-04T16:15:59Z</time>
      </trkpt>
      <trkpt lat="45.84418" lon="6.78902">
        <ele>2854.29</ele>
        <time>2019-08-04T16:16:01Z</time>
      </trkpt>
      <trkpt lat="45.84417" lon="6.78901">
        <ele>2854.29</ele>
        <time>2019-08-04T16:16:02Z</time>
      </trkpt>
      <trkpt lat="45.84417" lon="6.789">
        <ele>2853.81</ele>
        <time>2019-08-04T16:16:03Z</time>
      </trkpt>
      <trkpt lat="45.84416" lon="6.78898">
        <ele>2853.33</ele>
        <time>2019-08-04T16:16:04Z</time>
      </trkpt>
      <trkpt lat="45.84416" lon="6.78896">
        <ele>2852.37</ele>
        <time>2019-08-04T16:16:05Z</time>
      </trkpt>
      <trkpt lat="45.84416" lon="6.78893">
        <ele>2849</ele>
        <time>2019-08-04T16:16:10Z</time>
      </trkpt>
      <trkpt lat="45.84416" lon="6.78893">
        <ele>2849</ele>
        <time>2019-08-04T16:16:11Z</time>
      </trkpt>
      <trkpt lat="45.84415" lon="6.78888">
        <ele>2848.52</ele>
        <time>2019-08-04T16:16:20Z</time>
      </trkpt>
      <trkpt lat="45.84416" lon="6.78887">
        <ele>2847.56</ele>
        <time>2019-08-04T16:16:21Z</time>
      </trkpt>
      <trkpt lat="45.84416" lon="6.78885">
        <ele>2847.08</ele>
        <time>2019-08-04T16:16:22Z</time>
      </trkpt>
      <trkpt lat="45.84418" lon="6.78883">
        <ele>2846.6</ele>
        <time>2019-08-04T16:16:23Z</time>
      </trkpt>
      <trkpt lat="45.8442" lon="6.78881">
        <ele>2846.12</ele>
        <time>2019-08-04T16:16:24Z</time>
      </trkpt>
      <trkpt lat="45.84423" lon="6.78878">
        <ele>2845.64</ele>
        <time>2019-08-04T16:16:25Z</time>
      </trkpt>
      <trkpt lat="45.84425" lon="6.78876">
        <ele>2845.16</ele>
        <time>2019-08-04T16:16:26Z</time>
      </trkpt>
      <trkpt lat="45.84426" lon="6.78873">
        <ele>2845.16</ele>
        <time>2019-08-04T16:16:27Z</time>
      </trkpt>
      <trkpt lat="45.84427" lon="6.7887">
        <ele>2844.2</ele>
        <time>2019-08-04T16:16:28Z</time>
      </trkpt>
      <trkpt lat="45.84429" lon="6.78867">
        <ele>2844.2</ele>
        <time>2019-08-04T16:16:29Z</time>
      </trkpt>
      <trkpt lat="45.84434" lon="6.78858">
        <ele>2843.24</ele>
        <time>2019-08-04T16:16:51Z</time>
      </trkpt>
      <trkpt lat="45.84435" lon="6.78858">
        <ele>2842.28</ele>
        <time>2019-08-04T16:17:17Z</time>
      </trkpt>
      <trkpt lat="45.84433" lon="6.78855">
        <ele>2841.79</ele>
        <time>2019-08-04T16:17:46Z</time>
      </trkpt>
      <trkpt lat="45.84433" lon="6.78853">
        <ele>2840.83</ele>
        <time>2019-08-04T16:17:47Z</time>
      </trkpt>
      <trkpt lat="45.84433" lon="6.7885">
        <ele>2839.39</ele>
        <time>2019-08-04T16:17:48Z</time>
      </trkpt>
      <trkpt lat="45.84434" lon="6.78848">
        <ele>2839.39</ele>
        <time>2019-08-04T16:17:49Z</time>
      </trkpt>
      <trkpt lat="45.84434" lon="6.78846">
        <ele>2839.39</ele>
        <time>2019-08-04T16:17:50Z</time>
      </trkpt>
      <trkpt lat="45.84434" lon="6.78844">
        <ele>2839.39</ele>
        <time>2019-08-04T16:17:51Z</time>
      </trkpt>
      <trkpt lat="45.84437" lon="6.78838">
        <ele>2837.95</ele>
        <time>2019-08-04T16:17:54Z</time>
      </trkpt>
      <trkpt lat="45.84438" lon="6.78836">
        <ele>2836.99</ele>
        <time>2019-08-04T16:17:55Z</time>
      </trkpt>
      <trkpt lat="45.84439" lon="6.78834">
        <ele>2836.99</ele>
        <time>2019-08-04T16:17:56Z</time>
      </trkpt>
      <trkpt lat="45.84446" lon="6.78814">
        <ele>2833.62</ele>
        <time>2019-08-04T16:18:03Z</time>
      </trkpt>
      <trkpt lat="45.84451" lon="6.7881">
        <ele>2830.74</ele>
        <time>2019-08-04T16:18:08Z</time>
      </trkpt>
      <trkpt lat="45.84453" lon="6.78811">
        <ele>2829.78</ele>
        <time>2019-08-04T16:18:10Z</time>
      </trkpt>
      <trkpt lat="45.84454" lon="6.78812">
        <ele>2829.78</ele>
        <time>2019-08-04T16:18:11Z</time>
      </trkpt>
      <trkpt lat="45.84454" lon="6.78811">
        <ele>2828.82</ele>
        <time>2019-08-04T16:18:49Z</time>
      </trkpt>
      <trkpt lat="45.84458" lon="6.78801">
        <ele>2827.37</ele>
        <time>2019-08-04T16:18:55Z</time>
      </trkpt>
      <trkpt lat="45.84458" lon="6.78794">
        <ele>2825.45</ele>
        <time>2019-08-04T16:18:59Z</time>
      </trkpt>
      <trkpt lat="45.84457" lon="6.78793">
        <ele>2824.97</ele>
        <time>2019-08-04T16:19:00Z</time>
      </trkpt>
      <trkpt lat="45.84457" lon="6.78791">
        <ele>2824.49</ele>
        <time>2019-08-04T16:19:01Z</time>
      </trkpt>
      <trkpt lat="45.84457" lon="6.78785">
        <ele>2821.61</ele>
        <time>2019-08-04T16:19:24Z</time>
      </trkpt>
      <trkpt lat="45.8446" lon="6.78784">
        <ele>2818.72</ele>
        <time>2019-08-04T16:19:46Z</time>
      </trkpt>
      <trkpt lat="45.84463" lon="6.78785">
        <ele>2815.84</ele>
        <time>2019-08-04T16:21:02Z</time>
      </trkpt>
      <trkpt lat="45.84467" lon="6.78784">
        <ele>2814.88</ele>
        <time>2019-08-04T16:21:31Z</time>
      </trkpt>
      <trkpt lat="45.84462" lon="6.78776">
        <ele>2813.44</ele>
        <time>2019-08-04T16:22:42Z</time>
      </trkpt>
      <trkpt lat="45.84463" lon="6.78769">
        <ele>2810.07</ele>
        <time>2019-08-04T16:22:58Z</time>
      </trkpt>
      <trkpt lat="45.84465" lon="6.78768">
        <ele>2807.19</ele>
        <time>2019-08-04T16:23:27Z</time>
      </trkpt>
      <trkpt lat="45.84468" lon="6.78766">
        <ele>2804.78</ele>
        <time>2019-08-04T16:24:16Z</time>
      </trkpt>
      <trkpt lat="45.84465" lon="6.7877">
        <ele>2806.23</ele>
        <time>2019-08-04T16:24:56Z</time>
      </trkpt>
      <trkpt lat="45.84467" lon="6.78764">
        <ele>2802.86</ele>
        <time>2019-08-04T16:25:43Z</time>
      </trkpt>
      <trkpt lat="45.8447" lon="6.78762">
        <ele>2800.46</ele>
        <time>2019-08-04T16:26:21Z</time>
      </trkpt>
      <trkpt lat="45.8447" lon="6.78761">
        <ele>2799.02</ele>
        <time>2019-08-04T16:26:43Z</time>
      </trkpt>
      <trkpt lat="45.84473" lon="6.78764">
        <ele>2799.02</ele>
        <time>2019-08-04T16:27:20Z</time>
      </trkpt>
      <trkpt lat="45.84473" lon="6.78761">
        <ele>2799.02</ele>
        <time>2019-08-04T16:27:44Z</time>
      </trkpt>
      <trkpt lat="45.84476" lon="6.78756">
        <ele>2796.13</ele>
        <time>2019-08-04T16:28:00Z</time>
      </trkpt>
      <trkpt lat="45.84477" lon="6.7875">
        <ele>2792.77</ele>
        <time>2019-08-04T16:28:13Z</time>
      </trkpt>
      <trkpt lat="45.84478" lon="6.78747">
        <ele>2791.81</ele>
        <time>2019-08-04T16:28:23Z</time>
      </trkpt>
      <trkpt lat="45.84479" lon="6.78746">
        <ele>2792.29</ele>
        <time>2019-08-04T16:28:36Z</time>
      </trkpt>
      <trkpt lat="45.84479" lon="6.78746">
        <ele>2790.84</ele>
        <time>2019-08-04T16:28:40Z</time>
      </trkpt>
      <trkpt lat="45.8448" lon="6.78747">
        <ele>2792.29</ele>
        <time>2019-08-04T16:28:43Z</time>
      </trkpt>
      <trkpt lat="45.84477" lon="6.78745">
        <ele>2791.81</ele>
        <time>2019-08-04T16:29:08Z</time>
      </trkpt>
      <trkpt lat="45.84482" lon="6.78743">
        <ele>2789.88</ele>
        <time>2019-08-04T16:29:46Z</time>
      </trkpt>
      <trkpt lat="45.84486" lon="6.78743">
        <ele>2786.52</ele>
        <time>2019-08-04T16:29:58Z</time>
      </trkpt>
      <trkpt lat="45.84485" lon="6.78735">
        <ele>2783.63</ele>
        <time>2019-08-04T16:30:15Z</time>
      </trkpt>
      <trkpt lat="45.84482" lon="6.78729">
        <ele>2781.23</ele>
        <time>2019-08-04T16:30:37Z</time>
      </trkpt>
      <trkpt lat="45.84484" lon="6.78731">
        <ele>2782.67</ele>
        <time>2019-08-04T16:31:22Z</time>
      </trkpt>
      <trkpt lat="45.84483" lon="6.78726">
        <ele>2779.31</ele>
        <time>2019-08-04T16:31:37Z</time>
      </trkpt>
      <trkpt lat="45.84482" lon="6.78716">
        <ele>2776.42</ele>
        <time>2019-08-04T16:31:52Z</time>
      </trkpt>
      <trkpt lat="45.84478" lon="6.78719">
        <ele>2774.5</ele>
        <time>2019-08-04T16:32:59Z</time>
      </trkpt>
      <trkpt lat="45.84477" lon="6.78721">
        <ele>2772.58</ele>
        <time>2019-08-04T16:33:50Z</time>
      </trkpt>
      <trkpt lat="45.84476" lon="6.7872">
        <ele>2773.54</ele>
        <time>2019-08-04T16:35:00Z</time>
      </trkpt>
      <trkpt lat="45.84473" lon="6.7872">
        <ele>2772.58</ele>
        <time>2019-08-04T16:35:09Z</time>
      </trkpt>
      <trkpt lat="45.84471" lon="6.78719">
        <ele>2771.62</ele>
        <time>2019-08-04T16:35:10Z</time>
      </trkpt>
      <trkpt lat="45.8447" lon="6.78718">
        <ele>2770.66</ele>
        <time>2019-08-04T16:35:11Z</time>
      </trkpt>
      <trkpt lat="45.84469" lon="6.78717">
        <ele>2769.7</ele>
        <time>2019-08-04T16:35:12Z</time>
      </trkpt>
      <trkpt lat="45.84468" lon="6.78718">
        <ele>2769.21</ele>
        <time>2019-08-04T16:35:13Z</time>
      </trkpt>
      <trkpt lat="45.84467" lon="6.78718">
        <ele>2769.21</ele>
        <time>2019-08-04T16:35:14Z</time>
      </trkpt>
      <trkpt lat="45.84465" lon="6.78718">
        <ele>2769.21</ele>
        <time>2019-08-04T16:35:15Z</time>
      </trkpt>
      <trkpt lat="45.84463" lon="6.78718">
        <ele>2768.25</ele>
        <time>2019-08-04T16:35:16Z</time>
      </trkpt>
      <trkpt lat="45.84462" lon="6.78718">
        <ele>2767.77</ele>
        <time>2019-08-04T16:35:17Z</time>
      </trkpt>
      <trkpt lat="45.8446" lon="6.78717">
        <ele>2766.81</ele>
        <time>2019-08-04T16:35:18Z</time>
      </trkpt>
      <trkpt lat="45.84459" lon="6.78716">
        <ele>2765.85</ele>
        <time>2019-08-04T16:35:19Z</time>
      </trkpt>
      <trkpt lat="45.84458" lon="6.78714">
        <ele>2764.89</ele>
        <time>2019-08-04T16:35:20Z</time>
      </trkpt>
      <trkpt lat="45.84457" lon="6.78713">
        <ele>2764.41</ele>
        <time>2019-08-04T16:35:21Z</time>
      </trkpt>
      <trkpt lat="45.84457" lon="6.78711">
        <ele>2763.93</ele>
        <time>2019-08-04T16:35:22Z</time>
      </trkpt>
      <trkpt lat="45.84456" lon="6.78708">
        <ele>2762.49</ele>
        <time>2019-08-04T16:35:24Z</time>
      </trkpt>
      <trkpt lat="45.84455" lon="6.78707">
        <ele>2762</ele>
        <time>2019-08-04T16:35:25Z</time>
      </trkpt>
      <trkpt lat="45.84455" lon="6.78706">
        <ele>2761.52</ele>
        <time>2019-08-04T16:35:26Z</time>
      </trkpt>
      <trkpt lat="45.84455" lon="6.78704">
        <ele>2761.52</ele>
        <time>2019-08-04T16:35:27Z</time>
      </trkpt>
      <trkpt lat="45.84453" lon="6.78702">
        <ele>2757.68</ele>
        <time>2019-08-04T16:36:53Z</time>
      </trkpt>
      <trkpt lat="45.84454" lon="6.78701">
        <ele>2757.2</ele>
        <time>2019-08-04T16:36:54Z</time>
      </trkpt>
      <trkpt lat="45.84454" lon="6.787">
        <ele>2757.2</ele>
        <time>2019-08-04T16:36:55Z</time>
      </trkpt>
      <trkpt lat="45.84456" lon="6.78699">
        <ele>2756.72</ele>
        <time>2019-08-04T16:36:56Z</time>
      </trkpt>
      <trkpt lat="45.84457" lon="6.78698">
        <ele>2756.72</ele>
        <time>2019-08-04T16:36:57Z</time>
      </trkpt>
      <trkpt lat="45.84458" lon="6.78697">
        <ele>2756.24</ele>
        <time>2019-08-04T16:36:58Z</time>
      </trkpt>
      <trkpt lat="45.8446" lon="6.78695">
        <ele>2756.24</ele>
        <time>2019-08-04T16:36:59Z</time>
      </trkpt>
      <trkpt lat="45.8446" lon="6.78694">
        <ele>2754.8</ele>
        <time>2019-08-04T16:37:00Z</time>
      </trkpt>
      <trkpt lat="45.84461" lon="6.78692">
        <ele>2753.83</ele>
        <time>2019-08-04T16:37:01Z</time>
      </trkpt>
      <trkpt lat="45.84459" lon="6.78693">
        <ele>2754.31</ele>
        <time>2019-08-04T16:37:06Z</time>
      </trkpt>
      <trkpt lat="45.84458" lon="6.78691">
        <ele>2753.83</ele>
        <time>2019-08-04T16:37:07Z</time>
      </trkpt>
      <trkpt lat="45.84458" lon="6.78689">
        <ele>2752.39</ele>
        <time>2019-08-04T16:37:08Z</time>
      </trkpt>
      <trkpt lat="45.84457" lon="6.78687">
        <ele>2750.95</ele>
        <time>2019-08-04T16:37:10Z</time>
      </trkpt>
      <trkpt lat="45.84456" lon="6.78685">
        <ele>2750.47</ele>
        <time>2019-08-04T16:37:11Z</time>
      </trkpt>
      <trkpt lat="45.84455" lon="6.78682">
        <ele>2749.99</ele>
        <time>2019-08-04T16:37:12Z</time>
      </trkpt>
      <trkpt lat="45.84455" lon="6.7868">
        <ele>2748.55</ele>
        <time>2019-08-04T16:37:13Z</time>
      </trkpt>
      <trkpt lat="45.84456" lon="6.78678">
        <ele>2747.59</ele>
        <time>2019-08-04T16:37:14Z</time>
      </trkpt>
      <trkpt lat="45.84456" lon="6.78675">
        <ele>2746.62</ele>
        <time>2019-08-04T16:37:15Z</time>
      </trkpt>
      <trkpt lat="45.84456" lon="6.78672">
        <ele>2745.18</ele>
        <time>2019-08-04T16:37:16Z</time>
      </trkpt>
      <trkpt lat="45.84456" lon="6.78665">
        <ele>2741.82</ele>
        <time>2019-08-04T16:37:18Z</time>
      </trkpt>
      <trkpt lat="45.84455" lon="6.78657">
        <ele>2738.45</ele>
        <time>2019-08-04T16:37:21Z</time>
      </trkpt>
      <trkpt lat="45.84456" lon="6.78654">
        <ele>2737.01</ele>
        <time>2019-08-04T16:37:22Z</time>
      </trkpt>
      <trkpt lat="45.84455" lon="6.78651">
        <ele>2736.53</ele>
        <time>2019-08-04T16:37:23Z</time>
      </trkpt>
      <trkpt lat="45.84453" lon="6.78649">
        <ele>2736.05</ele>
        <time>2019-08-04T16:37:24Z</time>
      </trkpt>
      <trkpt lat="45.84453" lon="6.78646">
        <ele>2734.61</ele>
        <time>2019-08-04T16:37:25Z</time>
      </trkpt>
      <trkpt lat="45.84452" lon="6.78645">
        <ele>2733.17</ele>
        <time>2019-08-04T16:37:26Z</time>
      </trkpt>
      <trkpt lat="45.84451" lon="6.78643">
        <ele>2732.2</ele>
        <time>2019-08-04T16:37:27Z</time>
      </trkpt>
      <trkpt lat="45.8445" lon="6.78641">
        <ele>2731.72</ele>
        <time>2019-08-04T16:37:28Z</time>
      </trkpt>
      <trkpt lat="45.8445" lon="6.78638">
        <ele>2730.76</ele>
        <time>2019-08-04T16:37:29Z</time>
      </trkpt>
      <trkpt lat="45.8445" lon="6.78635">
        <ele>2729.32</ele>
        <time>2019-08-04T16:37:30Z</time>
      </trkpt>
      <trkpt lat="45.8445" lon="6.78633">
        <ele>2727.4</ele>
        <time>2019-08-04T16:37:31Z</time>
      </trkpt>
      <trkpt lat="45.8445" lon="6.78631">
        <ele>2726.44</ele>
        <time>2019-08-04T16:37:32Z</time>
      </trkpt>
      <trkpt lat="45.84449" lon="6.78629">
        <ele>2725.48</ele>
        <time>2019-08-04T16:37:33Z</time>
      </trkpt>
      <trkpt lat="45.84447" lon="6.78628">
        <ele>2725.48</ele>
        <time>2019-08-04T16:37:34Z</time>
      </trkpt>
      <trkpt lat="45.84445" lon="6.78627">
        <ele>2723.07</ele>
        <time>2019-08-04T16:37:36Z</time>
      </trkpt>
      <trkpt lat="45.84444" lon="6.78625">
        <ele>2722.59</ele>
        <time>2019-08-04T16:37:37Z</time>
      </trkpt>
      <trkpt lat="45.84445" lon="6.78626">
        <ele>2720.67</ele>
        <time>2019-08-04T16:37:40Z</time>
      </trkpt>
      <trkpt lat="45.84441" lon="6.78627">
        <ele>2718.75</ele>
        <time>2019-08-04T16:38:48Z</time>
      </trkpt>
      <trkpt lat="45.84434" lon="6.78631">
        <ele>2717.78</ele>
        <time>2019-08-04T16:40:25Z</time>
      </trkpt>
      <trkpt lat="45.84432" lon="6.78631">
        <ele>2717.3</ele>
        <time>2019-08-04T16:40:26Z</time>
      </trkpt>
      <trkpt lat="45.84431" lon="6.7863">
        <ele>2716.82</ele>
        <time>2019-08-04T16:40:27Z</time>
      </trkpt>
      <trkpt lat="45.84429" lon="6.78629">
        <ele>2715.86</ele>
        <time>2019-08-04T16:40:28Z</time>
      </trkpt>
      <trkpt lat="45.84428" lon="6.78627">
        <ele>2714.42</ele>
        <time>2019-08-04T16:40:29Z</time>
      </trkpt>
      <trkpt lat="45.84421" lon="6.7862">
        <ele>2711.06</ele>
        <time>2019-08-04T16:40:33Z</time>
      </trkpt>
      <trkpt lat="45.84417" lon="6.78616">
        <ele>2708.17</ele>
        <time>2019-08-04T16:40:35Z</time>
      </trkpt>
      <trkpt lat="45.84415" lon="6.78616">
        <ele>2706.73</ele>
        <time>2019-08-04T16:40:36Z</time>
      </trkpt>
      <trkpt lat="45.84409" lon="6.78611">
        <ele>2702.88</ele>
        <time>2019-08-04T16:40:39Z</time>
      </trkpt>
      <trkpt lat="45.84407" lon="6.7861">
        <ele>2701.44</ele>
        <time>2019-08-04T16:40:40Z</time>
      </trkpt>
      <trkpt lat="45.84406" lon="6.7861">
        <ele>2700.48</ele>
        <time>2019-08-04T16:40:41Z</time>
      </trkpt>
      <trkpt lat="45.84405" lon="6.78612">
        <ele>2700</ele>
        <time>2019-08-04T16:40:42Z</time>
      </trkpt>
      <trkpt lat="45.84403" lon="6.78613">
        <ele>2699.04</ele>
        <time>2019-08-04T16:40:43Z</time>
      </trkpt>
      <trkpt lat="45.84402" lon="6.78613">
        <ele>2698.56</ele>
        <time>2019-08-04T16:40:44Z</time>
      </trkpt>
      <trkpt lat="45.844" lon="6.78612">
        <ele>2697.6</ele>
        <time>2019-08-04T16:40:45Z</time>
      </trkpt>
      <trkpt lat="45.84398" lon="6.78612">
        <ele>2696.64</ele>
        <time>2019-08-04T16:40:46Z</time>
      </trkpt>
      <trkpt lat="45.84397" lon="6.78612">
        <ele>2695.67</ele>
        <time>2019-08-04T16:40:47Z</time>
      </trkpt>
      <trkpt lat="45.84395" lon="6.78612">
        <ele>2694.23</ele>
        <time>2019-08-04T16:40:48Z</time>
      </trkpt>
      <trkpt lat="45.84393" lon="6.78611">
        <ele>2693.75</ele>
        <time>2019-08-04T16:40:49Z</time>
      </trkpt>
      <trkpt lat="45.84391" lon="6.78609">
        <ele>2693.27</ele>
        <time>2019-08-04T16:40:50Z</time>
      </trkpt>
      <trkpt lat="45.8439" lon="6.78609">
        <ele>2691.83</ele>
        <time>2019-08-04T16:40:51Z</time>
      </trkpt>
      <trkpt lat="45.84389" lon="6.78607">
        <ele>2690.39</ele>
        <time>2019-08-04T16:40:52Z</time>
      </trkpt>
      <trkpt lat="45.84387" lon="6.78605">
        <ele>2689.43</ele>
        <time>2019-08-04T16:40:53Z</time>
      </trkpt>
      <trkpt lat="45.84386" lon="6.78602">
        <ele>2688.46</ele>
        <time>2019-08-04T16:40:54Z</time>
      </trkpt>
      <trkpt lat="45.84383" lon="6.78601">
        <ele>2687.5</ele>
        <time>2019-08-04T16:40:55Z</time>
      </trkpt>
      <trkpt lat="45.8438" lon="6.786">
        <ele>2686.06</ele>
        <time>2019-08-04T16:40:56Z</time>
      </trkpt>
      <trkpt lat="45.84376" lon="6.78598">
        <ele>2682.7</ele>
        <time>2019-08-04T16:40:58Z</time>
      </trkpt>
      <trkpt lat="45.84375" lon="6.78597">
        <ele>2680.77</ele>
        <time>2019-08-04T16:40:59Z</time>
      </trkpt>
      <trkpt lat="45.84374" lon="6.78595">
        <ele>2679.81</ele>
        <time>2019-08-04T16:41:00Z</time>
      </trkpt>
      <trkpt lat="45.84374" lon="6.78593">
        <ele>2678.85</ele>
        <time>2019-08-04T16:41:01Z</time>
      </trkpt>
      <trkpt lat="45.84374" lon="6.78592">
        <ele>2678.37</ele>
        <time>2019-08-04T16:41:02Z</time>
      </trkpt>
      <trkpt lat="45.84373" lon="6.7859">
        <ele>2677.41</ele>
        <time>2019-08-04T16:41:03Z</time>
      </trkpt>
      <trkpt lat="45.84373" lon="6.78587">
        <ele>2674.52</ele>
        <time>2019-08-04T16:41:19Z</time>
      </trkpt>
      <trkpt lat="45.8438" lon="6.78594">
        <ele>2673.56</ele>
        <time>2019-08-04T16:42:59Z</time>
      </trkpt>
      <trkpt lat="45.84375" lon="6.78593">
        <ele>2673.56</ele>
        <time>2019-08-04T16:44:20Z</time>
      </trkpt>
      <trkpt lat="45.84374" lon="6.78593">
        <ele>2672.6</ele>
        <time>2019-08-04T16:44:23Z</time>
      </trkpt>
      <trkpt lat="45.84373" lon="6.78592">
        <ele>2672.12</ele>
        <time>2019-08-04T16:44:24Z</time>
      </trkpt>
      <trkpt lat="45.84372" lon="6.78593">
        <ele>2671.64</ele>
        <time>2019-08-04T16:44:25Z</time>
      </trkpt>
      <trkpt lat="45.8437" lon="6.78593">
        <ele>2671.16</ele>
        <time>2019-08-04T16:44:26Z</time>
      </trkpt>
      <trkpt lat="45.84369" lon="6.78594">
        <ele>2670.68</ele>
        <time>2019-08-04T16:44:27Z</time>
      </trkpt>
      <trkpt lat="45.84367" lon="6.78595">
        <ele>2670.68</ele>
        <time>2019-08-04T16:44:28Z</time>
      </trkpt>
      <trkpt lat="45.84366" lon="6.78594">
        <ele>2670.2</ele>
        <time>2019-08-04T16:44:29Z</time>
      </trkpt>
      <trkpt lat="45.84365" lon="6.78594">
        <ele>2669.72</ele>
        <time>2019-08-04T16:44:30Z</time>
      </trkpt>
      <trkpt lat="45.84364" lon="6.78593">
        <ele>2669.24</ele>
        <time>2019-08-04T16:44:31Z</time>
      </trkpt>
      <trkpt lat="45.84362" lon="6.78592">
        <ele>2667.8</ele>
        <time>2019-08-04T16:44:35Z</time>
      </trkpt>
      <trkpt lat="45.84361" lon="6.78591">
        <ele>2667.8</ele>
        <time>2019-08-04T16:44:36Z</time>
      </trkpt>
      <trkpt lat="45.8436" lon="6.78591">
        <ele>2666.83</ele>
        <time>2019-08-04T16:44:37Z</time>
      </trkpt>
      <trkpt lat="45.84358" lon="6.78592">
        <ele>2666.83</ele>
        <time>2019-08-04T16:44:38Z</time>
      </trkpt>
      <trkpt lat="45.84357" lon="6.78592">
        <ele>2666.35</ele>
        <time>2019-08-04T16:44:39Z</time>
      </trkpt>
      <trkpt lat="45.84355" lon="6.78592">
        <ele>2665.87</ele>
        <time>2019-08-04T16:44:40Z</time>
      </trkpt>
      <trkpt lat="45.8435" lon="6.78591">
        <ele>2664.43</ele>
        <time>2019-08-04T16:44:44Z</time>
      </trkpt>
      <trkpt lat="45.84348" lon="6.78589">
        <ele>2662.99</ele>
        <time>2019-08-04T16:44:46Z</time>
      </trkpt>
      <trkpt lat="45.84346" lon="6.78589">
        <ele>2662.51</ele>
        <time>2019-08-04T16:44:47Z</time>
      </trkpt>
      <trkpt lat="45.84344" lon="6.78588">
        <ele>2662.03</ele>
        <time>2019-08-04T16:44:48Z</time>
      </trkpt>
      <trkpt lat="45.84343" lon="6.78588">
        <ele>2662.03</ele>
        <time>2019-08-04T16:44:49Z</time>
      </trkpt>
      <trkpt lat="45.84342" lon="6.78587">
        <ele>2661.55</ele>
        <time>2019-08-04T16:44:50Z</time>
      </trkpt>
      <trkpt lat="45.84341" lon="6.78587">
        <ele>2660.59</ele>
        <time>2019-08-04T16:44:51Z</time>
      </trkpt>
      <trkpt lat="45.8434" lon="6.78587">
        <ele>2660.11</ele>
        <time>2019-08-04T16:44:52Z</time>
      </trkpt>
      <trkpt lat="45.84339" lon="6.78586">
        <ele>2659.62</ele>
        <time>2019-08-04T16:44:53Z</time>
      </trkpt>
      <trkpt lat="45.84338" lon="6.78585">
        <ele>2658.66</ele>
        <time>2019-08-04T16:44:54Z</time>
      </trkpt>
      <trkpt lat="45.84337" lon="6.78584">
        <ele>2658.18</ele>
        <time>2019-08-04T16:44:55Z</time>
      </trkpt>
      <trkpt lat="45.84335" lon="6.78584">
        <ele>2657.7</ele>
        <time>2019-08-04T16:44:56Z</time>
      </trkpt>
      <trkpt lat="45.84334" lon="6.78583">
        <ele>2657.22</ele>
        <time>2019-08-04T16:44:57Z</time>
      </trkpt>
      <trkpt lat="45.84333" lon="6.78582">
        <ele>2656.26</ele>
        <time>2019-08-04T16:44:58Z</time>
      </trkpt>
      <trkpt lat="45.84332" lon="6.7858">
        <ele>2656.26</ele>
        <time>2019-08-04T16:44:59Z</time>
      </trkpt>
      <trkpt lat="45.84331" lon="6.78578">
        <ele>2655.3</ele>
        <time>2019-08-04T16:45:00Z</time>
      </trkpt>
      <trkpt lat="45.8433" lon="6.78577">
        <ele>2654.82</ele>
        <time>2019-08-04T16:45:01Z</time>
      </trkpt>
      <trkpt lat="45.8433" lon="6.78577">
        <ele>2653.86</ele>
        <time>2019-08-04T16:45:02Z</time>
      </trkpt>
      <trkpt lat="45.84328" lon="6.78576">
        <ele>2653.38</ele>
        <time>2019-08-04T16:45:03Z</time>
      </trkpt>
      <trkpt lat="45.84327" lon="6.78575">
        <ele>2652.9</ele>
        <time>2019-08-04T16:45:04Z</time>
      </trkpt>
      <trkpt lat="45.84326" lon="6.78574">
        <ele>2652.42</ele>
        <time>2019-08-04T16:45:05Z</time>
      </trkpt>
      <trkpt lat="45.84326" lon="6.78573">
        <ele>2651.45</ele>
        <time>2019-08-04T16:45:06Z</time>
      </trkpt>
      <trkpt lat="45.84325" lon="6.7857">
        <ele>2650.97</ele>
        <time>2019-08-04T16:45:07Z</time>
      </trkpt>
      <trkpt lat="45.84325" lon="6.78567">
        <ele>2650.97</ele>
        <time>2019-08-04T16:45:08Z</time>
      </trkpt>
      <trkpt lat="45.84324" lon="6.78563">
        <ele>2650.01</ele>
        <time>2019-08-04T16:45:09Z</time>
      </trkpt>
      <trkpt lat="45.84322" lon="6.78552">
        <ele>2648.57</ele>
        <time>2019-08-04T16:45:12Z</time>
      </trkpt>
      <trkpt lat="45.84321" lon="6.78549">
        <ele>2648.57</ele>
        <time>2019-08-04T16:45:13Z</time>
      </trkpt>
      <trkpt lat="45.8432" lon="6.78546">
        <ele>2647.61</ele>
        <time>2019-08-04T16:45:14Z</time>
      </trkpt>
      <trkpt lat="45.84318" lon="6.78543">
        <ele>2646.65</ele>
        <time>2019-08-04T16:45:15Z</time>
      </trkpt>
      <trkpt lat="45.84317" lon="6.78542">
        <ele>2646.17</ele>
        <time>2019-08-04T16:45:16Z</time>
      </trkpt>
      <trkpt lat="45.84313" lon="6.78538">
        <ele>2642.8</ele>
        <time>2019-08-04T16:45:23Z</time>
      </trkpt>
      <trkpt lat="45.84317" lon="6.78537">
        <ele>2642.8</ele>
        <time>2019-08-04T16:46:31Z</time>
      </trkpt>
      <trkpt lat="45.84316" lon="6.78538">
        <ele>2642.8</ele>
        <time>2019-08-04T16:47:07Z</time>
      </trkpt>
      <trkpt lat="45.84307" lon="6.78541">
        <ele>2640.88</ele>
        <time>2019-08-04T16:47:38Z</time>
      </trkpt>
      <trkpt lat="45.84306" lon="6.78541">
        <ele>2640.4</ele>
        <time>2019-08-04T16:47:39Z</time>
      </trkpt>
      <trkpt lat="45.84305" lon="6.78541">
        <ele>2640.4</ele>
        <time>2019-08-04T16:47:40Z</time>
      </trkpt>
      <trkpt lat="45.84303" lon="6.7854">
        <ele>2639.44</ele>
        <time>2019-08-04T16:47:41Z</time>
      </trkpt>
      <trkpt lat="45.84302" lon="6.78541">
        <ele>2639.44</ele>
        <time>2019-08-04T16:47:42Z</time>
      </trkpt>
      <trkpt lat="45.843" lon="6.78541">
        <ele>2638.96</ele>
        <time>2019-08-04T16:47:43Z</time>
      </trkpt>
      <trkpt lat="45.84299" lon="6.78541">
        <ele>2638.48</ele>
        <time>2019-08-04T16:47:44Z</time>
      </trkpt>
      <trkpt lat="45.84298" lon="6.78541">
        <ele>2637.99</ele>
        <time>2019-08-04T16:47:45Z</time>
      </trkpt>
      <trkpt lat="45.84296" lon="6.78541">
        <ele>2637.99</ele>
        <time>2019-08-04T16:47:46Z</time>
      </trkpt>
      <trkpt lat="45.84295" lon="6.7854">
        <ele>2637.03</ele>
        <time>2019-08-04T16:47:47Z</time>
      </trkpt>
      <trkpt lat="45.84294" lon="6.78539">
        <ele>2636.55</ele>
        <time>2019-08-04T16:47:48Z</time>
      </trkpt>
      <trkpt lat="45.8429" lon="6.78536">
        <ele>2633.67</ele>
        <time>2019-08-04T16:47:55Z</time>
      </trkpt>
      <trkpt lat="45.84289" lon="6.78536">
        <ele>2633.19</ele>
        <time>2019-08-04T16:47:56Z</time>
      </trkpt>
      <trkpt lat="45.84287" lon="6.78536">
        <ele>2632.23</ele>
        <time>2019-08-04T16:47:59Z</time>
      </trkpt>
      <trkpt lat="45.84286" lon="6.78537">
        <ele>2632.23</ele>
        <time>2019-08-04T16:48:00Z</time>
      </trkpt>
      <trkpt lat="45.84285" lon="6.78536">
        <ele>2631.75</ele>
        <time>2019-08-04T16:48:01Z</time>
      </trkpt>
      <trkpt lat="45.84285" lon="6.78534">
        <ele>2630.79</ele>
        <time>2019-08-04T16:48:02Z</time>
      </trkpt>
      <trkpt lat="45.84281" lon="6.78533">
        <ele>2628.38</ele>
        <time>2019-08-04T16:48:18Z</time>
      </trkpt>
      <trkpt lat="45.8428" lon="6.78533">
        <ele>2628.38</ele>
        <time>2019-08-04T16:48:19Z</time>
      </trkpt>
      <trkpt lat="45.8428" lon="6.78532">
        <ele>2627.42</ele>
        <time>2019-08-04T16:48:20Z</time>
      </trkpt>
      <trkpt lat="45.84279" lon="6.7853">
        <ele>2626.94</ele>
        <time>2019-08-04T16:48:22Z</time>
      </trkpt>
      <trkpt lat="45.84278" lon="6.78529">
        <ele>2626.94</ele>
        <time>2019-08-04T16:48:23Z</time>
      </trkpt>
      <trkpt lat="45.84278" lon="6.78528">
        <ele>2625.98</ele>
        <time>2019-08-04T16:48:24Z</time>
      </trkpt>
      <trkpt lat="45.84278" lon="6.78526">
        <ele>2625.5</ele>
        <time>2019-08-04T16:48:25Z</time>
      </trkpt>
      <trkpt lat="45.84277" lon="6.78524">
        <ele>2624.06</ele>
        <time>2019-08-04T16:48:27Z</time>
      </trkpt>
      <trkpt lat="45.84275" lon="6.78523">
        <ele>2623.58</ele>
        <time>2019-08-04T16:48:30Z</time>
      </trkpt>
      <trkpt lat="45.84274" lon="6.78523">
        <ele>2623.58</ele>
        <time>2019-08-04T16:48:31Z</time>
      </trkpt>
      <trkpt lat="45.84273" lon="6.78524">
        <ele>2623.09</ele>
        <time>2019-08-04T16:48:32Z</time>
      </trkpt>
      <trkpt lat="45.84271" lon="6.78525">
        <ele>2622.61</ele>
        <time>2019-08-04T16:48:34Z</time>
      </trkpt>
      <trkpt lat="45.8427" lon="6.78526">
        <ele>2622.13</ele>
        <time>2019-08-04T16:48:35Z</time>
      </trkpt>
      <trkpt lat="45.84269" lon="6.78528">
        <ele>2621.65</ele>
        <time>2019-08-04T16:48:37Z</time>
      </trkpt>
      <trkpt lat="45.84268" lon="6.78528">
        <ele>2621.17</ele>
        <time>2019-08-04T16:48:38Z</time>
      </trkpt>
      <trkpt lat="45.84267" lon="6.78529">
        <ele>2621.17</ele>
        <time>2019-08-04T16:48:39Z</time>
      </trkpt>
      <trkpt lat="45.84262" lon="6.78534">
        <ele>2618.29</ele>
        <time>2019-08-04T16:49:13Z</time>
      </trkpt>
      <trkpt lat="45.84261" lon="6.78537">
        <ele>2616.85</ele>
        <time>2019-08-04T16:49:16Z</time>
      </trkpt>
      <trkpt lat="45.84253" lon="6.78538">
        <ele>2613.96</ele>
        <time>2019-08-04T16:49:27Z</time>
      </trkpt>
      <trkpt lat="45.84249" lon="6.78534">
        <ele>2611.08</ele>
        <time>2019-08-04T16:49:33Z</time>
      </trkpt>
      <trkpt lat="45.84249" lon="6.78533">
        <ele>2610.12</ele>
        <time>2019-08-04T16:49:34Z</time>
      </trkpt>
      <trkpt lat="45.84249" lon="6.78532">
        <ele>2609.64</ele>
        <time>2019-08-04T16:49:36Z</time>
      </trkpt>
      <trkpt lat="45.84244" lon="6.78529">
        <ele>2606.27</ele>
        <time>2019-08-04T16:50:03Z</time>
      </trkpt>
      <trkpt lat="45.84242" lon="6.78531">
        <ele>2604.83</ele>
        <time>2019-08-04T16:50:21Z</time>
      </trkpt>
      <trkpt lat="45.84241" lon="6.78532">
        <ele>2604.35</ele>
        <time>2019-08-04T16:50:22Z</time>
      </trkpt>
      <trkpt lat="45.8424" lon="6.78533">
        <ele>2604.35</ele>
        <time>2019-08-04T16:50:23Z</time>
      </trkpt>
      <trkpt lat="45.84239" lon="6.78533">
        <ele>2603.87</ele>
        <time>2019-08-04T16:50:24Z</time>
      </trkpt>
      <trkpt lat="45.84237" lon="6.78534">
        <ele>2603.39</ele>
        <time>2019-08-04T16:50:26Z</time>
      </trkpt>
      <trkpt lat="45.84236" lon="6.78534">
        <ele>2602.91</ele>
        <time>2019-08-04T16:50:27Z</time>
      </trkpt>
      <trkpt lat="45.84235" lon="6.78535">
        <ele>2602.43</ele>
        <time>2019-08-04T16:50:28Z</time>
      </trkpt>
      <trkpt lat="45.84234" lon="6.78534">
        <ele>2601.46</ele>
        <time>2019-08-04T16:50:29Z</time>
      </trkpt>
      <trkpt lat="45.84233" lon="6.78534">
        <ele>2600.98</ele>
        <time>2019-08-04T16:50:30Z</time>
      </trkpt>
      <trkpt lat="45.84232" lon="6.78534">
        <ele>2600.98</ele>
        <time>2019-08-04T16:50:31Z</time>
      </trkpt>
      <trkpt lat="45.84231" lon="6.78534">
        <ele>2600.98</ele>
        <time>2019-08-04T16:50:32Z</time>
      </trkpt>
      <trkpt lat="45.8423" lon="6.78533">
        <ele>2600.02</ele>
        <time>2019-08-04T16:50:33Z</time>
      </trkpt>
      <trkpt lat="45.84222" lon="6.78533">
        <ele>2596.66</ele>
        <time>2019-08-04T16:50:39Z</time>
      </trkpt>
      <trkpt lat="45.84217" lon="6.78531">
        <ele>2594.25</ele>
        <time>2019-08-04T16:50:44Z</time>
      </trkpt>
      <trkpt lat="45.84216" lon="6.78531">
        <ele>2594.25</ele>
        <time>2019-08-04T16:50:45Z</time>
      </trkpt>
      <trkpt lat="45.84215" lon="6.78531">
        <ele>2594.74</ele>
        <time>2019-08-04T16:50:46Z</time>
      </trkpt>
      <trkpt lat="45.84214" lon="6.78532">
        <ele>2594.74</ele>
        <time>2019-08-04T16:50:47Z</time>
      </trkpt>
      <trkpt lat="45.84213" lon="6.78531">
        <ele>2593.77</ele>
        <time>2019-08-04T16:50:48Z</time>
      </trkpt>
      <trkpt lat="45.84212" lon="6.78531">
        <ele>2592.33</ele>
        <time>2019-08-04T16:50:49Z</time>
      </trkpt>
      <trkpt lat="45.84211" lon="6.7853">
        <ele>2590.89</ele>
        <time>2019-08-04T16:50:50Z</time>
      </trkpt>
      <trkpt lat="45.8421" lon="6.7853">
        <ele>2589.93</ele>
        <time>2019-08-04T16:50:51Z</time>
      </trkpt>
      <trkpt lat="45.84207" lon="6.78529">
        <ele>2589.45</ele>
        <time>2019-08-04T16:50:58Z</time>
      </trkpt>
      <trkpt lat="45.84205" lon="6.78528">
        <ele>2588.01</ele>
        <time>2019-08-04T16:51:01Z</time>
      </trkpt>
      <trkpt lat="45.842" lon="6.78523">
        <ele>2584.64</ele>
        <time>2019-08-04T16:51:08Z</time>
      </trkpt>
      <trkpt lat="45.84197" lon="6.78516">
        <ele>2581.76</ele>
        <time>2019-08-04T16:51:22Z</time>
      </trkpt>
      <trkpt lat="45.84196" lon="6.78512">
        <ele>2579.35</ele>
        <time>2019-08-04T16:51:25Z</time>
      </trkpt>
      <trkpt lat="45.84196" lon="6.78511">
        <ele>2578.39</ele>
        <time>2019-08-04T16:51:26Z</time>
      </trkpt>
      <trkpt lat="45.84195" lon="6.7851">
        <ele>2578.39</ele>
        <time>2019-08-04T16:51:27Z</time>
      </trkpt>
      <trkpt lat="45.84195" lon="6.78509">
        <ele>2577.91</ele>
        <time>2019-08-04T16:51:28Z</time>
      </trkpt>
      <trkpt lat="45.84194" lon="6.78508">
        <ele>2577.43</ele>
        <time>2019-08-04T16:51:29Z</time>
      </trkpt>
      <trkpt lat="45.84193" lon="6.78507">
        <ele>2577.43</ele>
        <time>2019-08-04T16:51:30Z</time>
      </trkpt>
      <trkpt lat="45.84192" lon="6.78506">
        <ele>2577.43</ele>
        <time>2019-08-04T16:51:31Z</time>
      </trkpt>
      <trkpt lat="45.84192" lon="6.78505">
        <ele>2576.95</ele>
        <time>2019-08-04T16:51:32Z</time>
      </trkpt>
      <trkpt lat="45.84189" lon="6.78505">
        <ele>2575.51</ele>
        <time>2019-08-04T16:51:35Z</time>
      </trkpt>
      <trkpt lat="45.84188" lon="6.78505">
        <ele>2575.03</ele>
        <time>2019-08-04T16:51:36Z</time>
      </trkpt>
      <trkpt lat="45.84186" lon="6.78504">
        <ele>2574.07</ele>
        <time>2019-08-04T16:51:39Z</time>
      </trkpt>
      <trkpt lat="45.84186" lon="6.78503">
        <ele>2573.59</ele>
        <time>2019-08-04T16:51:40Z</time>
      </trkpt>
      <trkpt lat="45.84185" lon="6.78502">
        <ele>2572.63</ele>
        <time>2019-08-04T16:51:42Z</time>
      </trkpt>
      <trkpt lat="45.84181" lon="6.78505">
        <ele>2570.7</ele>
        <time>2019-08-04T16:51:59Z</time>
      </trkpt>
      <trkpt lat="45.84174" lon="6.78516">
        <ele>2568.78</ele>
        <time>2019-08-04T16:52:05Z</time>
      </trkpt>
      <trkpt lat="45.84173" lon="6.78515">
        <ele>2568.3</ele>
        <time>2019-08-04T16:52:06Z</time>
      </trkpt>
      <trkpt lat="45.84172" lon="6.78507">
        <ele>2565.42</ele>
        <time>2019-08-04T16:52:49Z</time>
      </trkpt>
      <trkpt lat="45.84172" lon="6.78505">
        <ele>2564.45</ele>
        <time>2019-08-04T16:53:20Z</time>
      </trkpt>
      <trkpt lat="45.84173" lon="6.78507">
        <ele>2564.93</ele>
        <time>2019-08-04T16:53:37Z</time>
      </trkpt>
      <trkpt lat="45.84172" lon="6.78509">
        <ele>2564.93</ele>
        <time>2019-08-04T16:53:55Z</time>
      </trkpt>
      <trkpt lat="45.84167" lon="6.78517">
        <ele>2563.49</ele>
        <time>2019-08-04T16:54:20Z</time>
      </trkpt>
      <trkpt lat="45.84153" lon="6.78535">
        <ele>2561.57</ele>
        <time>2019-08-04T16:54:50Z</time>
      </trkpt>
      <trkpt lat="45.84143" lon="6.78537">
        <ele>2559.17</ele>
        <time>2019-08-04T16:55:43Z</time>
      </trkpt>
      <trkpt lat="45.84144" lon="6.78531">
        <ele>2556.28</ele>
        <time>2019-08-04T16:56:36Z</time>
      </trkpt>
      <trkpt lat="45.84144" lon="6.78522">
        <ele>2552.92</ele>
        <time>2019-08-04T16:56:58Z</time>
      </trkpt>
      <trkpt lat="45.84145" lon="6.78522">
        <ele>2552.44</ele>
        <time>2019-08-04T16:57:00Z</time>
      </trkpt>
      <trkpt lat="45.84145" lon="6.78517">
        <ele>2548.59</ele>
        <time>2019-08-04T16:57:12Z</time>
      </trkpt>
      <trkpt lat="45.8414" lon="6.78509">
        <ele>2545.71</ele>
        <time>2019-08-04T16:57:31Z</time>
      </trkpt>
      <trkpt lat="45.84138" lon="6.78508">
        <ele>2543.79</ele>
        <time>2019-08-04T16:57:35Z</time>
      </trkpt>
      <trkpt lat="45.84132" lon="6.7851">
        <ele>2540.42</ele>
        <time>2019-08-04T16:57:50Z</time>
      </trkpt>
      <trkpt lat="45.8413" lon="6.78508">
        <ele>2538.02</ele>
        <time>2019-08-04T16:57:54Z</time>
      </trkpt>
      <trkpt lat="45.84128" lon="6.78505">
        <ele>2535.13</ele>
        <time>2019-08-04T16:58:17Z</time>
      </trkpt>
      <trkpt lat="45.84123" lon="6.78501">
        <ele>2532.73</ele>
        <time>2019-08-04T16:58:29Z</time>
      </trkpt>
      <trkpt lat="45.84124" lon="6.785">
        <ele>2532.25</ele>
        <time>2019-08-04T16:58:30Z</time>
      </trkpt>
      <trkpt lat="45.84125" lon="6.78501">
        <ele>2530.81</ele>
        <time>2019-08-04T16:59:24Z</time>
      </trkpt>
      <trkpt lat="45.84121" lon="6.78499">
        <ele>2529.85</ele>
        <time>2019-08-04T16:59:35Z</time>
      </trkpt>
      <trkpt lat="45.8412" lon="6.78498">
        <ele>2529.85</ele>
        <time>2019-08-04T16:59:36Z</time>
      </trkpt>
      <trkpt lat="45.84119" lon="6.78498">
        <ele>2529.37</ele>
        <time>2019-08-04T16:59:37Z</time>
      </trkpt>
      <trkpt lat="45.84118" lon="6.78497">
        <ele>2528.4</ele>
        <time>2019-08-04T16:59:38Z</time>
      </trkpt>
      <trkpt lat="45.84117" lon="6.78497">
        <ele>2528.4</ele>
        <time>2019-08-04T16:59:39Z</time>
      </trkpt>
      <trkpt lat="45.84116" lon="6.78497">
        <ele>2527.44</ele>
        <time>2019-08-04T16:59:40Z</time>
      </trkpt>
      <trkpt lat="45.84112" lon="6.78495">
        <ele>2525.52</ele>
        <time>2019-08-04T16:59:43Z</time>
      </trkpt>
      <trkpt lat="45.84112" lon="6.78494">
        <ele>2524.56</ele>
        <time>2019-08-04T16:59:44Z</time>
      </trkpt>
      <trkpt lat="45.84111" lon="6.78492">
        <ele>2523.6</ele>
        <time>2019-08-04T16:59:45Z</time>
      </trkpt>
      <trkpt lat="45.84109" lon="6.78491">
        <ele>2522.64</ele>
        <time>2019-08-04T16:59:47Z</time>
      </trkpt>
      <trkpt lat="45.84108" lon="6.78491">
        <ele>2522.16</ele>
        <time>2019-08-04T16:59:48Z</time>
      </trkpt>
      <trkpt lat="45.84107" lon="6.7849">
        <ele>2521.19</ele>
        <time>2019-08-04T16:59:49Z</time>
      </trkpt>
      <trkpt lat="45.84103" lon="6.78485">
        <ele>2518.31</ele>
        <time>2019-08-04T16:59:53Z</time>
      </trkpt>
      <trkpt lat="45.84094" lon="6.78482">
        <ele>2515.43</ele>
        <time>2019-08-04T16:59:58Z</time>
      </trkpt>
      <trkpt lat="45.84092" lon="6.78481">
        <ele>2514.47</ele>
        <time>2019-08-04T16:59:59Z</time>
      </trkpt>
      <trkpt lat="45.84091" lon="6.7848">
        <ele>2513.5</ele>
        <time>2019-08-04T17:00:00Z</time>
      </trkpt>
      <trkpt lat="45.8409" lon="6.78478">
        <ele>2512.54</ele>
        <time>2019-08-04T17:00:01Z</time>
      </trkpt>
      <trkpt lat="45.84089" lon="6.78477">
        <ele>2511.58</ele>
        <time>2019-08-04T17:00:02Z</time>
      </trkpt>
      <trkpt lat="45.84087" lon="6.78476">
        <ele>2511.1</ele>
        <time>2019-08-04T17:00:03Z</time>
      </trkpt>
      <trkpt lat="45.84086" lon="6.78475">
        <ele>2510.62</ele>
        <time>2019-08-04T17:00:04Z</time>
      </trkpt>
      <trkpt lat="45.84084" lon="6.78473">
        <ele>2510.62</ele>
        <time>2019-08-04T17:00:05Z</time>
      </trkpt>
      <trkpt lat="45.84083" lon="6.78471">
        <ele>2509.66</ele>
        <time>2019-08-04T17:00:06Z</time>
      </trkpt>
      <trkpt lat="45.84082" lon="6.78469">
        <ele>2508.7</ele>
        <time>2019-08-04T17:00:07Z</time>
      </trkpt>
      <trkpt lat="45.84081" lon="6.78466">
        <ele>2507.26</ele>
        <time>2019-08-04T17:00:08Z</time>
      </trkpt>
      <trkpt lat="45.84079" lon="6.78464">
        <ele>2505.81</ele>
        <time>2019-08-04T17:00:09Z</time>
      </trkpt>
      <trkpt lat="45.84077" lon="6.78463">
        <ele>2505.33</ele>
        <time>2019-08-04T17:00:10Z</time>
      </trkpt>
      <trkpt lat="45.84076" lon="6.78462">
        <ele>2505.33</ele>
        <time>2019-08-04T17:00:11Z</time>
      </trkpt>
      <trkpt lat="45.84075" lon="6.7846">
        <ele>2504.85</ele>
        <time>2019-08-04T17:00:12Z</time>
      </trkpt>
      <trkpt lat="45.84073" lon="6.78459">
        <ele>2503.41</ele>
        <time>2019-08-04T17:00:13Z</time>
      </trkpt>
      <trkpt lat="45.84072" lon="6.78458">
        <ele>2502.45</ele>
        <time>2019-08-04T17:00:14Z</time>
      </trkpt>
      <trkpt lat="45.8407" lon="6.78457">
        <ele>2501.97</ele>
        <time>2019-08-04T17:00:15Z</time>
      </trkpt>
      <trkpt lat="45.84069" lon="6.78457">
        <ele>2501.49</ele>
        <time>2019-08-04T17:00:16Z</time>
      </trkpt>
      <trkpt lat="45.84068" lon="6.78456">
        <ele>2500.53</ele>
        <time>2019-08-04T17:00:17Z</time>
      </trkpt>
      <trkpt lat="45.84066" lon="6.78455">
        <ele>2500.05</ele>
        <time>2019-08-04T17:00:18Z</time>
      </trkpt>
      <trkpt lat="45.84065" lon="6.78455">
        <ele>2499.57</ele>
        <time>2019-08-04T17:00:19Z</time>
      </trkpt>
      <trkpt lat="45.84064" lon="6.78455">
        <ele>2498.6</ele>
        <time>2019-08-04T17:00:20Z</time>
      </trkpt>
      <trkpt lat="45.84063" lon="6.78454">
        <ele>2498.12</ele>
        <time>2019-08-04T17:00:21Z</time>
      </trkpt>
      <trkpt lat="45.84062" lon="6.78453">
        <ele>2497.16</ele>
        <time>2019-08-04T17:00:22Z</time>
      </trkpt>
      <trkpt lat="45.84061" lon="6.78452">
        <ele>2496.68</ele>
        <time>2019-08-04T17:00:23Z</time>
      </trkpt>
      <trkpt lat="45.84061" lon="6.78451">
        <ele>2496.2</ele>
        <time>2019-08-04T17:00:24Z</time>
      </trkpt>
      <trkpt lat="45.84061" lon="6.7845">
        <ele>2495.72</ele>
        <time>2019-08-04T17:00:25Z</time>
      </trkpt>
      <trkpt lat="45.84061" lon="6.78448">
        <ele>2495.24</ele>
        <time>2019-08-04T17:00:26Z</time>
      </trkpt>
      <trkpt lat="45.8406" lon="6.78447">
        <ele>2494.76</ele>
        <time>2019-08-04T17:00:27Z</time>
      </trkpt>
      <trkpt lat="45.8406" lon="6.78446">
        <ele>2494.28</ele>
        <time>2019-08-04T17:00:28Z</time>
      </trkpt>
      <trkpt lat="45.84058" lon="6.78444">
        <ele>2493.32</ele>
        <time>2019-08-04T17:00:31Z</time>
      </trkpt>
      <trkpt lat="45.84057" lon="6.78444">
        <ele>2492.36</ele>
        <time>2019-08-04T17:00:32Z</time>
      </trkpt>
      <trkpt lat="45.84055" lon="6.78443">
        <ele>2491.87</ele>
        <time>2019-08-04T17:00:33Z</time>
      </trkpt>
      <trkpt lat="45.84056" lon="6.78439">
        <ele>2490.43</ele>
        <time>2019-08-04T17:00:49Z</time>
      </trkpt>
      <trkpt lat="45.84054" lon="6.78436">
        <ele>2488.99</ele>
        <time>2019-08-04T17:00:56Z</time>
      </trkpt>
      <trkpt lat="45.84053" lon="6.78436">
        <ele>2488.99</ele>
        <time>2019-08-04T17:00:57Z</time>
      </trkpt>
      <trkpt lat="45.84051" lon="6.78435">
        <ele>2488.51</ele>
        <time>2019-08-04T17:00:58Z</time>
      </trkpt>
      <trkpt lat="45.8405" lon="6.78434">
        <ele>2488.03</ele>
        <time>2019-08-04T17:00:59Z</time>
      </trkpt>
      <trkpt lat="45.84048" lon="6.78433">
        <ele>2487.07</ele>
        <time>2019-08-04T17:01:00Z</time>
      </trkpt>
      <trkpt lat="45.84047" lon="6.78433">
        <ele>2486.59</ele>
        <time>2019-08-04T17:01:01Z</time>
      </trkpt>
      <trkpt lat="45.84045" lon="6.78432">
        <ele>2485.63</ele>
        <time>2019-08-04T17:01:02Z</time>
      </trkpt>
      <trkpt lat="45.84043" lon="6.7843">
        <ele>2484.66</ele>
        <time>2019-08-04T17:01:03Z</time>
      </trkpt>
      <trkpt lat="45.84042" lon="6.78429">
        <ele>2484.18</ele>
        <time>2019-08-04T17:01:04Z</time>
      </trkpt>
      <trkpt lat="45.8404" lon="6.78428">
        <ele>2483.7</ele>
        <time>2019-08-04T17:01:05Z</time>
      </trkpt>
      <trkpt lat="45.84039" lon="6.78427">
        <ele>2483.22</ele>
        <time>2019-08-04T17:01:06Z</time>
      </trkpt>
      <trkpt lat="45.84037" lon="6.78426">
        <ele>2482.26</ele>
        <time>2019-08-04T17:01:07Z</time>
      </trkpt>
      <trkpt lat="45.84035" lon="6.78424">
        <ele>2481.78</ele>
        <time>2019-08-04T17:01:08Z</time>
      </trkpt>
      <trkpt lat="45.8403" lon="6.78419">
        <ele>2478.42</ele>
        <time>2019-08-04T17:01:11Z</time>
      </trkpt>
      <trkpt lat="45.84028" lon="6.78419">
        <ele>2477.94</ele>
        <time>2019-08-04T17:01:12Z</time>
      </trkpt>
      <trkpt lat="45.84019" lon="6.78416">
        <ele>2474.57</ele>
        <time>2019-08-04T17:01:17Z</time>
      </trkpt>
      <trkpt lat="45.84015" lon="6.78414">
        <ele>2473.13</ele>
        <time>2019-08-04T17:01:19Z</time>
      </trkpt>
      <trkpt lat="45.84013" lon="6.78412">
        <ele>2471.21</ele>
        <time>2019-08-04T17:01:21Z</time>
      </trkpt>
      <trkpt lat="45.84011" lon="6.78412">
        <ele>2470.24</ele>
        <time>2019-08-04T17:01:22Z</time>
      </trkpt>
      <trkpt lat="45.84009" lon="6.78412">
        <ele>2469.76</ele>
        <time>2019-08-04T17:01:23Z</time>
      </trkpt>
      <trkpt lat="45.84007" lon="6.78411">
        <ele>2468.8</ele>
        <time>2019-08-04T17:01:25Z</time>
      </trkpt>
      <trkpt lat="45.84002" lon="6.78408">
        <ele>2465.44</ele>
        <time>2019-08-04T17:01:29Z</time>
      </trkpt>
      <trkpt lat="45.84" lon="6.78408">
        <ele>2464</ele>
        <time>2019-08-04T17:01:31Z</time>
      </trkpt>
      <trkpt lat="45.83999" lon="6.78406">
        <ele>2463.04</ele>
        <time>2019-08-04T17:01:32Z</time>
      </trkpt>
      <trkpt lat="45.83998" lon="6.78405">
        <ele>2462.55</ele>
        <time>2019-08-04T17:01:33Z</time>
      </trkpt>
      <trkpt lat="45.83997" lon="6.78405">
        <ele>2462.07</ele>
        <time>2019-08-04T17:01:34Z</time>
      </trkpt>
      <trkpt lat="45.83996" lon="6.78405">
        <ele>2461.59</ele>
        <time>2019-08-04T17:01:35Z</time>
      </trkpt>
      <trkpt lat="45.83995" lon="6.78404">
        <ele>2461.11</ele>
        <time>2019-08-04T17:01:36Z</time>
      </trkpt>
      <trkpt lat="45.83994" lon="6.78403">
        <ele>2460.63</ele>
        <time>2019-08-04T17:01:37Z</time>
      </trkpt>
      <trkpt lat="45.83993" lon="6.78402">
        <ele>2459.67</ele>
        <time>2019-08-04T17:01:38Z</time>
      </trkpt>
      <trkpt lat="45.83992" lon="6.78401">
        <ele>2459.19</ele>
        <time>2019-08-04T17:01:39Z</time>
      </trkpt>
      <trkpt lat="45.83991" lon="6.784">
        <ele>2458.23</ele>
        <time>2019-08-04T17:01:40Z</time>
      </trkpt>
      <trkpt lat="45.83989" lon="6.78398">
        <ele>2457.27</ele>
        <time>2019-08-04T17:01:41Z</time>
      </trkpt>
      <trkpt lat="45.83987" lon="6.78397">
        <ele>2456.31</ele>
        <time>2019-08-04T17:01:42Z</time>
      </trkpt>
      <trkpt lat="45.83985" lon="6.78395">
        <ele>2455.82</ele>
        <time>2019-08-04T17:01:43Z</time>
      </trkpt>
      <trkpt lat="45.83983" lon="6.78394">
        <ele>2455.34</ele>
        <time>2019-08-04T17:01:44Z</time>
      </trkpt>
      <trkpt lat="45.83973" lon="6.78391">
        <ele>2452.46</ele>
        <time>2019-08-04T17:01:48Z</time>
      </trkpt>
      <trkpt lat="45.8396" lon="6.78393">
        <ele>2448.62</ele>
        <time>2019-08-04T17:01:53Z</time>
      </trkpt>
      <trkpt lat="45.83957" lon="6.78394">
        <ele>2447.65</ele>
        <time>2019-08-04T17:01:55Z</time>
      </trkpt>
      <trkpt lat="45.83954" lon="6.78401">
        <ele>2444.77</ele>
        <time>2019-08-04T17:02:18Z</time>
      </trkpt>
      <trkpt lat="45.83955" lon="6.784">
        <ele>2444.29</ele>
        <time>2019-08-04T17:02:39Z</time>
      </trkpt>
      <trkpt lat="45.83954" lon="6.78401">
        <ele>2444.77</ele>
        <time>2019-08-04T17:02:51Z</time>
      </trkpt>
      <trkpt lat="45.83955" lon="6.78401">
        <ele>2444.29</ele>
        <time>2019-08-04T17:03:03Z</time>
      </trkpt>
      <trkpt lat="45.83955" lon="6.78402">
        <ele>2444.29</ele>
        <time>2019-08-04T17:03:14Z</time>
      </trkpt>
      <trkpt lat="45.83956" lon="6.78403">
        <ele>2444.29</ele>
        <time>2019-08-04T17:03:26Z</time>
      </trkpt>
      <trkpt lat="45.83956" lon="6.78403">
        <ele>2444.29</ele>
        <time>2019-08-04T17:03:51Z</time>
      </trkpt>
      <trkpt lat="45.83956" lon="6.78405">
        <ele>2444.29</ele>
        <time>2019-08-04T17:04:09Z</time>
      </trkpt>
      <trkpt lat="45.83956" lon="6.78406">
        <ele>2443.81</ele>
        <time>2019-08-04T17:04:28Z</time>
      </trkpt>
      <trkpt lat="45.83956" lon="6.78405">
        <ele>2444.29</ele>
        <time>2019-08-04T17:04:55Z</time>
      </trkpt>
      <trkpt lat="45.83957" lon="6.78399">
        <ele>2445.25</ele>
        <time>2019-08-04T17:05:36Z</time>
      </trkpt>
      <trkpt lat="45.83961" lon="6.78397">
        <ele>2446.21</ele>
        <time>2019-08-04T17:07:24Z</time>
      </trkpt>
      <trkpt lat="45.83959" lon="6.78396">
        <ele>2445.73</ele>
        <time>2019-08-04T17:09:15Z</time>
      </trkpt>
      <trkpt lat="45.83955" lon="6.78403">
        <ele>2445.25</ele>
        <time>2019-08-04T17:09:43Z</time>
      </trkpt>
      <trkpt lat="45.83952" lon="6.78403">
        <ele>2444.29</ele>
        <time>2019-08-04T17:09:46Z</time>
      </trkpt>
      <trkpt lat="45.83951" lon="6.78403">
        <ele>2443.81</ele>
        <time>2019-08-04T17:09:47Z</time>
      </trkpt>
      <trkpt lat="45.83943" lon="6.78401">
        <ele>2440.92</ele>
        <time>2019-08-04T17:09:54Z</time>
      </trkpt>
      <trkpt lat="45.83936" lon="6.78396">
        <ele>2438.52</ele>
        <time>2019-08-04T17:10:00Z</time>
      </trkpt>
      <trkpt lat="45.83935" lon="6.78395">
        <ele>2437.56</ele>
        <time>2019-08-04T17:10:01Z</time>
      </trkpt>
      <trkpt lat="45.83934" lon="6.78394">
        <ele>2437.56</ele>
        <time>2019-08-04T17:10:02Z</time>
      </trkpt>
      <trkpt lat="45.83933" lon="6.78394">
        <ele>2437.56</ele>
        <time>2019-08-04T17:10:03Z</time>
      </trkpt>
      <trkpt lat="45.83931" lon="6.78393">
        <ele>2437.08</ele>
        <time>2019-08-04T17:10:04Z</time>
      </trkpt>
      <trkpt lat="45.8393" lon="6.78393">
        <ele>2436.6</ele>
        <time>2019-08-04T17:10:05Z</time>
      </trkpt>
      <trkpt lat="45.83929" lon="6.78393">
        <ele>2436.6</ele>
        <time>2019-08-04T17:10:06Z</time>
      </trkpt>
      <trkpt lat="45.83927" lon="6.78392">
        <ele>2436.6</ele>
        <time>2019-08-04T17:10:07Z</time>
      </trkpt>
      <trkpt lat="45.83926" lon="6.78391">
        <ele>2436.12</ele>
        <time>2019-08-04T17:10:08Z</time>
      </trkpt>
      <trkpt lat="45.83924" lon="6.78391">
        <ele>2435.64</ele>
        <time>2019-08-04T17:10:09Z</time>
      </trkpt>
      <trkpt lat="45.83923" lon="6.78391">
        <ele>2435.16</ele>
        <time>2019-08-04T17:10:10Z</time>
      </trkpt>
      <trkpt lat="45.83921" lon="6.78391">
        <ele>2434.68</ele>
        <time>2019-08-04T17:10:11Z</time>
      </trkpt>
      <trkpt lat="45.83919" lon="6.78392">
        <ele>2434.2</ele>
        <time>2019-08-04T17:10:12Z</time>
      </trkpt>
      <trkpt lat="45.83917" lon="6.78392">
        <ele>2434.2</ele>
        <time>2019-08-04T17:10:13Z</time>
      </trkpt>
      <trkpt lat="45.83915" lon="6.78393">
        <ele>2434.2</ele>
        <time>2019-08-04T17:10:14Z</time>
      </trkpt>
      <trkpt lat="45.83913" lon="6.78392">
        <ele>2433.71</ele>
        <time>2019-08-04T17:10:15Z</time>
      </trkpt>
      <trkpt lat="45.83912" lon="6.78391">
        <ele>2433.23</ele>
        <time>2019-08-04T17:10:16Z</time>
      </trkpt>
      <trkpt lat="45.83911" lon="6.7839">
        <ele>2433.23</ele>
        <time>2019-08-04T17:10:17Z</time>
      </trkpt>
      <trkpt lat="45.8391" lon="6.7839">
        <ele>2433.23</ele>
        <time>2019-08-04T17:10:18Z</time>
      </trkpt>
      <trkpt lat="45.83909" lon="6.7839">
        <ele>2432.75</ele>
        <time>2019-08-04T17:10:19Z</time>
      </trkpt>
      <trkpt lat="45.83904" lon="6.78392">
        <ele>2431.31</ele>
        <time>2019-08-04T17:10:23Z</time>
      </trkpt>
      <trkpt lat="45.83902" lon="6.78391">
        <ele>2430.83</ele>
        <time>2019-08-04T17:10:24Z</time>
      </trkpt>
      <trkpt lat="45.83901" lon="6.78389">
        <ele>2430.35</ele>
        <time>2019-08-04T17:10:25Z</time>
      </trkpt>
      <trkpt lat="45.839" lon="6.78387">
        <ele>2429.87</ele>
        <time>2019-08-04T17:10:26Z</time>
      </trkpt>
      <trkpt lat="45.839" lon="6.78385">
        <ele>2429.87</ele>
        <time>2019-08-04T17:10:27Z</time>
      </trkpt>
      <trkpt lat="45.83899" lon="6.78383">
        <ele>2429.39</ele>
        <time>2019-08-04T17:10:28Z</time>
      </trkpt>
      <trkpt lat="45.83898" lon="6.78381">
        <ele>2428.91</ele>
        <time>2019-08-04T17:10:29Z</time>
      </trkpt>
      <trkpt lat="45.83897" lon="6.78379">
        <ele>2428.43</ele>
        <time>2019-08-04T17:10:30Z</time>
      </trkpt>
      <trkpt lat="45.83895" lon="6.78378">
        <ele>2427.47</ele>
        <time>2019-08-04T17:10:31Z</time>
      </trkpt>
      <trkpt lat="45.83894" lon="6.78377">
        <ele>2426.99</ele>
        <time>2019-08-04T17:10:32Z</time>
      </trkpt>
      <trkpt lat="45.83893" lon="6.78377">
        <ele>2426.99</ele>
        <time>2019-08-04T17:10:33Z</time>
      </trkpt>
      <trkpt lat="45.83886" lon="6.78378">
        <ele>2423.62</ele>
        <time>2019-08-04T17:11:41Z</time>
      </trkpt>
      <trkpt lat="45.83885" lon="6.78372">
        <ele>2423.62</ele>
        <time>2019-08-04T17:12:38Z</time>
      </trkpt>
      <trkpt lat="45.83881" lon="6.78355">
        <ele>2422.18</ele>
        <time>2019-08-04T17:13:15Z</time>
      </trkpt>
      <trkpt lat="45.83883" lon="6.78355">
        <ele>2422.18</ele>
        <time>2019-08-04T17:13:23Z</time>
      </trkpt>
      <trkpt lat="45.8388" lon="6.78347">
        <ele>2419.78</ele>
        <time>2019-08-04T17:13:36Z</time>
      </trkpt>
      <trkpt lat="45.83879" lon="6.78345">
        <ele>2419.78</ele>
        <time>2019-08-04T17:13:37Z</time>
      </trkpt>
      <trkpt lat="45.83879" lon="6.78343">
        <ele>2418.81</ele>
        <time>2019-08-04T17:13:38Z</time>
      </trkpt>
      <trkpt lat="45.83879" lon="6.78341">
        <ele>2418.33</ele>
        <time>2019-08-04T17:13:39Z</time>
      </trkpt>
      <trkpt lat="45.83878" lon="6.78338">
        <ele>2417.85</ele>
        <time>2019-08-04T17:13:40Z</time>
      </trkpt>
      <trkpt lat="45.83878" lon="6.78336">
        <ele>2417.37</ele>
        <time>2019-08-04T17:13:41Z</time>
      </trkpt>
      <trkpt lat="45.83877" lon="6.78333">
        <ele>2416.89</ele>
        <time>2019-08-04T17:13:42Z</time>
      </trkpt>
      <trkpt lat="45.83877" lon="6.7833">
        <ele>2416.89</ele>
        <time>2019-08-04T17:13:43Z</time>
      </trkpt>
      <trkpt lat="45.83876" lon="6.78327">
        <ele>2416.89</ele>
        <time>2019-08-04T17:13:44Z</time>
      </trkpt>
      <trkpt lat="45.83875" lon="6.78324">
        <ele>2416.89</ele>
        <time>2019-08-04T17:13:45Z</time>
      </trkpt>
      <trkpt lat="45.8387" lon="6.78312">
        <ele>2415.45</ele>
        <time>2019-08-04T17:13:50Z</time>
      </trkpt>
      <trkpt lat="45.8387" lon="6.7831">
        <ele>2415.45</ele>
        <time>2019-08-04T17:13:51Z</time>
      </trkpt>
      <trkpt lat="45.83868" lon="6.78302">
        <ele>2414.01</ele>
        <time>2019-08-04T17:15:00Z</time>
      </trkpt>
      <trkpt lat="45.83868" lon="6.78299">
        <ele>2413.53</ele>
        <time>2019-08-04T17:15:01Z</time>
      </trkpt>
      <trkpt lat="45.83867" lon="6.78296">
        <ele>2412.57</ele>
        <time>2019-08-04T17:15:02Z</time>
      </trkpt>
      <trkpt lat="45.83866" lon="6.78292">
        <ele>2412.09</ele>
        <time>2019-08-04T17:15:03Z</time>
      </trkpt>
      <trkpt lat="45.83866" lon="6.78289">
        <ele>2411.6</ele>
        <time>2019-08-04T17:15:04Z</time>
      </trkpt>
      <trkpt lat="45.83866" lon="6.78287">
        <ele>2411.12</ele>
        <time>2019-08-04T17:15:05Z</time>
      </trkpt>
      <trkpt lat="45.83864" lon="6.78284">
        <ele>2410.16</ele>
        <time>2019-08-04T17:15:07Z</time>
      </trkpt>
      <trkpt lat="45.83863" lon="6.78284">
        <ele>2410.16</ele>
        <time>2019-08-04T17:15:08Z</time>
      </trkpt>
      <trkpt lat="45.83862" lon="6.78283">
        <ele>2409.68</ele>
        <time>2019-08-04T17:15:09Z</time>
      </trkpt>
      <trkpt lat="45.83861" lon="6.78282">
        <ele>2409.2</ele>
        <time>2019-08-04T17:15:10Z</time>
      </trkpt>
      <trkpt lat="45.83861" lon="6.78281">
        <ele>2408.24</ele>
        <time>2019-08-04T17:15:11Z</time>
      </trkpt>
      <trkpt lat="45.8386" lon="6.7828">
        <ele>2407.76</ele>
        <time>2019-08-04T17:15:12Z</time>
      </trkpt>
      <trkpt lat="45.83859" lon="6.78281">
        <ele>2407.28</ele>
        <time>2019-08-04T17:15:13Z</time>
      </trkpt>
      <trkpt lat="45.83858" lon="6.78281">
        <ele>2406.8</ele>
        <time>2019-08-04T17:15:14Z</time>
      </trkpt>
      <trkpt lat="45.83858" lon="6.78279">
        <ele>2406.32</ele>
        <time>2019-08-04T17:15:15Z</time>
      </trkpt>
      <trkpt lat="45.83858" lon="6.78276">
        <ele>2405.84</ele>
        <time>2019-08-04T17:15:16Z</time>
      </trkpt>
      <trkpt lat="45.83859" lon="6.78273">
        <ele>2405.36</ele>
        <time>2019-08-04T17:15:17Z</time>
      </trkpt>
      <trkpt lat="45.83864" lon="6.78257">
        <ele>2401.99</ele>
        <time>2019-08-04T17:15:23Z</time>
      </trkpt>
      <trkpt lat="45.83868" lon="6.78243">
        <ele>2399.59</ele>
        <time>2019-08-04T17:15:28Z</time>
      </trkpt>
      <trkpt lat="45.83875" lon="6.78231">
        <ele>2396.7</ele>
        <time>2019-08-04T17:15:34Z</time>
      </trkpt>
      <trkpt lat="45.83876" lon="6.7823">
        <ele>2396.22</ele>
        <time>2019-08-04T17:15:35Z</time>
      </trkpt>
      <trkpt lat="45.83876" lon="6.78227">
        <ele>2395.26</ele>
        <time>2019-08-04T17:15:37Z</time>
      </trkpt>
      <trkpt lat="45.83875" lon="6.78226">
        <ele>2394.78</ele>
        <time>2019-08-04T17:15:38Z</time>
      </trkpt>
      <trkpt lat="45.83876" lon="6.78225">
        <ele>2394.78</ele>
        <time>2019-08-04T17:15:39Z</time>
      </trkpt>
      <trkpt lat="45.83877" lon="6.78223">
        <ele>2394.78</ele>
        <time>2019-08-04T17:15:40Z</time>
      </trkpt>
      <trkpt lat="45.83877" lon="6.78222">
        <ele>2394.78</ele>
        <time>2019-08-04T17:15:41Z</time>
      </trkpt>
      <trkpt lat="45.83876" lon="6.78203">
        <ele>2391.9</ele>
        <time>2019-08-04T17:15:51Z</time>
      </trkpt>
      <trkpt lat="45.83876" lon="6.78202">
        <ele>2391.42</ele>
        <time>2019-08-04T17:15:52Z</time>
      </trkpt>
      <trkpt lat="45.83876" lon="6.78201">
        <ele>2391.42</ele>
        <time>2019-08-04T17:15:53Z</time>
      </trkpt>
      <trkpt lat="45.83876" lon="6.782">
        <ele>2390.94</ele>
        <time>2019-08-04T17:15:54Z</time>
      </trkpt>
      <trkpt lat="45.83875" lon="6.78199">
        <ele>2390.46</ele>
        <time>2019-08-04T17:15:55Z</time>
      </trkpt>
      <trkpt lat="45.8387" lon="6.78195">
        <ele>2388.05</ele>
        <time>2019-08-04T17:17:22Z</time>
      </trkpt>
      <trkpt lat="45.8387" lon="6.78196">
        <ele>2388.53</ele>
        <time>2019-08-04T17:17:50Z</time>
      </trkpt>
      <trkpt lat="45.83872" lon="6.782">
        <ele>2387.57</ele>
        <time>2019-08-04T17:20:34Z</time>
      </trkpt>
      <trkpt lat="45.83871" lon="6.78198">
        <ele>2388.53</ele>
        <time>2019-08-04T17:23:50Z</time>
      </trkpt>
      <trkpt lat="45.83871" lon="6.78196">
        <ele>2388.05</ele>
        <time>2019-08-04T17:23:54Z</time>
      </trkpt>
      <trkpt lat="45.83872" lon="6.78191">
        <ele>2387.57</ele>
        <time>2019-08-04T17:24:04Z</time>
      </trkpt>
      <trkpt lat="45.83873" lon="6.78189">
        <ele>2387.57</ele>
        <time>2019-08-04T17:24:05Z</time>
      </trkpt>
      <trkpt lat="45.83875" lon="6.78186">
        <ele>2387.57</ele>
        <time>2019-08-04T17:24:06Z</time>
      </trkpt>
      <trkpt lat="45.83876" lon="6.78183">
        <ele>2387.57</ele>
        <time>2019-08-04T17:24:07Z</time>
      </trkpt>
      <trkpt lat="45.83878" lon="6.78182">
        <ele>2387.57</ele>
        <time>2019-08-04T17:24:08Z</time>
      </trkpt>
      <trkpt lat="45.83879" lon="6.78181">
        <ele>2387.09</ele>
        <time>2019-08-04T17:24:09Z</time>
      </trkpt>
      <trkpt lat="45.8388" lon="6.7818">
        <ele>2387.09</ele>
        <time>2019-08-04T17:24:10Z</time>
      </trkpt>
      <trkpt lat="45.83881" lon="6.78178">
        <ele>2386.61</ele>
        <time>2019-08-04T17:24:12Z</time>
      </trkpt>
      <trkpt lat="45.83881" lon="6.78176">
        <ele>2386.61</ele>
        <time>2019-08-04T17:24:13Z</time>
      </trkpt>
      <trkpt lat="45.83882" lon="6.78174">
        <ele>2386.13</ele>
        <time>2019-08-04T17:24:14Z</time>
      </trkpt>
      <trkpt lat="45.83882" lon="6.78172">
        <ele>2385.17</ele>
        <time>2019-08-04T17:24:15Z</time>
      </trkpt>
      <trkpt lat="45.83883" lon="6.78169">
        <ele>2384.69</ele>
        <time>2019-08-04T17:24:16Z</time>
      </trkpt>
      <trkpt lat="45.83884" lon="6.78166">
        <ele>2384.21</ele>
        <time>2019-08-04T17:24:17Z</time>
      </trkpt>
      <trkpt lat="45.83885" lon="6.78163">
        <ele>2384.21</ele>
        <time>2019-08-04T17:24:18Z</time>
      </trkpt>
      <trkpt lat="45.83886" lon="6.7816">
        <ele>2384.21</ele>
        <time>2019-08-04T17:24:19Z</time>
      </trkpt>
      <trkpt lat="45.83887" lon="6.78158">
        <ele>2384.21</ele>
        <time>2019-08-04T17:24:20Z</time>
      </trkpt>
      <trkpt lat="45.83888" lon="6.78157">
        <ele>2384.21</ele>
        <time>2019-08-04T17:24:21Z</time>
      </trkpt>
      <trkpt lat="45.83888" lon="6.78155">
        <ele>2384.21</ele>
        <time>2019-08-04T17:24:22Z</time>
      </trkpt>
      <trkpt lat="45.83889" lon="6.78153">
        <ele>2384.21</ele>
        <time>2019-08-04T17:24:23Z</time>
      </trkpt>
      <trkpt lat="45.83889" lon="6.7815">
        <ele>2384.69</ele>
        <time>2019-08-04T17:24:24Z</time>
      </trkpt>
      <trkpt lat="45.8389" lon="6.78149">
        <ele>2385.17</ele>
        <time>2019-08-04T17:24:25Z</time>
      </trkpt>
      <trkpt lat="45.8389" lon="6.78145">
        <ele>2385.17</ele>
        <time>2019-08-04T17:24:27Z</time>
      </trkpt>
      <trkpt lat="45.8389" lon="6.78142">
        <ele>2385.65</ele>
        <time>2019-08-04T17:24:28Z</time>
      </trkpt>
      <trkpt lat="45.8389" lon="6.7814">
        <ele>2385.65</ele>
        <time>2019-08-04T17:24:29Z</time>
      </trkpt>
      <trkpt lat="45.83888" lon="6.78131">
        <ele>2385.17</ele>
        <time>2019-08-04T17:24:32Z</time>
      </trkpt>
      <trkpt lat="45.83888" lon="6.78128">
        <ele>2385.17</ele>
        <time>2019-08-04T17:24:33Z</time>
      </trkpt>
      <trkpt lat="45.83888" lon="6.78126">
        <ele>2385.65</ele>
        <time>2019-08-04T17:24:34Z</time>
      </trkpt>
      <trkpt lat="45.83888" lon="6.78123">
        <ele>2386.13</ele>
        <time>2019-08-04T17:24:35Z</time>
      </trkpt>
      <trkpt lat="45.83888" lon="6.78121">
        <ele>2386.13</ele>
        <time>2019-08-04T17:24:36Z</time>
      </trkpt>
      <trkpt lat="45.83889" lon="6.78119">
        <ele>2386.61</ele>
        <time>2019-08-04T17:24:37Z</time>
      </trkpt>
      <trkpt lat="45.8389" lon="6.78118">
        <ele>2387.09</ele>
        <time>2019-08-04T17:24:38Z</time>
      </trkpt>
      <trkpt lat="45.8389" lon="6.78117">
        <ele>2387.57</ele>
        <time>2019-08-04T17:24:39Z</time>
      </trkpt>
      <trkpt lat="45.8389" lon="6.78115">
        <ele>2388.53</ele>
        <time>2019-08-04T17:24:41Z</time>
      </trkpt>
      <trkpt lat="45.8389" lon="6.78113">
        <ele>2389.01</ele>
        <time>2019-08-04T17:24:42Z</time>
      </trkpt>
      <trkpt lat="45.8389" lon="6.7811">
        <ele>2389.01</ele>
        <time>2019-08-04T17:24:43Z</time>
      </trkpt>
      <trkpt lat="45.8389" lon="6.78108">
        <ele>2389.49</ele>
        <time>2019-08-04T17:24:44Z</time>
      </trkpt>
      <trkpt lat="45.83889" lon="6.78107">
        <ele>2389.49</ele>
        <time>2019-08-04T17:24:45Z</time>
      </trkpt>
      <trkpt lat="45.83889" lon="6.78106">
        <ele>2389.97</ele>
        <time>2019-08-04T17:24:46Z</time>
      </trkpt>
      <trkpt lat="45.83886" lon="6.78101">
        <ele>2389.01</ele>
        <time>2019-08-04T17:24:53Z</time>
      </trkpt>
      <trkpt lat="45.83886" lon="6.78097">
        <ele>2386.61</ele>
        <time>2019-08-04T17:24:56Z</time>
      </trkpt>
      <trkpt lat="45.83886" lon="6.78096">
        <ele>2385.65</ele>
        <time>2019-08-04T17:24:58Z</time>
      </trkpt>
      <trkpt lat="45.8389" lon="6.7809">
        <ele>2383.73</ele>
        <time>2019-08-04T17:25:06Z</time>
      </trkpt>
      <trkpt lat="45.83891" lon="6.78089">
        <ele>2383.25</ele>
        <time>2019-08-04T17:25:07Z</time>
      </trkpt>
      <trkpt lat="45.83892" lon="6.78087">
        <ele>2383.25</ele>
        <time>2019-08-04T17:25:08Z</time>
      </trkpt>
      <trkpt lat="45.83893" lon="6.78086">
        <ele>2382.76</ele>
        <time>2019-08-04T17:25:09Z</time>
      </trkpt>
      <trkpt lat="45.83894" lon="6.78085">
        <ele>2382.76</ele>
        <time>2019-08-04T17:25:10Z</time>
      </trkpt>
      <trkpt lat="45.83892" lon="6.78085">
        <ele>2382.76</ele>
        <time>2019-08-04T17:25:12Z</time>
      </trkpt>
      <trkpt lat="45.83891" lon="6.78085">
        <ele>2382.76</ele>
        <time>2019-08-04T17:25:13Z</time>
      </trkpt>
      <trkpt lat="45.83889" lon="6.78085">
        <ele>2381.8</ele>
        <time>2019-08-04T17:25:14Z</time>
      </trkpt>
      <trkpt lat="45.83888" lon="6.78085">
        <ele>2381.8</ele>
        <time>2019-08-04T17:25:15Z</time>
      </trkpt>
      <trkpt lat="45.83887" lon="6.78085">
        <ele>2380.84</ele>
        <time>2019-08-04T17:25:16Z</time>
      </trkpt>
      <trkpt lat="45.83886" lon="6.78084">
        <ele>2380.84</ele>
        <time>2019-08-04T17:25:17Z</time>
      </trkpt>
      <trkpt lat="45.83886" lon="6.78083">
        <ele>2380.36</ele>
        <time>2019-08-04T17:25:18Z</time>
      </trkpt>
      <trkpt lat="45.83887" lon="6.78081">
        <ele>2379.88</ele>
        <time>2019-08-04T17:25:19Z</time>
      </trkpt>
      <trkpt lat="45.83888" lon="6.7808">
        <ele>2379.4</ele>
        <time>2019-08-04T17:25:20Z</time>
      </trkpt>
      <trkpt lat="45.83889" lon="6.78079">
        <ele>2378.44</ele>
        <time>2019-08-04T17:25:21Z</time>
      </trkpt>
      <trkpt lat="45.83889" lon="6.78077">
        <ele>2377.96</ele>
        <time>2019-08-04T17:25:22Z</time>
      </trkpt>
      <trkpt lat="45.8389" lon="6.78075">
        <ele>2377.48</ele>
        <time>2019-08-04T17:25:23Z</time>
      </trkpt>
      <trkpt lat="45.83891" lon="6.78074">
        <ele>2377</ele>
        <time>2019-08-04T17:25:24Z</time>
      </trkpt>
      <trkpt lat="45.83891" lon="6.78073">
        <ele>2377</ele>
        <time>2019-08-04T17:25:25Z</time>
      </trkpt>
      <trkpt lat="45.8389" lon="6.78073">
        <ele>2376.52</ele>
        <time>2019-08-04T17:25:26Z</time>
      </trkpt>
      <trkpt lat="45.83889" lon="6.78073">
        <ele>2376.04</ele>
        <time>2019-08-04T17:25:27Z</time>
      </trkpt>
      <trkpt lat="45.83888" lon="6.78071">
        <ele>2375.55</ele>
        <time>2019-08-04T17:25:28Z</time>
      </trkpt>
      <trkpt lat="45.83888" lon="6.78069">
        <ele>2375.07</ele>
        <time>2019-08-04T17:25:29Z</time>
      </trkpt>
      <trkpt lat="45.83889" lon="6.78066">
        <ele>2374.59</ele>
        <time>2019-08-04T17:25:30Z</time>
      </trkpt>
      <trkpt lat="45.8389" lon="6.78064">
        <ele>2374.11</ele>
        <time>2019-08-04T17:25:31Z</time>
      </trkpt>
      <trkpt lat="45.8389" lon="6.78061">
        <ele>2374.11</ele>
        <time>2019-08-04T17:25:32Z</time>
      </trkpt>
      <trkpt lat="45.83891" lon="6.78056">
        <ele>2372.67</ele>
        <time>2019-08-04T17:25:34Z</time>
      </trkpt>
      <trkpt lat="45.83894" lon="6.7805">
        <ele>2371.23</ele>
        <time>2019-08-04T17:25:37Z</time>
      </trkpt>
      <trkpt lat="45.83893" lon="6.78051">
        <ele>2370.75</ele>
        <time>2019-08-04T17:25:41Z</time>
      </trkpt>
      <trkpt lat="45.83892" lon="6.7805">
        <ele>2369.79</ele>
        <time>2019-08-04T17:25:42Z</time>
      </trkpt>
      <trkpt lat="45.83891" lon="6.78049">
        <ele>2369.31</ele>
        <time>2019-08-04T17:25:43Z</time>
      </trkpt>
      <trkpt lat="45.83891" lon="6.78048">
        <ele>2368.83</ele>
        <time>2019-08-04T17:25:44Z</time>
      </trkpt>
      <trkpt lat="45.83891" lon="6.7804">
        <ele>2366.42</ele>
        <time>2019-08-04T17:25:49Z</time>
      </trkpt>
      <trkpt lat="45.83892" lon="6.78037">
        <ele>2366.42</ele>
        <time>2019-08-04T17:25:50Z</time>
      </trkpt>
      <trkpt lat="45.83893" lon="6.78035">
        <ele>2365.94</ele>
        <time>2019-08-04T17:25:51Z</time>
      </trkpt>
      <trkpt lat="45.83894" lon="6.78032">
        <ele>2365.46</ele>
        <time>2019-08-04T17:25:52Z</time>
      </trkpt>
      <trkpt lat="45.83895" lon="6.7803">
        <ele>2365.46</ele>
        <time>2019-08-04T17:25:53Z</time>
      </trkpt>
      <trkpt lat="45.83896" lon="6.78027">
        <ele>2364.98</ele>
        <time>2019-08-04T17:25:54Z</time>
      </trkpt>
      <trkpt lat="45.83897" lon="6.78025">
        <ele>2364.02</ele>
        <time>2019-08-04T17:25:55Z</time>
      </trkpt>
      <trkpt lat="45.83897" lon="6.78024">
        <ele>2364.02</ele>
        <time>2019-08-04T17:25:56Z</time>
      </trkpt>
      <trkpt lat="45.83898" lon="6.78021">
        <ele>2363.54</ele>
        <time>2019-08-04T17:25:57Z</time>
      </trkpt>
      <trkpt lat="45.839" lon="6.78009">
        <ele>2360.17</ele>
        <time>2019-08-04T17:26:01Z</time>
      </trkpt>
      <trkpt lat="45.83905" lon="6.7799">
        <ele>2356.81</ele>
        <time>2019-08-04T17:26:10Z</time>
      </trkpt>
      <trkpt lat="45.83905" lon="6.77988">
        <ele>2356.81</ele>
        <time>2019-08-04T17:26:11Z</time>
      </trkpt>
      <trkpt lat="45.83905" lon="6.77987">
        <ele>2356.33</ele>
        <time>2019-08-04T17:26:12Z</time>
      </trkpt>
      <trkpt lat="45.83904" lon="6.77985">
        <ele>2355.85</ele>
        <time>2019-08-04T17:26:13Z</time>
      </trkpt>
      <trkpt lat="45.83904" lon="6.77983">
        <ele>2355.37</ele>
        <time>2019-08-04T17:26:14Z</time>
      </trkpt>
      <trkpt lat="45.83905" lon="6.77981">
        <ele>2354.89</ele>
        <time>2019-08-04T17:26:15Z</time>
      </trkpt>
      <trkpt lat="45.83905" lon="6.77978">
        <ele>2354.41</ele>
        <time>2019-08-04T17:26:16Z</time>
      </trkpt>
      <trkpt lat="45.83906" lon="6.77977">
        <ele>2353.44</ele>
        <time>2019-08-04T17:26:17Z</time>
      </trkpt>
      <trkpt lat="45.83906" lon="6.77975">
        <ele>2352.96</ele>
        <time>2019-08-04T17:26:18Z</time>
      </trkpt>
      <trkpt lat="45.83906" lon="6.77974">
        <ele>2352.48</ele>
        <time>2019-08-04T17:26:19Z</time>
      </trkpt>
      <trkpt lat="45.83906" lon="6.77973">
        <ele>2351.52</ele>
        <time>2019-08-04T17:26:20Z</time>
      </trkpt>
      <trkpt lat="45.83905" lon="6.77971">
        <ele>2351.04</ele>
        <time>2019-08-04T17:26:22Z</time>
      </trkpt>
      <trkpt lat="45.83904" lon="6.77971">
        <ele>2351.04</ele>
        <time>2019-08-04T17:26:27Z</time>
      </trkpt>
      <trkpt lat="45.83903" lon="6.77971">
        <ele>2350.56</ele>
        <time>2019-08-04T17:26:28Z</time>
      </trkpt>
      <trkpt lat="45.83902" lon="6.7797">
        <ele>2350.08</ele>
        <time>2019-08-04T17:26:29Z</time>
      </trkpt>
      <trkpt lat="45.83902" lon="6.77969">
        <ele>2349.6</ele>
        <time>2019-08-04T17:26:30Z</time>
      </trkpt>
      <trkpt lat="45.83899" lon="6.77969">
        <ele>2348.16</ele>
        <time>2019-08-04T17:26:33Z</time>
      </trkpt>
      <trkpt lat="45.83898" lon="6.77968">
        <ele>2348.16</ele>
        <time>2019-08-04T17:26:34Z</time>
      </trkpt>
      <trkpt lat="45.83897" lon="6.77967">
        <ele>2347.68</ele>
        <time>2019-08-04T17:26:35Z</time>
      </trkpt>
      <trkpt lat="45.83897" lon="6.77965">
        <ele>2346.72</ele>
        <time>2019-08-04T17:26:36Z</time>
      </trkpt>
      <trkpt lat="45.83897" lon="6.77963">
        <ele>2346.23</ele>
        <time>2019-08-04T17:26:37Z</time>
      </trkpt>
      <trkpt lat="45.83897" lon="6.7796">
        <ele>2346.23</ele>
        <time>2019-08-04T17:26:38Z</time>
      </trkpt>
      <trkpt lat="45.83897" lon="6.77958">
        <ele>2345.27</ele>
        <time>2019-08-04T17:26:39Z</time>
      </trkpt>
      <trkpt lat="45.83897" lon="6.77947">
        <ele>2341.91</ele>
        <time>2019-08-04T17:26:44Z</time>
      </trkpt>
      <trkpt lat="45.83901" lon="6.77929">
        <ele>2339.02</ele>
        <time>2019-08-04T17:27:22Z</time>
      </trkpt>
      <trkpt lat="45.839" lon="6.77931">
        <ele>2339.02</ele>
        <time>2019-08-04T17:27:29Z</time>
      </trkpt>
      <trkpt lat="45.839" lon="6.7793">
        <ele>2339.02</ele>
        <time>2019-08-04T17:31:25Z</time>
      </trkpt>
      <trkpt lat="45.83899" lon="6.77927">
        <ele>2338.06</ele>
        <time>2019-08-04T17:31:28Z</time>
      </trkpt>
      <trkpt lat="45.83899" lon="6.77926">
        <ele>2337.58</ele>
        <time>2019-08-04T17:31:29Z</time>
      </trkpt>
      <trkpt lat="45.83901" lon="6.77924">
        <ele>2336.62</ele>
        <time>2019-08-04T17:31:30Z</time>
      </trkpt>
      <trkpt lat="45.8391" lon="6.77914">
        <ele>2333.26</ele>
        <time>2019-08-04T17:31:35Z</time>
      </trkpt>
      <trkpt lat="45.83913" lon="6.77909">
        <ele>2332.78</ele>
        <time>2019-08-04T17:31:37Z</time>
      </trkpt>
      <trkpt lat="45.83915" lon="6.77907">
        <ele>2332.3</ele>
        <time>2019-08-04T17:31:38Z</time>
      </trkpt>
      <trkpt lat="45.83917" lon="6.77905">
        <ele>2331.81</ele>
        <time>2019-08-04T17:31:39Z</time>
      </trkpt>
      <trkpt lat="45.83919" lon="6.77904">
        <ele>2331.81</ele>
        <time>2019-08-04T17:31:40Z</time>
      </trkpt>
      <trkpt lat="45.83939" lon="6.77906">
        <ele>2329.89</ele>
        <time>2019-08-04T17:31:51Z</time>
      </trkpt>
      <trkpt lat="45.83944" lon="6.77908">
        <ele>2327.97</ele>
        <time>2019-08-04T17:31:58Z</time>
      </trkpt>
      <trkpt lat="45.83946" lon="6.77903">
        <ele>2325.09</ele>
        <time>2019-08-04T17:32:07Z</time>
      </trkpt>
      <trkpt lat="45.83946" lon="6.77902">
        <ele>2323.64</ele>
        <time>2019-08-04T17:32:09Z</time>
      </trkpt>
      <trkpt lat="45.83946" lon="6.779">
        <ele>2323.16</ele>
        <time>2019-08-04T17:32:10Z</time>
      </trkpt>
      <trkpt lat="45.83943" lon="6.77895">
        <ele>2321.72</ele>
        <time>2019-08-04T17:32:14Z</time>
      </trkpt>
      <trkpt lat="45.83942" lon="6.77889">
        <ele>2318.36</ele>
        <time>2019-08-04T17:32:21Z</time>
      </trkpt>
      <trkpt lat="45.83943" lon="6.77885">
        <ele>2315.47</ele>
        <time>2019-08-04T17:32:28Z</time>
      </trkpt>
      <trkpt lat="45.83942" lon="6.77884">
        <ele>2314.99</ele>
        <time>2019-08-04T17:32:29Z</time>
      </trkpt>
      <trkpt lat="45.83944" lon="6.77878">
        <ele>2312.59</ele>
        <time>2019-08-04T17:32:35Z</time>
      </trkpt>
      <trkpt lat="45.83945" lon="6.77878">
        <ele>2311.63</ele>
        <time>2019-08-04T17:32:36Z</time>
      </trkpt>
      <trkpt lat="45.83953" lon="6.77875">
        <ele>2308.26</ele>
        <time>2019-08-04T17:32:41Z</time>
      </trkpt>
      <trkpt lat="45.83957" lon="6.77873">
        <ele>2306.34</ele>
        <time>2019-08-04T17:32:44Z</time>
      </trkpt>
      <trkpt lat="45.83958" lon="6.77872">
        <ele>2306.34</ele>
        <time>2019-08-04T17:32:45Z</time>
      </trkpt>
      <trkpt lat="45.8396" lon="6.77871">
        <ele>2305.86</ele>
        <time>2019-08-04T17:32:47Z</time>
      </trkpt>
      <trkpt lat="45.83961" lon="6.77872">
        <ele>2305.38</ele>
        <time>2019-08-04T17:32:48Z</time>
      </trkpt>
      <trkpt lat="45.83962" lon="6.77873">
        <ele>2304.42</ele>
        <time>2019-08-04T17:32:49Z</time>
      </trkpt>
      <trkpt lat="45.83963" lon="6.77871">
        <ele>2302.49</ele>
        <time>2019-08-04T17:32:52Z</time>
      </trkpt>
      <trkpt lat="45.83963" lon="6.77869">
        <ele>2302.01</ele>
        <time>2019-08-04T17:32:53Z</time>
      </trkpt>
      <trkpt lat="45.83963" lon="6.77868">
        <ele>2301.53</ele>
        <time>2019-08-04T17:32:54Z</time>
      </trkpt>
      <trkpt lat="45.83967" lon="6.77866">
        <ele>2298.17</ele>
        <time>2019-08-04T17:33:01Z</time>
      </trkpt>
      <trkpt lat="45.83968" lon="6.77865">
        <ele>2297.21</ele>
        <time>2019-08-04T17:33:02Z</time>
      </trkpt>
      <trkpt lat="45.83969" lon="6.77864">
        <ele>2296.73</ele>
        <time>2019-08-04T17:33:03Z</time>
      </trkpt>
      <trkpt lat="45.8397" lon="6.77863">
        <ele>2295.28</ele>
        <time>2019-08-04T17:33:05Z</time>
      </trkpt>
      <trkpt lat="45.83969" lon="6.77858">
        <ele>2292.88</ele>
        <time>2019-08-04T17:33:11Z</time>
      </trkpt>
      <trkpt lat="45.83969" lon="6.77857">
        <ele>2292.4</ele>
        <time>2019-08-04T17:33:12Z</time>
      </trkpt>
      <trkpt lat="45.83968" lon="6.77855">
        <ele>2291.44</ele>
        <time>2019-08-04T17:33:13Z</time>
      </trkpt>
      <trkpt lat="45.83966" lon="6.77853">
        <ele>2290.96</ele>
        <time>2019-08-04T17:33:15Z</time>
      </trkpt>
      <trkpt lat="45.83962" lon="6.77846">
        <ele>2287.59</ele>
        <time>2019-08-04T17:33:21Z</time>
      </trkpt>
      <trkpt lat="45.83962" lon="6.77845">
        <ele>2286.63</ele>
        <time>2019-08-04T17:33:22Z</time>
      </trkpt>
      <trkpt lat="45.83963" lon="6.77844">
        <ele>2285.67</ele>
        <time>2019-08-04T17:33:23Z</time>
      </trkpt>
      <trkpt lat="45.83965" lon="6.77843">
        <ele>2285.19</ele>
        <time>2019-08-04T17:33:24Z</time>
      </trkpt>
      <trkpt lat="45.83967" lon="6.77843">
        <ele>2284.23</ele>
        <time>2019-08-04T17:33:25Z</time>
      </trkpt>
      <trkpt lat="45.83969" lon="6.77843">
        <ele>2283.75</ele>
        <time>2019-08-04T17:33:26Z</time>
      </trkpt>
      <trkpt lat="45.8397" lon="6.77843">
        <ele>2282.79</ele>
        <time>2019-08-04T17:33:27Z</time>
      </trkpt>
      <trkpt lat="45.83971" lon="6.77843">
        <ele>2281.83</ele>
        <time>2019-08-04T17:33:28Z</time>
      </trkpt>
      <trkpt lat="45.83973" lon="6.77842">
        <ele>2281.35</ele>
        <time>2019-08-04T17:33:30Z</time>
      </trkpt>
      <trkpt lat="45.83973" lon="6.7784">
        <ele>2281.35</ele>
        <time>2019-08-04T17:33:31Z</time>
      </trkpt>
      <trkpt lat="45.83974" lon="6.77839">
        <ele>2280.87</ele>
        <time>2019-08-04T17:33:32Z</time>
      </trkpt>
      <trkpt lat="45.83975" lon="6.7784">
        <ele>2280.38</ele>
        <time>2019-08-04T17:33:33Z</time>
      </trkpt>
      <trkpt lat="45.83976" lon="6.77841">
        <ele>2280.38</ele>
        <time>2019-08-04T17:33:34Z</time>
      </trkpt>
      <trkpt lat="45.83977" lon="6.77841">
        <ele>2279.9</ele>
        <time>2019-08-04T17:33:35Z</time>
      </trkpt>
      <trkpt lat="45.83979" lon="6.7784">
        <ele>2279.42</ele>
        <time>2019-08-04T17:33:36Z</time>
      </trkpt>
      <trkpt lat="45.8398" lon="6.77841">
        <ele>2279.42</ele>
        <time>2019-08-04T17:33:37Z</time>
      </trkpt>
      <trkpt lat="45.83981" lon="6.77841">
        <ele>2279.42</ele>
        <time>2019-08-04T17:33:38Z</time>
      </trkpt>
      <trkpt lat="45.83984" lon="6.7784">
        <ele>2277.98</ele>
        <time>2019-08-04T17:33:41Z</time>
      </trkpt>
      <trkpt lat="45.83985" lon="6.7784">
        <ele>2277.02</ele>
        <time>2019-08-04T17:33:42Z</time>
      </trkpt>
      <trkpt lat="45.83986" lon="6.77838">
        <ele>2276.54</ele>
        <time>2019-08-04T17:33:43Z</time>
      </trkpt>
      <trkpt lat="45.83988" lon="6.77838">
        <ele>2276.06</ele>
        <time>2019-08-04T17:33:44Z</time>
      </trkpt>
      <trkpt lat="45.83989" lon="6.77838">
        <ele>2275.1</ele>
        <time>2019-08-04T17:33:45Z</time>
      </trkpt>
      <trkpt lat="45.83991" lon="6.77838">
        <ele>2274.14</ele>
        <time>2019-08-04T17:33:46Z</time>
      </trkpt>
      <trkpt lat="45.83993" lon="6.77838">
        <ele>2273.17</ele>
        <time>2019-08-04T17:33:47Z</time>
      </trkpt>
      <trkpt lat="45.83994" lon="6.77837">
        <ele>2272.69</ele>
        <time>2019-08-04T17:33:48Z</time>
      </trkpt>
      <trkpt lat="45.83996" lon="6.77836">
        <ele>2272.21</ele>
        <time>2019-08-04T17:33:49Z</time>
      </trkpt>
      <trkpt lat="45.83996" lon="6.77837">
        <ele>2271.73</ele>
        <time>2019-08-04T17:33:50Z</time>
      </trkpt>
      <trkpt lat="45.83996" lon="6.77836">
        <ele>2271.73</ele>
        <time>2019-08-04T17:33:51Z</time>
      </trkpt>
      <trkpt lat="45.83995" lon="6.77835">
        <ele>2271.73</ele>
        <time>2019-08-04T17:33:52Z</time>
      </trkpt>
      <trkpt lat="45.83993" lon="6.77833">
        <ele>2271.73</ele>
        <time>2019-08-04T17:33:53Z</time>
      </trkpt>
      <trkpt lat="45.83992" lon="6.77832">
        <ele>2270.77</ele>
        <time>2019-08-04T17:33:54Z</time>
      </trkpt>
      <trkpt lat="45.83992" lon="6.7783">
        <ele>2269.81</ele>
        <time>2019-08-04T17:33:55Z</time>
      </trkpt>
      <trkpt lat="45.83991" lon="6.77827">
        <ele>2268.37</ele>
        <time>2019-08-04T17:33:57Z</time>
      </trkpt>
      <trkpt lat="45.83992" lon="6.77828">
        <ele>2267.89</ele>
        <time>2019-08-04T17:33:58Z</time>
      </trkpt>
      <trkpt lat="45.83998" lon="6.77827">
        <ele>2265.48</ele>
        <time>2019-08-04T17:34:04Z</time>
      </trkpt>
      <trkpt lat="45.83997" lon="6.77826">
        <ele>2265</ele>
        <time>2019-08-04T17:34:05Z</time>
      </trkpt>
      <trkpt lat="45.83997" lon="6.77825">
        <ele>2265</ele>
        <time>2019-08-04T17:34:06Z</time>
      </trkpt>
      <trkpt lat="45.83996" lon="6.77824">
        <ele>2264.52</ele>
        <time>2019-08-04T17:34:07Z</time>
      </trkpt>
      <trkpt lat="45.83995" lon="6.77822">
        <ele>2263.56</ele>
        <time>2019-08-04T17:34:08Z</time>
      </trkpt>
      <trkpt lat="45.83995" lon="6.77821">
        <ele>2262.6</ele>
        <time>2019-08-04T17:34:09Z</time>
      </trkpt>
      <trkpt lat="45.83996" lon="6.7782">
        <ele>2261.64</ele>
        <time>2019-08-04T17:34:10Z</time>
      </trkpt>
      <trkpt lat="45.83998" lon="6.77819">
        <ele>2261.16</ele>
        <time>2019-08-04T17:34:11Z</time>
      </trkpt>
      <trkpt lat="45.83999" lon="6.77819">
        <ele>2260.68</ele>
        <time>2019-08-04T17:34:12Z</time>
      </trkpt>
      <trkpt lat="45.84" lon="6.7782">
        <ele>2260.2</ele>
        <time>2019-08-04T17:34:13Z</time>
      </trkpt>
      <trkpt lat="45.84004" lon="6.7782">
        <ele>2257.79</ele>
        <time>2019-08-04T17:34:20Z</time>
      </trkpt>
      <trkpt lat="45.84005" lon="6.7782">
        <ele>2256.83</ele>
        <time>2019-08-04T17:34:21Z</time>
      </trkpt>
      <trkpt lat="45.84006" lon="6.7782">
        <ele>2256.35</ele>
        <time>2019-08-04T17:34:22Z</time>
      </trkpt>
      <trkpt lat="45.84008" lon="6.7782">
        <ele>2255.87</ele>
        <time>2019-08-04T17:34:23Z</time>
      </trkpt>
      <trkpt lat="45.84008" lon="6.7782">
        <ele>2255.39</ele>
        <time>2019-08-04T17:34:24Z</time>
      </trkpt>
      <trkpt lat="45.84009" lon="6.77819">
        <ele>2255.39</ele>
        <time>2019-08-04T17:34:25Z</time>
      </trkpt>
      <trkpt lat="45.84022" lon="6.77814">
        <ele>2252.03</ele>
        <time>2019-08-04T17:34:32Z</time>
      </trkpt>
      <trkpt lat="45.84038" lon="6.77817">
        <ele>2254.91</ele>
        <time>2019-08-04T17:34:43Z</time>
      </trkpt>
      <trkpt lat="45.84039" lon="6.77817">
        <ele>2255.39</ele>
        <time>2019-08-04T17:34:44Z</time>
      </trkpt>
      <trkpt lat="45.84046" lon="6.77816">
        <ele>2255.87</ele>
        <time>2019-08-04T17:34:48Z</time>
      </trkpt>
      <trkpt lat="45.84047" lon="6.77815">
        <ele>2255.87</ele>
        <time>2019-08-04T17:34:49Z</time>
      </trkpt>
      <trkpt lat="45.84048" lon="6.77814">
        <ele>2255.87</ele>
        <time>2019-08-04T17:34:50Z</time>
      </trkpt>
      <trkpt lat="45.84049" lon="6.77812">
        <ele>2255.87</ele>
        <time>2019-08-04T17:34:51Z</time>
      </trkpt>
      <trkpt lat="45.84051" lon="6.7781">
        <ele>2255.87</ele>
        <time>2019-08-04T17:34:52Z</time>
      </trkpt>
      <trkpt lat="45.84052" lon="6.77808">
        <ele>2255.39</ele>
        <time>2019-08-04T17:34:53Z</time>
      </trkpt>
      <trkpt lat="45.84056" lon="6.77802">
        <ele>2255.87</ele>
        <time>2019-08-04T17:34:57Z</time>
      </trkpt>
      <trkpt lat="45.84056" lon="6.778">
        <ele>2255.39</ele>
        <time>2019-08-04T17:34:58Z</time>
      </trkpt>
      <trkpt lat="45.84058" lon="6.778">
        <ele>2254.91</ele>
        <time>2019-08-04T17:35:00Z</time>
      </trkpt>
      <trkpt lat="45.84059" lon="6.778">
        <ele>2254.91</ele>
        <time>2019-08-04T17:35:01Z</time>
      </trkpt>
      <trkpt lat="45.8406" lon="6.77799">
        <ele>2254.43</ele>
        <time>2019-08-04T17:35:02Z</time>
      </trkpt>
      <trkpt lat="45.84061" lon="6.77798">
        <ele>2254.43</ele>
        <time>2019-08-04T17:35:03Z</time>
      </trkpt>
      <trkpt lat="45.84061" lon="6.77796">
        <ele>2253.47</ele>
        <time>2019-08-04T17:35:04Z</time>
      </trkpt>
      <trkpt lat="45.84062" lon="6.77795">
        <ele>2252.99</ele>
        <time>2019-08-04T17:35:05Z</time>
      </trkpt>
      <trkpt lat="45.84062" lon="6.77793">
        <ele>2252.99</ele>
        <time>2019-08-04T17:35:06Z</time>
      </trkpt>
      <trkpt lat="45.84062" lon="6.77792">
        <ele>2252.03</ele>
        <time>2019-08-04T17:35:07Z</time>
      </trkpt>
      <trkpt lat="45.84063" lon="6.77787">
        <ele>2250.1</ele>
        <time>2019-08-04T17:35:10Z</time>
      </trkpt>
      <trkpt lat="45.84064" lon="6.77784">
        <ele>2250.1</ele>
        <time>2019-08-04T17:35:11Z</time>
      </trkpt>
      <trkpt lat="45.84064" lon="6.77782">
        <ele>2249.62</ele>
        <time>2019-08-04T17:35:12Z</time>
      </trkpt>
      <trkpt lat="45.84065" lon="6.77779">
        <ele>2249.14</ele>
        <time>2019-08-04T17:35:13Z</time>
      </trkpt>
      <trkpt lat="45.84065" lon="6.77776">
        <ele>2249.14</ele>
        <time>2019-08-04T17:35:14Z</time>
      </trkpt>
      <trkpt lat="45.84066" lon="6.77773">
        <ele>2248.18</ele>
        <time>2019-08-04T17:35:15Z</time>
      </trkpt>
      <trkpt lat="45.84066" lon="6.77771">
        <ele>2248.18</ele>
        <time>2019-08-04T17:35:16Z</time>
      </trkpt>
      <trkpt lat="45.84066" lon="6.77771">
        <ele>2247.22</ele>
        <time>2019-08-04T17:35:18Z</time>
      </trkpt>
      <trkpt lat="45.84065" lon="6.77772">
        <ele>2247.22</ele>
        <time>2019-08-04T17:35:19Z</time>
      </trkpt>
      <trkpt lat="45.84063" lon="6.77774">
        <ele>2247.22</ele>
        <time>2019-08-04T17:35:21Z</time>
      </trkpt>
      <trkpt lat="45.84058" lon="6.77777">
        <ele>2245.3</ele>
        <time>2019-08-04T17:35:26Z</time>
      </trkpt>
      <trkpt lat="45.84058" lon="6.77775">
        <ele>2244.82</ele>
        <time>2019-08-04T17:35:27Z</time>
      </trkpt>
      <trkpt lat="45.84058" lon="6.77773">
        <ele>2243.37</ele>
        <time>2019-08-04T17:35:30Z</time>
      </trkpt>
      <trkpt lat="45.84057" lon="6.77774">
        <ele>2242.89</ele>
        <time>2019-08-04T17:35:31Z</time>
      </trkpt>
      <trkpt lat="45.84056" lon="6.77775">
        <ele>2242.41</ele>
        <time>2019-08-04T17:35:32Z</time>
      </trkpt>
      <trkpt lat="45.84056" lon="6.77774">
        <ele>2242.41</ele>
        <time>2019-08-04T17:35:33Z</time>
      </trkpt>
      <trkpt lat="45.84055" lon="6.77772">
        <ele>2241.45</ele>
        <time>2019-08-04T17:35:34Z</time>
      </trkpt>
      <trkpt lat="45.84055" lon="6.7777">
        <ele>2241.45</ele>
        <time>2019-08-04T17:35:35Z</time>
      </trkpt>
      <trkpt lat="45.84056" lon="6.77767">
        <ele>2240.97</ele>
        <time>2019-08-04T17:35:36Z</time>
      </trkpt>
      <trkpt lat="45.84057" lon="6.77765">
        <ele>2240.49</ele>
        <time>2019-08-04T17:35:37Z</time>
      </trkpt>
      <trkpt lat="45.84059" lon="6.77763">
        <ele>2240.01</ele>
        <time>2019-08-04T17:35:38Z</time>
      </trkpt>
      <trkpt lat="45.8406" lon="6.77762">
        <ele>2239.05</ele>
        <time>2019-08-04T17:35:39Z</time>
      </trkpt>
      <trkpt lat="45.8407" lon="6.77753">
        <ele>2238.09</ele>
        <time>2019-08-04T17:35:45Z</time>
      </trkpt>
      <trkpt lat="45.84073" lon="6.77751">
        <ele>2236.64</ele>
        <time>2019-08-04T17:35:47Z</time>
      </trkpt>
      <trkpt lat="45.84076" lon="6.77751">
        <ele>2236.16</ele>
        <time>2019-08-04T17:35:49Z</time>
      </trkpt>
      <trkpt lat="45.84085" lon="6.77745">
        <ele>2235.2</ele>
        <time>2019-08-04T17:35:57Z</time>
      </trkpt>
      <trkpt lat="45.84085" lon="6.77744">
        <ele>2235.2</ele>
        <time>2019-08-04T17:35:58Z</time>
      </trkpt>
      <trkpt lat="45.84084" lon="6.77744">
        <ele>2234.72</ele>
        <time>2019-08-04T17:36:00Z</time>
      </trkpt>
      <trkpt lat="45.84083" lon="6.77743">
        <ele>2234.72</ele>
        <time>2019-08-04T17:36:01Z</time>
      </trkpt>
      <trkpt lat="45.84082" lon="6.77742">
        <ele>2234.24</ele>
        <time>2019-08-04T17:36:02Z</time>
      </trkpt>
      <trkpt lat="45.84082" lon="6.7774">
        <ele>2234.24</ele>
        <time>2019-08-04T17:36:03Z</time>
      </trkpt>
      <trkpt lat="45.84082" lon="6.77738">
        <ele>2233.76</ele>
        <time>2019-08-04T17:36:04Z</time>
      </trkpt>
      <trkpt lat="45.84082" lon="6.77736">
        <ele>2233.76</ele>
        <time>2019-08-04T17:36:05Z</time>
      </trkpt>
      <trkpt lat="45.84081" lon="6.77734">
        <ele>2233.76</ele>
        <time>2019-08-04T17:36:06Z</time>
      </trkpt>
      <trkpt lat="45.84081" lon="6.77732">
        <ele>2233.76</ele>
        <time>2019-08-04T17:36:07Z</time>
      </trkpt>
      <trkpt lat="45.84081" lon="6.77729">
        <ele>2234.24</ele>
        <time>2019-08-04T17:36:08Z</time>
      </trkpt>
      <trkpt lat="45.84081" lon="6.77728">
        <ele>2234.72</ele>
        <time>2019-08-04T17:36:09Z</time>
      </trkpt>
      <trkpt lat="45.84081" lon="6.77726">
        <ele>2235.2</ele>
        <time>2019-08-04T17:36:10Z</time>
      </trkpt>
      <trkpt lat="45.8408" lon="6.77724">
        <ele>2235.2</ele>
        <time>2019-08-04T17:36:11Z</time>
      </trkpt>
      <trkpt lat="45.8408" lon="6.77721">
        <ele>2235.2</ele>
        <time>2019-08-04T17:36:12Z</time>
      </trkpt>
      <trkpt lat="45.84079" lon="6.77717">
        <ele>2235.2</ele>
        <time>2019-08-04T17:36:13Z</time>
      </trkpt>
      <trkpt lat="45.84079" lon="6.77713">
        <ele>2235.2</ele>
        <time>2019-08-04T17:36:14Z</time>
      </trkpt>
      <trkpt lat="45.84079" lon="6.77709">
        <ele>2235.2</ele>
        <time>2019-08-04T17:36:15Z</time>
      </trkpt>
      <trkpt lat="45.84079" lon="6.77682">
        <ele>2235.68</ele>
        <time>2019-08-04T17:36:23Z</time>
      </trkpt>
      <trkpt lat="45.84079" lon="6.77673">
        <ele>2235.2</ele>
        <time>2019-08-04T17:36:26Z</time>
      </trkpt>
      <trkpt lat="45.8408" lon="6.77671">
        <ele>2235.68</ele>
        <time>2019-08-04T17:36:27Z</time>
      </trkpt>
      <trkpt lat="45.8408" lon="6.7767">
        <ele>2235.68</ele>
        <time>2019-08-04T17:36:28Z</time>
      </trkpt>
      <trkpt lat="45.84081" lon="6.77668">
        <ele>2236.16</ele>
        <time>2019-08-04T17:36:29Z</time>
      </trkpt>
      <trkpt lat="45.84081" lon="6.77666">
        <ele>2236.64</ele>
        <time>2019-08-04T17:36:30Z</time>
      </trkpt>
      <trkpt lat="45.84081" lon="6.77664">
        <ele>2237.13</ele>
        <time>2019-08-04T17:36:31Z</time>
      </trkpt>
      <trkpt lat="45.84081" lon="6.77663">
        <ele>2237.61</ele>
        <time>2019-08-04T17:36:32Z</time>
      </trkpt>
      <trkpt lat="45.84081" lon="6.77662">
        <ele>2237.61</ele>
        <time>2019-08-04T17:36:33Z</time>
      </trkpt>
      <trkpt lat="45.84081" lon="6.7766">
        <ele>2238.09</ele>
        <time>2019-08-04T17:36:34Z</time>
      </trkpt>
      <trkpt lat="45.84081" lon="6.77658">
        <ele>2238.57</ele>
        <time>2019-08-04T17:36:35Z</time>
      </trkpt>
      <trkpt lat="45.84083" lon="6.77658">
        <ele>2238.57</ele>
        <time>2019-08-04T17:36:36Z</time>
      </trkpt>
      <trkpt lat="45.84084" lon="6.77658">
        <ele>2239.05</ele>
        <time>2019-08-04T17:36:37Z</time>
      </trkpt>
      <trkpt lat="45.84091" lon="6.77665">
        <ele>2242.41</ele>
        <time>2019-08-04T17:36:45Z</time>
      </trkpt>
      <trkpt lat="45.84095" lon="6.77666">
        <ele>2242.89</ele>
        <time>2019-08-04T17:36:47Z</time>
      </trkpt>
      <trkpt lat="45.84095" lon="6.77664">
        <ele>2243.37</ele>
        <time>2019-08-04T17:36:48Z</time>
      </trkpt>
      <trkpt lat="45.84094" lon="6.77663">
        <ele>2243.85</ele>
        <time>2019-08-04T17:36:49Z</time>
      </trkpt>
      <trkpt lat="45.84094" lon="6.7766">
        <ele>2244.82</ele>
        <time>2019-08-04T17:36:51Z</time>
      </trkpt>
      <trkpt lat="45.84093" lon="6.77658">
        <ele>2244.82</ele>
        <time>2019-08-04T17:36:52Z</time>
      </trkpt>
      <trkpt lat="45.84092" lon="6.77655">
        <ele>2244.82</ele>
        <time>2019-08-04T17:36:53Z</time>
      </trkpt>
      <trkpt lat="45.84092" lon="6.77653">
        <ele>2244.82</ele>
        <time>2019-08-04T17:36:54Z</time>
      </trkpt>
      <trkpt lat="45.84092" lon="6.7765">
        <ele>2245.3</ele>
        <time>2019-08-04T17:36:55Z</time>
      </trkpt>
      <trkpt lat="45.84092" lon="6.77649">
        <ele>2245.3</ele>
        <time>2019-08-04T17:36:56Z</time>
      </trkpt>
      <trkpt lat="45.84093" lon="6.77648">
        <ele>2245.78</ele>
        <time>2019-08-04T17:36:57Z</time>
      </trkpt>
      <trkpt lat="45.84092" lon="6.77647">
        <ele>2245.78</ele>
        <time>2019-08-04T17:36:58Z</time>
      </trkpt>
      <trkpt lat="45.84092" lon="6.77646">
        <ele>2246.26</ele>
        <time>2019-08-04T17:36:59Z</time>
      </trkpt>
      <trkpt lat="45.84092" lon="6.77644">
        <ele>2246.74</ele>
        <time>2019-08-04T17:37:00Z</time>
      </trkpt>
      <trkpt lat="45.84091" lon="6.77642">
        <ele>2247.22</ele>
        <time>2019-08-04T17:37:01Z</time>
      </trkpt>
      <trkpt lat="45.84091" lon="6.7764">
        <ele>2247.7</ele>
        <time>2019-08-04T17:37:02Z</time>
      </trkpt>
      <trkpt lat="45.84089" lon="6.77636">
        <ele>2248.18</ele>
        <time>2019-08-04T17:37:04Z</time>
      </trkpt>
      <trkpt lat="45.84088" lon="6.77634">
        <ele>2248.66</ele>
        <time>2019-08-04T17:37:05Z</time>
      </trkpt>
      <trkpt lat="45.8408" lon="6.77609">
        <ele>2249.62</ele>
        <time>2019-08-04T17:37:15Z</time>
      </trkpt>
      <trkpt lat="45.8408" lon="6.77607">
        <ele>2250.1</ele>
        <time>2019-08-04T17:37:16Z</time>
      </trkpt>
      <trkpt lat="45.84081" lon="6.77605">
        <ele>2250.1</ele>
        <time>2019-08-04T17:37:17Z</time>
      </trkpt>
      <trkpt lat="45.84081" lon="6.77604">
        <ele>2249.62</ele>
        <time>2019-08-04T17:37:18Z</time>
      </trkpt>
      <trkpt lat="45.84084" lon="6.77604">
        <ele>2249.62</ele>
        <time>2019-08-04T17:37:24Z</time>
      </trkpt>
      <trkpt lat="45.84085" lon="6.77604">
        <ele>2249.62</ele>
        <time>2019-08-04T17:37:25Z</time>
      </trkpt>
      <trkpt lat="45.84086" lon="6.77603">
        <ele>2249.62</ele>
        <time>2019-08-04T17:37:26Z</time>
      </trkpt>
      <trkpt lat="45.84091" lon="6.77603">
        <ele>2250.1</ele>
        <time>2019-08-04T17:37:34Z</time>
      </trkpt>
      <trkpt lat="45.84092" lon="6.77604">
        <ele>2249.62</ele>
        <time>2019-08-04T17:37:35Z</time>
      </trkpt>
      <trkpt lat="45.84097" lon="6.77604">
        <ele>2247.7</ele>
        <time>2019-08-04T17:37:42Z</time>
      </trkpt>
      <trkpt lat="45.84098" lon="6.77605">
        <ele>2247.22</ele>
        <time>2019-08-04T17:37:43Z</time>
      </trkpt>
      <trkpt lat="45.84099" lon="6.77606">
        <ele>2247.22</ele>
        <time>2019-08-04T17:37:44Z</time>
      </trkpt>
      <trkpt lat="45.841" lon="6.77607">
        <ele>2247.22</ele>
        <time>2019-08-04T17:37:45Z</time>
      </trkpt>
      <trkpt lat="45.84101" lon="6.77608">
        <ele>2247.22</ele>
        <time>2019-08-04T17:37:46Z</time>
      </trkpt>
      <trkpt lat="45.84102" lon="6.77608">
        <ele>2247.22</ele>
        <time>2019-08-04T17:37:47Z</time>
      </trkpt>
      <trkpt lat="45.84104" lon="6.77608">
        <ele>2247.22</ele>
        <time>2019-08-04T17:37:48Z</time>
      </trkpt>
      <trkpt lat="45.84105" lon="6.77608">
        <ele>2247.22</ele>
        <time>2019-08-04T17:37:49Z</time>
      </trkpt>
      <trkpt lat="45.84107" lon="6.77609">
        <ele>2246.74</ele>
        <time>2019-08-04T17:37:50Z</time>
      </trkpt>
      <trkpt lat="45.84108" lon="6.77609">
        <ele>2246.74</ele>
        <time>2019-08-04T17:37:51Z</time>
      </trkpt>
      <trkpt lat="45.84114" lon="6.7761">
        <ele>2248.18</ele>
        <time>2019-08-04T17:37:56Z</time>
      </trkpt>
      <trkpt lat="45.84115" lon="6.7761">
        <ele>2248.18</ele>
        <time>2019-08-04T17:37:57Z</time>
      </trkpt>
      <trkpt lat="45.84116" lon="6.7761">
        <ele>2248.18</ele>
        <time>2019-08-04T17:37:58Z</time>
      </trkpt>
      <trkpt lat="45.84118" lon="6.7761">
        <ele>2248.66</ele>
        <time>2019-08-04T17:37:59Z</time>
      </trkpt>
      <trkpt lat="45.84119" lon="6.77609">
        <ele>2248.66</ele>
        <time>2019-08-04T17:38:00Z</time>
      </trkpt>
      <trkpt lat="45.84121" lon="6.77609">
        <ele>2248.66</ele>
        <time>2019-08-04T17:38:01Z</time>
      </trkpt>
      <trkpt lat="45.84122" lon="6.77607">
        <ele>2248.18</ele>
        <time>2019-08-04T17:38:02Z</time>
      </trkpt>
      <trkpt lat="45.84124" lon="6.77606">
        <ele>2248.18</ele>
        <time>2019-08-04T17:38:03Z</time>
      </trkpt>
      <trkpt lat="45.84125" lon="6.77604">
        <ele>2247.22</ele>
        <time>2019-08-04T17:38:04Z</time>
      </trkpt>
      <trkpt lat="45.84127" lon="6.77603">
        <ele>2247.22</ele>
        <time>2019-08-04T17:38:05Z</time>
      </trkpt>
      <trkpt lat="45.84128" lon="6.77602">
        <ele>2246.74</ele>
        <time>2019-08-04T17:38:06Z</time>
      </trkpt>
      <trkpt lat="45.8413" lon="6.77602">
        <ele>2246.74</ele>
        <time>2019-08-04T17:38:07Z</time>
      </trkpt>
      <trkpt lat="45.84131" lon="6.77601">
        <ele>2246.26</ele>
        <time>2019-08-04T17:38:08Z</time>
      </trkpt>
      <trkpt lat="45.84146" lon="6.77595">
        <ele>2246.74</ele>
        <time>2019-08-04T17:38:17Z</time>
      </trkpt>
      <trkpt lat="45.8415" lon="6.77592">
        <ele>2245.78</ele>
        <time>2019-08-04T17:38:20Z</time>
      </trkpt>
      <trkpt lat="45.84151" lon="6.77591">
        <ele>2245.78</ele>
        <time>2019-08-04T17:38:21Z</time>
      </trkpt>
      <trkpt lat="45.84152" lon="6.7759">
        <ele>2245.78</ele>
        <time>2019-08-04T17:38:22Z</time>
      </trkpt>
      <trkpt lat="45.84153" lon="6.77589">
        <ele>2245.78</ele>
        <time>2019-08-04T17:38:23Z</time>
      </trkpt>
      <trkpt lat="45.84154" lon="6.77587">
        <ele>2245.3</ele>
        <time>2019-08-04T17:38:24Z</time>
      </trkpt>
      <trkpt lat="45.84158" lon="6.77582">
        <ele>2245.78</ele>
        <time>2019-08-04T17:38:28Z</time>
      </trkpt>
      <trkpt lat="45.84158" lon="6.77583">
        <ele>2246.74</ele>
        <time>2019-08-04T17:38:29Z</time>
      </trkpt>
      <trkpt lat="45.84158" lon="6.77585">
        <ele>2247.22</ele>
        <time>2019-08-04T17:38:30Z</time>
      </trkpt>
      <trkpt lat="45.84159" lon="6.77586">
        <ele>2247.22</ele>
        <time>2019-08-04T17:38:31Z</time>
      </trkpt>
      <trkpt lat="45.84159" lon="6.77587">
        <ele>2247.22</ele>
        <time>2019-08-04T17:38:32Z</time>
      </trkpt>
      <trkpt lat="45.84163" lon="6.77589">
        <ele>2249.14</ele>
        <time>2019-08-04T17:38:37Z</time>
      </trkpt>
      <trkpt lat="45.84164" lon="6.77591">
        <ele>2249.62</ele>
        <time>2019-08-04T17:38:38Z</time>
      </trkpt>
      <trkpt lat="45.84164" lon="6.77593">
        <ele>2250.1</ele>
        <time>2019-08-04T17:38:39Z</time>
      </trkpt>
      <trkpt lat="45.84164" lon="6.77594">
        <ele>2250.58</ele>
        <time>2019-08-04T17:38:40Z</time>
      </trkpt>
      <trkpt lat="45.84163" lon="6.77595">
        <ele>2250.58</ele>
        <time>2019-08-04T17:38:41Z</time>
      </trkpt>
      <trkpt lat="45.84167" lon="6.77594">
        <ele>2252.03</ele>
        <time>2019-08-04T17:38:46Z</time>
      </trkpt>
      <trkpt lat="45.84168" lon="6.77592">
        <ele>2252.99</ele>
        <time>2019-08-04T17:38:47Z</time>
      </trkpt>
      <trkpt lat="45.84169" lon="6.77591">
        <ele>2252.99</ele>
        <time>2019-08-04T17:38:48Z</time>
      </trkpt>
      <trkpt lat="45.8417" lon="6.77589">
        <ele>2252.99</ele>
        <time>2019-08-04T17:38:49Z</time>
      </trkpt>
      <trkpt lat="45.84171" lon="6.77588">
        <ele>2253.47</ele>
        <time>2019-08-04T17:38:50Z</time>
      </trkpt>
      <trkpt lat="45.84172" lon="6.77587">
        <ele>2253.47</ele>
        <time>2019-08-04T17:38:51Z</time>
      </trkpt>
      <trkpt lat="45.84173" lon="6.77586">
        <ele>2253.47</ele>
        <time>2019-08-04T17:38:52Z</time>
      </trkpt>
      <trkpt lat="45.84175" lon="6.77585">
        <ele>2253.47</ele>
        <time>2019-08-04T17:38:53Z</time>
      </trkpt>
      <trkpt lat="45.84177" lon="6.77584">
        <ele>2253.95</ele>
        <time>2019-08-04T17:38:54Z</time>
      </trkpt>
      <trkpt lat="45.84178" lon="6.77584">
        <ele>2253.95</ele>
        <time>2019-08-04T17:38:55Z</time>
      </trkpt>
      <trkpt lat="45.84179" lon="6.77583">
        <ele>2254.43</ele>
        <time>2019-08-04T17:38:57Z</time>
      </trkpt>
      <trkpt lat="45.8418" lon="6.77581">
        <ele>2254.43</ele>
        <time>2019-08-04T17:38:59Z</time>
      </trkpt>
      <trkpt lat="45.8418" lon="6.77578">
        <ele>2254.43</ele>
        <time>2019-08-04T17:39:00Z</time>
      </trkpt>
      <trkpt lat="45.8418" lon="6.77576">
        <ele>2254.43</ele>
        <time>2019-08-04T17:39:01Z</time>
      </trkpt>
      <trkpt lat="45.84176" lon="6.7755">
        <ele>2252.99</ele>
        <time>2019-08-04T17:39:11Z</time>
      </trkpt>
      <trkpt lat="45.84176" lon="6.77548">
        <ele>2252.51</ele>
        <time>2019-08-04T17:39:12Z</time>
      </trkpt>
      <trkpt lat="45.84179" lon="6.77543">
        <ele>2250.58</ele>
        <time>2019-08-04T17:39:21Z</time>
      </trkpt>
      <trkpt lat="45.8418" lon="6.77541">
        <ele>2250.1</ele>
        <time>2019-08-04T17:39:22Z</time>
      </trkpt>
      <trkpt lat="45.8418" lon="6.77539">
        <ele>2250.1</ele>
        <time>2019-08-04T17:39:23Z</time>
      </trkpt>
      <trkpt lat="45.84181" lon="6.77537">
        <ele>2250.1</ele>
        <time>2019-08-04T17:39:24Z</time>
      </trkpt>
      <trkpt lat="45.84181" lon="6.77534">
        <ele>2250.58</ele>
        <time>2019-08-04T17:39:25Z</time>
      </trkpt>
      <trkpt lat="45.84181" lon="6.77531">
        <ele>2250.58</ele>
        <time>2019-08-04T17:39:26Z</time>
      </trkpt>
      <trkpt lat="45.8418" lon="6.77529">
        <ele>2251.06</ele>
        <time>2019-08-04T17:39:27Z</time>
      </trkpt>
      <trkpt lat="45.84173" lon="6.77517">
        <ele>2250.58</ele>
        <time>2019-08-04T17:39:36Z</time>
      </trkpt>
      <trkpt lat="45.84173" lon="6.77516">
        <ele>2250.1</ele>
        <time>2019-08-04T17:39:37Z</time>
      </trkpt>
      <trkpt lat="45.84173" lon="6.77514">
        <ele>2249.62</ele>
        <time>2019-08-04T17:39:38Z</time>
      </trkpt>
      <trkpt lat="45.84174" lon="6.77512">
        <ele>2249.62</ele>
        <time>2019-08-04T17:39:40Z</time>
      </trkpt>
      <trkpt lat="45.84176" lon="6.7751">
        <ele>2249.62</ele>
        <time>2019-08-04T17:39:42Z</time>
      </trkpt>
      <trkpt lat="45.8418" lon="6.77509">
        <ele>2251.06</ele>
        <time>2019-08-04T17:39:51Z</time>
      </trkpt>
      <trkpt lat="45.84181" lon="6.77509">
        <ele>2251.06</ele>
        <time>2019-08-04T17:39:52Z</time>
      </trkpt>
      <trkpt lat="45.84183" lon="6.77509">
        <ele>2251.54</ele>
        <time>2019-08-04T17:39:53Z</time>
      </trkpt>
      <trkpt lat="45.84184" lon="6.77509">
        <ele>2252.03</ele>
        <time>2019-08-04T17:39:54Z</time>
      </trkpt>
      <trkpt lat="45.84185" lon="6.77509">
        <ele>2252.03</ele>
        <time>2019-08-04T17:39:55Z</time>
      </trkpt>
      <trkpt lat="45.84195" lon="6.77508">
        <ele>2255.39</ele>
        <time>2019-08-04T17:40:03Z</time>
      </trkpt>
      <trkpt lat="45.84201" lon="6.77504">
        <ele>2256.35</ele>
        <time>2019-08-04T17:40:08Z</time>
      </trkpt>
      <trkpt lat="45.84207" lon="6.77502">
        <ele>2257.31</ele>
        <time>2019-08-04T17:40:12Z</time>
      </trkpt>
      <trkpt lat="45.84209" lon="6.77501">
        <ele>2257.31</ele>
        <time>2019-08-04T17:40:13Z</time>
      </trkpt>
      <trkpt lat="45.84216" lon="6.77492">
        <ele>2256.83</ele>
        <time>2019-08-04T17:40:18Z</time>
      </trkpt>
      <trkpt lat="45.84217" lon="6.7749">
        <ele>2256.83</ele>
        <time>2019-08-04T17:40:19Z</time>
      </trkpt>
      <trkpt lat="45.84218" lon="6.77489">
        <ele>2257.31</ele>
        <time>2019-08-04T17:40:20Z</time>
      </trkpt>
      <trkpt lat="45.84225" lon="6.77472">
        <ele>2257.79</ele>
        <time>2019-08-04T17:40:32Z</time>
      </trkpt>
      <trkpt lat="45.84224" lon="6.77469">
        <ele>2256.83</ele>
        <time>2019-08-04T17:40:38Z</time>
      </trkpt>
      <trkpt lat="45.84224" lon="6.77466">
        <ele>2254.91</ele>
        <time>2019-08-04T17:40:45Z</time>
      </trkpt>
      <trkpt lat="45.84224" lon="6.77465">
        <ele>2253.47</ele>
        <time>2019-08-04T17:40:46Z</time>
      </trkpt>
      <trkpt lat="45.84225" lon="6.77464">
        <ele>2252.99</ele>
        <time>2019-08-04T17:40:48Z</time>
      </trkpt>
      <trkpt lat="45.84226" lon="6.7746">
        <ele>2252.03</ele>
        <time>2019-08-04T17:40:51Z</time>
      </trkpt>
      <trkpt lat="45.84226" lon="6.77458">
        <ele>2251.06</ele>
        <time>2019-08-04T17:40:52Z</time>
      </trkpt>
      <trkpt lat="45.84227" lon="6.77456">
        <ele>2249.62</ele>
        <time>2019-08-04T17:40:54Z</time>
      </trkpt>
      <trkpt lat="45.84226" lon="6.77457">
        <ele>2249.14</ele>
        <time>2019-08-04T17:40:55Z</time>
      </trkpt>
      <trkpt lat="45.84225" lon="6.77458">
        <ele>2248.66</ele>
        <time>2019-08-04T17:40:56Z</time>
      </trkpt>
      <trkpt lat="45.84224" lon="6.77458">
        <ele>2248.66</ele>
        <time>2019-08-04T17:40:57Z</time>
      </trkpt>
      <trkpt lat="45.84223" lon="6.77457">
        <ele>2247.7</ele>
        <time>2019-08-04T17:40:58Z</time>
      </trkpt>
      <trkpt lat="45.84223" lon="6.77455">
        <ele>2247.22</ele>
        <time>2019-08-04T17:40:59Z</time>
      </trkpt>
      <trkpt lat="45.84224" lon="6.77453">
        <ele>2246.74</ele>
        <time>2019-08-04T17:41:00Z</time>
      </trkpt>
      <trkpt lat="45.84224" lon="6.77451">
        <ele>2246.26</ele>
        <time>2019-08-04T17:41:01Z</time>
      </trkpt>
      <trkpt lat="45.84226" lon="6.77438">
        <ele>2242.89</ele>
        <time>2019-08-04T17:41:06Z</time>
      </trkpt>
      <trkpt lat="45.84227" lon="6.77426">
        <ele>2240.97</ele>
        <time>2019-08-04T17:41:09Z</time>
      </trkpt>
      <trkpt lat="45.84227" lon="6.77413">
        <ele>2241.45</ele>
        <time>2019-08-04T17:41:13Z</time>
      </trkpt>
      <trkpt lat="45.84235" lon="6.77399">
        <ele>2240.97</ele>
        <time>2019-08-04T17:41:25Z</time>
      </trkpt>
      <trkpt lat="45.84235" lon="6.77397">
        <ele>2240.97</ele>
        <time>2019-08-04T17:41:26Z</time>
      </trkpt>
      <trkpt lat="45.84236" lon="6.77397">
        <ele>2240.49</ele>
        <time>2019-08-04T17:41:27Z</time>
      </trkpt>
      <trkpt lat="45.84237" lon="6.77397">
        <ele>2240.01</ele>
        <time>2019-08-04T17:41:28Z</time>
      </trkpt>
      <trkpt lat="45.84239" lon="6.77398">
        <ele>2240.01</ele>
        <time>2019-08-04T17:41:29Z</time>
      </trkpt>
      <trkpt lat="45.84244" lon="6.774">
        <ele>2238.09</ele>
        <time>2019-08-04T17:41:33Z</time>
      </trkpt>
      <trkpt lat="45.84245" lon="6.77399">
        <ele>2237.61</ele>
        <time>2019-08-04T17:41:34Z</time>
      </trkpt>
      <trkpt lat="45.84246" lon="6.77399">
        <ele>2237.13</ele>
        <time>2019-08-04T17:41:35Z</time>
      </trkpt>
      <trkpt lat="45.84249" lon="6.77395">
        <ele>2235.2</ele>
        <time>2019-08-04T17:41:40Z</time>
      </trkpt>
      <trkpt lat="45.8425" lon="6.77394">
        <ele>2234.24</ele>
        <time>2019-08-04T17:41:41Z</time>
      </trkpt>
      <trkpt lat="45.84253" lon="6.77393">
        <ele>2233.76</ele>
        <time>2019-08-04T17:41:42Z</time>
      </trkpt>
      <trkpt lat="45.84256" lon="6.77393">
        <ele>2233.76</ele>
        <time>2019-08-04T17:41:43Z</time>
      </trkpt>
      <trkpt lat="45.84258" lon="6.77392">
        <ele>2232.8</ele>
        <time>2019-08-04T17:41:44Z</time>
      </trkpt>
      <trkpt lat="45.8426" lon="6.77391">
        <ele>2232.32</ele>
        <time>2019-08-04T17:41:45Z</time>
      </trkpt>
      <trkpt lat="45.84262" lon="6.7739">
        <ele>2232.32</ele>
        <time>2019-08-04T17:41:46Z</time>
      </trkpt>
      <trkpt lat="45.84264" lon="6.77389">
        <ele>2232.32</ele>
        <time>2019-08-04T17:41:47Z</time>
      </trkpt>
      <trkpt lat="45.84266" lon="6.77387">
        <ele>2230.88</ele>
        <time>2019-08-04T17:41:49Z</time>
      </trkpt>
      <trkpt lat="45.84265" lon="6.77384">
        <ele>2229.43</ele>
        <time>2019-08-04T17:41:52Z</time>
      </trkpt>
      <trkpt lat="45.84264" lon="6.77383">
        <ele>2228.95</ele>
        <time>2019-08-04T17:41:53Z</time>
      </trkpt>
      <trkpt lat="45.84265" lon="6.77382">
        <ele>2228.47</ele>
        <time>2019-08-04T17:41:54Z</time>
      </trkpt>
      <trkpt lat="45.84266" lon="6.77381">
        <ele>2227.99</ele>
        <time>2019-08-04T17:41:55Z</time>
      </trkpt>
      <trkpt lat="45.84267" lon="6.77379">
        <ele>2227.99</ele>
        <time>2019-08-04T17:41:56Z</time>
      </trkpt>
      <trkpt lat="45.8427" lon="6.77377">
        <ele>2227.03</ele>
        <time>2019-08-04T17:41:57Z</time>
      </trkpt>
      <trkpt lat="45.84272" lon="6.77375">
        <ele>2227.03</ele>
        <time>2019-08-04T17:41:58Z</time>
      </trkpt>
      <trkpt lat="45.84275" lon="6.77372">
        <ele>2226.55</ele>
        <time>2019-08-04T17:41:59Z</time>
      </trkpt>
      <trkpt lat="45.84277" lon="6.7737">
        <ele>2226.07</ele>
        <time>2019-08-04T17:42:00Z</time>
      </trkpt>
      <trkpt lat="45.84278" lon="6.77367">
        <ele>2225.59</ele>
        <time>2019-08-04T17:42:01Z</time>
      </trkpt>
      <trkpt lat="45.84279" lon="6.77366">
        <ele>2225.11</ele>
        <time>2019-08-04T17:42:02Z</time>
      </trkpt>
      <trkpt lat="45.8428" lon="6.77364">
        <ele>2224.63</ele>
        <time>2019-08-04T17:42:03Z</time>
      </trkpt>
      <trkpt lat="45.8428" lon="6.77364">
        <ele>2224.63</ele>
        <time>2019-08-04T17:42:04Z</time>
      </trkpt>
      <trkpt lat="45.84295" lon="6.77352">
        <ele>2222.71</ele>
        <time>2019-08-04T17:42:15Z</time>
      </trkpt>
      <trkpt lat="45.84297" lon="6.77351">
        <ele>2222.22</ele>
        <time>2019-08-04T17:42:16Z</time>
      </trkpt>
      <trkpt lat="45.84299" lon="6.77349">
        <ele>2221.74</ele>
        <time>2019-08-04T17:42:17Z</time>
      </trkpt>
      <trkpt lat="45.843" lon="6.77347">
        <ele>2221.26</ele>
        <time>2019-08-04T17:42:18Z</time>
      </trkpt>
      <trkpt lat="45.84302" lon="6.77345">
        <ele>2220.78</ele>
        <time>2019-08-04T17:42:19Z</time>
      </trkpt>
      <trkpt lat="45.84302" lon="6.77344">
        <ele>2220.3</ele>
        <time>2019-08-04T17:42:20Z</time>
      </trkpt>
      <trkpt lat="45.84303" lon="6.77343">
        <ele>2220.3</ele>
        <time>2019-08-04T17:42:21Z</time>
      </trkpt>
      <trkpt lat="45.84299" lon="6.77346">
        <ele>2219.34</ele>
        <time>2019-08-04T17:42:37Z</time>
      </trkpt>
      <trkpt lat="45.84298" lon="6.77346">
        <ele>2218.86</ele>
        <time>2019-08-04T17:42:38Z</time>
      </trkpt>
      <trkpt lat="45.84295" lon="6.77341">
        <ele>2215.5</ele>
        <time>2019-08-04T17:42:44Z</time>
      </trkpt>
      <trkpt lat="45.84296" lon="6.77339">
        <ele>2215.01</ele>
        <time>2019-08-04T17:42:45Z</time>
      </trkpt>
      <trkpt lat="45.84297" lon="6.77337">
        <ele>2214.53</ele>
        <time>2019-08-04T17:42:46Z</time>
      </trkpt>
      <trkpt lat="45.84297" lon="6.77336">
        <ele>2214.53</ele>
        <time>2019-08-04T17:42:47Z</time>
      </trkpt>
      <trkpt lat="45.84296" lon="6.77335">
        <ele>2212.13</ele>
        <time>2019-08-04T17:42:51Z</time>
      </trkpt>
      <trkpt lat="45.84295" lon="6.77334">
        <ele>2211.65</ele>
        <time>2019-08-04T17:42:52Z</time>
      </trkpt>
      <trkpt lat="45.84294" lon="6.77333">
        <ele>2210.69</ele>
        <time>2019-08-04T17:42:53Z</time>
      </trkpt>
      <trkpt lat="45.8429" lon="6.77327">
        <ele>2208.29</ele>
        <time>2019-08-04T17:42:57Z</time>
      </trkpt>
      <trkpt lat="45.84289" lon="6.77325">
        <ele>2207.81</ele>
        <time>2019-08-04T17:42:58Z</time>
      </trkpt>
      <trkpt lat="45.8429" lon="6.77324">
        <ele>2207.32</ele>
        <time>2019-08-04T17:42:59Z</time>
      </trkpt>
      <trkpt lat="45.84297" lon="6.77319">
        <ele>2203.96</ele>
        <time>2019-08-04T17:43:05Z</time>
      </trkpt>
      <trkpt lat="45.84296" lon="6.77317">
        <ele>2202.04</ele>
        <time>2019-08-04T17:43:09Z</time>
      </trkpt>
      <trkpt lat="45.84292" lon="6.77314">
        <ele>2200.59</ele>
        <time>2019-08-04T17:43:12Z</time>
      </trkpt>
      <trkpt lat="45.84294" lon="6.77314">
        <ele>2200.59</ele>
        <time>2019-08-04T17:43:13Z</time>
      </trkpt>
      <trkpt lat="45.84295" lon="6.77313">
        <ele>2199.63</ele>
        <time>2019-08-04T17:43:14Z</time>
      </trkpt>
      <trkpt lat="45.84297" lon="6.77312">
        <ele>2199.63</ele>
        <time>2019-08-04T17:43:15Z</time>
      </trkpt>
      <trkpt lat="45.84298" lon="6.77311">
        <ele>2199.63</ele>
        <time>2019-08-04T17:43:16Z</time>
      </trkpt>
      <trkpt lat="45.84299" lon="6.7731">
        <ele>2198.19</ele>
        <time>2019-08-04T17:43:17Z</time>
      </trkpt>
      <trkpt lat="45.843" lon="6.77308">
        <ele>2198.19</ele>
        <time>2019-08-04T17:43:18Z</time>
      </trkpt>
      <trkpt lat="45.84302" lon="6.77306">
        <ele>2196.27</ele>
        <time>2019-08-04T17:43:21Z</time>
      </trkpt>
      <trkpt lat="45.84301" lon="6.77305">
        <ele>2196.27</ele>
        <time>2019-08-04T17:43:22Z</time>
      </trkpt>
      <trkpt lat="45.843" lon="6.77303">
        <ele>2195.79</ele>
        <time>2019-08-04T17:43:23Z</time>
      </trkpt>
      <trkpt lat="45.843" lon="6.77301">
        <ele>2195.31</ele>
        <time>2019-08-04T17:43:24Z</time>
      </trkpt>
      <trkpt lat="45.84301" lon="6.773">
        <ele>2194.35</ele>
        <time>2019-08-04T17:43:25Z</time>
      </trkpt>
      <trkpt lat="45.84303" lon="6.77301">
        <ele>2193.39</ele>
        <time>2019-08-04T17:43:26Z</time>
      </trkpt>
      <trkpt lat="45.84306" lon="6.77302">
        <ele>2192.42</ele>
        <time>2019-08-04T17:43:27Z</time>
      </trkpt>
      <trkpt lat="45.84308" lon="6.77303">
        <ele>2192.42</ele>
        <time>2019-08-04T17:43:28Z</time>
      </trkpt>
      <trkpt lat="45.84311" lon="6.77303">
        <ele>2191.46</ele>
        <time>2019-08-04T17:43:29Z</time>
      </trkpt>
      <trkpt lat="45.84314" lon="6.77303">
        <ele>2190.98</ele>
        <time>2019-08-04T17:43:31Z</time>
      </trkpt>
      <trkpt lat="45.84322" lon="6.77297">
        <ele>2189.06</ele>
        <time>2019-08-04T17:43:36Z</time>
      </trkpt>
      <trkpt lat="45.84323" lon="6.77296">
        <ele>2188.58</ele>
        <time>2019-08-04T17:43:37Z</time>
      </trkpt>
      <trkpt lat="45.84321" lon="6.77295">
        <ele>2187.14</ele>
        <time>2019-08-04T17:43:40Z</time>
      </trkpt>
      <trkpt lat="45.84319" lon="6.77295">
        <ele>2186.18</ele>
        <time>2019-08-04T17:43:41Z</time>
      </trkpt>
      <trkpt lat="45.84319" lon="6.77294">
        <ele>2185.69</ele>
        <time>2019-08-04T17:43:42Z</time>
      </trkpt>
      <trkpt lat="45.84317" lon="6.77291">
        <ele>2183.77</ele>
        <time>2019-08-04T17:43:46Z</time>
      </trkpt>
      <trkpt lat="45.84317" lon="6.77289">
        <ele>2183.29</ele>
        <time>2019-08-04T17:43:47Z</time>
      </trkpt>
      <trkpt lat="45.84317" lon="6.77288">
        <ele>2182.81</ele>
        <time>2019-08-04T17:43:48Z</time>
      </trkpt>
      <trkpt lat="45.84316" lon="6.77287">
        <ele>2181.85</ele>
        <time>2019-08-04T17:43:49Z</time>
      </trkpt>
      <trkpt lat="45.84314" lon="6.77286">
        <ele>2181.37</ele>
        <time>2019-08-04T17:43:50Z</time>
      </trkpt>
      <trkpt lat="45.84312" lon="6.77284">
        <ele>2181.37</ele>
        <time>2019-08-04T17:43:51Z</time>
      </trkpt>
      <trkpt lat="45.84311" lon="6.77282">
        <ele>2180.89</ele>
        <time>2019-08-04T17:43:52Z</time>
      </trkpt>
      <trkpt lat="45.8431" lon="6.7728">
        <ele>2179.93</ele>
        <time>2019-08-04T17:43:53Z</time>
      </trkpt>
      <trkpt lat="45.84309" lon="6.77278">
        <ele>2179.45</ele>
        <time>2019-08-04T17:43:54Z</time>
      </trkpt>
      <trkpt lat="45.84308" lon="6.77276">
        <ele>2178.97</ele>
        <time>2019-08-04T17:43:55Z</time>
      </trkpt>
      <trkpt lat="45.84307" lon="6.77275">
        <ele>2178.97</ele>
        <time>2019-08-04T17:43:56Z</time>
      </trkpt>
      <trkpt lat="45.84306" lon="6.77273">
        <ele>2178</ele>
        <time>2019-08-04T17:43:57Z</time>
      </trkpt>
      <trkpt lat="45.84305" lon="6.77273">
        <ele>2177.52</ele>
        <time>2019-08-04T17:43:58Z</time>
      </trkpt>
      <trkpt lat="45.84304" lon="6.77271">
        <ele>2177.04</ele>
        <time>2019-08-04T17:43:59Z</time>
      </trkpt>
      <trkpt lat="45.84303" lon="6.77271">
        <ele>2176.08</ele>
        <time>2019-08-04T17:44:00Z</time>
      </trkpt>
      <trkpt lat="45.843" lon="6.77272">
        <ele>2175.12</ele>
        <time>2019-08-04T17:44:02Z</time>
      </trkpt>
      <trkpt lat="45.84298" lon="6.77272">
        <ele>2174.64</ele>
        <time>2019-08-04T17:44:03Z</time>
      </trkpt>
      <trkpt lat="45.84292" lon="6.77274">
        <ele>2172.72</ele>
        <time>2019-08-04T17:44:08Z</time>
      </trkpt>
      <trkpt lat="45.84291" lon="6.77275">
        <ele>2172.72</ele>
        <time>2019-08-04T17:44:09Z</time>
      </trkpt>
      <trkpt lat="45.8429" lon="6.77275">
        <ele>2172.72</ele>
        <time>2019-08-04T17:44:10Z</time>
      </trkpt>
      <trkpt lat="45.84288" lon="6.77275">
        <ele>2171.76</ele>
        <time>2019-08-04T17:44:11Z</time>
      </trkpt>
      <trkpt lat="45.84287" lon="6.77275">
        <ele>2170.79</ele>
        <time>2019-08-04T17:44:12Z</time>
      </trkpt>
      <trkpt lat="45.84286" lon="6.77275">
        <ele>2170.31</ele>
        <time>2019-08-04T17:44:13Z</time>
      </trkpt>
      <trkpt lat="45.84285" lon="6.77276">
        <ele>2169.83</ele>
        <time>2019-08-04T17:44:14Z</time>
      </trkpt>
      <trkpt lat="45.84284" lon="6.77275">
        <ele>2169.35</ele>
        <time>2019-08-04T17:44:15Z</time>
      </trkpt>
      <trkpt lat="45.84284" lon="6.77273">
        <ele>2168.39</ele>
        <time>2019-08-04T17:44:16Z</time>
      </trkpt>
      <trkpt lat="45.84285" lon="6.77271">
        <ele>2167.43</ele>
        <time>2019-08-04T17:44:17Z</time>
      </trkpt>
      <trkpt lat="45.84286" lon="6.77269">
        <ele>2166.95</ele>
        <time>2019-08-04T17:44:18Z</time>
      </trkpt>
      <trkpt lat="45.84287" lon="6.77266">
        <ele>2165.99</ele>
        <time>2019-08-04T17:44:20Z</time>
      </trkpt>
      <trkpt lat="45.84287" lon="6.77265">
        <ele>2165.51</ele>
        <time>2019-08-04T17:44:21Z</time>
      </trkpt>
      <trkpt lat="45.84287" lon="6.77264">
        <ele>2165.03</ele>
        <time>2019-08-04T17:44:22Z</time>
      </trkpt>
      <trkpt lat="45.84288" lon="6.77262">
        <ele>2164.55</ele>
        <time>2019-08-04T17:44:23Z</time>
      </trkpt>
      <trkpt lat="45.84288" lon="6.77261">
        <ele>2164.06</ele>
        <time>2019-08-04T17:44:24Z</time>
      </trkpt>
      <trkpt lat="45.84289" lon="6.77259">
        <ele>2163.58</ele>
        <time>2019-08-04T17:44:25Z</time>
      </trkpt>
      <trkpt lat="45.8429" lon="6.77258">
        <ele>2163.58</ele>
        <time>2019-08-04T17:44:26Z</time>
      </trkpt>
      <trkpt lat="45.84291" lon="6.77257">
        <ele>2163.1</ele>
        <time>2019-08-04T17:44:27Z</time>
      </trkpt>
      <trkpt lat="45.84292" lon="6.77255">
        <ele>2162.62</ele>
        <time>2019-08-04T17:44:30Z</time>
      </trkpt>
      <trkpt lat="45.84293" lon="6.77253">
        <ele>2162.62</ele>
        <time>2019-08-04T17:44:31Z</time>
      </trkpt>
      <trkpt lat="45.84293" lon="6.77252">
        <ele>2161.66</ele>
        <time>2019-08-04T17:44:32Z</time>
      </trkpt>
      <trkpt lat="45.84294" lon="6.7725">
        <ele>2161.18</ele>
        <time>2019-08-04T17:44:33Z</time>
      </trkpt>
      <trkpt lat="45.84294" lon="6.77249">
        <ele>2160.7</ele>
        <time>2019-08-04T17:44:34Z</time>
      </trkpt>
      <trkpt lat="45.84295" lon="6.77247">
        <ele>2160.22</ele>
        <time>2019-08-04T17:44:35Z</time>
      </trkpt>
      <trkpt lat="45.84296" lon="6.77247">
        <ele>2159.26</ele>
        <time>2019-08-04T17:44:36Z</time>
      </trkpt>
      <trkpt lat="45.84298" lon="6.77247">
        <ele>2158.78</ele>
        <time>2019-08-04T17:44:37Z</time>
      </trkpt>
      <trkpt lat="45.843" lon="6.77248">
        <ele>2158.78</ele>
        <time>2019-08-04T17:44:38Z</time>
      </trkpt>
      <trkpt lat="45.84303" lon="6.77249">
        <ele>2158.3</ele>
        <time>2019-08-04T17:44:39Z</time>
      </trkpt>
      <trkpt lat="45.84305" lon="6.77251">
        <ele>2158.3</ele>
        <time>2019-08-04T17:44:40Z</time>
      </trkpt>
      <trkpt lat="45.84307" lon="6.77252">
        <ele>2158.3</ele>
        <time>2019-08-04T17:44:41Z</time>
      </trkpt>
      <trkpt lat="45.84309" lon="6.77253">
        <ele>2157.82</ele>
        <time>2019-08-04T17:44:42Z</time>
      </trkpt>
      <trkpt lat="45.84311" lon="6.77254">
        <ele>2157.34</ele>
        <time>2019-08-04T17:44:43Z</time>
      </trkpt>
      <trkpt lat="45.84324" lon="6.77252">
        <ele>2158.3</ele>
        <time>2019-08-04T17:44:52Z</time>
      </trkpt>
      <trkpt lat="45.84332" lon="6.77249">
        <ele>2159.74</ele>
        <time>2019-08-04T17:44:57Z</time>
      </trkpt>
      <trkpt lat="45.84334" lon="6.77249">
        <ele>2159.74</ele>
        <time>2019-08-04T17:44:58Z</time>
      </trkpt>
      <trkpt lat="45.84352" lon="6.77254">
        <ele>2161.18</ele>
        <time>2019-08-04T17:45:10Z</time>
      </trkpt>
      <trkpt lat="45.84353" lon="6.77255">
        <ele>2161.18</ele>
        <time>2019-08-04T17:45:11Z</time>
      </trkpt>
      <trkpt lat="45.84364" lon="6.77262">
        <ele>2160.7</ele>
        <time>2019-08-04T17:45:17Z</time>
      </trkpt>
      <trkpt lat="45.84366" lon="6.77262">
        <ele>2161.18</ele>
        <time>2019-08-04T17:45:18Z</time>
      </trkpt>
      <trkpt lat="45.84368" lon="6.77263">
        <ele>2161.18</ele>
        <time>2019-08-04T17:45:19Z</time>
      </trkpt>
      <trkpt lat="45.84369" lon="6.77265">
        <ele>2161.18</ele>
        <time>2019-08-04T17:45:20Z</time>
      </trkpt>
      <trkpt lat="45.8437" lon="6.77267">
        <ele>2161.18</ele>
        <time>2019-08-04T17:45:21Z</time>
      </trkpt>
      <trkpt lat="45.84372" lon="6.77268">
        <ele>2161.18</ele>
        <time>2019-08-04T17:45:22Z</time>
      </trkpt>
      <trkpt lat="45.84373" lon="6.77268">
        <ele>2161.18</ele>
        <time>2019-08-04T17:45:23Z</time>
      </trkpt>
      <trkpt lat="45.84377" lon="6.77268">
        <ele>2161.66</ele>
        <time>2019-08-04T17:45:33Z</time>
      </trkpt>
      <trkpt lat="45.84387" lon="6.77242">
        <ele>2159.26</ele>
        <time>2019-08-04T17:45:47Z</time>
      </trkpt>
      <trkpt lat="45.84404" lon="6.77227">
        <ele>2157.34</ele>
        <time>2019-08-04T17:45:56Z</time>
      </trkpt>
      <trkpt lat="45.84417" lon="6.77205">
        <ele>2155.41</ele>
        <time>2019-08-04T17:46:03Z</time>
      </trkpt>
      <trkpt lat="45.84431" lon="6.77185">
        <ele>2153.01</ele>
        <time>2019-08-04T17:46:10Z</time>
      </trkpt>
      <trkpt lat="45.84448" lon="6.77166">
        <ele>2152.05</ele>
        <time>2019-08-04T17:46:18Z</time>
      </trkpt>
      <trkpt lat="45.84453" lon="6.77163">
        <ele>2150.61</ele>
        <time>2019-08-04T17:46:21Z</time>
      </trkpt>
      <trkpt lat="45.84455" lon="6.77162">
        <ele>2150.61</ele>
        <time>2019-08-04T17:46:22Z</time>
      </trkpt>
      <trkpt lat="45.84458" lon="6.77163">
        <ele>2150.13</ele>
        <time>2019-08-04T17:46:23Z</time>
      </trkpt>
      <trkpt lat="45.8446" lon="6.77163">
        <ele>2150.13</ele>
        <time>2019-08-04T17:46:24Z</time>
      </trkpt>
      <trkpt lat="45.84462" lon="6.77164">
        <ele>2149.65</ele>
        <time>2019-08-04T17:46:25Z</time>
      </trkpt>
      <trkpt lat="45.84464" lon="6.77166">
        <ele>2150.13</ele>
        <time>2019-08-04T17:46:26Z</time>
      </trkpt>
      <trkpt lat="45.84465" lon="6.77167">
        <ele>2150.13</ele>
        <time>2019-08-04T17:46:27Z</time>
      </trkpt>
      <trkpt lat="45.84485" lon="6.77175">
        <ele>2149.65</ele>
        <time>2019-08-04T17:46:35Z</time>
      </trkpt>
      <trkpt lat="45.84505" lon="6.77184">
        <ele>2148.2</ele>
        <time>2019-08-04T17:46:44Z</time>
      </trkpt>
      <trkpt lat="45.84522" lon="6.77174">
        <ele>2146.76</ele>
        <time>2019-08-04T17:46:52Z</time>
      </trkpt>
      <trkpt lat="45.84543" lon="6.77169">
        <ele>2143.88</ele>
        <time>2019-08-04T17:47:00Z</time>
      </trkpt>
      <trkpt lat="45.84556" lon="6.77173">
        <ele>2142.44</ele>
        <time>2019-08-04T17:47:05Z</time>
      </trkpt>
      <trkpt lat="45.84561" lon="6.7718">
        <ele>2141.47</ele>
        <time>2019-08-04T17:47:09Z</time>
      </trkpt>
      <trkpt lat="45.84563" lon="6.77182">
        <ele>2140.99</ele>
        <time>2019-08-04T17:47:12Z</time>
      </trkpt>
      <trkpt lat="45.84565" lon="6.77181">
        <ele>2140.51</ele>
        <time>2019-08-04T17:47:13Z</time>
      </trkpt>
      <trkpt lat="45.84566" lon="6.7718">
        <ele>2140.03</ele>
        <time>2019-08-04T17:47:14Z</time>
      </trkpt>
      <trkpt lat="45.84568" lon="6.77179">
        <ele>2139.55</ele>
        <time>2019-08-04T17:47:15Z</time>
      </trkpt>
      <trkpt lat="45.8457" lon="6.77178">
        <ele>2139.07</ele>
        <time>2019-08-04T17:47:16Z</time>
      </trkpt>
      <trkpt lat="45.84573" lon="6.77177">
        <ele>2138.59</ele>
        <time>2019-08-04T17:47:17Z</time>
      </trkpt>
      <trkpt lat="45.84576" lon="6.77178">
        <ele>2138.11</ele>
        <time>2019-08-04T17:47:18Z</time>
      </trkpt>
      <trkpt lat="45.84587" lon="6.77173">
        <ele>2136.19</ele>
        <time>2019-08-04T17:47:22Z</time>
      </trkpt>
      <trkpt lat="45.84605" lon="6.7716">
        <ele>2137.15</ele>
        <time>2019-08-04T17:47:31Z</time>
      </trkpt>
      <trkpt lat="45.84623" lon="6.77151">
        <ele>2136.19</ele>
        <time>2019-08-04T17:47:40Z</time>
      </trkpt>
      <trkpt lat="45.84625" lon="6.77151">
        <ele>2135.71</ele>
        <time>2019-08-04T17:47:41Z</time>
      </trkpt>
      <trkpt lat="45.84627" lon="6.77151">
        <ele>2135.71</ele>
        <time>2019-08-04T17:47:42Z</time>
      </trkpt>
      <trkpt lat="45.84629" lon="6.77151">
        <ele>2135.71</ele>
        <time>2019-08-04T17:47:43Z</time>
      </trkpt>
      <trkpt lat="45.84648" lon="6.77155">
        <ele>2133.78</ele>
        <time>2019-08-04T17:47:52Z</time>
      </trkpt>
      <trkpt lat="45.84659" lon="6.77149">
        <ele>2131.86</ele>
        <time>2019-08-04T17:47:58Z</time>
      </trkpt>
      <trkpt lat="45.84674" lon="6.77146">
        <ele>2129.46</ele>
        <time>2019-08-04T17:48:06Z</time>
      </trkpt>
      <trkpt lat="45.8468" lon="6.77134">
        <ele>2127.05</ele>
        <time>2019-08-04T17:48:12Z</time>
      </trkpt>
      <trkpt lat="45.8468" lon="6.7713">
        <ele>2126.57</ele>
        <time>2019-08-04T17:48:13Z</time>
      </trkpt>
      <trkpt lat="45.84681" lon="6.77127">
        <ele>2126.57</ele>
        <time>2019-08-04T17:48:14Z</time>
      </trkpt>
      <trkpt lat="45.84683" lon="6.77125">
        <ele>2126.57</ele>
        <time>2019-08-04T17:48:15Z</time>
      </trkpt>
      <trkpt lat="45.84685" lon="6.77123">
        <ele>2126.09</ele>
        <time>2019-08-04T17:48:16Z</time>
      </trkpt>
      <trkpt lat="45.84687" lon="6.77123">
        <ele>2126.09</ele>
        <time>2019-08-04T17:48:17Z</time>
      </trkpt>
      <trkpt lat="45.84689" lon="6.77122">
        <ele>2126.09</ele>
        <time>2019-08-04T17:48:18Z</time>
      </trkpt>
      <trkpt lat="45.84692" lon="6.77122">
        <ele>2125.61</ele>
        <time>2019-08-04T17:48:19Z</time>
      </trkpt>
      <trkpt lat="45.84696" lon="6.77122">
        <ele>2124.17</ele>
        <time>2019-08-04T17:48:21Z</time>
      </trkpt>
      <trkpt lat="45.84702" lon="6.7712">
        <ele>2123.21</ele>
        <time>2019-08-04T17:48:24Z</time>
      </trkpt>
      <trkpt lat="45.84704" lon="6.77118">
        <ele>2122.73</ele>
        <time>2019-08-04T17:48:25Z</time>
      </trkpt>
      <trkpt lat="45.84705" lon="6.77117">
        <ele>2121.77</ele>
        <time>2019-08-04T17:48:26Z</time>
      </trkpt>
      <trkpt lat="45.84707" lon="6.77116">
        <ele>2121.29</ele>
        <time>2019-08-04T17:48:27Z</time>
      </trkpt>
      <trkpt lat="45.84709" lon="6.77115">
        <ele>2120.81</ele>
        <time>2019-08-04T17:48:28Z</time>
      </trkpt>
      <trkpt lat="45.84711" lon="6.77115">
        <ele>2120.32</ele>
        <time>2019-08-04T17:48:29Z</time>
      </trkpt>
      <trkpt lat="45.84724" lon="6.77118">
        <ele>2119.36</ele>
        <time>2019-08-04T17:48:36Z</time>
      </trkpt>
      <trkpt lat="45.84726" lon="6.77118">
        <ele>2119.36</ele>
        <time>2019-08-04T17:48:37Z</time>
      </trkpt>
      <trkpt lat="45.84731" lon="6.77117">
        <ele>2118.88</ele>
        <time>2019-08-04T17:48:39Z</time>
      </trkpt>
      <trkpt lat="45.84751" lon="6.77123">
        <ele>2118.4</ele>
        <time>2019-08-04T17:48:47Z</time>
      </trkpt>
      <trkpt lat="45.8477" lon="6.77116">
        <ele>2117.92</ele>
        <time>2019-08-04T17:48:55Z</time>
      </trkpt>
      <trkpt lat="45.84784" lon="6.77096">
        <ele>2119.36</ele>
        <time>2019-08-04T17:49:07Z</time>
      </trkpt>
      <trkpt lat="45.84784" lon="6.77094">
        <ele>2119.36</ele>
        <time>2019-08-04T17:49:08Z</time>
      </trkpt>
      <trkpt lat="45.84786" lon="6.77092">
        <ele>2119.36</ele>
        <time>2019-08-04T17:49:09Z</time>
      </trkpt>
      <trkpt lat="45.84787" lon="6.77091">
        <ele>2119.36</ele>
        <time>2019-08-04T17:49:10Z</time>
      </trkpt>
      <trkpt lat="45.8479" lon="6.77089">
        <ele>2119.84</ele>
        <time>2019-08-04T17:49:12Z</time>
      </trkpt>
      <trkpt lat="45.84791" lon="6.77089">
        <ele>2119.84</ele>
        <time>2019-08-04T17:49:13Z</time>
      </trkpt>
      <trkpt lat="45.84792" lon="6.77088">
        <ele>2119.36</ele>
        <time>2019-08-04T17:49:14Z</time>
      </trkpt>
      <trkpt lat="45.84793" lon="6.77087">
        <ele>2119.36</ele>
        <time>2019-08-04T17:49:15Z</time>
      </trkpt>
      <trkpt lat="45.84795" lon="6.77087">
        <ele>2118.88</ele>
        <time>2019-08-04T17:49:16Z</time>
      </trkpt>
      <trkpt lat="45.84798" lon="6.77087">
        <ele>2117.92</ele>
        <time>2019-08-04T17:49:18Z</time>
      </trkpt>
      <trkpt lat="45.848" lon="6.77087">
        <ele>2117.44</ele>
        <time>2019-08-04T17:49:19Z</time>
      </trkpt>
      <trkpt lat="45.84801" lon="6.77087">
        <ele>2116.96</ele>
        <time>2019-08-04T17:49:20Z</time>
      </trkpt>
      <trkpt lat="45.84803" lon="6.77086">
        <ele>2116.96</ele>
        <time>2019-08-04T17:49:21Z</time>
      </trkpt>
      <trkpt lat="45.84806" lon="6.77085">
        <ele>2116</ele>
        <time>2019-08-04T17:49:22Z</time>
      </trkpt>
      <trkpt lat="45.84825" lon="6.77079">
        <ele>2115.04</ele>
        <time>2019-08-04T17:49:30Z</time>
      </trkpt>
      <trkpt lat="45.84842" lon="6.7707">
        <ele>2114.08</ele>
        <time>2019-08-04T17:49:38Z</time>
      </trkpt>
      <trkpt lat="45.84843" lon="6.77071">
        <ele>2113.6</ele>
        <time>2019-08-04T17:49:39Z</time>
      </trkpt>
      <trkpt lat="45.8485" lon="6.77082">
        <ele>2111.67</ele>
        <time>2019-08-04T17:49:45Z</time>
      </trkpt>
      <trkpt lat="45.84853" lon="6.77083">
        <ele>2111.19</ele>
        <time>2019-08-04T17:49:46Z</time>
      </trkpt>
      <trkpt lat="45.84856" lon="6.77083">
        <ele>2110.71</ele>
        <time>2019-08-04T17:49:47Z</time>
      </trkpt>
      <trkpt lat="45.84862" lon="6.77083">
        <ele>2109.75</ele>
        <time>2019-08-04T17:49:50Z</time>
      </trkpt>
      <trkpt lat="45.84863" lon="6.77084">
        <ele>2110.23</ele>
        <time>2019-08-04T17:49:51Z</time>
      </trkpt>
      <trkpt lat="45.84864" lon="6.77085">
        <ele>2110.23</ele>
        <time>2019-08-04T17:49:52Z</time>
      </trkpt>
      <trkpt lat="45.84865" lon="6.77086">
        <ele>2111.19</ele>
        <time>2019-08-04T17:49:53Z</time>
      </trkpt>
      <trkpt lat="45.84867" lon="6.77087">
        <ele>2111.19</ele>
        <time>2019-08-04T17:49:54Z</time>
      </trkpt>
      <trkpt lat="45.84868" lon="6.77087">
        <ele>2111.67</ele>
        <time>2019-08-04T17:49:55Z</time>
      </trkpt>
      <trkpt lat="45.84884" lon="6.77093">
        <ele>2115.04</ele>
        <time>2019-08-04T17:50:05Z</time>
      </trkpt>
      <trkpt lat="45.849" lon="6.77097">
        <ele>2116.96</ele>
        <time>2019-08-04T17:50:17Z</time>
      </trkpt>
      <trkpt lat="45.84912" lon="6.77093">
        <ele>2119.84</ele>
        <time>2019-08-04T17:50:25Z</time>
      </trkpt>
      <trkpt lat="45.84919" lon="6.77089">
        <ele>2120.32</ele>
        <time>2019-08-04T17:50:31Z</time>
      </trkpt>
      <trkpt lat="45.8492" lon="6.77089">
        <ele>2120.32</ele>
        <time>2019-08-04T17:50:32Z</time>
      </trkpt>
      <trkpt lat="45.84921" lon="6.77087">
        <ele>2120.32</ele>
        <time>2019-08-04T17:50:33Z</time>
      </trkpt>
      <trkpt lat="45.84923" lon="6.77086">
        <ele>2120.32</ele>
        <time>2019-08-04T17:50:34Z</time>
      </trkpt>
      <trkpt lat="45.84925" lon="6.77085">
        <ele>2119.84</ele>
        <time>2019-08-04T17:50:35Z</time>
      </trkpt>
      <trkpt lat="45.84926" lon="6.77086">
        <ele>2120.32</ele>
        <time>2019-08-04T17:50:36Z</time>
      </trkpt>
      <trkpt lat="45.84927" lon="6.77086">
        <ele>2120.81</ele>
        <time>2019-08-04T17:50:37Z</time>
      </trkpt>
      <trkpt lat="45.84928" lon="6.77086">
        <ele>2120.81</ele>
        <time>2019-08-04T17:50:38Z</time>
      </trkpt>
      <trkpt lat="45.8493" lon="6.77085">
        <ele>2121.29</ele>
        <time>2019-08-04T17:50:39Z</time>
      </trkpt>
      <trkpt lat="45.84931" lon="6.77084">
        <ele>2121.29</ele>
        <time>2019-08-04T17:50:40Z</time>
      </trkpt>
      <trkpt lat="45.84951" lon="6.77073">
        <ele>2121.77</ele>
        <time>2019-08-04T17:50:51Z</time>
      </trkpt>
      <trkpt lat="45.84954" lon="6.7707">
        <ele>2121.77</ele>
        <time>2019-08-04T17:50:54Z</time>
      </trkpt>
      <trkpt lat="45.84967" lon="6.77067">
        <ele>2121.77</ele>
        <time>2019-08-04T17:51:04Z</time>
      </trkpt>
      <trkpt lat="45.84969" lon="6.77068">
        <ele>2121.29</ele>
        <time>2019-08-04T17:51:05Z</time>
      </trkpt>
      <trkpt lat="45.84976" lon="6.77066">
        <ele>2120.32</ele>
        <time>2019-08-04T17:51:42Z</time>
      </trkpt>
      <trkpt lat="45.84975" lon="6.77067">
        <ele>2120.32</ele>
        <time>2019-08-04T17:52:03Z</time>
      </trkpt>
      <trkpt lat="45.84975" lon="6.77069">
        <ele>2120.32</ele>
        <time>2019-08-04T17:52:04Z</time>
      </trkpt>
      <trkpt lat="45.84981" lon="6.77074">
        <ele>2120.32</ele>
        <time>2019-08-04T17:57:53Z</time>
      </trkpt>
      <trkpt lat="45.84979" lon="6.77076">
        <ele>2119.84</ele>
        <time>2019-08-04T17:59:12Z</time>
      </trkpt>
      <trkpt lat="45.84981" lon="6.77076">
        <ele>2119.84</ele>
        <time>2019-08-04T18:06:29Z</time>
      </trkpt>
      <trkpt lat="45.84983" lon="6.77075">
        <ele>2119.84</ele>
        <time>2019-08-04T18:07:10Z</time>
      </trkpt>
      <trkpt lat="45.84983" lon="6.77075">
        <ele>2119.36</ele>
        <time>2019-08-04T18:07:18Z</time>
      </trkpt>
      <trkpt lat="45.84986" lon="6.77069">
        <ele>2119.84</ele>
        <time>2019-08-04T18:07:56Z</time>
      </trkpt>
      <trkpt lat="45.84986" lon="6.77069">
        <ele>2119.84</ele>
        <time>2019-08-04T18:08:00Z</time>
      </trkpt>
      <trkpt lat="45.84989" lon="6.77063">
        <ele>2118.88</ele>
        <time>2019-08-04T18:08:18Z</time>
      </trkpt>
      <trkpt lat="45.85006" lon="6.77052">
        <ele>2117.92</ele>
        <time>2019-08-04T18:09:15Z</time>
      </trkpt>
      <trkpt lat="45.85026" lon="6.7704">
        <ele>2116.96</ele>
        <time>2019-08-04T18:09:34Z</time>
      </trkpt>
      <trkpt lat="45.85033" lon="6.77034">
        <ele>2116.96</ele>
        <time>2019-08-04T18:09:37Z</time>
      </trkpt>
      <trkpt lat="45.85034" lon="6.77031">
        <ele>2116.48</ele>
        <time>2019-08-04T18:09:38Z</time>
      </trkpt>
      <trkpt lat="45.85048" lon="6.77008">
        <ele>2116.48</ele>
        <time>2019-08-04T18:09:46Z</time>
      </trkpt>
      <trkpt lat="45.85051" lon="6.77007">
        <ele>2116</ele>
        <time>2019-08-04T18:09:47Z</time>
      </trkpt>
      <trkpt lat="45.85055" lon="6.77006">
        <ele>2115.52</ele>
        <time>2019-08-04T18:09:48Z</time>
      </trkpt>
      <trkpt lat="45.85055" lon="6.77006">
        <ele>2115.04</ele>
        <time>2019-08-04T18:09:49Z</time>
      </trkpt>
      <trkpt lat="45.85057" lon="6.77005">
        <ele>2115.04</ele>
        <time>2019-08-04T18:09:50Z</time>
      </trkpt>
      <trkpt lat="45.85058" lon="6.77004">
        <ele>2115.04</ele>
        <time>2019-08-04T18:09:51Z</time>
      </trkpt>
      <trkpt lat="45.8506" lon="6.77004">
        <ele>2115.04</ele>
        <time>2019-08-04T18:09:52Z</time>
      </trkpt>
      <trkpt lat="45.85062" lon="6.77003">
        <ele>2115.04</ele>
        <time>2019-08-04T18:10:38Z</time>
      </trkpt>
      <trkpt lat="45.85065" lon="6.77">
        <ele>2115.04</ele>
        <time>2019-08-04T18:11:57Z</time>
      </trkpt>
      <trkpt lat="45.85061" lon="6.77002">
        <ele>2115.04</ele>
        <time>2019-08-04T18:12:29Z</time>
      </trkpt>
      <trkpt lat="45.85059" lon="6.77006">
        <ele>2113.12</ele>
        <time>2019-08-04T18:12:44Z</time>
      </trkpt>
      <trkpt lat="45.8506" lon="6.77008">
        <ele>2112.63</ele>
        <time>2019-08-04T18:12:45Z</time>
      </trkpt>
      <trkpt lat="45.85062" lon="6.7701">
        <ele>2112.15</ele>
        <time>2019-08-04T18:12:46Z</time>
      </trkpt>
      <trkpt lat="45.85065" lon="6.77013">
        <ele>2111.19</ele>
        <time>2019-08-04T18:12:47Z</time>
      </trkpt>
      <trkpt lat="45.85067" lon="6.77016">
        <ele>2110.71</ele>
        <time>2019-08-04T18:12:48Z</time>
      </trkpt>
      <trkpt lat="45.85078" lon="6.77027">
        <ele>2106.87</ele>
        <time>2019-08-04T18:12:52Z</time>
      </trkpt>
      <trkpt lat="45.85088" lon="6.77038">
        <ele>2103.02</ele>
        <time>2019-08-04T18:12:56Z</time>
      </trkpt>
      <trkpt lat="45.85093" lon="6.77057">
        <ele>2099.66</ele>
        <time>2019-08-04T18:13:00Z</time>
      </trkpt>
      <trkpt lat="45.85095" lon="6.77061">
        <ele>2099.18</ele>
        <time>2019-08-04T18:13:01Z</time>
      </trkpt>
      <trkpt lat="45.85097" lon="6.77066">
        <ele>2098.21</ele>
        <time>2019-08-04T18:13:02Z</time>
      </trkpt>
      <trkpt lat="45.85106" lon="6.77087">
        <ele>2095.33</ele>
        <time>2019-08-04T18:13:07Z</time>
      </trkpt>
      <trkpt lat="45.85115" lon="6.771">
        <ele>2091.97</ele>
        <time>2019-08-04T18:13:11Z</time>
      </trkpt>
      <trkpt lat="45.85127" lon="6.77115">
        <ele>2089.56</ele>
        <time>2019-08-04T18:13:16Z</time>
      </trkpt>
      <trkpt lat="45.85139" lon="6.77132">
        <ele>2086.2</ele>
        <time>2019-08-04T18:13:22Z</time>
      </trkpt>
      <trkpt lat="45.85152" lon="6.77141">
        <ele>2082.83</ele>
        <time>2019-08-04T18:13:28Z</time>
      </trkpt>
      <trkpt lat="45.8516" lon="6.77146">
        <ele>2078.99</ele>
        <time>2019-08-04T18:13:32Z</time>
      </trkpt>
      <trkpt lat="45.8516" lon="6.77148">
        <ele>2078.51</ele>
        <time>2019-08-04T18:13:33Z</time>
      </trkpt>
      <trkpt lat="45.85161" lon="6.7715">
        <ele>2078.03</ele>
        <time>2019-08-04T18:13:34Z</time>
      </trkpt>
      <trkpt lat="45.85163" lon="6.77152">
        <ele>2077.07</ele>
        <time>2019-08-04T18:13:35Z</time>
      </trkpt>
      <trkpt lat="45.85164" lon="6.77155">
        <ele>2076.1</ele>
        <time>2019-08-04T18:13:36Z</time>
      </trkpt>
      <trkpt lat="45.85166" lon="6.77157">
        <ele>2075.14</ele>
        <time>2019-08-04T18:13:37Z</time>
      </trkpt>
      <trkpt lat="45.85168" lon="6.77158">
        <ele>2074.18</ele>
        <time>2019-08-04T18:13:38Z</time>
      </trkpt>
      <trkpt lat="45.85169" lon="6.77159">
        <ele>2073.7</ele>
        <time>2019-08-04T18:13:39Z</time>
      </trkpt>
      <trkpt lat="45.85171" lon="6.77161">
        <ele>2073.22</ele>
        <time>2019-08-04T18:13:40Z</time>
      </trkpt>
      <trkpt lat="45.85179" lon="6.7717">
        <ele>2069.86</ele>
        <time>2019-08-04T18:13:44Z</time>
      </trkpt>
      <trkpt lat="45.85188" lon="6.77176">
        <ele>2066.49</ele>
        <time>2019-08-04T18:13:48Z</time>
      </trkpt>
      <trkpt lat="45.85201" lon="6.7718">
        <ele>2062.65</ele>
        <time>2019-08-04T18:13:53Z</time>
      </trkpt>
      <trkpt lat="45.85211" lon="6.77187">
        <ele>2059.76</ele>
        <time>2019-08-04T18:13:57Z</time>
      </trkpt>
      <trkpt lat="45.85213" lon="6.7719">
        <ele>2058.8</ele>
        <time>2019-08-04T18:13:58Z</time>
      </trkpt>
      <trkpt lat="45.85215" lon="6.77193">
        <ele>2058.32</ele>
        <time>2019-08-04T18:13:59Z</time>
      </trkpt>
      <trkpt lat="45.85223" lon="6.77204">
        <ele>2055.44</ele>
        <time>2019-08-04T18:14:03Z</time>
      </trkpt>
      <trkpt lat="45.85236" lon="6.77215">
        <ele>2051.59</ele>
        <time>2019-08-04T18:14:09Z</time>
      </trkpt>
      <trkpt lat="45.85249" lon="6.77223">
        <ele>2048.23</ele>
        <time>2019-08-04T18:14:14Z</time>
      </trkpt>
      <trkpt lat="45.85266" lon="6.77232">
        <ele>2044.86</ele>
        <time>2019-08-04T18:14:20Z</time>
      </trkpt>
      <trkpt lat="45.85278" lon="6.77243">
        <ele>2041.98</ele>
        <time>2019-08-04T18:14:25Z</time>
      </trkpt>
      <trkpt lat="45.85289" lon="6.7726">
        <ele>2038.61</ele>
        <time>2019-08-04T18:14:31Z</time>
      </trkpt>
      <trkpt lat="45.85298" lon="6.77268">
        <ele>2034.77</ele>
        <time>2019-08-04T18:14:35Z</time>
      </trkpt>
      <trkpt lat="45.85305" lon="6.77273">
        <ele>2033.81</ele>
        <time>2019-08-04T18:14:38Z</time>
      </trkpt>
      <trkpt lat="45.85317" lon="6.77285">
        <ele>2030.92</ele>
        <time>2019-08-04T18:14:43Z</time>
      </trkpt>
      <trkpt lat="45.85324" lon="6.77295">
        <ele>2028.52</ele>
        <time>2019-08-04T18:14:48Z</time>
      </trkpt>
      <trkpt lat="45.85326" lon="6.77296">
        <ele>2028.04</ele>
        <time>2019-08-04T18:14:49Z</time>
      </trkpt>
      <trkpt lat="45.85328" lon="6.77298">
        <ele>2028.04</ele>
        <time>2019-08-04T18:14:50Z</time>
      </trkpt>
      <trkpt lat="45.8533" lon="6.773">
        <ele>2027.08</ele>
        <time>2019-08-04T18:14:51Z</time>
      </trkpt>
      <trkpt lat="45.85333" lon="6.77301">
        <ele>2026.6</ele>
        <time>2019-08-04T18:14:52Z</time>
      </trkpt>
      <trkpt lat="45.85336" lon="6.77302">
        <ele>2026.12</ele>
        <time>2019-08-04T18:14:53Z</time>
      </trkpt>
      <trkpt lat="45.8535" lon="6.77309">
        <ele>2023.23</ele>
        <time>2019-08-04T18:14:58Z</time>
      </trkpt>
      <trkpt lat="45.85355" lon="6.77311">
        <ele>2022.27</ele>
        <time>2019-08-04T18:15:00Z</time>
      </trkpt>
      <trkpt lat="45.85357" lon="6.77312">
        <ele>2021.79</ele>
        <time>2019-08-04T18:15:01Z</time>
      </trkpt>
      <trkpt lat="45.8536" lon="6.77313">
        <ele>2021.31</ele>
        <time>2019-08-04T18:15:02Z</time>
      </trkpt>
      <trkpt lat="45.85375" lon="6.77322">
        <ele>2017.46</ele>
        <time>2019-08-04T18:15:07Z</time>
      </trkpt>
      <trkpt lat="45.85388" lon="6.7733">
        <ele>2014.58</ele>
        <time>2019-08-04T18:15:11Z</time>
      </trkpt>
      <trkpt lat="45.85406" lon="6.77337">
        <ele>2011.22</ele>
        <time>2019-08-04T18:15:17Z</time>
      </trkpt>
      <trkpt lat="45.85426" lon="6.77347">
        <ele>2007.85</ele>
        <time>2019-08-04T18:15:23Z</time>
      </trkpt>
      <trkpt lat="45.85446" lon="6.7736">
        <ele>2004.97</ele>
        <time>2019-08-04T18:15:29Z</time>
      </trkpt>
      <trkpt lat="45.85457" lon="6.77369">
        <ele>2003.04</ele>
        <time>2019-08-04T18:15:33Z</time>
      </trkpt>
      <trkpt lat="45.85462" lon="6.77372">
        <ele>2002.08</ele>
        <time>2019-08-04T18:15:35Z</time>
      </trkpt>
      <trkpt lat="45.85464" lon="6.77374">
        <ele>2001.6</ele>
        <time>2019-08-04T18:15:36Z</time>
      </trkpt>
      <trkpt lat="45.85467" lon="6.77376">
        <ele>2001.6</ele>
        <time>2019-08-04T18:15:37Z</time>
      </trkpt>
      <trkpt lat="45.85469" lon="6.77378">
        <ele>2000.64</ele>
        <time>2019-08-04T18:15:38Z</time>
      </trkpt>
      <trkpt lat="45.85471" lon="6.77379">
        <ele>2000.16</ele>
        <time>2019-08-04T18:15:39Z</time>
      </trkpt>
      <trkpt lat="45.85474" lon="6.7738">
        <ele>1999.68</ele>
        <time>2019-08-04T18:15:40Z</time>
      </trkpt>
      <trkpt lat="45.85488" lon="6.77393">
        <ele>1996.8</ele>
        <time>2019-08-04T18:15:46Z</time>
      </trkpt>
      <trkpt lat="45.85491" lon="6.77397">
        <ele>1995.83</ele>
        <time>2019-08-04T18:15:49Z</time>
      </trkpt>
      <trkpt lat="45.85506" lon="6.77417">
        <ele>1993.43</ele>
        <time>2019-08-04T18:15:55Z</time>
      </trkpt>
      <trkpt lat="45.85522" lon="6.77434">
        <ele>1989.59</ele>
        <time>2019-08-04T18:16:01Z</time>
      </trkpt>
      <trkpt lat="45.85523" lon="6.77436">
        <ele>1989.1</ele>
        <time>2019-08-04T18:16:02Z</time>
      </trkpt>
      <trkpt lat="45.85524" lon="6.77438">
        <ele>1989.1</ele>
        <time>2019-08-04T18:16:03Z</time>
      </trkpt>
      <trkpt lat="45.85526" lon="6.77439">
        <ele>1988.62</ele>
        <time>2019-08-04T18:16:04Z</time>
      </trkpt>
      <trkpt lat="45.85539" lon="6.77448">
        <ele>1984.78</ele>
        <time>2019-08-04T18:16:10Z</time>
      </trkpt>
      <trkpt lat="45.85545" lon="6.7746">
        <ele>1981.41</ele>
        <time>2019-08-04T18:16:16Z</time>
      </trkpt>
      <trkpt lat="45.85547" lon="6.77465">
        <ele>1980.45</ele>
        <time>2019-08-04T18:16:18Z</time>
      </trkpt>
      <trkpt lat="45.85549" lon="6.77465">
        <ele>1979.97</ele>
        <time>2019-08-04T18:16:19Z</time>
      </trkpt>
      <trkpt lat="45.85553" lon="6.77467">
        <ele>1979.01</ele>
        <time>2019-08-04T18:16:21Z</time>
      </trkpt>
      <trkpt lat="45.85555" lon="6.7747">
        <ele>1978.05</ele>
        <time>2019-08-04T18:16:22Z</time>
      </trkpt>
      <trkpt lat="45.85557" lon="6.77473">
        <ele>1977.57</ele>
        <time>2019-08-04T18:16:23Z</time>
      </trkpt>
      <trkpt lat="45.85571" lon="6.77486">
        <ele>1974.69</ele>
        <time>2019-08-04T18:16:28Z</time>
      </trkpt>
      <trkpt lat="45.85579" lon="6.775">
        <ele>1971.8</ele>
        <time>2019-08-04T18:16:32Z</time>
      </trkpt>
      <trkpt lat="45.85586" lon="6.77517">
        <ele>1968.44</ele>
        <time>2019-08-04T18:16:37Z</time>
      </trkpt>
      <trkpt lat="45.85588" lon="6.77519">
        <ele>1968.44</ele>
        <time>2019-08-04T18:16:38Z</time>
      </trkpt>
      <trkpt lat="45.85591" lon="6.77521">
        <ele>1967.48</ele>
        <time>2019-08-04T18:16:39Z</time>
      </trkpt>
      <trkpt lat="45.85602" lon="6.77532">
        <ele>1963.63</ele>
        <time>2019-08-04T18:16:44Z</time>
      </trkpt>
      <trkpt lat="45.85611" lon="6.77544">
        <ele>1960.75</ele>
        <time>2019-08-04T18:16:48Z</time>
      </trkpt>
      <trkpt lat="45.85622" lon="6.77561">
        <ele>1956.42</ele>
        <time>2019-08-04T18:16:53Z</time>
      </trkpt>
      <trkpt lat="45.85625" lon="6.77567">
        <ele>1954.5</ele>
        <time>2019-08-04T18:16:55Z</time>
      </trkpt>
      <trkpt lat="45.85625" lon="6.77571">
        <ele>1953.06</ele>
        <time>2019-08-04T18:16:56Z</time>
      </trkpt>
      <trkpt lat="45.85627" lon="6.77575">
        <ele>1952.09</ele>
        <time>2019-08-04T18:16:57Z</time>
      </trkpt>
      <trkpt lat="45.85628" lon="6.7758">
        <ele>1951.13</ele>
        <time>2019-08-04T18:16:58Z</time>
      </trkpt>
      <trkpt lat="45.85629" lon="6.77584">
        <ele>1950.17</ele>
        <time>2019-08-04T18:16:59Z</time>
      </trkpt>
      <trkpt lat="45.8563" lon="6.77588">
        <ele>1949.69</ele>
        <time>2019-08-04T18:17:00Z</time>
      </trkpt>
      <trkpt lat="45.85631" lon="6.77592">
        <ele>1948.73</ele>
        <time>2019-08-04T18:17:01Z</time>
      </trkpt>
      <trkpt lat="45.85639" lon="6.77606">
        <ele>1945.36</ele>
        <time>2019-08-04T18:17:05Z</time>
      </trkpt>
      <trkpt lat="45.85644" lon="6.77611">
        <ele>1944.4</ele>
        <time>2019-08-04T18:17:07Z</time>
      </trkpt>
      <trkpt lat="45.85658" lon="6.77627">
        <ele>1941.52</ele>
        <time>2019-08-04T18:17:12Z</time>
      </trkpt>
      <trkpt lat="45.85665" lon="6.77636">
        <ele>1940.08</ele>
        <time>2019-08-04T18:17:15Z</time>
      </trkpt>
      <trkpt lat="45.85685" lon="6.77647">
        <ele>1936.23</ele>
        <time>2019-08-04T18:17:23Z</time>
      </trkpt>
      <trkpt lat="45.85688" lon="6.77649">
        <ele>1935.27</ele>
        <time>2019-08-04T18:17:24Z</time>
      </trkpt>
      <trkpt lat="45.8569" lon="6.77652">
        <ele>1934.31</ele>
        <time>2019-08-04T18:17:25Z</time>
      </trkpt>
      <trkpt lat="45.85691" lon="6.77654">
        <ele>1933.83</ele>
        <time>2019-08-04T18:17:26Z</time>
      </trkpt>
      <trkpt lat="45.85694" lon="6.77655">
        <ele>1933.83</ele>
        <time>2019-08-04T18:17:27Z</time>
      </trkpt>
      <trkpt lat="45.85696" lon="6.77656">
        <ele>1933.35</ele>
        <time>2019-08-04T18:17:28Z</time>
      </trkpt>
      <trkpt lat="45.85699" lon="6.77657">
        <ele>1932.87</ele>
        <time>2019-08-04T18:17:29Z</time>
      </trkpt>
      <trkpt lat="45.85701" lon="6.7766">
        <ele>1932.39</ele>
        <time>2019-08-04T18:17:30Z</time>
      </trkpt>
      <trkpt lat="45.85702" lon="6.77664">
        <ele>1931.91</ele>
        <time>2019-08-04T18:17:31Z</time>
      </trkpt>
      <trkpt lat="45.85703" lon="6.77668">
        <ele>1931.43</ele>
        <time>2019-08-04T18:17:32Z</time>
      </trkpt>
      <trkpt lat="45.85711" lon="6.77694">
        <ele>1928.54</ele>
        <time>2019-08-04T18:17:39Z</time>
      </trkpt>
      <trkpt lat="45.85725" lon="6.77713">
        <ele>1926.14</ele>
        <time>2019-08-04T18:17:46Z</time>
      </trkpt>
      <trkpt lat="45.85729" lon="6.77725">
        <ele>1924.22</ele>
        <time>2019-08-04T18:17:50Z</time>
      </trkpt>
      <trkpt lat="45.85732" lon="6.77726">
        <ele>1923.74</ele>
        <time>2019-08-04T18:17:51Z</time>
      </trkpt>
      <trkpt lat="45.85734" lon="6.77727">
        <ele>1922.77</ele>
        <time>2019-08-04T18:17:52Z</time>
      </trkpt>
      <trkpt lat="45.85736" lon="6.7773">
        <ele>1922.29</ele>
        <time>2019-08-04T18:17:53Z</time>
      </trkpt>
      <trkpt lat="45.85737" lon="6.77733">
        <ele>1921.81</ele>
        <time>2019-08-04T18:17:54Z</time>
      </trkpt>
      <trkpt lat="45.85739" lon="6.77735">
        <ele>1921.81</ele>
        <time>2019-08-04T18:17:55Z</time>
      </trkpt>
      <trkpt lat="45.85741" lon="6.77737">
        <ele>1921.33</ele>
        <time>2019-08-04T18:17:56Z</time>
      </trkpt>
      <trkpt lat="45.85743" lon="6.77739">
        <ele>1920.85</ele>
        <time>2019-08-04T18:17:57Z</time>
      </trkpt>
      <trkpt lat="45.85745" lon="6.77739">
        <ele>1919.89</ele>
        <time>2019-08-04T18:17:58Z</time>
      </trkpt>
      <trkpt lat="45.85747" lon="6.7774">
        <ele>1919.41</ele>
        <time>2019-08-04T18:17:59Z</time>
      </trkpt>
      <trkpt lat="45.8575" lon="6.77741">
        <ele>1919.41</ele>
        <time>2019-08-04T18:18:00Z</time>
      </trkpt>
      <trkpt lat="45.85752" lon="6.77742">
        <ele>1918.45</ele>
        <time>2019-08-04T18:18:01Z</time>
      </trkpt>
      <trkpt lat="45.85753" lon="6.77744">
        <ele>1917.97</ele>
        <time>2019-08-04T18:18:02Z</time>
      </trkpt>
      <trkpt lat="45.85754" lon="6.77746">
        <ele>1917.97</ele>
        <time>2019-08-04T18:18:03Z</time>
      </trkpt>
      <trkpt lat="45.85755" lon="6.77749">
        <ele>1917.97</ele>
        <time>2019-08-04T18:18:04Z</time>
      </trkpt>
      <trkpt lat="45.85756" lon="6.77751">
        <ele>1917.01</ele>
        <time>2019-08-04T18:18:05Z</time>
      </trkpt>
      <trkpt lat="45.85756" lon="6.77754">
        <ele>1916.53</ele>
        <time>2019-08-04T18:18:06Z</time>
      </trkpt>
      <trkpt lat="45.85757" lon="6.77758">
        <ele>1916.53</ele>
        <time>2019-08-04T18:18:07Z</time>
      </trkpt>
      <trkpt lat="45.85758" lon="6.77766">
        <ele>1914.6</ele>
        <time>2019-08-04T18:18:11Z</time>
      </trkpt>
      <trkpt lat="45.85758" lon="6.77768">
        <ele>1914.6</ele>
        <time>2019-08-04T18:18:13Z</time>
      </trkpt>
      <trkpt lat="45.85758" lon="6.7777">
        <ele>1914.12</ele>
        <time>2019-08-04T18:18:14Z</time>
      </trkpt>
      <trkpt lat="45.85759" lon="6.77771">
        <ele>1913.16</ele>
        <time>2019-08-04T18:18:15Z</time>
      </trkpt>
      <trkpt lat="45.85759" lon="6.77772">
        <ele>1912.68</ele>
        <time>2019-08-04T18:18:16Z</time>
      </trkpt>
      <trkpt lat="45.85759" lon="6.77773">
        <ele>1912.2</ele>
        <time>2019-08-04T18:18:17Z</time>
      </trkpt>
      <trkpt lat="45.8576" lon="6.77776">
        <ele>1912.2</ele>
        <time>2019-08-04T18:18:18Z</time>
      </trkpt>
      <trkpt lat="45.8576" lon="6.77778">
        <ele>1911.24</ele>
        <time>2019-08-04T18:18:19Z</time>
      </trkpt>
      <trkpt lat="45.85761" lon="6.77779">
        <ele>1910.76</ele>
        <time>2019-08-04T18:18:20Z</time>
      </trkpt>
      <trkpt lat="45.85762" lon="6.77781">
        <ele>1910.28</ele>
        <time>2019-08-04T18:18:21Z</time>
      </trkpt>
      <trkpt lat="45.85763" lon="6.77783">
        <ele>1909.8</ele>
        <time>2019-08-04T18:18:22Z</time>
      </trkpt>
      <trkpt lat="45.85764" lon="6.77785">
        <ele>1909.32</ele>
        <time>2019-08-04T18:18:23Z</time>
      </trkpt>
      <trkpt lat="45.85764" lon="6.77786">
        <ele>1908.83</ele>
        <time>2019-08-04T18:18:24Z</time>
      </trkpt>
      <trkpt lat="45.85764" lon="6.77789">
        <ele>1908.35</ele>
        <time>2019-08-04T18:18:25Z</time>
      </trkpt>
      <trkpt lat="45.85765" lon="6.77792">
        <ele>1907.87</ele>
        <time>2019-08-04T18:18:26Z</time>
      </trkpt>
      <trkpt lat="45.85766" lon="6.77794">
        <ele>1907.39</ele>
        <time>2019-08-04T18:18:27Z</time>
      </trkpt>
      <trkpt lat="45.85765" lon="6.77799">
        <ele>1906.43</ele>
        <time>2019-08-04T18:18:29Z</time>
      </trkpt>
      <trkpt lat="45.85764" lon="6.77802">
        <ele>1905.95</ele>
        <time>2019-08-04T18:18:30Z</time>
      </trkpt>
      <trkpt lat="45.85764" lon="6.77804">
        <ele>1905.47</ele>
        <time>2019-08-04T18:18:31Z</time>
      </trkpt>
      <trkpt lat="45.85765" lon="6.77806">
        <ele>1904.99</ele>
        <time>2019-08-04T18:18:32Z</time>
      </trkpt>
      <trkpt lat="45.85765" lon="6.77808">
        <ele>1904.51</ele>
        <time>2019-08-04T18:18:33Z</time>
      </trkpt>
      <trkpt lat="45.85766" lon="6.7781">
        <ele>1904.03</ele>
        <time>2019-08-04T18:18:34Z</time>
      </trkpt>
      <trkpt lat="45.85768" lon="6.77812">
        <ele>1903.55</ele>
        <time>2019-08-04T18:18:35Z</time>
      </trkpt>
      <trkpt lat="45.85768" lon="6.77815">
        <ele>1903.07</ele>
        <time>2019-08-04T18:18:36Z</time>
      </trkpt>
      <trkpt lat="45.85768" lon="6.77817">
        <ele>1903.07</ele>
        <time>2019-08-04T18:18:37Z</time>
      </trkpt>
      <trkpt lat="45.85769" lon="6.77818">
        <ele>1902.59</ele>
        <time>2019-08-04T18:18:38Z</time>
      </trkpt>
      <trkpt lat="45.8577" lon="6.7782">
        <ele>1902.59</ele>
        <time>2019-08-04T18:18:39Z</time>
      </trkpt>
      <trkpt lat="45.8577" lon="6.77821">
        <ele>1901.63</ele>
        <time>2019-08-04T18:18:40Z</time>
      </trkpt>
      <trkpt lat="45.85771" lon="6.77822">
        <ele>1901.14</ele>
        <time>2019-08-04T18:18:41Z</time>
      </trkpt>
      <trkpt lat="45.85772" lon="6.77822">
        <ele>1901.14</ele>
        <time>2019-08-04T18:18:42Z</time>
      </trkpt>
      <trkpt lat="45.85773" lon="6.77822">
        <ele>1900.18</ele>
        <time>2019-08-04T18:18:43Z</time>
      </trkpt>
      <trkpt lat="45.85776" lon="6.77824">
        <ele>1899.22</ele>
        <time>2019-08-04T18:18:45Z</time>
      </trkpt>
      <trkpt lat="45.85777" lon="6.77825">
        <ele>1897.78</ele>
        <time>2019-08-04T18:18:46Z</time>
      </trkpt>
      <trkpt lat="45.85778" lon="6.77825">
        <ele>1897.3</ele>
        <time>2019-08-04T18:18:47Z</time>
      </trkpt>
      <trkpt lat="45.85779" lon="6.77826">
        <ele>1897.3</ele>
        <time>2019-08-04T18:18:48Z</time>
      </trkpt>
      <trkpt lat="45.85781" lon="6.77828">
        <ele>1896.82</ele>
        <time>2019-08-04T18:18:49Z</time>
      </trkpt>
      <trkpt lat="45.85783" lon="6.77829">
        <ele>1896.82</ele>
        <time>2019-08-04T18:18:50Z</time>
      </trkpt>
      <trkpt lat="45.85785" lon="6.77829">
        <ele>1895.86</ele>
        <time>2019-08-04T18:18:51Z</time>
      </trkpt>
      <trkpt lat="45.85787" lon="6.7783">
        <ele>1895.38</ele>
        <time>2019-08-04T18:18:52Z</time>
      </trkpt>
      <trkpt lat="45.85789" lon="6.77831">
        <ele>1894.42</ele>
        <time>2019-08-04T18:18:53Z</time>
      </trkpt>
      <trkpt lat="45.8579" lon="6.77833">
        <ele>1893.93</ele>
        <time>2019-08-04T18:18:54Z</time>
      </trkpt>
      <trkpt lat="45.85792" lon="6.77833">
        <ele>1893.45</ele>
        <time>2019-08-04T18:18:55Z</time>
      </trkpt>
      <trkpt lat="45.85794" lon="6.77834">
        <ele>1892.97</ele>
        <time>2019-08-04T18:18:56Z</time>
      </trkpt>
      <trkpt lat="45.85795" lon="6.77834">
        <ele>1892.49</ele>
        <time>2019-08-04T18:18:57Z</time>
      </trkpt>
      <trkpt lat="45.85796" lon="6.77834">
        <ele>1892.01</ele>
        <time>2019-08-04T18:18:58Z</time>
      </trkpt>
      <trkpt lat="45.85798" lon="6.77834">
        <ele>1891.05</ele>
        <time>2019-08-04T18:18:59Z</time>
      </trkpt>
      <trkpt lat="45.858" lon="6.77834">
        <ele>1890.57</ele>
        <time>2019-08-04T18:19:00Z</time>
      </trkpt>
      <trkpt lat="45.85802" lon="6.77835">
        <ele>1890.09</ele>
        <time>2019-08-04T18:19:01Z</time>
      </trkpt>
      <trkpt lat="45.85803" lon="6.77836">
        <ele>1889.13</ele>
        <time>2019-08-04T18:19:02Z</time>
      </trkpt>
      <trkpt lat="45.85805" lon="6.77836">
        <ele>1888.65</ele>
        <time>2019-08-04T18:19:03Z</time>
      </trkpt>
      <trkpt lat="45.85807" lon="6.77836">
        <ele>1888.17</ele>
        <time>2019-08-04T18:19:04Z</time>
      </trkpt>
      <trkpt lat="45.85809" lon="6.77836">
        <ele>1887.69</ele>
        <time>2019-08-04T18:19:05Z</time>
      </trkpt>
      <trkpt lat="45.85818" lon="6.77841">
        <ele>1884.8</ele>
        <time>2019-08-04T18:19:10Z</time>
      </trkpt>
      <trkpt lat="45.85824" lon="6.77845">
        <ele>1883.36</ele>
        <time>2019-08-04T18:19:13Z</time>
      </trkpt>
      <trkpt lat="45.85832" lon="6.77857">
        <ele>1881.44</ele>
        <time>2019-08-04T18:19:18Z</time>
      </trkpt>
      <trkpt lat="45.85841" lon="6.77867">
        <ele>1878.07</ele>
        <time>2019-08-04T18:19:24Z</time>
      </trkpt>
      <trkpt lat="45.85841" lon="6.7787">
        <ele>1877.59</ele>
        <time>2019-08-04T18:19:25Z</time>
      </trkpt>
      <trkpt lat="45.85841" lon="6.77872">
        <ele>1877.11</ele>
        <time>2019-08-04T18:19:26Z</time>
      </trkpt>
      <trkpt lat="45.85841" lon="6.77874">
        <ele>1876.63</ele>
        <time>2019-08-04T18:19:27Z</time>
      </trkpt>
      <trkpt lat="45.85843" lon="6.77875">
        <ele>1876.15</ele>
        <time>2019-08-04T18:19:28Z</time>
      </trkpt>
      <trkpt lat="45.85845" lon="6.77876">
        <ele>1875.67</ele>
        <time>2019-08-04T18:19:29Z</time>
      </trkpt>
      <trkpt lat="45.85846" lon="6.77878">
        <ele>1875.19</ele>
        <time>2019-08-04T18:19:30Z</time>
      </trkpt>
      <trkpt lat="45.85847" lon="6.7788">
        <ele>1875.19</ele>
        <time>2019-08-04T18:19:31Z</time>
      </trkpt>
      <trkpt lat="45.85847" lon="6.77883">
        <ele>1874.23</ele>
        <time>2019-08-04T18:19:32Z</time>
      </trkpt>
      <trkpt lat="45.85849" lon="6.77887">
        <ele>1873.75</ele>
        <time>2019-08-04T18:19:34Z</time>
      </trkpt>
      <trkpt lat="45.85851" lon="6.77889">
        <ele>1873.27</ele>
        <time>2019-08-04T18:19:35Z</time>
      </trkpt>
      <trkpt lat="45.85852" lon="6.7789">
        <ele>1872.79</ele>
        <time>2019-08-04T18:19:36Z</time>
      </trkpt>
      <trkpt lat="45.85852" lon="6.77891">
        <ele>1871.82</ele>
        <time>2019-08-04T18:19:37Z</time>
      </trkpt>
      <trkpt lat="45.85852" lon="6.77893">
        <ele>1871.34</ele>
        <time>2019-08-04T18:19:38Z</time>
      </trkpt>
      <trkpt lat="45.85853" lon="6.77899">
        <ele>1869.9</ele>
        <time>2019-08-04T18:19:41Z</time>
      </trkpt>
      <trkpt lat="45.85855" lon="6.77902">
        <ele>1869.42</ele>
        <time>2019-08-04T18:19:42Z</time>
      </trkpt>
      <trkpt lat="45.85856" lon="6.77904">
        <ele>1869.42</ele>
        <time>2019-08-04T18:19:43Z</time>
      </trkpt>
      <trkpt lat="45.85857" lon="6.77906">
        <ele>1868.94</ele>
        <time>2019-08-04T18:19:44Z</time>
      </trkpt>
      <trkpt lat="45.85859" lon="6.77909">
        <ele>1867.98</ele>
        <time>2019-08-04T18:19:45Z</time>
      </trkpt>
      <trkpt lat="45.85861" lon="6.7791">
        <ele>1867.5</ele>
        <time>2019-08-04T18:19:46Z</time>
      </trkpt>
      <trkpt lat="45.85861" lon="6.77912">
        <ele>1867.02</ele>
        <time>2019-08-04T18:19:47Z</time>
      </trkpt>
      <trkpt lat="45.85863" lon="6.77914">
        <ele>1866.06</ele>
        <time>2019-08-04T18:19:48Z</time>
      </trkpt>
      <trkpt lat="45.85865" lon="6.77916">
        <ele>1865.58</ele>
        <time>2019-08-04T18:19:49Z</time>
      </trkpt>
      <trkpt lat="45.85868" lon="6.77918">
        <ele>1865.09</ele>
        <time>2019-08-04T18:19:50Z</time>
      </trkpt>
      <trkpt lat="45.85875" lon="6.77922">
        <ele>1863.65</ele>
        <time>2019-08-04T18:19:53Z</time>
      </trkpt>
      <trkpt lat="45.85878" lon="6.77923">
        <ele>1862.69</ele>
        <time>2019-08-04T18:19:55Z</time>
      </trkpt>
      <trkpt lat="45.85879" lon="6.77925">
        <ele>1862.21</ele>
        <time>2019-08-04T18:19:56Z</time>
      </trkpt>
      <trkpt lat="45.85881" lon="6.77927">
        <ele>1862.21</ele>
        <time>2019-08-04T18:19:57Z</time>
      </trkpt>
      <trkpt lat="45.85882" lon="6.77929">
        <ele>1862.21</ele>
        <time>2019-08-04T18:19:58Z</time>
      </trkpt>
      <trkpt lat="45.85883" lon="6.77932">
        <ele>1861.73</ele>
        <time>2019-08-04T18:19:59Z</time>
      </trkpt>
      <trkpt lat="45.85883" lon="6.77936">
        <ele>1861.25</ele>
        <time>2019-08-04T18:20:00Z</time>
      </trkpt>
      <trkpt lat="45.85882" lon="6.7794">
        <ele>1860.77</ele>
        <time>2019-08-04T18:20:01Z</time>
      </trkpt>
      <trkpt lat="45.85882" lon="6.77944">
        <ele>1860.29</ele>
        <time>2019-08-04T18:20:02Z</time>
      </trkpt>
      <trkpt lat="45.85883" lon="6.77948">
        <ele>1859.81</ele>
        <time>2019-08-04T18:20:03Z</time>
      </trkpt>
      <trkpt lat="45.85883" lon="6.77951">
        <ele>1859.33</ele>
        <time>2019-08-04T18:20:04Z</time>
      </trkpt>
      <trkpt lat="45.85882" lon="6.77953">
        <ele>1858.37</ele>
        <time>2019-08-04T18:20:05Z</time>
      </trkpt>
      <trkpt lat="45.85882" lon="6.77956">
        <ele>1857.89</ele>
        <time>2019-08-04T18:20:06Z</time>
      </trkpt>
      <trkpt lat="45.85883" lon="6.77957">
        <ele>1857.4</ele>
        <time>2019-08-04T18:20:07Z</time>
      </trkpt>
      <trkpt lat="45.85885" lon="6.77959">
        <ele>1856.92</ele>
        <time>2019-08-04T18:20:08Z</time>
      </trkpt>
      <trkpt lat="45.8589" lon="6.77963">
        <ele>1856.44</ele>
        <time>2019-08-04T18:20:11Z</time>
      </trkpt>
      <trkpt lat="45.85891" lon="6.77964">
        <ele>1855.96</ele>
        <time>2019-08-04T18:20:12Z</time>
      </trkpt>
      <trkpt lat="45.85893" lon="6.77967">
        <ele>1855.96</ele>
        <time>2019-08-04T18:20:13Z</time>
      </trkpt>
      <trkpt lat="45.85895" lon="6.77968">
        <ele>1855.48</ele>
        <time>2019-08-04T18:20:14Z</time>
      </trkpt>
      <trkpt lat="45.85897" lon="6.7797">
        <ele>1855</ele>
        <time>2019-08-04T18:20:15Z</time>
      </trkpt>
      <trkpt lat="45.85912" lon="6.77981">
        <ele>1851.64</ele>
        <time>2019-08-04T18:20:23Z</time>
      </trkpt>
      <trkpt lat="45.85912" lon="6.77985">
        <ele>1851.16</ele>
        <time>2019-08-04T18:20:24Z</time>
      </trkpt>
      <trkpt lat="45.85912" lon="6.77988">
        <ele>1850.19</ele>
        <time>2019-08-04T18:20:25Z</time>
      </trkpt>
      <trkpt lat="45.85913" lon="6.77991">
        <ele>1849.71</ele>
        <time>2019-08-04T18:20:26Z</time>
      </trkpt>
      <trkpt lat="45.85914" lon="6.77993">
        <ele>1849.71</ele>
        <time>2019-08-04T18:20:27Z</time>
      </trkpt>
      <trkpt lat="45.85916" lon="6.77995">
        <ele>1849.23</ele>
        <time>2019-08-04T18:20:28Z</time>
      </trkpt>
      <trkpt lat="45.85918" lon="6.77997">
        <ele>1849.23</ele>
        <time>2019-08-04T18:20:29Z</time>
      </trkpt>
      <trkpt lat="45.85919" lon="6.78">
        <ele>1848.75</ele>
        <time>2019-08-04T18:20:30Z</time>
      </trkpt>
      <trkpt lat="45.85921" lon="6.78002">
        <ele>1848.27</ele>
        <time>2019-08-04T18:20:31Z</time>
      </trkpt>
      <trkpt lat="45.85923" lon="6.78003">
        <ele>1847.79</ele>
        <time>2019-08-04T18:20:32Z</time>
      </trkpt>
      <trkpt lat="45.85926" lon="6.78003">
        <ele>1846.83</ele>
        <time>2019-08-04T18:20:33Z</time>
      </trkpt>
      <trkpt lat="45.8593" lon="6.78003">
        <ele>1846.83</ele>
        <time>2019-08-04T18:20:34Z</time>
      </trkpt>
      <trkpt lat="45.85934" lon="6.78004">
        <ele>1846.35</ele>
        <time>2019-08-04T18:20:35Z</time>
      </trkpt>
      <trkpt lat="45.85936" lon="6.78004">
        <ele>1845.39</ele>
        <time>2019-08-04T18:20:36Z</time>
      </trkpt>
      <trkpt lat="45.85939" lon="6.78005">
        <ele>1845.39</ele>
        <time>2019-08-04T18:20:37Z</time>
      </trkpt>
      <trkpt lat="45.85946" lon="6.78005">
        <ele>1844.91</ele>
        <time>2019-08-04T18:20:40Z</time>
      </trkpt>
      <trkpt lat="45.85949" lon="6.78007">
        <ele>1844.43</ele>
        <time>2019-08-04T18:20:41Z</time>
      </trkpt>
      <trkpt lat="45.85951" lon="6.7801">
        <ele>1844.43</ele>
        <time>2019-08-04T18:20:42Z</time>
      </trkpt>
      <trkpt lat="45.85957" lon="6.78015">
        <ele>1844.91</ele>
        <time>2019-08-04T18:20:48Z</time>
      </trkpt>
      <trkpt lat="45.85957" lon="6.78014">
        <ele>1844.91</ele>
        <time>2019-08-04T18:20:49Z</time>
      </trkpt>
      <trkpt lat="45.85958" lon="6.78012">
        <ele>1843.95</ele>
        <time>2019-08-04T18:21:07Z</time>
      </trkpt>
      <trkpt lat="45.8596" lon="6.78012">
        <ele>1843.95</ele>
        <time>2019-08-04T18:21:08Z</time>
      </trkpt>
      <trkpt lat="45.85961" lon="6.78012">
        <ele>1843.95</ele>
        <time>2019-08-04T18:21:10Z</time>
      </trkpt>
      <trkpt lat="45.85962" lon="6.78006">
        <ele>1843.47</ele>
        <time>2019-08-04T18:21:32Z</time>
      </trkpt>
      <trkpt lat="45.85966" lon="6.7801">
        <ele>1843.95</ele>
        <time>2019-08-04T18:22:17Z</time>
      </trkpt>
      <trkpt lat="45.85964" lon="6.78012">
        <ele>1843.47</ele>
        <time>2019-08-04T18:23:24Z</time>
      </trkpt>
      <trkpt lat="45.85967" lon="6.78011">
        <ele>1843.95</ele>
        <time>2019-08-04T18:23:28Z</time>
      </trkpt>
      <trkpt lat="45.85973" lon="6.78013">
        <ele>1844.43</ele>
        <time>2019-08-04T18:24:10Z</time>
      </trkpt>
      <trkpt lat="45.85975" lon="6.78014">
        <ele>1843.95</ele>
        <time>2019-08-04T18:24:11Z</time>
      </trkpt>
      <trkpt lat="45.85974" lon="6.78015">
        <ele>1843.95</ele>
        <time>2019-08-04T18:24:12Z</time>
      </trkpt>
      <trkpt lat="45.85976" lon="6.78016">
        <ele>1843.95</ele>
        <time>2019-08-04T18:24:13Z</time>
      </trkpt>
      <trkpt lat="45.85978" lon="6.78016">
        <ele>1843.95</ele>
        <time>2019-08-04T18:24:14Z</time>
      </trkpt>
      <trkpt lat="45.85981" lon="6.78017">
        <ele>1843.95</ele>
        <time>2019-08-04T18:24:15Z</time>
      </trkpt>
      <trkpt lat="45.85982" lon="6.78017">
        <ele>1843.95</ele>
        <time>2019-08-04T18:24:16Z</time>
      </trkpt>
      <trkpt lat="45.85988" lon="6.78016">
        <ele>1843.95</ele>
        <time>2019-08-04T18:24:17Z</time>
      </trkpt>
      <trkpt lat="45.85991" lon="6.78015">
        <ele>1843.47</ele>
        <time>2019-08-04T18:24:18Z</time>
      </trkpt>
      <trkpt lat="45.85994" lon="6.78015">
        <ele>1843.47</ele>
        <time>2019-08-04T18:24:19Z</time>
      </trkpt>
      <trkpt lat="45.85997" lon="6.78016">
        <ele>1843.47</ele>
        <time>2019-08-04T18:24:20Z</time>
      </trkpt>
      <trkpt lat="45.85999" lon="6.78015">
        <ele>1842.98</ele>
        <time>2019-08-04T18:24:21Z</time>
      </trkpt>
      <trkpt lat="45.86002" lon="6.78014">
        <ele>1842.98</ele>
        <time>2019-08-04T18:24:22Z</time>
      </trkpt>
      <trkpt lat="45.86004" lon="6.78013">
        <ele>1842.98</ele>
        <time>2019-08-04T18:24:23Z</time>
      </trkpt>
      <trkpt lat="45.86006" lon="6.78012">
        <ele>1842.98</ele>
        <time>2019-08-04T18:24:24Z</time>
      </trkpt>
      <trkpt lat="45.86009" lon="6.78012">
        <ele>1842.5</ele>
        <time>2019-08-04T18:24:25Z</time>
      </trkpt>
      <trkpt lat="45.86011" lon="6.78013">
        <ele>1842.02</ele>
        <time>2019-08-04T18:24:26Z</time>
      </trkpt>
      <trkpt lat="45.86013" lon="6.78015">
        <ele>1841.54</ele>
        <time>2019-08-04T18:24:27Z</time>
      </trkpt>
      <trkpt lat="45.86015" lon="6.78017">
        <ele>1841.06</ele>
        <time>2019-08-04T18:24:28Z</time>
      </trkpt>
      <trkpt lat="45.86017" lon="6.78019">
        <ele>1841.06</ele>
        <time>2019-08-04T18:24:29Z</time>
      </trkpt>
      <trkpt lat="45.86019" lon="6.78021">
        <ele>1840.58</ele>
        <time>2019-08-04T18:24:30Z</time>
      </trkpt>
      <trkpt lat="45.86022" lon="6.78022">
        <ele>1840.1</ele>
        <time>2019-08-04T18:24:31Z</time>
      </trkpt>
      <trkpt lat="45.86024" lon="6.78023">
        <ele>1839.62</ele>
        <time>2019-08-04T18:24:32Z</time>
      </trkpt>
      <trkpt lat="45.86026" lon="6.78024">
        <ele>1839.62</ele>
        <time>2019-08-04T18:24:33Z</time>
      </trkpt>
      <trkpt lat="45.86028" lon="6.78025">
        <ele>1839.14</ele>
        <time>2019-08-04T18:24:34Z</time>
      </trkpt>
      <trkpt lat="45.86031" lon="6.78027">
        <ele>1838.66</ele>
        <time>2019-08-04T18:24:35Z</time>
      </trkpt>
      <trkpt lat="45.86033" lon="6.78029">
        <ele>1838.18</ele>
        <time>2019-08-04T18:24:36Z</time>
      </trkpt>
      <trkpt lat="45.86034" lon="6.78031">
        <ele>1837.7</ele>
        <time>2019-08-04T18:24:37Z</time>
      </trkpt>
      <trkpt lat="45.86036" lon="6.78033">
        <ele>1837.22</ele>
        <time>2019-08-04T18:24:38Z</time>
      </trkpt>
      <trkpt lat="45.86038" lon="6.78034">
        <ele>1836.74</ele>
        <time>2019-08-04T18:24:39Z</time>
      </trkpt>
      <trkpt lat="45.86041" lon="6.78036">
        <ele>1835.77</ele>
        <time>2019-08-04T18:24:40Z</time>
      </trkpt>
      <trkpt lat="45.86043" lon="6.78038">
        <ele>1835.77</ele>
        <time>2019-08-04T18:24:41Z</time>
      </trkpt>
      <trkpt lat="45.86045" lon="6.78041">
        <ele>1835.29</ele>
        <time>2019-08-04T18:24:42Z</time>
      </trkpt>
      <trkpt lat="45.86047" lon="6.78043">
        <ele>1834.33</ele>
        <time>2019-08-04T18:24:43Z</time>
      </trkpt>
      <trkpt lat="45.86049" lon="6.78046">
        <ele>1833.37</ele>
        <time>2019-08-04T18:24:44Z</time>
      </trkpt>
      <trkpt lat="45.8605" lon="6.7805">
        <ele>1832.89</ele>
        <time>2019-08-04T18:24:45Z</time>
      </trkpt>
      <trkpt lat="45.86049" lon="6.78053">
        <ele>1832.41</ele>
        <time>2019-08-04T18:24:46Z</time>
      </trkpt>
      <trkpt lat="45.86049" lon="6.78057">
        <ele>1832.41</ele>
        <time>2019-08-04T18:24:47Z</time>
      </trkpt>
      <trkpt lat="45.86048" lon="6.78059">
        <ele>1831.93</ele>
        <time>2019-08-04T18:24:48Z</time>
      </trkpt>
      <trkpt lat="45.86048" lon="6.78062">
        <ele>1831.45</ele>
        <time>2019-08-04T18:24:49Z</time>
      </trkpt>
      <trkpt lat="45.8605" lon="6.78063">
        <ele>1830.97</ele>
        <time>2019-08-04T18:24:50Z</time>
      </trkpt>
      <trkpt lat="45.86052" lon="6.78063">
        <ele>1830.01</ele>
        <time>2019-08-04T18:24:51Z</time>
      </trkpt>
      <trkpt lat="45.86054" lon="6.78063">
        <ele>1829.53</ele>
        <time>2019-08-04T18:24:52Z</time>
      </trkpt>
      <trkpt lat="45.86057" lon="6.78062">
        <ele>1828.56</ele>
        <time>2019-08-04T18:24:53Z</time>
      </trkpt>
      <trkpt lat="45.86066" lon="6.78062">
        <ele>1825.2</ele>
        <time>2019-08-04T18:24:57Z</time>
      </trkpt>
      <trkpt lat="45.86077" lon="6.78064">
        <ele>1821.84</ele>
        <time>2019-08-04T18:25:01Z</time>
      </trkpt>
      <trkpt lat="45.86085" lon="6.78072">
        <ele>1819.91</ele>
        <time>2019-08-04T18:25:05Z</time>
      </trkpt>
      <trkpt lat="45.86088" lon="6.78082">
        <ele>1818.47</ele>
        <time>2019-08-04T18:25:08Z</time>
      </trkpt>
      <trkpt lat="45.86083" lon="6.781">
        <ele>1814.63</ele>
        <time>2019-08-04T18:25:13Z</time>
      </trkpt>
      <trkpt lat="45.86081" lon="6.78104">
        <ele>1814.63</ele>
        <time>2019-08-04T18:25:14Z</time>
      </trkpt>
      <trkpt lat="45.86079" lon="6.78105">
        <ele>1813.66</ele>
        <time>2019-08-04T18:25:15Z</time>
      </trkpt>
      <trkpt lat="45.86079" lon="6.78106">
        <ele>1813.66</ele>
        <time>2019-08-04T18:25:16Z</time>
      </trkpt>
      <trkpt lat="45.8608" lon="6.78107">
        <ele>1813.18</ele>
        <time>2019-08-04T18:25:17Z</time>
      </trkpt>
      <trkpt lat="45.86087" lon="6.78122">
        <ele>1809.82</ele>
        <time>2019-08-04T18:25:25Z</time>
      </trkpt>
      <trkpt lat="45.86088" lon="6.78123">
        <ele>1808.86</ele>
        <time>2019-08-04T18:25:26Z</time>
      </trkpt>
      <trkpt lat="45.8609" lon="6.78124">
        <ele>1808.38</ele>
        <time>2019-08-04T18:25:27Z</time>
      </trkpt>
      <trkpt lat="45.86092" lon="6.78126">
        <ele>1807.9</ele>
        <time>2019-08-04T18:25:28Z</time>
      </trkpt>
      <trkpt lat="45.86093" lon="6.78126">
        <ele>1807.42</ele>
        <time>2019-08-04T18:25:29Z</time>
      </trkpt>
      <trkpt lat="45.86095" lon="6.78127">
        <ele>1806.45</ele>
        <time>2019-08-04T18:25:30Z</time>
      </trkpt>
      <trkpt lat="45.86098" lon="6.78131">
        <ele>1805.97</ele>
        <time>2019-08-04T18:25:31Z</time>
      </trkpt>
      <trkpt lat="45.86101" lon="6.78133">
        <ele>1805.01</ele>
        <time>2019-08-04T18:25:32Z</time>
      </trkpt>
      <trkpt lat="45.86103" lon="6.78135">
        <ele>1805.01</ele>
        <time>2019-08-04T18:25:33Z</time>
      </trkpt>
      <trkpt lat="45.86104" lon="6.78137">
        <ele>1804.05</ele>
        <time>2019-08-04T18:25:34Z</time>
      </trkpt>
      <trkpt lat="45.86105" lon="6.78138">
        <ele>1803.57</ele>
        <time>2019-08-04T18:25:35Z</time>
      </trkpt>
      <trkpt lat="45.86107" lon="6.78139">
        <ele>1803.57</ele>
        <time>2019-08-04T18:25:36Z</time>
      </trkpt>
      <trkpt lat="45.86109" lon="6.78139">
        <ele>1803.09</ele>
        <time>2019-08-04T18:25:37Z</time>
      </trkpt>
      <trkpt lat="45.86118" lon="6.78144">
        <ele>1799.73</ele>
        <time>2019-08-04T18:25:42Z</time>
      </trkpt>
      <trkpt lat="45.86119" lon="6.78143">
        <ele>1798.76</ele>
        <time>2019-08-04T18:25:43Z</time>
      </trkpt>
      <trkpt lat="45.8612" lon="6.78142">
        <ele>1798.28</ele>
        <time>2019-08-04T18:25:44Z</time>
      </trkpt>
      <trkpt lat="45.86122" lon="6.78143">
        <ele>1797.8</ele>
        <time>2019-08-04T18:25:45Z</time>
      </trkpt>
      <trkpt lat="45.86124" lon="6.78144">
        <ele>1796.84</ele>
        <time>2019-08-04T18:25:46Z</time>
      </trkpt>
      <trkpt lat="45.86137" lon="6.78148">
        <ele>1793.48</ele>
        <time>2019-08-04T18:25:51Z</time>
      </trkpt>
      <trkpt lat="45.86148" lon="6.78155">
        <ele>1790.11</ele>
        <time>2019-08-04T18:25:57Z</time>
      </trkpt>
      <trkpt lat="45.8615" lon="6.78158">
        <ele>1789.15</ele>
        <time>2019-08-04T18:25:58Z</time>
      </trkpt>
      <trkpt lat="45.86151" lon="6.78161">
        <ele>1788.67</ele>
        <time>2019-08-04T18:25:59Z</time>
      </trkpt>
      <trkpt lat="45.86152" lon="6.78164">
        <ele>1788.19</ele>
        <time>2019-08-04T18:26:00Z</time>
      </trkpt>
      <trkpt lat="45.86153" lon="6.7817">
        <ele>1788.19</ele>
        <time>2019-08-04T18:26:01Z</time>
      </trkpt>
      <trkpt lat="45.86154" lon="6.78173">
        <ele>1787.23</ele>
        <time>2019-08-04T18:26:02Z</time>
      </trkpt>
      <trkpt lat="45.86154" lon="6.78177">
        <ele>1787.23</ele>
        <time>2019-08-04T18:26:03Z</time>
      </trkpt>
      <trkpt lat="45.86155" lon="6.78179">
        <ele>1787.23</ele>
        <time>2019-08-04T18:26:04Z</time>
      </trkpt>
      <trkpt lat="45.86157" lon="6.78181">
        <ele>1786.75</ele>
        <time>2019-08-04T18:26:05Z</time>
      </trkpt>
      <trkpt lat="45.86158" lon="6.78183">
        <ele>1786.75</ele>
        <time>2019-08-04T18:26:06Z</time>
      </trkpt>
      <trkpt lat="45.8616" lon="6.78185">
        <ele>1786.75</ele>
        <time>2019-08-04T18:26:07Z</time>
      </trkpt>
      <trkpt lat="45.86161" lon="6.78187">
        <ele>1786.75</ele>
        <time>2019-08-04T18:26:08Z</time>
      </trkpt>
      <trkpt lat="45.86162" lon="6.78189">
        <ele>1786.27</ele>
        <time>2019-08-04T18:26:09Z</time>
      </trkpt>
      <trkpt lat="45.86167" lon="6.78205">
        <ele>1784.82</ele>
        <time>2019-08-04T18:26:15Z</time>
      </trkpt>
      <trkpt lat="45.86167" lon="6.78208">
        <ele>1784.34</ele>
        <time>2019-08-04T18:26:16Z</time>
      </trkpt>
      <trkpt lat="45.86167" lon="6.78211">
        <ele>1783.86</ele>
        <time>2019-08-04T18:26:17Z</time>
      </trkpt>
      <trkpt lat="45.86169" lon="6.78215">
        <ele>1783.38</ele>
        <time>2019-08-04T18:26:18Z</time>
      </trkpt>
      <trkpt lat="45.8617" lon="6.78218">
        <ele>1783.38</ele>
        <time>2019-08-04T18:26:19Z</time>
      </trkpt>
      <trkpt lat="45.86172" lon="6.78219">
        <ele>1783.38</ele>
        <time>2019-08-04T18:26:20Z</time>
      </trkpt>
      <trkpt lat="45.86173" lon="6.7822">
        <ele>1782.9</ele>
        <time>2019-08-04T18:26:21Z</time>
      </trkpt>
      <trkpt lat="45.86176" lon="6.78223">
        <ele>1781.94</ele>
        <time>2019-08-04T18:26:24Z</time>
      </trkpt>
      <trkpt lat="45.86178" lon="6.78236">
        <ele>1778.58</ele>
        <time>2019-08-04T18:26:30Z</time>
      </trkpt>
      <trkpt lat="45.86177" lon="6.78239">
        <ele>1778.1</ele>
        <time>2019-08-04T18:26:31Z</time>
      </trkpt>
      <trkpt lat="45.86178" lon="6.78242">
        <ele>1777.13</ele>
        <time>2019-08-04T18:26:32Z</time>
      </trkpt>
      <trkpt lat="45.86177" lon="6.78244">
        <ele>1776.65</ele>
        <time>2019-08-04T18:26:33Z</time>
      </trkpt>
      <trkpt lat="45.86179" lon="6.78246">
        <ele>1776.65</ele>
        <time>2019-08-04T18:26:34Z</time>
      </trkpt>
      <trkpt lat="45.86179" lon="6.78247">
        <ele>1777.13</ele>
        <time>2019-08-04T18:26:35Z</time>
      </trkpt>
      <trkpt lat="45.8618" lon="6.78249">
        <ele>1776.65</ele>
        <time>2019-08-04T18:26:36Z</time>
      </trkpt>
      <trkpt lat="45.86186" lon="6.78265">
        <ele>1773.29</ele>
        <time>2019-08-04T18:26:44Z</time>
      </trkpt>
      <trkpt lat="45.86188" lon="6.78266">
        <ele>1772.81</ele>
        <time>2019-08-04T18:26:45Z</time>
      </trkpt>
      <trkpt lat="45.86189" lon="6.78266">
        <ele>1772.33</ele>
        <time>2019-08-04T18:26:46Z</time>
      </trkpt>
      <trkpt lat="45.86191" lon="6.78265">
        <ele>1771.85</ele>
        <time>2019-08-04T18:26:47Z</time>
      </trkpt>
      <trkpt lat="45.86191" lon="6.78263">
        <ele>1770.89</ele>
        <time>2019-08-04T18:26:48Z</time>
      </trkpt>
      <trkpt lat="45.86192" lon="6.78263">
        <ele>1770.41</ele>
        <time>2019-08-04T18:26:49Z</time>
      </trkpt>
      <trkpt lat="45.86193" lon="6.78263">
        <ele>1769.92</ele>
        <time>2019-08-04T18:26:50Z</time>
      </trkpt>
      <trkpt lat="45.86194" lon="6.78265">
        <ele>1768.96</ele>
        <time>2019-08-04T18:26:51Z</time>
      </trkpt>
      <trkpt lat="45.86194" lon="6.78266">
        <ele>1768.96</ele>
        <time>2019-08-04T18:26:52Z</time>
      </trkpt>
      <trkpt lat="45.86196" lon="6.78266">
        <ele>1768</ele>
        <time>2019-08-04T18:26:54Z</time>
      </trkpt>
      <trkpt lat="45.86198" lon="6.78265">
        <ele>1767.52</ele>
        <time>2019-08-04T18:26:55Z</time>
      </trkpt>
      <trkpt lat="45.86199" lon="6.78266">
        <ele>1767.04</ele>
        <time>2019-08-04T18:26:56Z</time>
      </trkpt>
      <trkpt lat="45.862" lon="6.78267">
        <ele>1766.56</ele>
        <time>2019-08-04T18:26:57Z</time>
      </trkpt>
      <trkpt lat="45.862" lon="6.7827">
        <ele>1766.08</ele>
        <time>2019-08-04T18:26:58Z</time>
      </trkpt>
      <trkpt lat="45.862" lon="6.78273">
        <ele>1765.6</ele>
        <time>2019-08-04T18:26:59Z</time>
      </trkpt>
      <trkpt lat="45.86199" lon="6.78277">
        <ele>1765.12</ele>
        <time>2019-08-04T18:27:00Z</time>
      </trkpt>
      <trkpt lat="45.86198" lon="6.7828">
        <ele>1764.64</ele>
        <time>2019-08-04T18:27:01Z</time>
      </trkpt>
      <trkpt lat="45.86197" lon="6.78284">
        <ele>1764.16</ele>
        <time>2019-08-04T18:27:02Z</time>
      </trkpt>
      <trkpt lat="45.86196" lon="6.78286">
        <ele>1763.68</ele>
        <time>2019-08-04T18:27:03Z</time>
      </trkpt>
      <trkpt lat="45.86196" lon="6.78288">
        <ele>1763.2</ele>
        <time>2019-08-04T18:27:04Z</time>
      </trkpt>
      <trkpt lat="45.86195" lon="6.7829">
        <ele>1763.2</ele>
        <time>2019-08-04T18:27:05Z</time>
      </trkpt>
      <trkpt lat="45.86195" lon="6.78291">
        <ele>1762.23</ele>
        <time>2019-08-04T18:27:06Z</time>
      </trkpt>
      <trkpt lat="45.86196" lon="6.78291">
        <ele>1761.75</ele>
        <time>2019-08-04T18:27:07Z</time>
      </trkpt>
      <trkpt lat="45.86198" lon="6.7829">
        <ele>1760.79</ele>
        <time>2019-08-04T18:27:08Z</time>
      </trkpt>
      <trkpt lat="45.86199" lon="6.7829">
        <ele>1759.83</ele>
        <time>2019-08-04T18:27:09Z</time>
      </trkpt>
      <trkpt lat="45.86199" lon="6.78291">
        <ele>1759.35</ele>
        <time>2019-08-04T18:27:10Z</time>
      </trkpt>
      <trkpt lat="45.86199" lon="6.78294">
        <ele>1758.87</ele>
        <time>2019-08-04T18:27:11Z</time>
      </trkpt>
      <trkpt lat="45.86199" lon="6.78297">
        <ele>1758.39</ele>
        <time>2019-08-04T18:27:12Z</time>
      </trkpt>
      <trkpt lat="45.86203" lon="6.78308">
        <ele>1755.02</ele>
        <time>2019-08-04T18:27:16Z</time>
      </trkpt>
      <trkpt lat="45.86207" lon="6.78309">
        <ele>1753.1</ele>
        <time>2019-08-04T18:27:19Z</time>
      </trkpt>
      <trkpt lat="45.86208" lon="6.78308">
        <ele>1752.14</ele>
        <time>2019-08-04T18:27:20Z</time>
      </trkpt>
      <trkpt lat="45.86209" lon="6.78307">
        <ele>1751.66</ele>
        <time>2019-08-04T18:27:21Z</time>
      </trkpt>
      <trkpt lat="45.86211" lon="6.78307">
        <ele>1751.66</ele>
        <time>2019-08-04T18:27:22Z</time>
      </trkpt>
      <trkpt lat="45.86213" lon="6.78307">
        <ele>1751.18</ele>
        <time>2019-08-04T18:27:23Z</time>
      </trkpt>
      <trkpt lat="45.86214" lon="6.78306">
        <ele>1749.74</ele>
        <time>2019-08-04T18:27:24Z</time>
      </trkpt>
      <trkpt lat="45.86215" lon="6.78303">
        <ele>1748.78</ele>
        <time>2019-08-04T18:27:25Z</time>
      </trkpt>
      <trkpt lat="45.86215" lon="6.78299">
        <ele>1748.29</ele>
        <time>2019-08-04T18:27:26Z</time>
      </trkpt>
      <trkpt lat="45.86215" lon="6.78296">
        <ele>1747.81</ele>
        <time>2019-08-04T18:27:27Z</time>
      </trkpt>
      <trkpt lat="45.86216" lon="6.78295">
        <ele>1747.33</ele>
        <time>2019-08-04T18:27:28Z</time>
      </trkpt>
      <trkpt lat="45.86216" lon="6.78293">
        <ele>1746.37</ele>
        <time>2019-08-04T18:27:29Z</time>
      </trkpt>
      <trkpt lat="45.86218" lon="6.78293">
        <ele>1746.37</ele>
        <time>2019-08-04T18:27:30Z</time>
      </trkpt>
      <trkpt lat="45.8622" lon="6.78293">
        <ele>1745.41</ele>
        <time>2019-08-04T18:27:31Z</time>
      </trkpt>
      <trkpt lat="45.86221" lon="6.78294">
        <ele>1745.41</ele>
        <time>2019-08-04T18:27:32Z</time>
      </trkpt>
      <trkpt lat="45.86223" lon="6.78294">
        <ele>1744.45</ele>
        <time>2019-08-04T18:27:33Z</time>
      </trkpt>
      <trkpt lat="45.86225" lon="6.78295">
        <ele>1743.97</ele>
        <time>2019-08-04T18:27:34Z</time>
      </trkpt>
      <trkpt lat="45.86227" lon="6.78295">
        <ele>1743.49</ele>
        <time>2019-08-04T18:27:35Z</time>
      </trkpt>
      <trkpt lat="45.86229" lon="6.78294">
        <ele>1742.05</ele>
        <time>2019-08-04T18:27:36Z</time>
      </trkpt>
      <trkpt lat="45.86231" lon="6.78293">
        <ele>1741.57</ele>
        <time>2019-08-04T18:27:37Z</time>
      </trkpt>
      <trkpt lat="45.86233" lon="6.78289">
        <ele>1739.64</ele>
        <time>2019-08-04T18:27:39Z</time>
      </trkpt>
      <trkpt lat="45.86235" lon="6.78282">
        <ele>1738.2</ele>
        <time>2019-08-04T18:27:41Z</time>
      </trkpt>
      <trkpt lat="45.86236" lon="6.7828">
        <ele>1737.72</ele>
        <time>2019-08-04T18:27:42Z</time>
      </trkpt>
      <trkpt lat="45.86237" lon="6.78279">
        <ele>1737.24</ele>
        <time>2019-08-04T18:27:43Z</time>
      </trkpt>
      <trkpt lat="45.86238" lon="6.78278">
        <ele>1736.76</ele>
        <time>2019-08-04T18:27:44Z</time>
      </trkpt>
      <trkpt lat="45.8624" lon="6.78279">
        <ele>1736.76</ele>
        <time>2019-08-04T18:27:45Z</time>
      </trkpt>
      <trkpt lat="45.86241" lon="6.78279">
        <ele>1735.8</ele>
        <time>2019-08-04T18:27:46Z</time>
      </trkpt>
      <trkpt lat="45.86242" lon="6.78278">
        <ele>1735.8</ele>
        <time>2019-08-04T18:27:47Z</time>
      </trkpt>
      <trkpt lat="45.86247" lon="6.78274">
        <ele>1732.43</ele>
        <time>2019-08-04T18:27:54Z</time>
      </trkpt>
      <trkpt lat="45.86249" lon="6.78276">
        <ele>1730.99</ele>
        <time>2019-08-04T18:27:57Z</time>
      </trkpt>
      <trkpt lat="45.86252" lon="6.78277">
        <ele>1730.03</ele>
        <time>2019-08-04T18:28:40Z</time>
      </trkpt>
      <trkpt lat="45.86251" lon="6.78276">
        <ele>1730.03</ele>
        <time>2019-08-04T18:28:41Z</time>
      </trkpt>
      <trkpt lat="45.86242" lon="6.78278">
        <ele>1730.51</ele>
        <time>2019-08-04T18:29:10Z</time>
      </trkpt>
      <trkpt lat="45.8624" lon="6.78282">
        <ele>1730.03</ele>
        <time>2019-08-04T18:29:39Z</time>
      </trkpt>
      <trkpt lat="45.8624" lon="6.78284">
        <ele>1729.55</ele>
        <time>2019-08-04T18:29:49Z</time>
      </trkpt>
      <trkpt lat="45.8624" lon="6.78284">
        <ele>1729.55</ele>
        <time>2019-08-04T18:29:51Z</time>
      </trkpt>
      <trkpt lat="45.86241" lon="6.78285">
        <ele>1729.55</ele>
        <time>2019-08-04T18:29:53Z</time>
      </trkpt>
      <trkpt lat="45.86233" lon="6.78291">
        <ele>1729.55</ele>
        <time>2019-08-04T18:30:00Z</time>
      </trkpt>
      <trkpt lat="45.86228" lon="6.78289">
        <ele>1729.55</ele>
        <time>2019-08-04T18:30:06Z</time>
      </trkpt>
      <trkpt lat="45.86227" lon="6.78288">
        <ele>1729.55</ele>
        <time>2019-08-04T18:30:07Z</time>
      </trkpt>
      <trkpt lat="45.86225" lon="6.78287">
        <ele>1729.55</ele>
        <time>2019-08-04T18:30:10Z</time>
      </trkpt>
      <trkpt lat="45.86224" lon="6.78286">
        <ele>1729.55</ele>
        <time>2019-08-04T18:30:11Z</time>
      </trkpt>
      <trkpt lat="45.86218" lon="6.78281">
        <ele>1729.55</ele>
        <time>2019-08-04T18:30:30Z</time>
      </trkpt>
      <trkpt lat="45.86217" lon="6.78281">
        <ele>1729.55</ele>
        <time>2019-08-04T18:30:31Z</time>
      </trkpt>
      <trkpt lat="45.86216" lon="6.78279">
        <ele>1729.55</ele>
        <time>2019-08-04T18:30:33Z</time>
      </trkpt>
      <trkpt lat="45.8622" lon="6.78284">
        <ele>1730.03</ele>
        <time>2019-08-04T18:31:14Z</time>
      </trkpt>
      <trkpt lat="45.86221" lon="6.78285">
        <ele>1730.51</ele>
        <time>2019-08-04T18:31:15Z</time>
      </trkpt>
      <trkpt lat="45.86223" lon="6.78287">
        <ele>1730.51</ele>
        <time>2019-08-04T18:31:18Z</time>
      </trkpt>
      <trkpt lat="45.86232" lon="6.78302">
        <ele>1727.63</ele>
        <time>2019-08-04T18:31:29Z</time>
      </trkpt>
      <trkpt lat="45.86235" lon="6.78304">
        <ele>1727.15</ele>
        <time>2019-08-04T18:31:30Z</time>
      </trkpt>
      <trkpt lat="45.86237" lon="6.78304">
        <ele>1726.18</ele>
        <time>2019-08-04T18:31:31Z</time>
      </trkpt>
      <trkpt lat="45.86238" lon="6.78304">
        <ele>1726.18</ele>
        <time>2019-08-04T18:31:32Z</time>
      </trkpt>
      <trkpt lat="45.8624" lon="6.78304">
        <ele>1726.18</ele>
        <time>2019-08-04T18:31:33Z</time>
      </trkpt>
      <trkpt lat="45.86243" lon="6.78303">
        <ele>1725.22</ele>
        <time>2019-08-04T18:31:34Z</time>
      </trkpt>
      <trkpt lat="45.86254" lon="6.78302">
        <ele>1721.38</ele>
        <time>2019-08-04T18:31:40Z</time>
      </trkpt>
      <trkpt lat="45.86256" lon="6.78303">
        <ele>1720.9</ele>
        <time>2019-08-04T18:31:41Z</time>
      </trkpt>
      <trkpt lat="45.86257" lon="6.78304">
        <ele>1720.42</ele>
        <time>2019-08-04T18:31:42Z</time>
      </trkpt>
      <trkpt lat="45.86257" lon="6.78306">
        <ele>1719.46</ele>
        <time>2019-08-04T18:31:43Z</time>
      </trkpt>
      <trkpt lat="45.86258" lon="6.78306">
        <ele>1718.01</ele>
        <time>2019-08-04T18:31:45Z</time>
      </trkpt>
      <trkpt lat="45.86259" lon="6.78305">
        <ele>1718.01</ele>
        <time>2019-08-04T18:31:46Z</time>
      </trkpt>
      <trkpt lat="45.8626" lon="6.78304">
        <ele>1717.05</ele>
        <time>2019-08-04T18:31:47Z</time>
      </trkpt>
      <trkpt lat="45.86261" lon="6.78302">
        <ele>1716.57</ele>
        <time>2019-08-04T18:31:48Z</time>
      </trkpt>
      <trkpt lat="45.86262" lon="6.78301">
        <ele>1716.57</ele>
        <time>2019-08-04T18:31:49Z</time>
      </trkpt>
      <trkpt lat="45.86264" lon="6.783">
        <ele>1715.61</ele>
        <time>2019-08-04T18:31:50Z</time>
      </trkpt>
      <trkpt lat="45.86264" lon="6.78298">
        <ele>1715.13</ele>
        <time>2019-08-04T18:31:51Z</time>
      </trkpt>
      <trkpt lat="45.86266" lon="6.78296">
        <ele>1714.17</ele>
        <time>2019-08-04T18:31:52Z</time>
      </trkpt>
      <trkpt lat="45.86268" lon="6.78295">
        <ele>1713.21</ele>
        <time>2019-08-04T18:31:53Z</time>
      </trkpt>
      <trkpt lat="45.8627" lon="6.78295">
        <ele>1712.73</ele>
        <time>2019-08-04T18:31:54Z</time>
      </trkpt>
      <trkpt lat="45.86271" lon="6.78295">
        <ele>1712.73</ele>
        <time>2019-08-04T18:31:55Z</time>
      </trkpt>
      <trkpt lat="45.86273" lon="6.78294">
        <ele>1712.25</ele>
        <time>2019-08-04T18:31:56Z</time>
      </trkpt>
      <trkpt lat="45.86274" lon="6.78295">
        <ele>1711.76</ele>
        <time>2019-08-04T18:31:57Z</time>
      </trkpt>
      <trkpt lat="45.86275" lon="6.78295">
        <ele>1711.28</ele>
        <time>2019-08-04T18:31:58Z</time>
      </trkpt>
      <trkpt lat="45.86278" lon="6.78296">
        <ele>1709.36</ele>
        <time>2019-08-04T18:32:39Z</time>
      </trkpt>
      <trkpt lat="45.86279" lon="6.78297">
        <ele>1709.36</ele>
        <time>2019-08-04T18:32:40Z</time>
      </trkpt>
      <trkpt lat="45.8628" lon="6.78298">
        <ele>1708.88</ele>
        <time>2019-08-04T18:32:41Z</time>
      </trkpt>
      <trkpt lat="45.86285" lon="6.78306">
        <ele>1706.96</ele>
        <time>2019-08-04T18:33:25Z</time>
      </trkpt>
      <trkpt lat="45.86288" lon="6.78302">
        <ele>1706.96</ele>
        <time>2019-08-04T18:34:01Z</time>
      </trkpt>
      <trkpt lat="45.86289" lon="6.78309">
        <ele>1706</ele>
        <time>2019-08-04T18:35:24Z</time>
      </trkpt>
      <trkpt lat="45.8629" lon="6.78311">
        <ele>1706.48</ele>
        <time>2019-08-04T18:36:26Z</time>
      </trkpt>
      <trkpt lat="45.86286" lon="6.78311">
        <ele>1706.48</ele>
        <time>2019-08-04T18:37:04Z</time>
      </trkpt>
      <trkpt lat="45.86286" lon="6.78306">
        <ele>1706.48</ele>
        <time>2019-08-04T18:38:32Z</time>
      </trkpt>
      <trkpt lat="45.86284" lon="6.78307">
        <ele>1706.48</ele>
        <time>2019-08-04T18:38:34Z</time>
      </trkpt>
      <trkpt lat="45.86285" lon="6.78307">
        <ele>1706</ele>
        <time>2019-08-04T18:39:05Z</time>
      </trkpt>
      <trkpt lat="45.8628" lon="6.7831">
        <ele>1706</ele>
        <time>2019-08-04T18:39:29Z</time>
      </trkpt>
      <trkpt lat="45.86281" lon="6.78309">
        <ele>1706</ele>
        <time>2019-08-04T18:39:31Z</time>
      </trkpt>
      <trkpt lat="45.86285" lon="6.78304">
        <ele>1706</ele>
        <time>2019-08-04T18:40:46Z</time>
      </trkpt>
      <trkpt lat="45.86274" lon="6.78292">
        <ele>1709.36</ele>
        <time>2019-08-04T18:41:11Z</time>
      </trkpt>
      <trkpt lat="45.8627" lon="6.78293">
        <ele>1710.8</ele>
        <time>2019-08-04T18:41:15Z</time>
      </trkpt>
      <trkpt lat="45.86269" lon="6.78295">
        <ele>1711.28</ele>
        <time>2019-08-04T18:41:16Z</time>
      </trkpt>
      <trkpt lat="45.86269" lon="6.78297">
        <ele>1711.76</ele>
        <time>2019-08-04T18:41:17Z</time>
      </trkpt>
      <trkpt lat="45.86268" lon="6.78298">
        <ele>1712.25</ele>
        <time>2019-08-04T18:41:18Z</time>
      </trkpt>
      <trkpt lat="45.86267" lon="6.783">
        <ele>1713.69</ele>
        <time>2019-08-04T18:41:21Z</time>
      </trkpt>
      <trkpt lat="45.86267" lon="6.78301">
        <ele>1714.17</ele>
        <time>2019-08-04T18:41:22Z</time>
      </trkpt>
      <trkpt lat="45.86266" lon="6.78302">
        <ele>1714.17</ele>
        <time>2019-08-04T18:41:23Z</time>
      </trkpt>
      <trkpt lat="45.86265" lon="6.78303">
        <ele>1714.65</ele>
        <time>2019-08-04T18:41:24Z</time>
      </trkpt>
      <trkpt lat="45.86264" lon="6.78304">
        <ele>1715.13</ele>
        <time>2019-08-04T18:41:25Z</time>
      </trkpt>
      <trkpt lat="45.86261" lon="6.78306">
        <ele>1716.09</ele>
        <time>2019-08-04T18:41:27Z</time>
      </trkpt>
      <trkpt lat="45.86261" lon="6.78305">
        <ele>1716.09</ele>
        <time>2019-08-04T18:41:28Z</time>
      </trkpt>
      <trkpt lat="45.8626" lon="6.78304">
        <ele>1716.57</ele>
        <time>2019-08-04T18:41:29Z</time>
      </trkpt>
      <trkpt lat="45.86259" lon="6.78303">
        <ele>1717.53</ele>
        <time>2019-08-04T18:41:30Z</time>
      </trkpt>
      <trkpt lat="45.86259" lon="6.78302">
        <ele>1718.01</ele>
        <time>2019-08-04T18:41:31Z</time>
      </trkpt>
      <trkpt lat="45.86258" lon="6.78301">
        <ele>1718.49</ele>
        <time>2019-08-04T18:41:32Z</time>
      </trkpt>
      <trkpt lat="45.86257" lon="6.78301">
        <ele>1718.97</ele>
        <time>2019-08-04T18:41:34Z</time>
      </trkpt>
      <trkpt lat="45.86255" lon="6.78302">
        <ele>1719.46</ele>
        <time>2019-08-04T18:41:35Z</time>
      </trkpt>
      <trkpt lat="45.86254" lon="6.78303">
        <ele>1719.94</ele>
        <time>2019-08-04T18:41:36Z</time>
      </trkpt>
      <trkpt lat="45.86252" lon="6.78304">
        <ele>1720.42</ele>
        <time>2019-08-04T18:41:37Z</time>
      </trkpt>
      <trkpt lat="45.86251" lon="6.78303">
        <ele>1720.42</ele>
        <time>2019-08-04T18:41:38Z</time>
      </trkpt>
      <trkpt lat="45.86251" lon="6.78303">
        <ele>1720.9</ele>
        <time>2019-08-04T18:41:39Z</time>
      </trkpt>
      <trkpt lat="45.86248" lon="6.78303">
        <ele>1720.9</ele>
        <time>2019-08-04T18:41:40Z</time>
      </trkpt>
      <trkpt lat="45.86247" lon="6.78303">
        <ele>1721.38</ele>
        <time>2019-08-04T18:41:41Z</time>
      </trkpt>
      <trkpt lat="45.86244" lon="6.78303">
        <ele>1721.86</ele>
        <time>2019-08-04T18:41:43Z</time>
      </trkpt>
      <trkpt lat="45.86243" lon="6.78304">
        <ele>1722.34</ele>
        <time>2019-08-04T18:41:44Z</time>
      </trkpt>
      <trkpt lat="45.86237" lon="6.78307">
        <ele>1724.26</ele>
        <time>2019-08-04T18:41:48Z</time>
      </trkpt>
      <trkpt lat="45.86235" lon="6.78306">
        <ele>1724.74</ele>
        <time>2019-08-04T18:41:49Z</time>
      </trkpt>
      <trkpt lat="45.86233" lon="6.78305">
        <ele>1725.22</ele>
        <time>2019-08-04T18:41:50Z</time>
      </trkpt>
      <trkpt lat="45.8623" lon="6.783">
        <ele>1726.67</ele>
        <time>2019-08-04T18:41:56Z</time>
      </trkpt>
      <trkpt lat="45.86229" lon="6.78297">
        <ele>1727.63</ele>
        <time>2019-08-04T18:41:58Z</time>
      </trkpt>
      <trkpt lat="45.86229" lon="6.78295">
        <ele>1728.11</ele>
        <time>2019-08-04T18:41:59Z</time>
      </trkpt>
      <trkpt lat="45.86231" lon="6.78292">
        <ele>1728.59</ele>
        <time>2019-08-04T18:42:01Z</time>
      </trkpt>
      <trkpt lat="45.86231" lon="6.78291">
        <ele>1728.59</ele>
        <time>2019-08-04T18:42:02Z</time>
      </trkpt>
      <trkpt lat="45.86233" lon="6.78286">
        <ele>1728.11</ele>
        <time>2019-08-04T18:42:15Z</time>
      </trkpt>
      <trkpt lat="45.86234" lon="6.78287">
        <ele>1728.11</ele>
        <time>2019-08-04T18:42:19Z</time>
      </trkpt>
      <trkpt lat="45.86237" lon="6.78284">
        <ele>1728.11</ele>
        <time>2019-08-04T18:43:50Z</time>
      </trkpt>
      <trkpt lat="45.86237" lon="6.78275">
        <ele>1726.18</ele>
        <time>2019-08-04T18:43:55Z</time>
      </trkpt>
      <trkpt lat="45.86238" lon="6.78274">
        <ele>1725.7</ele>
        <time>2019-08-04T18:43:56Z</time>
      </trkpt>
      <trkpt lat="45.86245" lon="6.78269">
        <ele>1723.3</ele>
        <time>2019-08-04T18:44:01Z</time>
      </trkpt>
      <trkpt lat="45.86249" lon="6.7827">
        <ele>1721.38</ele>
        <time>2019-08-04T18:44:04Z</time>
      </trkpt>
      <trkpt lat="45.86252" lon="6.78272">
        <ele>1719.94</ele>
        <time>2019-08-04T18:44:06Z</time>
      </trkpt>
      <trkpt lat="45.86258" lon="6.78271">
        <ele>1717.53</ele>
        <time>2019-08-04T18:44:10Z</time>
      </trkpt>
      <trkpt lat="45.8626" lon="6.7827">
        <ele>1717.05</ele>
        <time>2019-08-04T18:44:11Z</time>
      </trkpt>
      <trkpt lat="45.86261" lon="6.7827">
        <ele>1716.57</ele>
        <time>2019-08-04T18:44:12Z</time>
      </trkpt>
      <trkpt lat="45.86265" lon="6.78268">
        <ele>1714.17</ele>
        <time>2019-08-04T18:44:17Z</time>
      </trkpt>
      <trkpt lat="45.86264" lon="6.78263">
        <ele>1710.8</ele>
        <time>2019-08-04T18:44:22Z</time>
      </trkpt>
      <trkpt lat="45.86264" lon="6.7826">
        <ele>1709.36</ele>
        <time>2019-08-04T18:44:24Z</time>
      </trkpt>
      <trkpt lat="45.86265" lon="6.78258">
        <ele>1707.92</ele>
        <time>2019-08-04T18:44:26Z</time>
      </trkpt>
      <trkpt lat="45.86266" lon="6.78257">
        <ele>1707.92</ele>
        <time>2019-08-04T18:44:27Z</time>
      </trkpt>
      <trkpt lat="45.86267" lon="6.78255">
        <ele>1707.44</ele>
        <time>2019-08-04T18:44:28Z</time>
      </trkpt>
      <trkpt lat="45.8627" lon="6.78252">
        <ele>1705.52</ele>
        <time>2019-08-04T18:44:31Z</time>
      </trkpt>
      <trkpt lat="45.86274" lon="6.78253">
        <ele>1703.59</ele>
        <time>2019-08-04T18:44:34Z</time>
      </trkpt>
      <trkpt lat="45.86274" lon="6.78252">
        <ele>1703.59</ele>
        <time>2019-08-04T18:44:35Z</time>
      </trkpt>
      <trkpt lat="45.86273" lon="6.7825">
        <ele>1702.63</ele>
        <time>2019-08-04T18:44:36Z</time>
      </trkpt>
      <trkpt lat="45.86277" lon="6.78238">
        <ele>1700.23</ele>
        <time>2019-08-04T18:44:41Z</time>
      </trkpt>
      <trkpt lat="45.86278" lon="6.78227">
        <ele>1698.79</ele>
        <time>2019-08-04T18:44:46Z</time>
      </trkpt>
      <trkpt lat="45.8627" lon="6.78207">
        <ele>1697.83</ele>
        <time>2019-08-04T18:44:53Z</time>
      </trkpt>
      <trkpt lat="45.8627" lon="6.78204">
        <ele>1696.86</ele>
        <time>2019-08-04T18:44:55Z</time>
      </trkpt>
      <trkpt lat="45.86269" lon="6.78202">
        <ele>1696.38</ele>
        <time>2019-08-04T18:44:56Z</time>
      </trkpt>
      <trkpt lat="45.86269" lon="6.782">
        <ele>1695.9</ele>
        <time>2019-08-04T18:44:57Z</time>
      </trkpt>
      <trkpt lat="45.86268" lon="6.78196">
        <ele>1695.42</ele>
        <time>2019-08-04T18:44:58Z</time>
      </trkpt>
      <trkpt lat="45.86267" lon="6.78193">
        <ele>1695.42</ele>
        <time>2019-08-04T18:44:59Z</time>
      </trkpt>
      <trkpt lat="45.86266" lon="6.78189">
        <ele>1694.46</ele>
        <time>2019-08-04T18:45:00Z</time>
      </trkpt>
      <trkpt lat="45.86266" lon="6.78185">
        <ele>1693.98</ele>
        <time>2019-08-04T18:45:01Z</time>
      </trkpt>
      <trkpt lat="45.86265" lon="6.78181">
        <ele>1693.5</ele>
        <time>2019-08-04T18:45:02Z</time>
      </trkpt>
      <trkpt lat="45.86263" lon="6.78177">
        <ele>1693.02</ele>
        <time>2019-08-04T18:45:03Z</time>
      </trkpt>
      <trkpt lat="45.86259" lon="6.78168">
        <ele>1691.58</ele>
        <time>2019-08-04T18:45:08Z</time>
      </trkpt>
      <trkpt lat="45.86258" lon="6.78164">
        <ele>1691.1</ele>
        <time>2019-08-04T18:45:10Z</time>
      </trkpt>
      <trkpt lat="45.86256" lon="6.78162">
        <ele>1690.62</ele>
        <time>2019-08-04T18:45:11Z</time>
      </trkpt>
      <trkpt lat="45.86255" lon="6.7816">
        <ele>1690.14</ele>
        <time>2019-08-04T18:45:12Z</time>
      </trkpt>
      <trkpt lat="45.86254" lon="6.78159">
        <ele>1689.65</ele>
        <time>2019-08-04T18:45:13Z</time>
      </trkpt>
      <trkpt lat="45.86252" lon="6.78156">
        <ele>1688.69</ele>
        <time>2019-08-04T18:45:14Z</time>
      </trkpt>
      <trkpt lat="45.86246" lon="6.78137">
        <ele>1685.81</ele>
        <time>2019-08-04T18:45:21Z</time>
      </trkpt>
      <trkpt lat="45.86248" lon="6.78135">
        <ele>1684.85</ele>
        <time>2019-08-04T18:45:22Z</time>
      </trkpt>
      <trkpt lat="45.8625" lon="6.78133">
        <ele>1684.37</ele>
        <time>2019-08-04T18:45:23Z</time>
      </trkpt>
      <trkpt lat="45.8625" lon="6.78131">
        <ele>1683.41</ele>
        <time>2019-08-04T18:45:24Z</time>
      </trkpt>
      <trkpt lat="45.86251" lon="6.78129">
        <ele>1682.93</ele>
        <time>2019-08-04T18:45:25Z</time>
      </trkpt>
      <trkpt lat="45.86257" lon="6.78121">
        <ele>1680.52</ele>
        <time>2019-08-04T18:45:29Z</time>
      </trkpt>
      <trkpt lat="45.86259" lon="6.78119">
        <ele>1679.56</ele>
        <time>2019-08-04T18:45:30Z</time>
      </trkpt>
      <trkpt lat="45.86261" lon="6.78117">
        <ele>1679.08</ele>
        <time>2019-08-04T18:45:31Z</time>
      </trkpt>
      <trkpt lat="45.86264" lon="6.78115">
        <ele>1678.6</ele>
        <time>2019-08-04T18:45:32Z</time>
      </trkpt>
      <trkpt lat="45.86266" lon="6.78114">
        <ele>1677.64</ele>
        <time>2019-08-04T18:45:33Z</time>
      </trkpt>
      <trkpt lat="45.86267" lon="6.78111">
        <ele>1677.16</ele>
        <time>2019-08-04T18:45:34Z</time>
      </trkpt>
      <trkpt lat="45.86269" lon="6.7811">
        <ele>1676.68</ele>
        <time>2019-08-04T18:45:35Z</time>
      </trkpt>
      <trkpt lat="45.8627" lon="6.78108">
        <ele>1676.2</ele>
        <time>2019-08-04T18:45:36Z</time>
      </trkpt>
      <trkpt lat="45.86271" lon="6.78106">
        <ele>1675.72</ele>
        <time>2019-08-04T18:45:37Z</time>
      </trkpt>
      <trkpt lat="45.86271" lon="6.78104">
        <ele>1675.23</ele>
        <time>2019-08-04T18:45:38Z</time>
      </trkpt>
      <trkpt lat="45.86272" lon="6.78102">
        <ele>1674.75</ele>
        <time>2019-08-04T18:45:39Z</time>
      </trkpt>
      <trkpt lat="45.86273" lon="6.78101">
        <ele>1674.27</ele>
        <time>2019-08-04T18:45:40Z</time>
      </trkpt>
      <trkpt lat="45.86273" lon="6.78099">
        <ele>1673.79</ele>
        <time>2019-08-04T18:45:41Z</time>
      </trkpt>
      <trkpt lat="45.86274" lon="6.78096">
        <ele>1673.31</ele>
        <time>2019-08-04T18:45:42Z</time>
      </trkpt>
      <trkpt lat="45.86276" lon="6.78094">
        <ele>1672.83</ele>
        <time>2019-08-04T18:45:43Z</time>
      </trkpt>
      <trkpt lat="45.86278" lon="6.78092">
        <ele>1671.87</ele>
        <time>2019-08-04T18:45:44Z</time>
      </trkpt>
      <trkpt lat="45.86277" lon="6.78085">
        <ele>1670.91</ele>
        <time>2019-08-04T18:45:46Z</time>
      </trkpt>
      <trkpt lat="45.86275" lon="6.78083">
        <ele>1670.43</ele>
        <time>2019-08-04T18:45:47Z</time>
      </trkpt>
      <trkpt lat="45.86274" lon="6.7808">
        <ele>1668.51</ele>
        <time>2019-08-04T18:45:49Z</time>
      </trkpt>
      <trkpt lat="45.86273" lon="6.78079">
        <ele>1666.58</ele>
        <time>2019-08-04T18:45:51Z</time>
      </trkpt>
      <trkpt lat="45.86271" lon="6.78077">
        <ele>1666.1</ele>
        <time>2019-08-04T18:45:52Z</time>
      </trkpt>
      <trkpt lat="45.8627" lon="6.78076">
        <ele>1665.14</ele>
        <time>2019-08-04T18:45:53Z</time>
      </trkpt>
      <trkpt lat="45.86268" lon="6.78077">
        <ele>1664.18</ele>
        <time>2019-08-04T18:45:54Z</time>
      </trkpt>
      <trkpt lat="45.86267" lon="6.78077">
        <ele>1663.22</ele>
        <time>2019-08-04T18:45:55Z</time>
      </trkpt>
      <trkpt lat="45.86266" lon="6.78077">
        <ele>1662.74</ele>
        <time>2019-08-04T18:45:56Z</time>
      </trkpt>
      <trkpt lat="45.86265" lon="6.78076">
        <ele>1662.74</ele>
        <time>2019-08-04T18:45:57Z</time>
      </trkpt>
      <trkpt lat="45.86265" lon="6.78074">
        <ele>1661.78</ele>
        <time>2019-08-04T18:45:59Z</time>
      </trkpt>
      <trkpt lat="45.86265" lon="6.78073">
        <ele>1661.3</ele>
        <time>2019-08-04T18:46:00Z</time>
      </trkpt>
      <trkpt lat="45.86265" lon="6.78071">
        <ele>1660.81</ele>
        <time>2019-08-04T18:46:01Z</time>
      </trkpt>
      <trkpt lat="45.86259" lon="6.78066">
        <ele>1659.85</ele>
        <time>2019-08-04T18:46:06Z</time>
      </trkpt>
      <trkpt lat="45.86258" lon="6.78066">
        <ele>1659.85</ele>
        <time>2019-08-04T18:46:07Z</time>
      </trkpt>
      <trkpt lat="45.86253" lon="6.78063">
        <ele>1658.41</ele>
        <time>2019-08-04T18:46:12Z</time>
      </trkpt>
      <trkpt lat="45.86253" lon="6.78061">
        <ele>1657.45</ele>
        <time>2019-08-04T18:46:13Z</time>
      </trkpt>
      <trkpt lat="45.86247" lon="6.78055">
        <ele>1654.09</ele>
        <time>2019-08-04T18:46:19Z</time>
      </trkpt>
      <trkpt lat="45.86246" lon="6.78052">
        <ele>1652.16</ele>
        <time>2019-08-04T18:46:23Z</time>
      </trkpt>
      <trkpt lat="45.86247" lon="6.78051">
        <ele>1651.2</ele>
        <time>2019-08-04T18:46:24Z</time>
      </trkpt>
      <trkpt lat="45.86247" lon="6.7805">
        <ele>1650.72</ele>
        <time>2019-08-04T18:46:25Z</time>
      </trkpt>
      <trkpt lat="45.86248" lon="6.7805">
        <ele>1650.24</ele>
        <time>2019-08-04T18:46:27Z</time>
      </trkpt>
      <trkpt lat="45.86243" lon="6.7805">
        <ele>1649.76</ele>
        <time>2019-08-04T18:46:29Z</time>
      </trkpt>
      <trkpt lat="45.86239" lon="6.7805">
        <ele>1649.76</ele>
        <time>2019-08-04T18:46:34Z</time>
      </trkpt>
      <trkpt lat="45.86241" lon="6.78043">
        <ele>1648.32</ele>
        <time>2019-08-04T18:46:46Z</time>
      </trkpt>
      <trkpt lat="45.86249" lon="6.78033">
        <ele>1647.84</ele>
        <time>2019-08-04T18:46:55Z</time>
      </trkpt>
      <trkpt lat="45.86257" lon="6.78035">
        <ele>1646.88</ele>
        <time>2019-08-04T18:47:07Z</time>
      </trkpt>
      <trkpt lat="45.8626" lon="6.78038">
        <ele>1646.4</ele>
        <time>2019-08-04T18:47:13Z</time>
      </trkpt>
      <trkpt lat="45.86263" lon="6.78038">
        <ele>1646.4</ele>
        <time>2019-08-04T18:47:23Z</time>
      </trkpt>
      <trkpt lat="45.86262" lon="6.78036">
        <ele>1646.4</ele>
        <time>2019-08-04T18:47:31Z</time>
      </trkpt>
      <trkpt lat="45.86226" lon="6.78039">
        <ele>1646.88</ele>
        <time>2019-08-04T18:48:05Z</time>
      </trkpt>
      <trkpt lat="45.86225" lon="6.78035">
        <ele>1646.88</ele>
        <time>2019-08-04T18:48:06Z</time>
      </trkpt>
      <trkpt lat="45.86226" lon="6.78033">
        <ele>1646.88</ele>
        <time>2019-08-04T18:48:07Z</time>
      </trkpt>
      <trkpt lat="45.86231" lon="6.78029">
        <ele>1645.91</ele>
        <time>2019-08-04T18:48:09Z</time>
      </trkpt>
      <trkpt lat="45.8624" lon="6.78024">
        <ele>1644.47</ele>
        <time>2019-08-04T18:48:11Z</time>
      </trkpt>
      <trkpt lat="45.86243" lon="6.7802">
        <ele>1643.51</ele>
        <time>2019-08-04T18:48:12Z</time>
      </trkpt>
      <trkpt lat="45.86249" lon="6.78016">
        <ele>1643.03</ele>
        <time>2019-08-04T18:48:13Z</time>
      </trkpt>
      <trkpt lat="45.86265" lon="6.77999">
        <ele>1641.59</ele>
        <time>2019-08-04T18:48:17Z</time>
      </trkpt>
      <trkpt lat="45.86279" lon="6.77994">
        <ele>1639.19</ele>
        <time>2019-08-04T18:48:22Z</time>
      </trkpt>
      <trkpt lat="45.86281" lon="6.77995">
        <ele>1638.7</ele>
        <time>2019-08-04T18:48:23Z</time>
      </trkpt>
      <trkpt lat="45.8629" lon="6.77999">
        <ele>1636.3</ele>
        <time>2019-08-04T18:48:27Z</time>
      </trkpt>
      <trkpt lat="45.86291" lon="6.78">
        <ele>1636.3</ele>
        <time>2019-08-04T18:48:28Z</time>
      </trkpt>
      <trkpt lat="45.86292" lon="6.78001">
        <ele>1636.3</ele>
        <time>2019-08-04T18:48:29Z</time>
      </trkpt>
      <trkpt lat="45.86294" lon="6.78001">
        <ele>1636.3</ele>
        <time>2019-08-04T18:48:30Z</time>
      </trkpt>
      <trkpt lat="45.86296" lon="6.78001">
        <ele>1636.3</ele>
        <time>2019-08-04T18:48:31Z</time>
      </trkpt>
      <trkpt lat="45.86297" lon="6.78">
        <ele>1635.82</ele>
        <time>2019-08-04T18:48:32Z</time>
      </trkpt>
      <trkpt lat="45.86299" lon="6.77998">
        <ele>1635.82</ele>
        <time>2019-08-04T18:48:33Z</time>
      </trkpt>
      <trkpt lat="45.86301" lon="6.77998">
        <ele>1635.82</ele>
        <time>2019-08-04T18:48:34Z</time>
      </trkpt>
      <trkpt lat="45.86303" lon="6.77998">
        <ele>1635.34</ele>
        <time>2019-08-04T18:48:35Z</time>
      </trkpt>
      <trkpt lat="45.86305" lon="6.77998">
        <ele>1634.86</ele>
        <time>2019-08-04T18:48:36Z</time>
      </trkpt>
      <trkpt lat="45.86306" lon="6.77997">
        <ele>1634.86</ele>
        <time>2019-08-04T18:48:37Z</time>
      </trkpt>
      <trkpt lat="45.86308" lon="6.77996">
        <ele>1634.38</ele>
        <time>2019-08-04T18:48:38Z</time>
      </trkpt>
      <trkpt lat="45.8631" lon="6.77995">
        <ele>1634.38</ele>
        <time>2019-08-04T18:48:39Z</time>
      </trkpt>
      <trkpt lat="45.86313" lon="6.77995">
        <ele>1634.38</ele>
        <time>2019-08-04T18:48:40Z</time>
      </trkpt>
      <trkpt lat="45.86315" lon="6.77995">
        <ele>1633.42</ele>
        <time>2019-08-04T18:48:41Z</time>
      </trkpt>
      <trkpt lat="45.86318" lon="6.77996">
        <ele>1632.46</ele>
        <time>2019-08-04T18:48:42Z</time>
      </trkpt>
      <trkpt lat="45.86319" lon="6.77996">
        <ele>1631.98</ele>
        <time>2019-08-04T18:48:43Z</time>
      </trkpt>
      <trkpt lat="45.86321" lon="6.77995">
        <ele>1631.98</ele>
        <time>2019-08-04T18:48:44Z</time>
      </trkpt>
      <trkpt lat="45.86322" lon="6.77994">
        <ele>1631.01</ele>
        <time>2019-08-04T18:48:45Z</time>
      </trkpt>
      <trkpt lat="45.86324" lon="6.77992">
        <ele>1630.53</ele>
        <time>2019-08-04T18:48:46Z</time>
      </trkpt>
      <trkpt lat="45.86324" lon="6.77991">
        <ele>1630.05</ele>
        <time>2019-08-04T18:48:47Z</time>
      </trkpt>
      <trkpt lat="45.86327" lon="6.77994">
        <ele>1628.61</ele>
        <time>2019-08-04T18:48:53Z</time>
      </trkpt>
      <trkpt lat="45.86332" lon="6.78001">
        <ele>1627.17</ele>
        <time>2019-08-04T18:48:58Z</time>
      </trkpt>
      <trkpt lat="45.86336" lon="6.77998">
        <ele>1624.77</ele>
        <time>2019-08-04T18:49:17Z</time>
      </trkpt>
      <trkpt lat="45.86335" lon="6.77998">
        <ele>1624.77</ele>
        <time>2019-08-04T18:49:18Z</time>
      </trkpt>
      <trkpt lat="45.86332" lon="6.77998">
        <ele>1624.77</ele>
        <time>2019-08-04T18:49:31Z</time>
      </trkpt>
      <trkpt lat="45.86332" lon="6.77998">
        <ele>1624.28</ele>
        <time>2019-08-04T18:49:32Z</time>
      </trkpt>
      <trkpt lat="45.86337" lon="6.77997">
        <ele>1623.8</ele>
        <time>2019-08-04T18:49:35Z</time>
      </trkpt>
      <trkpt lat="45.86338" lon="6.77996">
        <ele>1622.84</ele>
        <time>2019-08-04T18:49:36Z</time>
      </trkpt>
      <trkpt lat="45.86339" lon="6.77995">
        <ele>1622.36</ele>
        <time>2019-08-04T18:49:37Z</time>
      </trkpt>
      <trkpt lat="45.86341" lon="6.77991">
        <ele>1619.48</ele>
        <time>2019-08-04T18:49:42Z</time>
      </trkpt>
      <trkpt lat="45.86343" lon="6.77979">
        <ele>1616.11</ele>
        <time>2019-08-04T18:49:49Z</time>
      </trkpt>
      <trkpt lat="45.86342" lon="6.77971">
        <ele>1613.23</ele>
        <time>2019-08-04T18:49:54Z</time>
      </trkpt>
      <trkpt lat="45.86341" lon="6.77959">
        <ele>1609.86</ele>
        <time>2019-08-04T18:50:00Z</time>
      </trkpt>
      <trkpt lat="45.8634" lon="6.77949">
        <ele>1606.5</ele>
        <time>2019-08-04T18:50:06Z</time>
      </trkpt>
      <trkpt lat="45.8634" lon="6.77944">
        <ele>1604.58</ele>
        <time>2019-08-04T18:50:10Z</time>
      </trkpt>
      <trkpt lat="45.86341" lon="6.77939">
        <ele>1602.17</ele>
        <time>2019-08-04T18:50:13Z</time>
      </trkpt>
      <trkpt lat="45.86342" lon="6.77936">
        <ele>1602.17</ele>
        <time>2019-08-04T18:50:14Z</time>
      </trkpt>
      <trkpt lat="45.86344" lon="6.77934">
        <ele>1601.21</ele>
        <time>2019-08-04T18:50:15Z</time>
      </trkpt>
      <trkpt lat="45.86347" lon="6.77932">
        <ele>1600.73</ele>
        <time>2019-08-04T18:50:16Z</time>
      </trkpt>
      <trkpt lat="45.86348" lon="6.7793">
        <ele>1599.77</ele>
        <time>2019-08-04T18:50:17Z</time>
      </trkpt>
      <trkpt lat="45.86347" lon="6.77926">
        <ele>1599.77</ele>
        <time>2019-08-04T18:50:18Z</time>
      </trkpt>
      <trkpt lat="45.86347" lon="6.77923">
        <ele>1599.29</ele>
        <time>2019-08-04T18:50:19Z</time>
      </trkpt>
      <trkpt lat="45.8635" lon="6.77919">
        <ele>1598.33</ele>
        <time>2019-08-04T18:50:50Z</time>
      </trkpt>
      <trkpt lat="45.86351" lon="6.77916">
        <ele>1598.33</ele>
        <time>2019-08-04T18:50:58Z</time>
      </trkpt>
      <trkpt lat="45.86352" lon="6.77916">
        <ele>1597.85</ele>
        <time>2019-08-04T18:50:59Z</time>
      </trkpt>
      <trkpt lat="45.86353" lon="6.77917">
        <ele>1597.37</ele>
        <time>2019-08-04T18:51:00Z</time>
      </trkpt>
      <trkpt lat="45.86357" lon="6.77915">
        <ele>1594</ele>
        <time>2019-08-04T18:51:04Z</time>
      </trkpt>
      <trkpt lat="45.8636" lon="6.77912">
        <ele>1592.08</ele>
        <time>2019-08-04T18:51:08Z</time>
      </trkpt>
      <trkpt lat="45.86361" lon="6.77902">
        <ele>1588.72</ele>
        <time>2019-08-04T18:51:15Z</time>
      </trkpt>
      <trkpt lat="45.86362" lon="6.779">
        <ele>1588.24</ele>
        <time>2019-08-04T18:51:16Z</time>
      </trkpt>
      <trkpt lat="45.86363" lon="6.77895">
        <ele>1587.75</ele>
        <time>2019-08-04T18:51:17Z</time>
      </trkpt>
      <trkpt lat="45.86363" lon="6.77892">
        <ele>1586.79</ele>
        <time>2019-08-04T18:51:18Z</time>
      </trkpt>
      <trkpt lat="45.86366" lon="6.77871">
        <ele>1583.91</ele>
        <time>2019-08-04T18:51:25Z</time>
      </trkpt>
      <trkpt lat="45.86365" lon="6.77868">
        <ele>1583.43</ele>
        <time>2019-08-04T18:51:26Z</time>
      </trkpt>
      <trkpt lat="45.86364" lon="6.77865">
        <ele>1582.95</ele>
        <time>2019-08-04T18:51:27Z</time>
      </trkpt>
      <trkpt lat="45.86358" lon="6.77853">
        <ele>1579.58</ele>
        <time>2019-08-04T18:51:32Z</time>
      </trkpt>
      <trkpt lat="45.8636" lon="6.77843">
        <ele>1577.18</ele>
        <time>2019-08-04T18:51:36Z</time>
      </trkpt>
      <trkpt lat="45.86364" lon="6.77841">
        <ele>1577.18</ele>
        <time>2019-08-04T18:51:37Z</time>
      </trkpt>
      <trkpt lat="45.86377" lon="6.77835">
        <ele>1573.82</ele>
        <time>2019-08-04T18:51:44Z</time>
      </trkpt>
      <trkpt lat="45.8638" lon="6.77834">
        <ele>1572.85</ele>
        <time>2019-08-04T18:51:45Z</time>
      </trkpt>
      <trkpt lat="45.86381" lon="6.77834">
        <ele>1572.37</ele>
        <time>2019-08-04T18:51:46Z</time>
      </trkpt>
      <trkpt lat="45.86382" lon="6.77835">
        <ele>1571.41</ele>
        <time>2019-08-04T18:51:47Z</time>
      </trkpt>
      <trkpt lat="45.86383" lon="6.77836">
        <ele>1570.93</ele>
        <time>2019-08-04T18:51:48Z</time>
      </trkpt>
      <trkpt lat="45.86383" lon="6.77836">
        <ele>1570.45</ele>
        <time>2019-08-04T18:51:49Z</time>
      </trkpt>
      <trkpt lat="45.86384" lon="6.77835">
        <ele>1569.97</ele>
        <time>2019-08-04T18:51:50Z</time>
      </trkpt>
      <trkpt lat="45.86386" lon="6.77833">
        <ele>1569.49</ele>
        <time>2019-08-04T18:51:51Z</time>
      </trkpt>
      <trkpt lat="45.86387" lon="6.77832">
        <ele>1569.01</ele>
        <time>2019-08-04T18:51:52Z</time>
      </trkpt>
      <trkpt lat="45.86388" lon="6.7783">
        <ele>1568.53</ele>
        <time>2019-08-04T18:51:53Z</time>
      </trkpt>
      <trkpt lat="45.86389" lon="6.77829">
        <ele>1567.57</ele>
        <time>2019-08-04T18:51:54Z</time>
      </trkpt>
      <trkpt lat="45.8639" lon="6.77827">
        <ele>1567.57</ele>
        <time>2019-08-04T18:51:55Z</time>
      </trkpt>
      <trkpt lat="45.86389" lon="6.7782">
        <ele>1565.16</ele>
        <time>2019-08-04T18:52:00Z</time>
      </trkpt>
      <trkpt lat="45.86389" lon="6.77816">
        <ele>1564.2</ele>
        <time>2019-08-04T18:52:01Z</time>
      </trkpt>
      <trkpt lat="45.8639" lon="6.77813">
        <ele>1563.24</ele>
        <time>2019-08-04T18:52:02Z</time>
      </trkpt>
      <trkpt lat="45.86389" lon="6.7781">
        <ele>1562.76</ele>
        <time>2019-08-04T18:52:03Z</time>
      </trkpt>
      <trkpt lat="45.86389" lon="6.77807">
        <ele>1561.8</ele>
        <time>2019-08-04T18:52:04Z</time>
      </trkpt>
      <trkpt lat="45.8639" lon="6.77804">
        <ele>1561.32</ele>
        <time>2019-08-04T18:52:05Z</time>
      </trkpt>
      <trkpt lat="45.8639" lon="6.778">
        <ele>1560.84</ele>
        <time>2019-08-04T18:52:06Z</time>
      </trkpt>
      <trkpt lat="45.8639" lon="6.77797">
        <ele>1560.36</ele>
        <time>2019-08-04T18:52:07Z</time>
      </trkpt>
      <trkpt lat="45.86391" lon="6.77795">
        <ele>1559.88</ele>
        <time>2019-08-04T18:52:08Z</time>
      </trkpt>
      <trkpt lat="45.86391" lon="6.77792">
        <ele>1559.4</ele>
        <time>2019-08-04T18:52:09Z</time>
      </trkpt>
      <trkpt lat="45.86391" lon="6.77788">
        <ele>1558.92</ele>
        <time>2019-08-04T18:52:10Z</time>
      </trkpt>
      <trkpt lat="45.86391" lon="6.77784">
        <ele>1558.43</ele>
        <time>2019-08-04T18:52:11Z</time>
      </trkpt>
      <trkpt lat="45.8639" lon="6.77779">
        <ele>1557.95</ele>
        <time>2019-08-04T18:52:12Z</time>
      </trkpt>
      <trkpt lat="45.86389" lon="6.77775">
        <ele>1557.47</ele>
        <time>2019-08-04T18:52:13Z</time>
      </trkpt>
      <trkpt lat="45.86389" lon="6.77773">
        <ele>1556.99</ele>
        <time>2019-08-04T18:52:14Z</time>
      </trkpt>
      <trkpt lat="45.86388" lon="6.77769">
        <ele>1556.03</ele>
        <time>2019-08-04T18:52:15Z</time>
      </trkpt>
      <trkpt lat="45.86386" lon="6.77767">
        <ele>1555.55</ele>
        <time>2019-08-04T18:52:16Z</time>
      </trkpt>
      <trkpt lat="45.86385" lon="6.77765">
        <ele>1554.59</ele>
        <time>2019-08-04T18:52:17Z</time>
      </trkpt>
      <trkpt lat="45.86381" lon="6.77764">
        <ele>1554.59</ele>
        <time>2019-08-04T18:52:18Z</time>
      </trkpt>
      <trkpt lat="45.8638" lon="6.77763">
        <ele>1553.63</ele>
        <time>2019-08-04T18:52:19Z</time>
      </trkpt>
      <trkpt lat="45.86378" lon="6.77762">
        <ele>1552.67</ele>
        <time>2019-08-04T18:52:20Z</time>
      </trkpt>
      <trkpt lat="45.86376" lon="6.77761">
        <ele>1552.19</ele>
        <time>2019-08-04T18:52:21Z</time>
      </trkpt>
      <trkpt lat="45.86374" lon="6.7776">
        <ele>1552.19</ele>
        <time>2019-08-04T18:52:22Z</time>
      </trkpt>
      <trkpt lat="45.86372" lon="6.77758">
        <ele>1551.71</ele>
        <time>2019-08-04T18:52:23Z</time>
      </trkpt>
      <trkpt lat="45.8637" lon="6.77756">
        <ele>1550.74</ele>
        <time>2019-08-04T18:52:24Z</time>
      </trkpt>
      <trkpt lat="45.86371" lon="6.77754">
        <ele>1550.26</ele>
        <time>2019-08-04T18:52:25Z</time>
      </trkpt>
      <trkpt lat="45.86371" lon="6.77752">
        <ele>1549.78</ele>
        <time>2019-08-04T18:52:27Z</time>
      </trkpt>
      <trkpt lat="45.8637" lon="6.77748">
        <ele>1548.82</ele>
        <time>2019-08-04T18:52:29Z</time>
      </trkpt>
      <trkpt lat="45.86366" lon="6.77735">
        <ele>1544.98</ele>
        <time>2019-08-04T18:52:34Z</time>
      </trkpt>
      <trkpt lat="45.86367" lon="6.77731">
        <ele>1544.5</ele>
        <time>2019-08-04T18:52:35Z</time>
      </trkpt>
      <trkpt lat="45.86369" lon="6.77728">
        <ele>1543.05</ele>
        <time>2019-08-04T18:52:37Z</time>
      </trkpt>
      <trkpt lat="45.8637" lon="6.77725">
        <ele>1542.57</ele>
        <time>2019-08-04T18:52:38Z</time>
      </trkpt>
      <trkpt lat="45.86372" lon="6.7772">
        <ele>1541.61</ele>
        <time>2019-08-04T18:52:40Z</time>
      </trkpt>
      <trkpt lat="45.86372" lon="6.77718">
        <ele>1540.65</ele>
        <time>2019-08-04T18:52:41Z</time>
      </trkpt>
      <trkpt lat="45.86373" lon="6.77715">
        <ele>1539.69</ele>
        <time>2019-08-04T18:52:42Z</time>
      </trkpt>
      <trkpt lat="45.86375" lon="6.77712">
        <ele>1539.21</ele>
        <time>2019-08-04T18:52:43Z</time>
      </trkpt>
      <trkpt lat="45.86376" lon="6.7771">
        <ele>1538.25</ele>
        <time>2019-08-04T18:52:44Z</time>
      </trkpt>
      <trkpt lat="45.86377" lon="6.77709">
        <ele>1537.77</ele>
        <time>2019-08-04T18:52:45Z</time>
      </trkpt>
      <trkpt lat="45.86378" lon="6.77707">
        <ele>1537.29</ele>
        <time>2019-08-04T18:52:46Z</time>
      </trkpt>
      <trkpt lat="45.86379" lon="6.77705">
        <ele>1536.8</ele>
        <time>2019-08-04T18:52:47Z</time>
      </trkpt>
      <trkpt lat="45.86379" lon="6.77703">
        <ele>1536.8</ele>
        <time>2019-08-04T18:52:48Z</time>
      </trkpt>
      <trkpt lat="45.86378" lon="6.77699">
        <ele>1535.84</ele>
        <time>2019-08-04T18:52:49Z</time>
      </trkpt>
      <trkpt lat="45.86377" lon="6.77696">
        <ele>1535.36</ele>
        <time>2019-08-04T18:52:50Z</time>
      </trkpt>
      <trkpt lat="45.86377" lon="6.77693">
        <ele>1534.88</ele>
        <time>2019-08-04T18:52:51Z</time>
      </trkpt>
      <trkpt lat="45.86378" lon="6.77691">
        <ele>1534.4</ele>
        <time>2019-08-04T18:52:52Z</time>
      </trkpt>
      <trkpt lat="45.86378" lon="6.77689">
        <ele>1534.4</ele>
        <time>2019-08-04T18:52:53Z</time>
      </trkpt>
      <trkpt lat="45.86379" lon="6.77687">
        <ele>1534.4</ele>
        <time>2019-08-04T18:52:54Z</time>
      </trkpt>
      <trkpt lat="45.86379" lon="6.77685">
        <ele>1533.92</ele>
        <time>2019-08-04T18:52:55Z</time>
      </trkpt>
      <trkpt lat="45.86379" lon="6.77684">
        <ele>1532.96</ele>
        <time>2019-08-04T18:52:56Z</time>
      </trkpt>
      <trkpt lat="45.86378" lon="6.7768">
        <ele>1531.52</ele>
        <time>2019-08-04T18:52:58Z</time>
      </trkpt>
      <trkpt lat="45.86377" lon="6.77677">
        <ele>1531.04</ele>
        <time>2019-08-04T18:52:59Z</time>
      </trkpt>
      <trkpt lat="45.86375" lon="6.77675">
        <ele>1530.08</ele>
        <time>2019-08-04T18:53:00Z</time>
      </trkpt>
      <trkpt lat="45.86375" lon="6.77673">
        <ele>1529.59</ele>
        <time>2019-08-04T18:53:01Z</time>
      </trkpt>
      <trkpt lat="45.86376" lon="6.77671">
        <ele>1528.63</ele>
        <time>2019-08-04T18:53:03Z</time>
      </trkpt>
      <trkpt lat="45.8637" lon="6.7766">
        <ele>1527.67</ele>
        <time>2019-08-04T18:53:35Z</time>
      </trkpt>
      <trkpt lat="45.86367" lon="6.77658">
        <ele>1527.19</ele>
        <time>2019-08-04T18:53:40Z</time>
      </trkpt>
      <trkpt lat="45.86368" lon="6.77658">
        <ele>1527.19</ele>
        <time>2019-08-04T18:53:47Z</time>
      </trkpt>
      <trkpt lat="45.86367" lon="6.77659">
        <ele>1527.19</ele>
        <time>2019-08-04T18:54:01Z</time>
      </trkpt>
      <trkpt lat="45.86371" lon="6.77659">
        <ele>1527.19</ele>
        <time>2019-08-04T18:54:11Z</time>
      </trkpt>
      <trkpt lat="45.86366" lon="6.77658">
        <ele>1530.08</ele>
        <time>2019-08-04T18:54:48Z</time>
      </trkpt>
      <trkpt lat="45.86365" lon="6.7767">
        <ele>1532.96</ele>
        <time>2019-08-04T18:55:09Z</time>
      </trkpt>
      <trkpt lat="45.86364" lon="6.77671">
        <ele>1533.44</ele>
        <time>2019-08-04T18:55:10Z</time>
      </trkpt>
      <trkpt lat="45.86365" lon="6.77674">
        <ele>1533.44</ele>
        <time>2019-08-04T18:55:12Z</time>
      </trkpt>
      <trkpt lat="45.86363" lon="6.77681">
        <ele>1534.4</ele>
        <time>2019-08-04T18:55:17Z</time>
      </trkpt>
      <trkpt lat="45.86368" lon="6.77687">
        <ele>1534.88</ele>
        <time>2019-08-04T18:55:38Z</time>
      </trkpt>
      <trkpt lat="45.86374" lon="6.77689">
        <ele>1534.4</ele>
        <time>2019-08-04T18:56:07Z</time>
      </trkpt>
      <trkpt lat="45.86375" lon="6.77699">
        <ele>1535.36</ele>
        <time>2019-08-04T18:56:21Z</time>
      </trkpt>
      <trkpt lat="45.86372" lon="6.77704">
        <ele>1538.73</ele>
        <time>2019-08-04T18:56:42Z</time>
      </trkpt>
      <trkpt lat="45.86372" lon="6.77701">
        <ele>1539.21</ele>
        <time>2019-08-04T18:56:48Z</time>
      </trkpt>
      <trkpt lat="45.8637" lon="6.77706">
        <ele>1539.21</ele>
        <time>2019-08-04T18:57:03Z</time>
      </trkpt>
      <trkpt lat="45.86369" lon="6.77706">
        <ele>1539.21</ele>
        <time>2019-08-04T18:57:04Z</time>
      </trkpt>
      <trkpt lat="45.86367" lon="6.77705">
        <ele>1538.73</ele>
        <time>2019-08-04T18:57:05Z</time>
      </trkpt>
      <trkpt lat="45.86367" lon="6.77704">
        <ele>1538.73</ele>
        <time>2019-08-04T18:57:06Z</time>
      </trkpt>
      <trkpt lat="45.86367" lon="6.77704">
        <ele>1538.25</ele>
        <time>2019-08-04T18:57:07Z</time>
      </trkpt>
      <trkpt lat="45.86371" lon="6.7769">
        <ele>1535.36</ele>
        <time>2019-08-04T18:57:19Z</time>
      </trkpt>
      <trkpt lat="45.86371" lon="6.77689">
        <ele>1535.36</ele>
        <time>2019-08-04T18:57:20Z</time>
      </trkpt>
      <trkpt lat="45.8637" lon="6.77691">
        <ele>1534.4</ele>
        <time>2019-08-04T18:57:37Z</time>
      </trkpt>
      <trkpt lat="45.8637" lon="6.77692">
        <ele>1534.4</ele>
        <time>2019-08-04T18:57:43Z</time>
      </trkpt>
      <trkpt lat="45.86372" lon="6.77692">
        <ele>1534.88</ele>
        <time>2019-08-04T18:57:52Z</time>
      </trkpt>
      <trkpt lat="45.86366" lon="6.77692">
        <ele>1533.92</ele>
        <time>2019-08-04T18:58:12Z</time>
      </trkpt>
      <trkpt lat="45.86374" lon="6.7768">
        <ele>1531.04</ele>
        <time>2019-08-04T18:58:40Z</time>
      </trkpt>
      <trkpt lat="45.86374" lon="6.77678">
        <ele>1530.08</ele>
        <time>2019-08-04T18:58:41Z</time>
      </trkpt>
      <trkpt lat="45.86375" lon="6.77675">
        <ele>1529.59</ele>
        <time>2019-08-04T18:58:42Z</time>
      </trkpt>
      <trkpt lat="45.86375" lon="6.77672">
        <ele>1529.59</ele>
        <time>2019-08-04T18:58:43Z</time>
      </trkpt>
      <trkpt lat="45.86376" lon="6.7767">
        <ele>1528.63</ele>
        <time>2019-08-04T18:58:44Z</time>
      </trkpt>
      <trkpt lat="45.86377" lon="6.77666">
        <ele>1528.63</ele>
        <time>2019-08-04T18:58:45Z</time>
      </trkpt>
      <trkpt lat="45.86377" lon="6.77664">
        <ele>1527.67</ele>
        <time>2019-08-04T18:58:46Z</time>
      </trkpt>
      <trkpt lat="45.86378" lon="6.77661">
        <ele>1527.19</ele>
        <time>2019-08-04T18:58:47Z</time>
      </trkpt>
      <trkpt lat="45.8638" lon="6.77658">
        <ele>1526.71</ele>
        <time>2019-08-04T18:58:48Z</time>
      </trkpt>
      <trkpt lat="45.86386" lon="6.77641">
        <ele>1523.35</ele>
        <time>2019-08-04T18:58:54Z</time>
      </trkpt>
      <trkpt lat="45.86384" lon="6.77623">
        <ele>1519.98</ele>
        <time>2019-08-04T18:59:00Z</time>
      </trkpt>
      <trkpt lat="45.86383" lon="6.77603">
        <ele>1516.62</ele>
        <time>2019-08-04T18:59:06Z</time>
      </trkpt>
      <trkpt lat="45.86383" lon="6.77596">
        <ele>1514.69</ele>
        <time>2019-08-04T18:59:14Z</time>
      </trkpt>
      <trkpt lat="45.86385" lon="6.77594">
        <ele>1514.21</ele>
        <time>2019-08-04T18:59:16Z</time>
      </trkpt>
      <trkpt lat="45.86388" lon="6.77587">
        <ele>1513.25</ele>
        <time>2019-08-04T18:59:21Z</time>
      </trkpt>
      <trkpt lat="45.86389" lon="6.77585">
        <ele>1512.77</ele>
        <time>2019-08-04T18:59:22Z</time>
      </trkpt>
      <trkpt lat="45.86393" lon="6.77577">
        <ele>1511.81</ele>
        <time>2019-08-04T18:59:28Z</time>
      </trkpt>
      <trkpt lat="45.86395" lon="6.77576">
        <ele>1511.33</ele>
        <time>2019-08-04T18:59:29Z</time>
      </trkpt>
      <trkpt lat="45.86396" lon="6.77571">
        <ele>1509.89</ele>
        <time>2019-08-04T18:59:37Z</time>
      </trkpt>
      <trkpt lat="45.86397" lon="6.77566">
        <ele>1509.41</ele>
        <time>2019-08-04T18:59:40Z</time>
      </trkpt>
      <trkpt lat="45.86398" lon="6.77561">
        <ele>1508.45</ele>
        <time>2019-08-04T18:59:44Z</time>
      </trkpt>
      <trkpt lat="45.86399" lon="6.7756">
        <ele>1508.45</ele>
        <time>2019-08-04T18:59:45Z</time>
      </trkpt>
      <trkpt lat="45.86399" lon="6.77553">
        <ele>1507.48</ele>
        <time>2019-08-04T18:59:51Z</time>
      </trkpt>
      <trkpt lat="45.86399" lon="6.77545">
        <ele>1506.04</ele>
        <time>2019-08-04T18:59:57Z</time>
      </trkpt>
      <trkpt lat="45.86399" lon="6.77544">
        <ele>1505.56</ele>
        <time>2019-08-04T18:59:58Z</time>
      </trkpt>
      <trkpt lat="45.86398" lon="6.77542">
        <ele>1505.56</ele>
        <time>2019-08-04T18:59:59Z</time>
      </trkpt>
      <trkpt lat="45.86399" lon="6.7754">
        <ele>1505.56</ele>
        <time>2019-08-04T19:00:00Z</time>
      </trkpt>
      <trkpt lat="45.86404" lon="6.77522">
        <ele>1502.2</ele>
        <time>2019-08-04T19:00:10Z</time>
      </trkpt>
      <trkpt lat="45.86406" lon="6.7752">
        <ele>1502.2</ele>
        <time>2019-08-04T19:00:11Z</time>
      </trkpt>
      <trkpt lat="45.86408" lon="6.7752">
        <ele>1502.2</ele>
        <time>2019-08-04T19:00:12Z</time>
      </trkpt>
      <trkpt lat="45.8641" lon="6.77519">
        <ele>1501.72</ele>
        <time>2019-08-04T19:00:13Z</time>
      </trkpt>
      <trkpt lat="45.86411" lon="6.77518">
        <ele>1501.72</ele>
        <time>2019-08-04T19:00:14Z</time>
      </trkpt>
      <trkpt lat="45.86412" lon="6.77517">
        <ele>1501.72</ele>
        <time>2019-08-04T19:00:15Z</time>
      </trkpt>
      <trkpt lat="45.86413" lon="6.77515">
        <ele>1501.24</ele>
        <time>2019-08-04T19:00:16Z</time>
      </trkpt>
      <trkpt lat="45.86414" lon="6.77513">
        <ele>1501.24</ele>
        <time>2019-08-04T19:00:17Z</time>
      </trkpt>
      <trkpt lat="45.86414" lon="6.77512">
        <ele>1501.24</ele>
        <time>2019-08-04T19:00:18Z</time>
      </trkpt>
      <trkpt lat="45.86413" lon="6.77506">
        <ele>1499.79</ele>
        <time>2019-08-04T19:00:22Z</time>
      </trkpt>
      <trkpt lat="45.86412" lon="6.77504">
        <ele>1499.31</ele>
        <time>2019-08-04T19:00:23Z</time>
      </trkpt>
      <trkpt lat="45.86412" lon="6.775">
        <ele>1498.83</ele>
        <time>2019-08-04T19:00:25Z</time>
      </trkpt>
      <trkpt lat="45.86413" lon="6.77498">
        <ele>1498.35</ele>
        <time>2019-08-04T19:00:26Z</time>
      </trkpt>
      <trkpt lat="45.86413" lon="6.77497">
        <ele>1497.87</ele>
        <time>2019-08-04T19:00:27Z</time>
      </trkpt>
      <trkpt lat="45.86414" lon="6.77495">
        <ele>1497.39</ele>
        <time>2019-08-04T19:00:28Z</time>
      </trkpt>
      <trkpt lat="45.86415" lon="6.77493">
        <ele>1497.39</ele>
        <time>2019-08-04T19:00:29Z</time>
      </trkpt>
      <trkpt lat="45.86417" lon="6.77492">
        <ele>1496.91</ele>
        <time>2019-08-04T19:00:30Z</time>
      </trkpt>
      <trkpt lat="45.86418" lon="6.77491">
        <ele>1496.91</ele>
        <time>2019-08-04T19:00:31Z</time>
      </trkpt>
      <trkpt lat="45.8642" lon="6.7749">
        <ele>1496.43</ele>
        <time>2019-08-04T19:00:32Z</time>
      </trkpt>
      <trkpt lat="45.86421" lon="6.77489">
        <ele>1496.43</ele>
        <time>2019-08-04T19:00:33Z</time>
      </trkpt>
      <trkpt lat="45.86422" lon="6.77487">
        <ele>1496.43</ele>
        <time>2019-08-04T19:00:34Z</time>
      </trkpt>
      <trkpt lat="45.86423" lon="6.77485">
        <ele>1495.95</ele>
        <time>2019-08-04T19:00:35Z</time>
      </trkpt>
      <trkpt lat="45.86422" lon="6.77483">
        <ele>1495.95</ele>
        <time>2019-08-04T19:00:36Z</time>
      </trkpt>
      <trkpt lat="45.86422" lon="6.77482">
        <ele>1495.47</ele>
        <time>2019-08-04T19:00:37Z</time>
      </trkpt>
      <trkpt lat="45.86421" lon="6.77478">
        <ele>1494.51</ele>
        <time>2019-08-04T19:00:40Z</time>
      </trkpt>
      <trkpt lat="45.86421" lon="6.77476">
        <ele>1494.03</ele>
        <time>2019-08-04T19:00:41Z</time>
      </trkpt>
      <trkpt lat="45.8642" lon="6.77475">
        <ele>1494.03</ele>
        <time>2019-08-04T19:00:42Z</time>
      </trkpt>
      <trkpt lat="45.8642" lon="6.77473">
        <ele>1493.55</ele>
        <time>2019-08-04T19:00:43Z</time>
      </trkpt>
      <trkpt lat="45.8642" lon="6.77471">
        <ele>1493.06</ele>
        <time>2019-08-04T19:00:44Z</time>
      </trkpt>
      <trkpt lat="45.8642" lon="6.77469">
        <ele>1493.06</ele>
        <time>2019-08-04T19:00:45Z</time>
      </trkpt>
      <trkpt lat="45.8642" lon="6.77465">
        <ele>1492.1</ele>
        <time>2019-08-04T19:00:50Z</time>
      </trkpt>
      <trkpt lat="45.86421" lon="6.77458">
        <ele>1491.14</ele>
        <time>2019-08-04T19:00:55Z</time>
      </trkpt>
      <trkpt lat="45.86422" lon="6.77453">
        <ele>1490.66</ele>
        <time>2019-08-04T19:00:58Z</time>
      </trkpt>
      <trkpt lat="45.86422" lon="6.77452">
        <ele>1490.18</ele>
        <time>2019-08-04T19:00:59Z</time>
      </trkpt>
      <trkpt lat="45.86426" lon="6.77449">
        <ele>1489.7</ele>
        <time>2019-08-04T19:01:05Z</time>
      </trkpt>
      <trkpt lat="45.86427" lon="6.77448">
        <ele>1489.7</ele>
        <time>2019-08-04T19:01:06Z</time>
      </trkpt>
      <trkpt lat="45.86428" lon="6.77447">
        <ele>1489.22</ele>
        <time>2019-08-04T19:01:07Z</time>
      </trkpt>
      <trkpt lat="45.86431" lon="6.77441">
        <ele>1488.74</ele>
        <time>2019-08-04T19:01:10Z</time>
      </trkpt>
      <trkpt lat="45.86433" lon="6.77436">
        <ele>1488.26</ele>
        <time>2019-08-04T19:01:14Z</time>
      </trkpt>
      <trkpt lat="45.86433" lon="6.77434">
        <ele>1487.78</ele>
        <time>2019-08-04T19:01:15Z</time>
      </trkpt>
      <trkpt lat="45.86434" lon="6.77434">
        <ele>1487.78</ele>
        <time>2019-08-04T19:01:16Z</time>
      </trkpt>
      <trkpt lat="45.86435" lon="6.77433">
        <ele>1487.3</ele>
        <time>2019-08-04T19:01:17Z</time>
      </trkpt>
      <trkpt lat="45.86436" lon="6.77433">
        <ele>1486.82</ele>
        <time>2019-08-04T19:01:19Z</time>
      </trkpt>
      <trkpt lat="45.86438" lon="6.7743">
        <ele>1486.34</ele>
        <time>2019-08-04T19:01:22Z</time>
      </trkpt>
      <trkpt lat="45.86438" lon="6.77428">
        <ele>1486.34</ele>
        <time>2019-08-04T19:01:23Z</time>
      </trkpt>
      <trkpt lat="45.8644" lon="6.77427">
        <ele>1485.85</ele>
        <time>2019-08-04T19:01:25Z</time>
      </trkpt>
      <trkpt lat="45.86441" lon="6.77426">
        <ele>1485.85</ele>
        <time>2019-08-04T19:01:26Z</time>
      </trkpt>
      <trkpt lat="45.86442" lon="6.77425">
        <ele>1485.37</ele>
        <time>2019-08-04T19:01:27Z</time>
      </trkpt>
      <trkpt lat="45.86443" lon="6.77424">
        <ele>1485.37</ele>
        <time>2019-08-04T19:01:28Z</time>
      </trkpt>
      <trkpt lat="45.86445" lon="6.77418">
        <ele>1484.41</ele>
        <time>2019-08-04T19:01:32Z</time>
      </trkpt>
      <trkpt lat="45.86447" lon="6.77412">
        <ele>1482.97</ele>
        <time>2019-08-04T19:01:38Z</time>
      </trkpt>
      <trkpt lat="45.86447" lon="6.77407">
        <ele>1482.49</ele>
        <time>2019-08-04T19:01:41Z</time>
      </trkpt>
      <trkpt lat="45.86446" lon="6.77406">
        <ele>1482.01</ele>
        <time>2019-08-04T19:01:44Z</time>
      </trkpt>
      <trkpt lat="45.86445" lon="6.77405">
        <ele>1482.01</ele>
        <time>2019-08-04T19:01:46Z</time>
      </trkpt>
      <trkpt lat="45.86446" lon="6.77406">
        <ele>1481.05</ele>
        <time>2019-08-04T19:01:57Z</time>
      </trkpt>
      <trkpt lat="45.86449" lon="6.77404">
        <ele>1481.53</ele>
        <time>2019-08-04T19:02:00Z</time>
      </trkpt>
      <trkpt lat="45.86451" lon="6.77404">
        <ele>1481.53</ele>
        <time>2019-08-04T19:02:01Z</time>
      </trkpt>
      <trkpt lat="45.86452" lon="6.77403">
        <ele>1481.53</ele>
        <time>2019-08-04T19:02:02Z</time>
      </trkpt>
      <trkpt lat="45.86453" lon="6.77401">
        <ele>1481.53</ele>
        <time>2019-08-04T19:02:03Z</time>
      </trkpt>
      <trkpt lat="45.86453" lon="6.77399">
        <ele>1481.53</ele>
        <time>2019-08-04T19:02:04Z</time>
      </trkpt>
      <trkpt lat="45.86453" lon="6.77397">
        <ele>1481.53</ele>
        <time>2019-08-04T19:02:05Z</time>
      </trkpt>
      <trkpt lat="45.86454" lon="6.77395">
        <ele>1481.05</ele>
        <time>2019-08-04T19:02:06Z</time>
      </trkpt>
      <trkpt lat="45.86456" lon="6.77394">
        <ele>1480.57</ele>
        <time>2019-08-04T19:02:08Z</time>
      </trkpt>
      <trkpt lat="45.86457" lon="6.77394">
        <ele>1480.57</ele>
        <time>2019-08-04T19:02:09Z</time>
      </trkpt>
      <trkpt lat="45.86459" lon="6.7739">
        <ele>1479.61</ele>
        <time>2019-08-04T19:02:13Z</time>
      </trkpt>
      <trkpt lat="45.8646" lon="6.77389">
        <ele>1479.61</ele>
        <time>2019-08-04T19:02:14Z</time>
      </trkpt>
      <trkpt lat="45.8646" lon="6.77388">
        <ele>1479.61</ele>
        <time>2019-08-04T19:02:15Z</time>
      </trkpt>
      <trkpt lat="45.86461" lon="6.77385">
        <ele>1479.13</ele>
        <time>2019-08-04T19:02:17Z</time>
      </trkpt>
      <trkpt lat="45.86462" lon="6.77384">
        <ele>1479.13</ele>
        <time>2019-08-04T19:02:18Z</time>
      </trkpt>
      <trkpt lat="45.86463" lon="6.77382">
        <ele>1478.65</ele>
        <time>2019-08-04T19:02:19Z</time>
      </trkpt>
      <trkpt lat="45.86464" lon="6.77381">
        <ele>1478.16</ele>
        <time>2019-08-04T19:02:20Z</time>
      </trkpt>
      <trkpt lat="45.86466" lon="6.77379">
        <ele>1477.68</ele>
        <time>2019-08-04T19:02:23Z</time>
      </trkpt>
      <trkpt lat="45.86467" lon="6.77379">
        <ele>1477.68</ele>
        <time>2019-08-04T19:02:24Z</time>
      </trkpt>
      <trkpt lat="45.86468" lon="6.77378">
        <ele>1477.2</ele>
        <time>2019-08-04T19:02:25Z</time>
      </trkpt>
      <trkpt lat="45.86468" lon="6.77377">
        <ele>1477.2</ele>
        <time>2019-08-04T19:02:26Z</time>
      </trkpt>
      <trkpt lat="45.86469" lon="6.77375">
        <ele>1476.72</ele>
        <time>2019-08-04T19:02:27Z</time>
      </trkpt>
      <trkpt lat="45.86471" lon="6.77374">
        <ele>1476.24</ele>
        <time>2019-08-04T19:02:28Z</time>
      </trkpt>
      <trkpt lat="45.86472" lon="6.77373">
        <ele>1476.24</ele>
        <time>2019-08-04T19:02:29Z</time>
      </trkpt>
      <trkpt lat="45.86473" lon="6.77371">
        <ele>1475.76</ele>
        <time>2019-08-04T19:02:30Z</time>
      </trkpt>
      <trkpt lat="45.86475" lon="6.77367">
        <ele>1475.28</ele>
        <time>2019-08-04T19:02:35Z</time>
      </trkpt>
      <trkpt lat="45.86477" lon="6.77361">
        <ele>1474.32</ele>
        <time>2019-08-04T19:02:39Z</time>
      </trkpt>
      <trkpt lat="45.86478" lon="6.7736">
        <ele>1474.32</ele>
        <time>2019-08-04T19:02:40Z</time>
      </trkpt>
      <trkpt lat="45.86477" lon="6.77358">
        <ele>1473.84</ele>
        <time>2019-08-04T19:02:41Z</time>
      </trkpt>
      <trkpt lat="45.8648" lon="6.77353">
        <ele>1473.36</ele>
        <time>2019-08-04T19:02:46Z</time>
      </trkpt>
      <trkpt lat="45.86481" lon="6.77352">
        <ele>1472.88</ele>
        <time>2019-08-04T19:02:47Z</time>
      </trkpt>
      <trkpt lat="45.86482" lon="6.77351">
        <ele>1472.88</ele>
        <time>2019-08-04T19:02:48Z</time>
      </trkpt>
      <trkpt lat="45.86482" lon="6.7735">
        <ele>1472.88</ele>
        <time>2019-08-04T19:02:49Z</time>
      </trkpt>
      <trkpt lat="45.86482" lon="6.77348">
        <ele>1472.88</ele>
        <time>2019-08-04T19:02:50Z</time>
      </trkpt>
      <trkpt lat="45.86482" lon="6.77347">
        <ele>1472.4</ele>
        <time>2019-08-04T19:02:51Z</time>
      </trkpt>
      <trkpt lat="45.86484" lon="6.77343">
        <ele>1471.92</ele>
        <time>2019-08-04T19:02:54Z</time>
      </trkpt>
      <trkpt lat="45.86485" lon="6.77343">
        <ele>1471.92</ele>
        <time>2019-08-04T19:02:55Z</time>
      </trkpt>
      <trkpt lat="45.86486" lon="6.77342">
        <ele>1471.44</ele>
        <time>2019-08-04T19:02:56Z</time>
      </trkpt>
      <trkpt lat="45.86487" lon="6.77341">
        <ele>1471.44</ele>
        <time>2019-08-04T19:02:57Z</time>
      </trkpt>
      <trkpt lat="45.86487" lon="6.7734">
        <ele>1470.95</ele>
        <time>2019-08-04T19:02:58Z</time>
      </trkpt>
      <trkpt lat="45.86488" lon="6.77338">
        <ele>1470.95</ele>
        <time>2019-08-04T19:02:59Z</time>
      </trkpt>
      <trkpt lat="45.86479" lon="6.77339">
        <ele>1468.55</ele>
        <time>2019-08-04T19:03:17Z</time>
      </trkpt>
      <trkpt lat="45.86478" lon="6.77339">
        <ele>1468.55</ele>
        <time>2019-08-04T19:03:18Z</time>
      </trkpt>
      <trkpt lat="45.86469" lon="6.77323">
        <ele>1468.07</ele>
        <time>2019-08-04T19:03:56Z</time>
      </trkpt>
      <trkpt lat="45.86469" lon="6.77323">
        <ele>1468.07</ele>
        <time>2019-08-04T19:03:57Z</time>
      </trkpt>
      <trkpt lat="45.86468" lon="6.77321">
        <ele>1467.59</ele>
        <time>2019-08-04T19:03:58Z</time>
      </trkpt>
      <trkpt lat="45.86468" lon="6.77319">
        <ele>1467.59</ele>
        <time>2019-08-04T19:03:59Z</time>
      </trkpt>
      <trkpt lat="45.86468" lon="6.77317">
        <ele>1467.11</ele>
        <time>2019-08-04T19:04:00Z</time>
      </trkpt>
      <trkpt lat="45.86461" lon="6.773">
        <ele>1466.15</ele>
        <time>2019-08-04T19:04:14Z</time>
      </trkpt>
      <trkpt lat="45.86456" lon="6.77278">
        <ele>1465.67</ele>
        <time>2019-08-04T19:04:30Z</time>
      </trkpt>
      <trkpt lat="45.86455" lon="6.77273">
        <ele>1465.19</ele>
        <time>2019-08-04T19:04:35Z</time>
      </trkpt>
      <trkpt lat="45.86454" lon="6.77271">
        <ele>1465.19</ele>
        <time>2019-08-04T19:04:36Z</time>
      </trkpt>
      <trkpt lat="45.86447" lon="6.77248">
        <ele>1465.67</ele>
        <time>2019-08-04T19:04:50Z</time>
      </trkpt>
      <trkpt lat="45.86443" lon="6.77238">
        <ele>1466.15</ele>
        <time>2019-08-04T19:04:57Z</time>
      </trkpt>
      <trkpt lat="45.86442" lon="6.77237">
        <ele>1466.63</ele>
        <time>2019-08-04T19:04:58Z</time>
      </trkpt>
      <trkpt lat="45.86441" lon="6.77235">
        <ele>1466.63</ele>
        <time>2019-08-04T19:04:59Z</time>
      </trkpt>
      <trkpt lat="45.86441" lon="6.77233">
        <ele>1466.63</ele>
        <time>2019-08-04T19:05:00Z</time>
      </trkpt>
      <trkpt lat="45.8644" lon="6.77232">
        <ele>1466.63</ele>
        <time>2019-08-04T19:05:01Z</time>
      </trkpt>
      <trkpt lat="45.86439" lon="6.77231">
        <ele>1466.63</ele>
        <time>2019-08-04T19:05:02Z</time>
      </trkpt>
      <trkpt lat="45.86438" lon="6.77229">
        <ele>1466.63</ele>
        <time>2019-08-04T19:05:03Z</time>
      </trkpt>
      <trkpt lat="45.86434" lon="6.77224">
        <ele>1466.63</ele>
        <time>2019-08-04T19:05:08Z</time>
      </trkpt>
      <trkpt lat="45.86433" lon="6.77223">
        <ele>1466.63</ele>
        <time>2019-08-04T19:05:09Z</time>
      </trkpt>
      <trkpt lat="45.86433" lon="6.77222">
        <ele>1466.63</ele>
        <time>2019-08-04T19:05:10Z</time>
      </trkpt>
      <trkpt lat="45.86432" lon="6.7722">
        <ele>1466.63</ele>
        <time>2019-08-04T19:05:11Z</time>
      </trkpt>
      <trkpt lat="45.86431" lon="6.77218">
        <ele>1466.63</ele>
        <time>2019-08-04T19:05:12Z</time>
      </trkpt>
      <trkpt lat="45.86431" lon="6.77216">
        <ele>1466.63</ele>
        <time>2019-08-04T19:05:13Z</time>
      </trkpt>
      <trkpt lat="45.8643" lon="6.77214">
        <ele>1466.63</ele>
        <time>2019-08-04T19:05:14Z</time>
      </trkpt>
      <trkpt lat="45.86429" lon="6.77212">
        <ele>1466.15</ele>
        <time>2019-08-04T19:05:17Z</time>
      </trkpt>
      <trkpt lat="45.86428" lon="6.77209">
        <ele>1466.15</ele>
        <time>2019-08-04T19:05:18Z</time>
      </trkpt>
      <trkpt lat="45.86419" lon="6.77192">
        <ele>1465.67</ele>
        <time>2019-08-04T19:05:39Z</time>
      </trkpt>
      <trkpt lat="45.86418" lon="6.77185">
        <ele>1466.63</ele>
        <time>2019-08-04T19:05:48Z</time>
      </trkpt>
      <trkpt lat="45.86414" lon="6.77162">
        <ele>1465.19</ele>
        <time>2019-08-04T19:06:02Z</time>
      </trkpt>
      <trkpt lat="45.86413" lon="6.77159">
        <ele>1464.71</ele>
        <time>2019-08-04T19:06:04Z</time>
      </trkpt>
      <trkpt lat="45.86412" lon="6.77156">
        <ele>1464.23</ele>
        <time>2019-08-04T19:06:07Z</time>
      </trkpt>
      <trkpt lat="45.86412" lon="6.77154">
        <ele>1464.23</ele>
        <time>2019-08-04T19:06:08Z</time>
      </trkpt>
      <trkpt lat="45.86405" lon="6.7713">
        <ele>1464.23</ele>
        <time>2019-08-04T19:06:23Z</time>
      </trkpt>
      <trkpt lat="45.86401" lon="6.77122">
        <ele>1463.74</ele>
        <time>2019-08-04T19:06:27Z</time>
      </trkpt>
      <trkpt lat="45.864" lon="6.77116">
        <ele>1463.26</ele>
        <time>2019-08-04T19:06:30Z</time>
      </trkpt>
      <trkpt lat="45.86399" lon="6.77114">
        <ele>1462.78</ele>
        <time>2019-08-04T19:06:31Z</time>
      </trkpt>
      <trkpt lat="45.86399" lon="6.77112">
        <ele>1462.78</ele>
        <time>2019-08-04T19:06:32Z</time>
      </trkpt>
      <trkpt lat="45.86399" lon="6.7711">
        <ele>1462.78</ele>
        <time>2019-08-04T19:06:33Z</time>
      </trkpt>
      <trkpt lat="45.86398" lon="6.77109">
        <ele>1462.3</ele>
        <time>2019-08-04T19:06:34Z</time>
      </trkpt>
      <trkpt lat="45.8639" lon="6.77089">
        <ele>1461.82</ele>
        <time>2019-08-04T19:06:45Z</time>
      </trkpt>
      <trkpt lat="45.8639" lon="6.77086">
        <ele>1461.82</ele>
        <time>2019-08-04T19:06:46Z</time>
      </trkpt>
      <trkpt lat="45.86389" lon="6.7708">
        <ele>1461.82</ele>
        <time>2019-08-04T19:06:49Z</time>
      </trkpt>
      <trkpt lat="45.86388" lon="6.77079">
        <ele>1461.34</ele>
        <time>2019-08-04T19:06:50Z</time>
      </trkpt>
      <trkpt lat="45.86382" lon="6.77053">
        <ele>1460.38</ele>
        <time>2019-08-04T19:07:04Z</time>
      </trkpt>
      <trkpt lat="45.86382" lon="6.77051">
        <ele>1460.38</ele>
        <time>2019-08-04T19:07:05Z</time>
      </trkpt>
      <trkpt lat="45.86381" lon="6.77049">
        <ele>1460.38</ele>
        <time>2019-08-04T19:07:06Z</time>
      </trkpt>
      <trkpt lat="45.86381" lon="6.77047">
        <ele>1460.38</ele>
        <time>2019-08-04T19:07:07Z</time>
      </trkpt>
      <trkpt lat="45.86382" lon="6.77045">
        <ele>1460.38</ele>
        <time>2019-08-04T19:07:08Z</time>
      </trkpt>
      <trkpt lat="45.86382" lon="6.77042">
        <ele>1460.38</ele>
        <time>2019-08-04T19:07:09Z</time>
      </trkpt>
      <trkpt lat="45.86381" lon="6.7704">
        <ele>1459.9</ele>
        <time>2019-08-04T19:07:10Z</time>
      </trkpt>
      <trkpt lat="45.86381" lon="6.77039">
        <ele>1459.9</ele>
        <time>2019-08-04T19:07:11Z</time>
      </trkpt>
      <trkpt lat="45.8638" lon="6.77036">
        <ele>1459.9</ele>
        <time>2019-08-04T19:07:12Z</time>
      </trkpt>
      <trkpt lat="45.8638" lon="6.77034">
        <ele>1459.9</ele>
        <time>2019-08-04T19:07:13Z</time>
      </trkpt>
      <trkpt lat="45.86378" lon="6.77033">
        <ele>1459.42</ele>
        <time>2019-08-04T19:07:14Z</time>
      </trkpt>
      <trkpt lat="45.86377" lon="6.77031">
        <ele>1459.42</ele>
        <time>2019-08-04T19:07:15Z</time>
      </trkpt>
      <trkpt lat="45.86364" lon="6.77009">
        <ele>1458.46</ele>
        <time>2019-08-04T19:07:27Z</time>
      </trkpt>
      <trkpt lat="45.86361" lon="6.76999">
        <ele>1457.5</ele>
        <time>2019-08-04T19:07:32Z</time>
      </trkpt>
      <trkpt lat="45.86361" lon="6.76997">
        <ele>1457.5</ele>
        <time>2019-08-04T19:07:33Z</time>
      </trkpt>
      <trkpt lat="45.86361" lon="6.76995">
        <ele>1457.5</ele>
        <time>2019-08-04T19:07:34Z</time>
      </trkpt>
      <trkpt lat="45.86361" lon="6.76992">
        <ele>1457.02</ele>
        <time>2019-08-04T19:07:35Z</time>
      </trkpt>
      <trkpt lat="45.8636" lon="6.7699">
        <ele>1457.02</ele>
        <time>2019-08-04T19:07:36Z</time>
      </trkpt>
      <trkpt lat="45.8636" lon="6.76989">
        <ele>1457.02</ele>
        <time>2019-08-04T19:07:37Z</time>
      </trkpt>
      <trkpt lat="45.8636" lon="6.76986">
        <ele>1457.02</ele>
        <time>2019-08-04T19:07:38Z</time>
      </trkpt>
      <trkpt lat="45.8636" lon="6.76984">
        <ele>1457.02</ele>
        <time>2019-08-04T19:07:39Z</time>
      </trkpt>
      <trkpt lat="45.8636" lon="6.76983">
        <ele>1457.02</ele>
        <time>2019-08-04T19:07:40Z</time>
      </trkpt>
      <trkpt lat="45.86359" lon="6.76981">
        <ele>1457.02</ele>
        <time>2019-08-04T19:07:41Z</time>
      </trkpt>
      <trkpt lat="45.86358" lon="6.76979">
        <ele>1457.02</ele>
        <time>2019-08-04T19:07:42Z</time>
      </trkpt>
      <trkpt lat="45.86357" lon="6.76977">
        <ele>1457.02</ele>
        <time>2019-08-04T19:07:43Z</time>
      </trkpt>
      <trkpt lat="45.86356" lon="6.76975">
        <ele>1457.02</ele>
        <time>2019-08-04T19:07:44Z</time>
      </trkpt>
      <trkpt lat="45.86355" lon="6.76973">
        <ele>1456.53</ele>
        <time>2019-08-04T19:07:45Z</time>
      </trkpt>
      <trkpt lat="45.86354" lon="6.76966">
        <ele>1456.53</ele>
        <time>2019-08-04T19:07:48Z</time>
      </trkpt>
      <trkpt lat="45.86355" lon="6.76951">
        <ele>1455.57</ele>
        <time>2019-08-04T19:07:55Z</time>
      </trkpt>
      <trkpt lat="45.86355" lon="6.7695">
        <ele>1455.57</ele>
        <time>2019-08-04T19:07:56Z</time>
      </trkpt>
      <trkpt lat="45.86358" lon="6.76946">
        <ele>1455.09</ele>
        <time>2019-08-04T19:08:05Z</time>
      </trkpt>
      <trkpt lat="45.86361" lon="6.76948">
        <ele>1455.09</ele>
        <time>2019-08-04T19:08:08Z</time>
      </trkpt>
      <trkpt lat="45.86363" lon="6.76948">
        <ele>1454.61</ele>
        <time>2019-08-04T19:08:09Z</time>
      </trkpt>
      <trkpt lat="45.86384" lon="6.76955">
        <ele>1453.17</ele>
        <time>2019-08-04T19:08:22Z</time>
      </trkpt>
      <trkpt lat="45.86406" lon="6.76949">
        <ele>1452.69</ele>
        <time>2019-08-04T19:08:29Z</time>
      </trkpt>
      <trkpt lat="45.86429" lon="6.76943">
        <ele>1452.69</ele>
        <time>2019-08-04T19:08:37Z</time>
      </trkpt>
      <trkpt lat="45.8645" lon="6.76936">
        <ele>1452.21</ele>
        <time>2019-08-04T19:08:45Z</time>
      </trkpt>
      <trkpt lat="45.86469" lon="6.76933">
        <ele>1449.81</ele>
        <time>2019-08-04T19:08:52Z</time>
      </trkpt>
      <trkpt lat="45.86489" lon="6.7693">
        <ele>1447.4</ele>
        <time>2019-08-04T19:08:59Z</time>
      </trkpt>
      <trkpt lat="45.8651" lon="6.76939">
        <ele>1444.52</ele>
        <time>2019-08-04T19:09:06Z</time>
      </trkpt>
      <trkpt lat="45.86512" lon="6.7695">
        <ele>1443.08</ele>
        <time>2019-08-04T19:09:09Z</time>
      </trkpt>
      <trkpt lat="45.86513" lon="6.76954">
        <ele>1442.6</ele>
        <time>2019-08-04T19:09:10Z</time>
      </trkpt>
      <trkpt lat="45.86507" lon="6.76982">
        <ele>1440.19</ele>
        <time>2019-08-04T19:09:18Z</time>
      </trkpt>
      <trkpt lat="45.86496" lon="6.77005">
        <ele>1436.83</ele>
        <time>2019-08-04T19:09:26Z</time>
      </trkpt>
      <trkpt lat="45.86493" lon="6.77032">
        <ele>1433.46</ele>
        <time>2019-08-04T19:09:34Z</time>
      </trkpt>
      <trkpt lat="45.86494" lon="6.77036">
        <ele>1432.5</ele>
        <time>2019-08-04T19:09:36Z</time>
      </trkpt>
      <trkpt lat="45.86509" lon="6.7705">
        <ele>1430.58</ele>
        <time>2019-08-04T19:09:46Z</time>
      </trkpt>
      <trkpt lat="45.86514" lon="6.77048">
        <ele>1430.58</ele>
        <time>2019-08-04T19:09:50Z</time>
      </trkpt>
      <trkpt lat="45.86516" lon="6.77049">
        <ele>1430.58</ele>
        <time>2019-08-04T19:09:51Z</time>
      </trkpt>
      <trkpt lat="45.86517" lon="6.77049">
        <ele>1430.58</ele>
        <time>2019-08-04T19:09:52Z</time>
      </trkpt>
      <trkpt lat="45.86518" lon="6.77047">
        <ele>1431.06</ele>
        <time>2019-08-04T19:09:53Z</time>
      </trkpt>
      <trkpt lat="45.86519" lon="6.77047">
        <ele>1431.06</ele>
        <time>2019-08-04T19:09:54Z</time>
      </trkpt>
      <trkpt lat="45.8652" lon="6.77046">
        <ele>1431.06</ele>
        <time>2019-08-04T19:09:55Z</time>
      </trkpt>
      <trkpt lat="45.86538" lon="6.77037">
        <ele>1432.5</ele>
        <time>2019-08-04T19:10:08Z</time>
      </trkpt>
      <trkpt lat="45.86558" lon="6.7703">
        <ele>1434.42</ele>
        <time>2019-08-04T19:10:20Z</time>
      </trkpt>
      <trkpt lat="45.86575" lon="6.77013">
        <ele>1436.83</ele>
        <time>2019-08-04T19:10:33Z</time>
      </trkpt>
      <trkpt lat="45.86579" lon="6.77008">
        <ele>1436.83</ele>
        <time>2019-08-04T19:10:36Z</time>
      </trkpt>
      <trkpt lat="45.86581" lon="6.77007">
        <ele>1437.31</ele>
        <time>2019-08-04T19:10:37Z</time>
      </trkpt>
      <trkpt lat="45.86582" lon="6.77006">
        <ele>1437.31</ele>
        <time>2019-08-04T19:10:38Z</time>
      </trkpt>
      <trkpt lat="45.86583" lon="6.77004">
        <ele>1437.31</ele>
        <time>2019-08-04T19:10:39Z</time>
      </trkpt>
      <trkpt lat="45.86584" lon="6.77002">
        <ele>1437.79</ele>
        <time>2019-08-04T19:10:40Z</time>
      </trkpt>
      <trkpt lat="45.86586" lon="6.77001">
        <ele>1437.79</ele>
        <time>2019-08-04T19:10:41Z</time>
      </trkpt>
      <trkpt lat="45.86587" lon="6.76999">
        <ele>1438.27</ele>
        <time>2019-08-04T19:10:42Z</time>
      </trkpt>
      <trkpt lat="45.86587" lon="6.76997">
        <ele>1438.27</ele>
        <time>2019-08-04T19:10:43Z</time>
      </trkpt>
      <trkpt lat="45.86588" lon="6.76996">
        <ele>1438.75</ele>
        <time>2019-08-04T19:10:44Z</time>
      </trkpt>
      <trkpt lat="45.86588" lon="6.76994">
        <ele>1438.75</ele>
        <time>2019-08-04T19:10:45Z</time>
      </trkpt>
      <trkpt lat="45.86589" lon="6.76992">
        <ele>1438.75</ele>
        <time>2019-08-04T19:10:47Z</time>
      </trkpt>
      <trkpt lat="45.8659" lon="6.76986">
        <ele>1439.23</ele>
        <time>2019-08-04T19:10:51Z</time>
      </trkpt>
      <trkpt lat="45.86591" lon="6.76985">
        <ele>1439.71</ele>
        <time>2019-08-04T19:10:52Z</time>
      </trkpt>
      <trkpt lat="45.86591" lon="6.76983">
        <ele>1439.71</ele>
        <time>2019-08-04T19:10:53Z</time>
      </trkpt>
      <trkpt lat="45.86592" lon="6.76977">
        <ele>1440.19</ele>
        <time>2019-08-04T19:10:56Z</time>
      </trkpt>
      <trkpt lat="45.86592" lon="6.76975">
        <ele>1440.19</ele>
        <time>2019-08-04T19:10:57Z</time>
      </trkpt>
      <trkpt lat="45.86592" lon="6.76972">
        <ele>1440.19</ele>
        <time>2019-08-04T19:10:58Z</time>
      </trkpt>
      <trkpt lat="45.86592" lon="6.7697">
        <ele>1440.67</ele>
        <time>2019-08-04T19:10:59Z</time>
      </trkpt>
      <trkpt lat="45.86593" lon="6.76967">
        <ele>1440.67</ele>
        <time>2019-08-04T19:11:00Z</time>
      </trkpt>
      <trkpt lat="45.86592" lon="6.76965">
        <ele>1440.67</ele>
        <time>2019-08-04T19:11:01Z</time>
      </trkpt>
      <trkpt lat="45.86594" lon="6.76957">
        <ele>1441.63</ele>
        <time>2019-08-04T19:11:06Z</time>
      </trkpt>
      <trkpt lat="45.86594" lon="6.76955">
        <ele>1441.63</ele>
        <time>2019-08-04T19:11:07Z</time>
      </trkpt>
      <trkpt lat="45.86595" lon="6.76954">
        <ele>1442.11</ele>
        <time>2019-08-04T19:11:08Z</time>
      </trkpt>
      <trkpt lat="45.86595" lon="6.76951">
        <ele>1442.11</ele>
        <time>2019-08-04T19:11:09Z</time>
      </trkpt>
      <trkpt lat="45.86596" lon="6.7695">
        <ele>1442.11</ele>
        <time>2019-08-04T19:11:10Z</time>
      </trkpt>
      <trkpt lat="45.86598" lon="6.76944">
        <ele>1443.08</ele>
        <time>2019-08-04T19:11:17Z</time>
      </trkpt>
      <trkpt lat="45.86599" lon="6.76942">
        <ele>1443.56</ele>
        <time>2019-08-04T19:11:18Z</time>
      </trkpt>
      <trkpt lat="45.86599" lon="6.7694">
        <ele>1443.56</ele>
        <time>2019-08-04T19:11:19Z</time>
      </trkpt>
      <trkpt lat="45.86598" lon="6.76906">
        <ele>1442.6</ele>
        <time>2019-08-04T19:11:33Z</time>
      </trkpt>
      <trkpt lat="45.86596" lon="6.76878">
        <ele>1439.23</ele>
        <time>2019-08-04T19:11:42Z</time>
      </trkpt>
      <trkpt lat="45.86596" lon="6.76838">
        <ele>1437.31</ele>
        <time>2019-08-04T19:11:53Z</time>
      </trkpt>
      <trkpt lat="45.86597" lon="6.76836">
        <ele>1437.79</ele>
        <time>2019-08-04T19:11:54Z</time>
      </trkpt>
      <trkpt lat="45.86597" lon="6.76833">
        <ele>1437.79</ele>
        <time>2019-08-04T19:11:55Z</time>
      </trkpt>
      <trkpt lat="45.86597" lon="6.7683">
        <ele>1437.79</ele>
        <time>2019-08-04T19:11:56Z</time>
      </trkpt>
      <trkpt lat="45.86597" lon="6.76827">
        <ele>1437.31</ele>
        <time>2019-08-04T19:11:57Z</time>
      </trkpt>
      <trkpt lat="45.86596" lon="6.76824">
        <ele>1437.31</ele>
        <time>2019-08-04T19:11:58Z</time>
      </trkpt>
      <trkpt lat="45.86598" lon="6.76797">
        <ele>1437.31</ele>
        <time>2019-08-04T19:12:07Z</time>
      </trkpt>
      <trkpt lat="45.86598" lon="6.76771">
        <ele>1436.83</ele>
        <time>2019-08-04T19:12:15Z</time>
      </trkpt>
      <trkpt lat="45.86599" lon="6.76768">
        <ele>1436.83</ele>
        <time>2019-08-04T19:12:16Z</time>
      </trkpt>
      <trkpt lat="45.866" lon="6.76765">
        <ele>1437.31</ele>
        <time>2019-08-04T19:12:17Z</time>
      </trkpt>
      <trkpt lat="45.86601" lon="6.76762">
        <ele>1437.31</ele>
        <time>2019-08-04T19:12:18Z</time>
      </trkpt>
      <trkpt lat="45.86601" lon="6.7676">
        <ele>1437.31</ele>
        <time>2019-08-04T19:12:19Z</time>
      </trkpt>
      <trkpt lat="45.86602" lon="6.76757">
        <ele>1437.31</ele>
        <time>2019-08-04T19:12:20Z</time>
      </trkpt>
      <trkpt lat="45.86602" lon="6.76753">
        <ele>1437.79</ele>
        <time>2019-08-04T19:12:21Z</time>
      </trkpt>
      <trkpt lat="45.86602" lon="6.76749">
        <ele>1437.79</ele>
        <time>2019-08-04T19:12:22Z</time>
      </trkpt>
      <trkpt lat="45.86606" lon="6.76716">
        <ele>1436.35</ele>
        <time>2019-08-04T19:12:30Z</time>
      </trkpt>
      <trkpt lat="45.86607" lon="6.76686">
        <ele>1435.39</ele>
        <time>2019-08-04T19:12:38Z</time>
      </trkpt>
      <trkpt lat="45.86609" lon="6.76678">
        <ele>1435.39</ele>
        <time>2019-08-04T19:12:49Z</time>
      </trkpt>
      <trkpt lat="45.86628" lon="6.76665">
        <ele>1436.35</ele>
        <time>2019-08-04T19:13:02Z</time>
      </trkpt>
      <trkpt lat="45.86634" lon="6.76651">
        <ele>1437.79</ele>
        <time>2019-08-04T19:13:09Z</time>
      </trkpt>
      <trkpt lat="45.86634" lon="6.76649">
        <ele>1437.79</ele>
        <time>2019-08-04T19:13:10Z</time>
      </trkpt>
      <trkpt lat="45.86634" lon="6.76646">
        <ele>1437.79</ele>
        <time>2019-08-04T19:13:11Z</time>
      </trkpt>
      <trkpt lat="45.86633" lon="6.76643">
        <ele>1437.31</ele>
        <time>2019-08-04T19:13:12Z</time>
      </trkpt>
      <trkpt lat="45.86634" lon="6.7664">
        <ele>1437.31</ele>
        <time>2019-08-04T19:13:13Z</time>
      </trkpt>
      <trkpt lat="45.86633" lon="6.76637">
        <ele>1436.83</ele>
        <time>2019-08-04T19:13:14Z</time>
      </trkpt>
      <trkpt lat="45.86633" lon="6.76633">
        <ele>1436.35</ele>
        <time>2019-08-04T19:13:15Z</time>
      </trkpt>
      <trkpt lat="45.86633" lon="6.76629">
        <ele>1435.87</ele>
        <time>2019-08-04T19:13:16Z</time>
      </trkpt>
      <trkpt lat="45.86639" lon="6.766">
        <ele>1433.94</ele>
        <time>2019-08-04T19:13:24Z</time>
      </trkpt>
      <trkpt lat="45.86644" lon="6.76571">
        <ele>1434.42</ele>
        <time>2019-08-04T19:13:34Z</time>
      </trkpt>
      <trkpt lat="45.86653" lon="6.76544">
        <ele>1434.42</ele>
        <time>2019-08-04T19:13:46Z</time>
      </trkpt>
      <trkpt lat="45.8666" lon="6.76527">
        <ele>1436.35</ele>
        <time>2019-08-04T19:13:55Z</time>
      </trkpt>
      <trkpt lat="45.86661" lon="6.76525">
        <ele>1436.83</ele>
        <time>2019-08-04T19:13:56Z</time>
      </trkpt>
      <trkpt lat="45.86661" lon="6.76522">
        <ele>1437.31</ele>
        <time>2019-08-04T19:13:57Z</time>
      </trkpt>
      <trkpt lat="45.86664" lon="6.76515">
        <ele>1438.27</ele>
        <time>2019-08-04T19:14:01Z</time>
      </trkpt>
      <trkpt lat="45.86665" lon="6.76512">
        <ele>1438.75</ele>
        <time>2019-08-04T19:14:02Z</time>
      </trkpt>
      <trkpt lat="45.86666" lon="6.7651">
        <ele>1438.75</ele>
        <time>2019-08-04T19:14:03Z</time>
      </trkpt>
      <trkpt lat="45.86667" lon="6.76508">
        <ele>1439.23</ele>
        <time>2019-08-04T19:14:04Z</time>
      </trkpt>
      <trkpt lat="45.86668" lon="6.76505">
        <ele>1439.23</ele>
        <time>2019-08-04T19:14:05Z</time>
      </trkpt>
      <trkpt lat="45.86669" lon="6.76502">
        <ele>1439.23</ele>
        <time>2019-08-04T19:14:06Z</time>
      </trkpt>
      <trkpt lat="45.8667" lon="6.76499">
        <ele>1439.23</ele>
        <time>2019-08-04T19:14:07Z</time>
      </trkpt>
      <trkpt lat="45.86671" lon="6.76497">
        <ele>1439.23</ele>
        <time>2019-08-04T19:14:08Z</time>
      </trkpt>
      <trkpt lat="45.86674" lon="6.76479">
        <ele>1439.23</ele>
        <time>2019-08-04T19:14:18Z</time>
      </trkpt>
      <trkpt lat="45.86673" lon="6.76477">
        <ele>1439.23</ele>
        <time>2019-08-04T19:14:19Z</time>
      </trkpt>
      <trkpt lat="45.86674" lon="6.76475">
        <ele>1439.23</ele>
        <time>2019-08-04T19:14:20Z</time>
      </trkpt>
      <trkpt lat="45.86674" lon="6.76474">
        <ele>1439.23</ele>
        <time>2019-08-04T19:14:21Z</time>
      </trkpt>
      <trkpt lat="45.86675" lon="6.76472">
        <ele>1439.23</ele>
        <time>2019-08-04T19:14:22Z</time>
      </trkpt>
      <trkpt lat="45.86676" lon="6.7647">
        <ele>1439.23</ele>
        <time>2019-08-04T19:14:23Z</time>
      </trkpt>
      <trkpt lat="45.86677" lon="6.76469">
        <ele>1439.23</ele>
        <time>2019-08-04T19:14:24Z</time>
      </trkpt>
      <trkpt lat="45.86678" lon="6.7647">
        <ele>1439.23</ele>
        <time>2019-08-04T19:14:25Z</time>
      </trkpt>
      <trkpt lat="45.86679" lon="6.76469">
        <ele>1438.75</ele>
        <time>2019-08-04T19:14:26Z</time>
      </trkpt>
      <trkpt lat="45.8668" lon="6.76467">
        <ele>1438.75</ele>
        <time>2019-08-04T19:14:27Z</time>
      </trkpt>
      <trkpt lat="45.86681" lon="6.76466">
        <ele>1438.75</ele>
        <time>2019-08-04T19:14:28Z</time>
      </trkpt>
      <trkpt lat="45.86682" lon="6.76465">
        <ele>1438.27</ele>
        <time>2019-08-04T19:14:29Z</time>
      </trkpt>
      <trkpt lat="45.86684" lon="6.76463">
        <ele>1438.27</ele>
        <time>2019-08-04T19:14:30Z</time>
      </trkpt>
      <trkpt lat="45.86684" lon="6.76461">
        <ele>1438.27</ele>
        <time>2019-08-04T19:14:31Z</time>
      </trkpt>
      <trkpt lat="45.86684" lon="6.76459">
        <ele>1438.27</ele>
        <time>2019-08-04T19:14:32Z</time>
      </trkpt>
      <trkpt lat="45.86686" lon="6.76457">
        <ele>1437.79</ele>
        <time>2019-08-04T19:14:33Z</time>
      </trkpt>
      <trkpt lat="45.86686" lon="6.76455">
        <ele>1437.79</ele>
        <time>2019-08-04T19:14:34Z</time>
      </trkpt>
      <trkpt lat="45.86687" lon="6.76453">
        <ele>1437.79</ele>
        <time>2019-08-04T19:14:35Z</time>
      </trkpt>
      <trkpt lat="45.86688" lon="6.76452">
        <ele>1437.79</ele>
        <time>2019-08-04T19:14:36Z</time>
      </trkpt>
      <trkpt lat="45.86689" lon="6.76449">
        <ele>1437.31</ele>
        <time>2019-08-04T19:14:37Z</time>
      </trkpt>
      <trkpt lat="45.86689" lon="6.76446">
        <ele>1437.31</ele>
        <time>2019-08-04T19:14:38Z</time>
      </trkpt>
      <trkpt lat="45.86696" lon="6.76423">
        <ele>1436.35</ele>
        <time>2019-08-04T19:14:47Z</time>
      </trkpt>
      <trkpt lat="45.86696" lon="6.7642">
        <ele>1436.35</ele>
        <time>2019-08-04T19:14:48Z</time>
      </trkpt>
      <trkpt lat="45.86695" lon="6.76416">
        <ele>1436.35</ele>
        <time>2019-08-04T19:14:49Z</time>
      </trkpt>
      <trkpt lat="45.86695" lon="6.76413">
        <ele>1436.35</ele>
        <time>2019-08-04T19:14:50Z</time>
      </trkpt>
      <trkpt lat="45.86694" lon="6.7641">
        <ele>1436.35</ele>
        <time>2019-08-04T19:14:51Z</time>
      </trkpt>
      <trkpt lat="45.86694" lon="6.76407">
        <ele>1436.35</ele>
        <time>2019-08-04T19:14:52Z</time>
      </trkpt>
      <trkpt lat="45.86696" lon="6.76378">
        <ele>1437.79</ele>
        <time>2019-08-04T19:15:03Z</time>
      </trkpt>
      <trkpt lat="45.86695" lon="6.76375">
        <ele>1437.79</ele>
        <time>2019-08-04T19:15:04Z</time>
      </trkpt>
      <trkpt lat="45.86695" lon="6.76372">
        <ele>1438.27</ele>
        <time>2019-08-04T19:15:05Z</time>
      </trkpt>
      <trkpt lat="45.86696" lon="6.76369">
        <ele>1438.27</ele>
        <time>2019-08-04T19:15:06Z</time>
      </trkpt>
      <trkpt lat="45.86696" lon="6.76366">
        <ele>1438.75</ele>
        <time>2019-08-04T19:15:07Z</time>
      </trkpt>
      <trkpt lat="45.86696" lon="6.76364">
        <ele>1438.75</ele>
        <time>2019-08-04T19:15:08Z</time>
      </trkpt>
      <trkpt lat="45.86698" lon="6.7635">
        <ele>1440.19</ele>
        <time>2019-08-04T19:15:16Z</time>
      </trkpt>
      <trkpt lat="45.86698" lon="6.76349">
        <ele>1440.19</ele>
        <time>2019-08-04T19:15:17Z</time>
      </trkpt>
      <trkpt lat="45.86698" lon="6.76347">
        <ele>1439.71</ele>
        <time>2019-08-04T19:15:18Z</time>
      </trkpt>
      <trkpt lat="45.86698" lon="6.76345">
        <ele>1439.71</ele>
        <time>2019-08-04T19:15:19Z</time>
      </trkpt>
      <trkpt lat="45.86696" lon="6.76309">
        <ele>1437.31</ele>
        <time>2019-08-04T19:15:37Z</time>
      </trkpt>
      <trkpt lat="45.86696" lon="6.76307">
        <ele>1436.83</ele>
        <time>2019-08-04T19:15:38Z</time>
      </trkpt>
      <trkpt lat="45.86696" lon="6.76306">
        <ele>1436.83</ele>
        <time>2019-08-04T19:15:39Z</time>
      </trkpt>
      <trkpt lat="45.86697" lon="6.7629">
        <ele>1436.35</ele>
        <time>2019-08-04T19:15:46Z</time>
      </trkpt>
      <trkpt lat="45.86699" lon="6.76289">
        <ele>1436.35</ele>
        <time>2019-08-04T19:15:47Z</time>
      </trkpt>
      <trkpt lat="45.86701" lon="6.76288">
        <ele>1436.35</ele>
        <time>2019-08-04T19:15:48Z</time>
      </trkpt>
      <trkpt lat="45.86703" lon="6.76288">
        <ele>1436.35</ele>
        <time>2019-08-04T19:15:49Z</time>
      </trkpt>
      <trkpt lat="45.86704" lon="6.76287">
        <ele>1435.87</ele>
        <time>2019-08-04T19:15:50Z</time>
      </trkpt>
      <trkpt lat="45.8672" lon="6.76279">
        <ele>1436.35</ele>
        <time>2019-08-04T19:16:01Z</time>
      </trkpt>
      <trkpt lat="45.86721" lon="6.76278">
        <ele>1435.87</ele>
        <time>2019-08-04T19:16:02Z</time>
      </trkpt>
      <trkpt lat="45.86722" lon="6.76275">
        <ele>1435.87</ele>
        <time>2019-08-04T19:16:03Z</time>
      </trkpt>
      <trkpt lat="45.86723" lon="6.76273">
        <ele>1435.87</ele>
        <time>2019-08-04T19:16:04Z</time>
      </trkpt>
      <trkpt lat="45.86724" lon="6.76272">
        <ele>1435.39</ele>
        <time>2019-08-04T19:16:05Z</time>
      </trkpt>
      <trkpt lat="45.86725" lon="6.7627">
        <ele>1435.39</ele>
        <time>2019-08-04T19:16:06Z</time>
      </trkpt>
      <trkpt lat="45.86726" lon="6.76268">
        <ele>1435.39</ele>
        <time>2019-08-04T19:16:07Z</time>
      </trkpt>
      <trkpt lat="45.86726" lon="6.76267">
        <ele>1435.39</ele>
        <time>2019-08-04T19:16:08Z</time>
      </trkpt>
      <trkpt lat="45.86727" lon="6.76265">
        <ele>1434.91</ele>
        <time>2019-08-04T19:16:09Z</time>
      </trkpt>
      <trkpt lat="45.86727" lon="6.76263">
        <ele>1434.91</ele>
        <time>2019-08-04T19:16:10Z</time>
      </trkpt>
      <trkpt lat="45.86728" lon="6.7626">
        <ele>1434.42</ele>
        <time>2019-08-04T19:16:11Z</time>
      </trkpt>
      <trkpt lat="45.86728" lon="6.76257">
        <ele>1434.42</ele>
        <time>2019-08-04T19:16:12Z</time>
      </trkpt>
      <trkpt lat="45.86728" lon="6.76254">
        <ele>1433.94</ele>
        <time>2019-08-04T19:16:13Z</time>
      </trkpt>
      <trkpt lat="45.86728" lon="6.7625">
        <ele>1433.46</ele>
        <time>2019-08-04T19:16:14Z</time>
      </trkpt>
      <trkpt lat="45.86728" lon="6.76247">
        <ele>1433.46</ele>
        <time>2019-08-04T19:16:15Z</time>
      </trkpt>
      <trkpt lat="45.86733" lon="6.7622">
        <ele>1432.98</ele>
        <time>2019-08-04T19:16:23Z</time>
      </trkpt>
      <trkpt lat="45.86739" lon="6.76194">
        <ele>1431.54</ele>
        <time>2019-08-04T19:16:31Z</time>
      </trkpt>
      <trkpt lat="45.86739" lon="6.76188">
        <ele>1431.54</ele>
        <time>2019-08-04T19:16:33Z</time>
      </trkpt>
      <trkpt lat="45.86739" lon="6.76184">
        <ele>1431.54</ele>
        <time>2019-08-04T19:16:34Z</time>
      </trkpt>
      <trkpt lat="45.86738" lon="6.76154">
        <ele>1432.02</ele>
        <time>2019-08-04T19:16:42Z</time>
      </trkpt>
      <trkpt lat="45.8673" lon="6.76128">
        <ele>1431.54</ele>
        <time>2019-08-04T19:16:49Z</time>
      </trkpt>
      <trkpt lat="45.86727" lon="6.76097">
        <ele>1430.58</ele>
        <time>2019-08-04T19:16:58Z</time>
      </trkpt>
      <trkpt lat="45.86726" lon="6.76068">
        <ele>1429.62</ele>
        <time>2019-08-04T19:17:06Z</time>
      </trkpt>
      <trkpt lat="45.86722" lon="6.76052">
        <ele>1429.14</ele>
        <time>2019-08-04T19:17:11Z</time>
      </trkpt>
      <trkpt lat="45.86724" lon="6.7605">
        <ele>1429.14</ele>
        <time>2019-08-04T19:17:12Z</time>
      </trkpt>
      <trkpt lat="45.86726" lon="6.76048">
        <ele>1428.66</ele>
        <time>2019-08-04T19:17:13Z</time>
      </trkpt>
      <trkpt lat="45.86743" lon="6.76035">
        <ele>1429.14</ele>
        <time>2019-08-04T19:17:24Z</time>
      </trkpt>
      <trkpt lat="45.86748" lon="6.76031">
        <ele>1428.66</ele>
        <time>2019-08-04T19:17:27Z</time>
      </trkpt>
      <trkpt lat="45.86767" lon="6.76023">
        <ele>1428.66</ele>
        <time>2019-08-04T19:17:36Z</time>
      </trkpt>
      <trkpt lat="45.86787" lon="6.76023">
        <ele>1429.62</ele>
        <time>2019-08-04T19:17:46Z</time>
      </trkpt>
      <trkpt lat="45.86805" lon="6.76038">
        <ele>1430.58</ele>
        <time>2019-08-04T19:17:56Z</time>
      </trkpt>
      <trkpt lat="45.86821" lon="6.76056">
        <ele>1432.98</ele>
        <time>2019-08-04T19:18:08Z</time>
      </trkpt>
      <trkpt lat="45.86822" lon="6.76063">
        <ele>1433.46</ele>
        <time>2019-08-04T19:18:11Z</time>
      </trkpt>
      <trkpt lat="45.86822" lon="6.76071">
        <ele>1433.94</ele>
        <time>2019-08-04T19:18:14Z</time>
      </trkpt>
      <trkpt lat="45.86823" lon="6.76073">
        <ele>1434.42</ele>
        <time>2019-08-04T19:18:15Z</time>
      </trkpt>
      <trkpt lat="45.86823" lon="6.76076">
        <ele>1434.42</ele>
        <time>2019-08-04T19:18:16Z</time>
      </trkpt>
      <trkpt lat="45.86822" lon="6.76079">
        <ele>1434.42</ele>
        <time>2019-08-04T19:18:17Z</time>
      </trkpt>
      <trkpt lat="45.86822" lon="6.76082">
        <ele>1434.42</ele>
        <time>2019-08-04T19:18:18Z</time>
      </trkpt>
      <trkpt lat="45.86822" lon="6.76085">
        <ele>1434.91</ele>
        <time>2019-08-04T19:18:19Z</time>
      </trkpt>
      <trkpt lat="45.86824" lon="6.76098">
        <ele>1436.35</ele>
        <time>2019-08-04T19:18:26Z</time>
      </trkpt>
      <trkpt lat="45.86825" lon="6.761">
        <ele>1436.83</ele>
        <time>2019-08-04T19:18:27Z</time>
      </trkpt>
      <trkpt lat="45.86827" lon="6.76105">
        <ele>1436.35</ele>
        <time>2019-08-04T19:18:30Z</time>
      </trkpt>
      <trkpt lat="45.86828" lon="6.76107">
        <ele>1436.35</ele>
        <time>2019-08-04T19:18:31Z</time>
      </trkpt>
      <trkpt lat="45.86829" lon="6.76108">
        <ele>1436.35</ele>
        <time>2019-08-04T19:18:32Z</time>
      </trkpt>
      <trkpt lat="45.86829" lon="6.7611">
        <ele>1436.83</ele>
        <time>2019-08-04T19:18:33Z</time>
      </trkpt>
      <trkpt lat="45.86829" lon="6.76111">
        <ele>1436.83</ele>
        <time>2019-08-04T19:18:34Z</time>
      </trkpt>
      <trkpt lat="45.86829" lon="6.76113">
        <ele>1436.83</ele>
        <time>2019-08-04T19:18:35Z</time>
      </trkpt>
      <trkpt lat="45.86828" lon="6.76115">
        <ele>1436.83</ele>
        <time>2019-08-04T19:18:36Z</time>
      </trkpt>
      <trkpt lat="45.86828" lon="6.76116">
        <ele>1436.83</ele>
        <time>2019-08-04T19:18:37Z</time>
      </trkpt>
      <trkpt lat="45.86828" lon="6.76118">
        <ele>1436.83</ele>
        <time>2019-08-04T19:18:38Z</time>
      </trkpt>
      <trkpt lat="45.86828" lon="6.7612">
        <ele>1437.31</ele>
        <time>2019-08-04T19:18:39Z</time>
      </trkpt>
      <trkpt lat="45.86828" lon="6.76121">
        <ele>1437.31</ele>
        <time>2019-08-04T19:18:40Z</time>
      </trkpt>
      <trkpt lat="45.86828" lon="6.76123">
        <ele>1437.31</ele>
        <time>2019-08-04T19:18:41Z</time>
      </trkpt>
      <trkpt lat="45.86828" lon="6.76125">
        <ele>1437.79</ele>
        <time>2019-08-04T19:18:43Z</time>
      </trkpt>
      <trkpt lat="45.8683" lon="6.76128">
        <ele>1437.31</ele>
        <time>2019-08-04T19:18:53Z</time>
      </trkpt>
    </trkseg>
  </trk>
</gpx>